<?xml version="1.0" encoding="UTF-8" standalone="no" ?>
<gpx xmlns="http://www.topografix.com/GPX/1/1" xmlns:xsi="http://www.w3.org/2001/XMLSchema-instance" xsi:schemaLocation="http://www.topografix.com/GPX/1/1 http://www.topografix.com/GPX/1/1/gpx.xsd" version="1.1" creator="VisuGPX - https://www.visugpx.com">
  <metadata>
    <name>2013 - 04 - Séverac le Chateau - Rallye équestre Régional - 2</name>
    <desc><![CDATA[Rallye CRTE 2013 Séverac le chateau
La boucle permet d'accéder à un point de vue sur le viaduc de Millau
21 avril 2013]]></desc>
  </metadata>
  <trk>
    <name><![CDATA[21 avr. 2013 09:10:27]]></name>
    <cmt><![CDATA[21 avr. 2013 09:10:27]]></cmt>
    <trkseg>
      <trkpt lat="44.33895" lon="2.97365">
        <ele>639</ele>
        <time>2013-04-21T07:10:28Z</time>
      </trkpt>
      <trkpt lat="44.33885" lon="2.97356">
        <ele>639</ele>
        <time>2013-04-21T07:10:33Z</time>
      </trkpt>
      <trkpt lat="44.33875" lon="2.97352">
        <ele>645</ele>
        <time>2013-04-21T07:10:38Z</time>
      </trkpt>
      <trkpt lat="44.33869" lon="2.97346">
        <ele>648</ele>
        <time>2013-04-21T07:10:55Z</time>
      </trkpt>
      <trkpt lat="44.33861" lon="2.97339">
        <ele>649</ele>
        <time>2013-04-21T07:10:58Z</time>
      </trkpt>
      <trkpt lat="44.33853" lon="2.97331">
        <ele>649</ele>
        <time>2013-04-21T07:11:09Z</time>
      </trkpt>
      <trkpt lat="44.3385" lon="2.97327">
        <ele>649</ele>
        <time>2013-04-21T07:11:15Z</time>
      </trkpt>
      <trkpt lat="44.33846" lon="2.97323">
        <ele>649</ele>
        <time>2013-04-21T07:11:20Z</time>
      </trkpt>
      <trkpt lat="44.33842" lon="2.97318">
        <ele>649</ele>
        <time>2013-04-21T07:11:30Z</time>
      </trkpt>
      <trkpt lat="44.33841" lon="2.97315">
        <ele>651</ele>
        <time>2013-04-21T07:12:43Z</time>
      </trkpt>
      <trkpt lat="44.33844" lon="2.9731">
        <ele>651</ele>
        <time>2013-04-21T07:13:11Z</time>
      </trkpt>
      <trkpt lat="44.33847" lon="2.97304">
        <ele>650</ele>
        <time>2013-04-21T07:13:15Z</time>
      </trkpt>
      <trkpt lat="44.33844" lon="2.97297">
        <ele>648</ele>
        <time>2013-04-21T07:13:23Z</time>
      </trkpt>
      <trkpt lat="44.33838" lon="2.97297">
        <ele>646</ele>
        <time>2013-04-21T07:13:27Z</time>
      </trkpt>
      <trkpt lat="44.33833" lon="2.97297">
        <ele>645</ele>
        <time>2013-04-21T07:13:33Z</time>
      </trkpt>
      <trkpt lat="44.3383" lon="2.97295">
        <ele>643</ele>
        <time>2013-04-21T07:13:42Z</time>
      </trkpt>
      <trkpt lat="44.3383" lon="2.97291">
        <ele>644</ele>
        <time>2013-04-21T07:14:27Z</time>
      </trkpt>
      <trkpt lat="44.33823" lon="2.97294">
        <ele>644</ele>
        <time>2013-04-21T07:14:45Z</time>
      </trkpt>
      <trkpt lat="44.33818" lon="2.97289">
        <ele>643</ele>
        <time>2013-04-21T07:14:50Z</time>
      </trkpt>
      <trkpt lat="44.33816" lon="2.97283">
        <ele>643</ele>
        <time>2013-04-21T07:14:54Z</time>
      </trkpt>
      <trkpt lat="44.33815" lon="2.97276">
        <ele>644</ele>
        <time>2013-04-21T07:14:58Z</time>
      </trkpt>
      <trkpt lat="44.33814" lon="2.97269">
        <ele>645</ele>
        <time>2013-04-21T07:15:01Z</time>
      </trkpt>
      <trkpt lat="44.33813" lon="2.97263">
        <ele>645</ele>
        <time>2013-04-21T07:15:04Z</time>
      </trkpt>
      <trkpt lat="44.33811" lon="2.97255">
        <ele>644</ele>
        <time>2013-04-21T07:15:08Z</time>
      </trkpt>
      <trkpt lat="44.33807" lon="2.97253">
        <ele>641</ele>
        <time>2013-04-21T07:15:13Z</time>
      </trkpt>
      <trkpt lat="44.33802" lon="2.97254">
        <ele>640</ele>
        <time>2013-04-21T07:15:17Z</time>
      </trkpt>
      <trkpt lat="44.33795" lon="2.97256">
        <ele>639</ele>
        <time>2013-04-21T07:15:23Z</time>
      </trkpt>
      <trkpt lat="44.33789" lon="2.97256">
        <ele>638</ele>
        <time>2013-04-21T07:15:28Z</time>
      </trkpt>
      <trkpt lat="44.33783" lon="2.97256">
        <ele>638</ele>
        <time>2013-04-21T07:15:34Z</time>
      </trkpt>
      <trkpt lat="44.33778" lon="2.97257">
        <ele>639</ele>
        <time>2013-04-21T07:15:38Z</time>
      </trkpt>
      <trkpt lat="44.33773" lon="2.97256">
        <ele>639</ele>
        <time>2013-04-21T07:15:42Z</time>
      </trkpt>
      <trkpt lat="44.33768" lon="2.97253">
        <ele>638</ele>
        <time>2013-04-21T07:15:47Z</time>
      </trkpt>
      <trkpt lat="44.33762" lon="2.97251">
        <ele>637</ele>
        <time>2013-04-21T07:15:52Z</time>
      </trkpt>
      <trkpt lat="44.33757" lon="2.97247">
        <ele>636</ele>
        <time>2013-04-21T07:15:56Z</time>
      </trkpt>
      <trkpt lat="44.33753" lon="2.97242">
        <ele>636</ele>
        <time>2013-04-21T07:16:01Z</time>
      </trkpt>
      <trkpt lat="44.33749" lon="2.97238">
        <ele>635</ele>
        <time>2013-04-21T07:16:05Z</time>
      </trkpt>
      <trkpt lat="44.33746" lon="2.97233">
        <ele>636</ele>
        <time>2013-04-21T07:16:10Z</time>
      </trkpt>
      <trkpt lat="44.33742" lon="2.97228">
        <ele>637</ele>
        <time>2013-04-21T07:16:14Z</time>
      </trkpt>
      <trkpt lat="44.33739" lon="2.97224">
        <ele>637</ele>
        <time>2013-04-21T07:16:19Z</time>
      </trkpt>
      <trkpt lat="44.33733" lon="2.97215">
        <ele>638</ele>
        <time>2013-04-21T07:16:26Z</time>
      </trkpt>
      <trkpt lat="44.3373" lon="2.97209">
        <ele>637</ele>
        <time>2013-04-21T07:16:29Z</time>
      </trkpt>
      <trkpt lat="44.3373" lon="2.97208">
        <ele>636</ele>
        <time>2013-04-21T07:17:28Z</time>
      </trkpt>
      <trkpt lat="44.33728" lon="2.97201">
        <ele>635</ele>
        <time>2013-04-21T07:17:43Z</time>
      </trkpt>
      <trkpt lat="44.33723" lon="2.97199">
        <ele>631</ele>
        <time>2013-04-21T07:18:12Z</time>
      </trkpt>
      <trkpt lat="44.33722" lon="2.97194">
        <ele>634</ele>
        <time>2013-04-21T07:19:03Z</time>
      </trkpt>
      <trkpt lat="44.33718" lon="2.97188">
        <ele>636</ele>
        <time>2013-04-21T07:19:30Z</time>
      </trkpt>
      <trkpt lat="44.33717" lon="2.97182">
        <ele>635</ele>
        <time>2013-04-21T07:19:36Z</time>
      </trkpt>
      <trkpt lat="44.33714" lon="2.97174">
        <ele>632</ele>
        <time>2013-04-21T07:19:42Z</time>
      </trkpt>
      <trkpt lat="44.33709" lon="2.97163">
        <ele>631</ele>
        <time>2013-04-21T07:19:49Z</time>
      </trkpt>
      <trkpt lat="44.33703" lon="2.97157">
        <ele>631</ele>
        <time>2013-04-21T07:19:54Z</time>
      </trkpt>
      <trkpt lat="44.33698" lon="2.97152">
        <ele>631</ele>
        <time>2013-04-21T07:19:57Z</time>
      </trkpt>
      <trkpt lat="44.33695" lon="2.97147">
        <ele>632</ele>
        <time>2013-04-21T07:20:00Z</time>
      </trkpt>
      <trkpt lat="44.33692" lon="2.97141">
        <ele>633</ele>
        <time>2013-04-21T07:20:03Z</time>
      </trkpt>
      <trkpt lat="44.33689" lon="2.97134">
        <ele>635</ele>
        <time>2013-04-21T07:20:07Z</time>
      </trkpt>
      <trkpt lat="44.33686" lon="2.97128">
        <ele>635</ele>
        <time>2013-04-21T07:20:10Z</time>
      </trkpt>
      <trkpt lat="44.33682" lon="2.97123">
        <ele>636</ele>
        <time>2013-04-21T07:20:13Z</time>
      </trkpt>
      <trkpt lat="44.3368" lon="2.97117">
        <ele>636</ele>
        <time>2013-04-21T07:20:16Z</time>
      </trkpt>
      <trkpt lat="44.33675" lon="2.97106">
        <ele>636</ele>
        <time>2013-04-21T07:20:22Z</time>
      </trkpt>
      <trkpt lat="44.33667" lon="2.97098">
        <ele>635</ele>
        <time>2013-04-21T07:20:28Z</time>
      </trkpt>
      <trkpt lat="44.33658" lon="2.97092">
        <ele>636</ele>
        <time>2013-04-21T07:20:34Z</time>
      </trkpt>
      <trkpt lat="44.33649" lon="2.97088">
        <ele>635</ele>
        <time>2013-04-21T07:20:39Z</time>
      </trkpt>
      <trkpt lat="44.33643" lon="2.97086">
        <ele>636</ele>
        <time>2013-04-21T07:20:42Z</time>
      </trkpt>
      <trkpt lat="44.33638" lon="2.97085">
        <ele>637</ele>
        <time>2013-04-21T07:20:45Z</time>
      </trkpt>
      <trkpt lat="44.33632" lon="2.97085">
        <ele>638</ele>
        <time>2013-04-21T07:20:49Z</time>
      </trkpt>
      <trkpt lat="44.33627" lon="2.97084">
        <ele>639</ele>
        <time>2013-04-21T07:20:52Z</time>
      </trkpt>
      <trkpt lat="44.33622" lon="2.97082">
        <ele>640</ele>
        <time>2013-04-21T07:20:55Z</time>
      </trkpt>
      <trkpt lat="44.33617" lon="2.97081">
        <ele>640</ele>
        <time>2013-04-21T07:20:58Z</time>
      </trkpt>
      <trkpt lat="44.33611" lon="2.97079">
        <ele>641</ele>
        <time>2013-04-21T07:21:02Z</time>
      </trkpt>
      <trkpt lat="44.33606" lon="2.97077">
        <ele>641</ele>
        <time>2013-04-21T07:21:05Z</time>
      </trkpt>
      <trkpt lat="44.33601" lon="2.97074">
        <ele>641</ele>
        <time>2013-04-21T07:21:08Z</time>
      </trkpt>
      <trkpt lat="44.33596" lon="2.97071">
        <ele>641</ele>
        <time>2013-04-21T07:21:11Z</time>
      </trkpt>
      <trkpt lat="44.33589" lon="2.97067">
        <ele>641</ele>
        <time>2013-04-21T07:21:16Z</time>
      </trkpt>
      <trkpt lat="44.33589" lon="2.9706">
        <ele>642</ele>
        <time>2013-04-21T07:21:20Z</time>
      </trkpt>
      <trkpt lat="44.3359" lon="2.97053">
        <ele>642</ele>
        <time>2013-04-21T07:21:23Z</time>
      </trkpt>
      <trkpt lat="44.33592" lon="2.97046">
        <ele>642</ele>
        <time>2013-04-21T07:21:26Z</time>
      </trkpt>
      <trkpt lat="44.33594" lon="2.97039">
        <ele>643</ele>
        <time>2013-04-21T07:21:29Z</time>
      </trkpt>
      <trkpt lat="44.33595" lon="2.97033">
        <ele>644</ele>
        <time>2013-04-21T07:21:32Z</time>
      </trkpt>
      <trkpt lat="44.33596" lon="2.97026">
        <ele>645</ele>
        <time>2013-04-21T07:21:35Z</time>
      </trkpt>
      <trkpt lat="44.33597" lon="2.97017">
        <ele>646</ele>
        <time>2013-04-21T07:21:39Z</time>
      </trkpt>
      <trkpt lat="44.33598" lon="2.9701">
        <ele>647</ele>
        <time>2013-04-21T07:21:43Z</time>
      </trkpt>
      <trkpt lat="44.33595" lon="2.97003">
        <ele>647</ele>
        <time>2013-04-21T07:21:47Z</time>
      </trkpt>
      <trkpt lat="44.3359" lon="2.97001">
        <ele>647</ele>
        <time>2013-04-21T07:21:50Z</time>
      </trkpt>
      <trkpt lat="44.33585" lon="2.96997">
        <ele>647</ele>
        <time>2013-04-21T07:21:54Z</time>
      </trkpt>
      <trkpt lat="44.3358" lon="2.96995">
        <ele>646</ele>
        <time>2013-04-21T07:21:57Z</time>
      </trkpt>
      <trkpt lat="44.33576" lon="2.96993">
        <ele>646</ele>
        <time>2013-04-21T07:22:01Z</time>
      </trkpt>
      <trkpt lat="44.3357" lon="2.96992">
        <ele>645</ele>
        <time>2013-04-21T07:22:05Z</time>
      </trkpt>
      <trkpt lat="44.33564" lon="2.96993">
        <ele>644</ele>
        <time>2013-04-21T07:22:08Z</time>
      </trkpt>
      <trkpt lat="44.33558" lon="2.96991">
        <ele>643</ele>
        <time>2013-04-21T07:22:11Z</time>
      </trkpt>
      <trkpt lat="44.33551" lon="2.96986">
        <ele>642</ele>
        <time>2013-04-21T07:22:15Z</time>
      </trkpt>
      <trkpt lat="44.33547" lon="2.96982">
        <ele>643</ele>
        <time>2013-04-21T07:22:18Z</time>
      </trkpt>
      <trkpt lat="44.33543" lon="2.96978">
        <ele>644</ele>
        <time>2013-04-21T07:22:21Z</time>
      </trkpt>
      <trkpt lat="44.33538" lon="2.96974">
        <ele>645</ele>
        <time>2013-04-21T07:22:24Z</time>
      </trkpt>
      <trkpt lat="44.33534" lon="2.96971">
        <ele>645</ele>
        <time>2013-04-21T07:22:27Z</time>
      </trkpt>
      <trkpt lat="44.33529" lon="2.96969">
        <ele>645</ele>
        <time>2013-04-21T07:22:30Z</time>
      </trkpt>
      <trkpt lat="44.33524" lon="2.96967">
        <ele>645</ele>
        <time>2013-04-21T07:22:33Z</time>
      </trkpt>
      <trkpt lat="44.33515" lon="2.96962">
        <ele>646</ele>
        <time>2013-04-21T07:22:39Z</time>
      </trkpt>
      <trkpt lat="44.33507" lon="2.96958">
        <ele>647</ele>
        <time>2013-04-21T07:22:44Z</time>
      </trkpt>
      <trkpt lat="44.33502" lon="2.96952">
        <ele>648</ele>
        <time>2013-04-21T07:22:47Z</time>
      </trkpt>
      <trkpt lat="44.33498" lon="2.96948">
        <ele>649</ele>
        <time>2013-04-21T07:22:50Z</time>
      </trkpt>
      <trkpt lat="44.33495" lon="2.96944">
        <ele>649</ele>
        <time>2013-04-21T07:22:53Z</time>
      </trkpt>
      <trkpt lat="44.33491" lon="2.96939">
        <ele>649</ele>
        <time>2013-04-21T07:22:56Z</time>
      </trkpt>
      <trkpt lat="44.33487" lon="2.96933">
        <ele>649</ele>
        <time>2013-04-21T07:22:59Z</time>
      </trkpt>
      <trkpt lat="44.33485" lon="2.96927">
        <ele>650</ele>
        <time>2013-04-21T07:23:02Z</time>
      </trkpt>
      <trkpt lat="44.33482" lon="2.96917">
        <ele>651</ele>
        <time>2013-04-21T07:23:07Z</time>
      </trkpt>
      <trkpt lat="44.33478" lon="2.96907">
        <ele>652</ele>
        <time>2013-04-21T07:23:13Z</time>
      </trkpt>
      <trkpt lat="44.33475" lon="2.96902">
        <ele>652</ele>
        <time>2013-04-21T07:23:16Z</time>
      </trkpt>
      <trkpt lat="44.33473" lon="2.96896">
        <ele>652</ele>
        <time>2013-04-21T07:23:19Z</time>
      </trkpt>
      <trkpt lat="44.3347" lon="2.9689">
        <ele>651</ele>
        <time>2013-04-21T07:23:22Z</time>
      </trkpt>
      <trkpt lat="44.33468" lon="2.96883">
        <ele>651</ele>
        <time>2013-04-21T07:23:25Z</time>
      </trkpt>
      <trkpt lat="44.33465" lon="2.96877">
        <ele>649</ele>
        <time>2013-04-21T07:23:28Z</time>
      </trkpt>
      <trkpt lat="44.33462" lon="2.9687">
        <ele>649</ele>
        <time>2013-04-21T07:23:31Z</time>
      </trkpt>
      <trkpt lat="44.3346" lon="2.96863">
        <ele>649</ele>
        <time>2013-04-21T07:23:34Z</time>
      </trkpt>
      <trkpt lat="44.33457" lon="2.96857">
        <ele>649</ele>
        <time>2013-04-21T07:23:37Z</time>
      </trkpt>
      <trkpt lat="44.33454" lon="2.96849">
        <ele>648</ele>
        <time>2013-04-21T07:23:40Z</time>
      </trkpt>
      <trkpt lat="44.33453" lon="2.96842">
        <ele>648</ele>
        <time>2013-04-21T07:23:43Z</time>
      </trkpt>
      <trkpt lat="44.33449" lon="2.96836">
        <ele>649</ele>
        <time>2013-04-21T07:23:46Z</time>
      </trkpt>
      <trkpt lat="44.33448" lon="2.96829">
        <ele>650</ele>
        <time>2013-04-21T07:23:50Z</time>
      </trkpt>
      <trkpt lat="44.33452" lon="2.96824">
        <ele>652</ele>
        <time>2013-04-21T07:23:54Z</time>
      </trkpt>
      <trkpt lat="44.33457" lon="2.9682">
        <ele>652</ele>
        <time>2013-04-21T07:23:57Z</time>
      </trkpt>
      <trkpt lat="44.33462" lon="2.96816">
        <ele>652</ele>
        <time>2013-04-21T07:24:00Z</time>
      </trkpt>
      <trkpt lat="44.33466" lon="2.96812">
        <ele>652</ele>
        <time>2013-04-21T07:24:03Z</time>
      </trkpt>
      <trkpt lat="44.3347" lon="2.96809">
        <ele>652</ele>
        <time>2013-04-21T07:24:05Z</time>
      </trkpt>
      <trkpt lat="44.33475" lon="2.96804">
        <ele>650</ele>
        <time>2013-04-21T07:24:08Z</time>
      </trkpt>
      <trkpt lat="44.3348" lon="2.968">
        <ele>649</ele>
        <time>2013-04-21T07:24:11Z</time>
      </trkpt>
      <trkpt lat="44.33486" lon="2.96795">
        <ele>649</ele>
        <time>2013-04-21T07:24:15Z</time>
      </trkpt>
      <trkpt lat="44.3349" lon="2.96791">
        <ele>649</ele>
        <time>2013-04-21T07:24:18Z</time>
      </trkpt>
      <trkpt lat="44.33495" lon="2.96787">
        <ele>649</ele>
        <time>2013-04-21T07:24:21Z</time>
      </trkpt>
      <trkpt lat="44.335" lon="2.96784">
        <ele>648</ele>
        <time>2013-04-21T07:24:24Z</time>
      </trkpt>
      <trkpt lat="44.33505" lon="2.96781">
        <ele>648</ele>
        <time>2013-04-21T07:24:27Z</time>
      </trkpt>
      <trkpt lat="44.33509" lon="2.96777">
        <ele>648</ele>
        <time>2013-04-21T07:24:30Z</time>
      </trkpt>
      <trkpt lat="44.33513" lon="2.96773">
        <ele>648</ele>
        <time>2013-04-21T07:24:33Z</time>
      </trkpt>
      <trkpt lat="44.33517" lon="2.96767">
        <ele>648</ele>
        <time>2013-04-21T07:24:36Z</time>
      </trkpt>
      <trkpt lat="44.33521" lon="2.96761">
        <ele>649</ele>
        <time>2013-04-21T07:24:40Z</time>
      </trkpt>
      <trkpt lat="44.33524" lon="2.96756">
        <ele>650</ele>
        <time>2013-04-21T07:24:43Z</time>
      </trkpt>
      <trkpt lat="44.33527" lon="2.96749">
        <ele>650</ele>
        <time>2013-04-21T07:24:46Z</time>
      </trkpt>
      <trkpt lat="44.33531" lon="2.96742">
        <ele>651</ele>
        <time>2013-04-21T07:24:50Z</time>
      </trkpt>
      <trkpt lat="44.33535" lon="2.96736">
        <ele>652</ele>
        <time>2013-04-21T07:24:53Z</time>
      </trkpt>
      <trkpt lat="44.33539" lon="2.96728">
        <ele>652</ele>
        <time>2013-04-21T07:24:57Z</time>
      </trkpt>
      <trkpt lat="44.33541" lon="2.96721">
        <ele>652</ele>
        <time>2013-04-21T07:25:00Z</time>
      </trkpt>
      <trkpt lat="44.33544" lon="2.96715">
        <ele>652</ele>
        <time>2013-04-21T07:25:03Z</time>
      </trkpt>
      <trkpt lat="44.33546" lon="2.96708">
        <ele>652</ele>
        <time>2013-04-21T07:25:06Z</time>
      </trkpt>
      <trkpt lat="44.33548" lon="2.96702">
        <ele>653</ele>
        <time>2013-04-21T07:25:09Z</time>
      </trkpt>
      <trkpt lat="44.3355" lon="2.96695">
        <ele>653</ele>
        <time>2013-04-21T07:25:12Z</time>
      </trkpt>
      <trkpt lat="44.33553" lon="2.9669">
        <ele>654</ele>
        <time>2013-04-21T07:25:15Z</time>
      </trkpt>
      <trkpt lat="44.33557" lon="2.96682">
        <ele>654</ele>
        <time>2013-04-21T07:25:19Z</time>
      </trkpt>
      <trkpt lat="44.3356" lon="2.96676">
        <ele>655</ele>
        <time>2013-04-21T07:25:22Z</time>
      </trkpt>
      <trkpt lat="44.33562" lon="2.9667">
        <ele>655</ele>
        <time>2013-04-21T07:25:25Z</time>
      </trkpt>
      <trkpt lat="44.33565" lon="2.96663">
        <ele>655</ele>
        <time>2013-04-21T07:25:29Z</time>
      </trkpt>
      <trkpt lat="44.33566" lon="2.96657">
        <ele>656</ele>
        <time>2013-04-21T07:25:32Z</time>
      </trkpt>
      <trkpt lat="44.33569" lon="2.96651">
        <ele>657</ele>
        <time>2013-04-21T07:25:35Z</time>
      </trkpt>
      <trkpt lat="44.33571" lon="2.96644">
        <ele>658</ele>
        <time>2013-04-21T07:25:38Z</time>
      </trkpt>
      <trkpt lat="44.33573" lon="2.96637">
        <ele>658</ele>
        <time>2013-04-21T07:25:42Z</time>
      </trkpt>
      <trkpt lat="44.33577" lon="2.96631">
        <ele>659</ele>
        <time>2013-04-21T07:25:46Z</time>
      </trkpt>
      <trkpt lat="44.33579" lon="2.96623">
        <ele>658</ele>
        <time>2013-04-21T07:25:49Z</time>
      </trkpt>
      <trkpt lat="44.33581" lon="2.96617">
        <ele>657</ele>
        <time>2013-04-21T07:25:52Z</time>
      </trkpt>
      <trkpt lat="44.33589" lon="2.96609">
        <ele>657</ele>
        <time>2013-04-21T07:25:58Z</time>
      </trkpt>
      <trkpt lat="44.33592" lon="2.96604">
        <ele>657</ele>
        <time>2013-04-21T07:26:01Z</time>
      </trkpt>
      <trkpt lat="44.33596" lon="2.96599">
        <ele>658</ele>
        <time>2013-04-21T07:26:05Z</time>
      </trkpt>
      <trkpt lat="44.336" lon="2.96592">
        <ele>658</ele>
        <time>2013-04-21T07:26:08Z</time>
      </trkpt>
      <trkpt lat="44.33603" lon="2.96587">
        <ele>658</ele>
        <time>2013-04-21T07:26:11Z</time>
      </trkpt>
      <trkpt lat="44.33606" lon="2.96582">
        <ele>659</ele>
        <time>2013-04-21T07:26:14Z</time>
      </trkpt>
      <trkpt lat="44.3361" lon="2.96576">
        <ele>659</ele>
        <time>2013-04-21T07:26:18Z</time>
      </trkpt>
      <trkpt lat="44.33613" lon="2.96571">
        <ele>659</ele>
        <time>2013-04-21T07:26:21Z</time>
      </trkpt>
      <trkpt lat="44.33618" lon="2.96562">
        <ele>660</ele>
        <time>2013-04-21T07:26:25Z</time>
      </trkpt>
      <trkpt lat="44.33622" lon="2.96554">
        <ele>661</ele>
        <time>2013-04-21T07:26:28Z</time>
      </trkpt>
      <trkpt lat="44.33626" lon="2.96548">
        <ele>663</ele>
        <time>2013-04-21T07:26:31Z</time>
      </trkpt>
      <trkpt lat="44.33629" lon="2.96542">
        <ele>663</ele>
        <time>2013-04-21T07:26:34Z</time>
      </trkpt>
      <trkpt lat="44.33632" lon="2.96538">
        <ele>662</ele>
        <time>2013-04-21T07:26:37Z</time>
      </trkpt>
      <trkpt lat="44.33636" lon="2.96533">
        <ele>661</ele>
        <time>2013-04-21T07:26:40Z</time>
      </trkpt>
      <trkpt lat="44.33641" lon="2.96527">
        <ele>660</ele>
        <time>2013-04-21T07:26:43Z</time>
      </trkpt>
      <trkpt lat="44.33645" lon="2.96521">
        <ele>660</ele>
        <time>2013-04-21T07:26:46Z</time>
      </trkpt>
      <trkpt lat="44.33648" lon="2.96514">
        <ele>659</ele>
        <time>2013-04-21T07:26:49Z</time>
      </trkpt>
      <trkpt lat="44.3365" lon="2.96508">
        <ele>660</ele>
        <time>2013-04-21T07:26:52Z</time>
      </trkpt>
      <trkpt lat="44.33652" lon="2.965">
        <ele>661</ele>
        <time>2013-04-21T07:26:55Z</time>
      </trkpt>
      <trkpt lat="44.33653" lon="2.96493">
        <ele>660</ele>
        <time>2013-04-21T07:26:57Z</time>
      </trkpt>
      <trkpt lat="44.33653" lon="2.96487">
        <ele>660</ele>
        <time>2013-04-21T07:27:00Z</time>
      </trkpt>
      <trkpt lat="44.33654" lon="2.9648">
        <ele>660</ele>
        <time>2013-04-21T07:27:03Z</time>
      </trkpt>
      <trkpt lat="44.33655" lon="2.96473">
        <ele>659</ele>
        <time>2013-04-21T07:27:06Z</time>
      </trkpt>
      <trkpt lat="44.33657" lon="2.96467">
        <ele>658</ele>
        <time>2013-04-21T07:27:09Z</time>
      </trkpt>
      <trkpt lat="44.33659" lon="2.9646">
        <ele>658</ele>
        <time>2013-04-21T07:27:12Z</time>
      </trkpt>
      <trkpt lat="44.33662" lon="2.96454">
        <ele>657</ele>
        <time>2013-04-21T07:27:15Z</time>
      </trkpt>
      <trkpt lat="44.33661" lon="2.96445">
        <ele>656</ele>
        <time>2013-04-21T07:27:20Z</time>
      </trkpt>
      <trkpt lat="44.33658" lon="2.96441">
        <ele>657</ele>
        <time>2013-04-21T07:27:24Z</time>
      </trkpt>
      <trkpt lat="44.33653" lon="2.96439">
        <ele>656</ele>
        <time>2013-04-21T07:27:27Z</time>
      </trkpt>
      <trkpt lat="44.33648" lon="2.96435">
        <ele>656</ele>
        <time>2013-04-21T07:27:31Z</time>
      </trkpt>
      <trkpt lat="44.33643" lon="2.9643">
        <ele>656</ele>
        <time>2013-04-21T07:27:35Z</time>
      </trkpt>
      <trkpt lat="44.33638" lon="2.96427">
        <ele>657</ele>
        <time>2013-04-21T07:27:38Z</time>
      </trkpt>
      <trkpt lat="44.33634" lon="2.96423">
        <ele>657</ele>
        <time>2013-04-21T07:27:41Z</time>
      </trkpt>
      <trkpt lat="44.3363" lon="2.96418">
        <ele>657</ele>
        <time>2013-04-21T07:27:45Z</time>
      </trkpt>
      <trkpt lat="44.33626" lon="2.96413">
        <ele>658</ele>
        <time>2013-04-21T07:27:49Z</time>
      </trkpt>
      <trkpt lat="44.33622" lon="2.96408">
        <ele>659</ele>
        <time>2013-04-21T07:27:52Z</time>
      </trkpt>
      <trkpt lat="44.33619" lon="2.96403">
        <ele>659</ele>
        <time>2013-04-21T07:27:55Z</time>
      </trkpt>
      <trkpt lat="44.33616" lon="2.96396">
        <ele>659</ele>
        <time>2013-04-21T07:27:59Z</time>
      </trkpt>
      <trkpt lat="44.33612" lon="2.96392">
        <ele>659</ele>
        <time>2013-04-21T07:28:02Z</time>
      </trkpt>
      <trkpt lat="44.33607" lon="2.96388">
        <ele>659</ele>
        <time>2013-04-21T07:28:05Z</time>
      </trkpt>
      <trkpt lat="44.33603" lon="2.96382">
        <ele>659</ele>
        <time>2013-04-21T07:28:09Z</time>
      </trkpt>
      <trkpt lat="44.33598" lon="2.96377">
        <ele>658</ele>
        <time>2013-04-21T07:28:13Z</time>
      </trkpt>
      <trkpt lat="44.33595" lon="2.96373">
        <ele>658</ele>
        <time>2013-04-21T07:28:16Z</time>
      </trkpt>
      <trkpt lat="44.33591" lon="2.96369">
        <ele>659</ele>
        <time>2013-04-21T07:28:19Z</time>
      </trkpt>
      <trkpt lat="44.33586" lon="2.96364">
        <ele>660</ele>
        <time>2013-04-21T07:28:22Z</time>
      </trkpt>
      <trkpt lat="44.33582" lon="2.9636">
        <ele>660</ele>
        <time>2013-04-21T07:28:25Z</time>
      </trkpt>
      <trkpt lat="44.33579" lon="2.96355">
        <ele>661</ele>
        <time>2013-04-21T07:28:28Z</time>
      </trkpt>
      <trkpt lat="44.33575" lon="2.96349">
        <ele>662</ele>
        <time>2013-04-21T07:28:31Z</time>
      </trkpt>
      <trkpt lat="44.33572" lon="2.96343">
        <ele>662</ele>
        <time>2013-04-21T07:28:35Z</time>
      </trkpt>
      <trkpt lat="44.33569" lon="2.96338">
        <ele>662</ele>
        <time>2013-04-21T07:28:38Z</time>
      </trkpt>
      <trkpt lat="44.33565" lon="2.96333">
        <ele>663</ele>
        <time>2013-04-21T07:28:41Z</time>
      </trkpt>
      <trkpt lat="44.33562" lon="2.96327">
        <ele>662</ele>
        <time>2013-04-21T07:28:44Z</time>
      </trkpt>
      <trkpt lat="44.33558" lon="2.96321">
        <ele>662</ele>
        <time>2013-04-21T07:28:48Z</time>
      </trkpt>
      <trkpt lat="44.33554" lon="2.96315">
        <ele>663</ele>
        <time>2013-04-21T07:28:51Z</time>
      </trkpt>
      <trkpt lat="44.33551" lon="2.9631">
        <ele>663</ele>
        <time>2013-04-21T07:28:54Z</time>
      </trkpt>
      <trkpt lat="44.33547" lon="2.96305">
        <ele>663</ele>
        <time>2013-04-21T07:28:57Z</time>
      </trkpt>
      <trkpt lat="44.33542" lon="2.963">
        <ele>663</ele>
        <time>2013-04-21T07:29:00Z</time>
      </trkpt>
      <trkpt lat="44.33537" lon="2.96291">
        <ele>662</ele>
        <time>2013-04-21T07:29:05Z</time>
      </trkpt>
      <trkpt lat="44.33533" lon="2.96287">
        <ele>662</ele>
        <time>2013-04-21T07:29:08Z</time>
      </trkpt>
      <trkpt lat="44.33528" lon="2.96283">
        <ele>663</ele>
        <time>2013-04-21T07:29:13Z</time>
      </trkpt>
      <trkpt lat="44.33523" lon="2.96279">
        <ele>663</ele>
        <time>2013-04-21T07:29:19Z</time>
      </trkpt>
      <trkpt lat="44.33519" lon="2.96275">
        <ele>664</ele>
        <time>2013-04-21T07:29:22Z</time>
      </trkpt>
      <trkpt lat="44.33516" lon="2.9627">
        <ele>665</ele>
        <time>2013-04-21T07:29:25Z</time>
      </trkpt>
      <trkpt lat="44.33512" lon="2.96265">
        <ele>666</ele>
        <time>2013-04-21T07:29:28Z</time>
      </trkpt>
      <trkpt lat="44.33508" lon="2.9626">
        <ele>667</ele>
        <time>2013-04-21T07:29:32Z</time>
      </trkpt>
      <trkpt lat="44.33503" lon="2.96256">
        <ele>667</ele>
        <time>2013-04-21T07:29:35Z</time>
      </trkpt>
      <trkpt lat="44.335" lon="2.96252">
        <ele>667</ele>
        <time>2013-04-21T07:29:39Z</time>
      </trkpt>
      <trkpt lat="44.33496" lon="2.96248">
        <ele>667</ele>
        <time>2013-04-21T07:29:43Z</time>
      </trkpt>
      <trkpt lat="44.33492" lon="2.96244">
        <ele>667</ele>
        <time>2013-04-21T07:29:47Z</time>
      </trkpt>
      <trkpt lat="44.33486" lon="2.96239">
        <ele>668</ele>
        <time>2013-04-21T07:29:52Z</time>
      </trkpt>
      <trkpt lat="44.33483" lon="2.96234">
        <ele>668</ele>
        <time>2013-04-21T07:29:56Z</time>
      </trkpt>
      <trkpt lat="44.33479" lon="2.96229">
        <ele>668</ele>
        <time>2013-04-21T07:30:00Z</time>
      </trkpt>
      <trkpt lat="44.33474" lon="2.96227">
        <ele>669</ele>
        <time>2013-04-21T07:30:04Z</time>
      </trkpt>
      <trkpt lat="44.3347" lon="2.96222">
        <ele>670</ele>
        <time>2013-04-21T07:30:09Z</time>
      </trkpt>
      <trkpt lat="44.33464" lon="2.96216">
        <ele>670</ele>
        <time>2013-04-21T07:30:14Z</time>
      </trkpt>
      <trkpt lat="44.33455" lon="2.96207">
        <ele>672</ele>
        <time>2013-04-21T07:30:21Z</time>
      </trkpt>
      <trkpt lat="44.33449" lon="2.962">
        <ele>673</ele>
        <time>2013-04-21T07:30:26Z</time>
      </trkpt>
      <trkpt lat="44.33446" lon="2.96196">
        <ele>672</ele>
        <time>2013-04-21T07:30:29Z</time>
      </trkpt>
      <trkpt lat="44.33441" lon="2.96191">
        <ele>672</ele>
        <time>2013-04-21T07:30:32Z</time>
      </trkpt>
      <trkpt lat="44.33436" lon="2.9619">
        <ele>671</ele>
        <time>2013-04-21T07:30:35Z</time>
      </trkpt>
      <trkpt lat="44.33432" lon="2.96192">
        <ele>671</ele>
        <time>2013-04-21T07:30:38Z</time>
      </trkpt>
      <trkpt lat="44.33428" lon="2.96196">
        <ele>671</ele>
        <time>2013-04-21T07:30:41Z</time>
      </trkpt>
      <trkpt lat="44.33425" lon="2.962">
        <ele>671</ele>
        <time>2013-04-21T07:30:44Z</time>
      </trkpt>
      <trkpt lat="44.33421" lon="2.96203">
        <ele>669</ele>
        <time>2013-04-21T07:30:47Z</time>
      </trkpt>
      <trkpt lat="44.33416" lon="2.96207">
        <ele>668</ele>
        <time>2013-04-21T07:30:50Z</time>
      </trkpt>
      <trkpt lat="44.3341" lon="2.9621">
        <ele>667</ele>
        <time>2013-04-21T07:30:53Z</time>
      </trkpt>
      <trkpt lat="44.33405" lon="2.96212">
        <ele>667</ele>
        <time>2013-04-21T07:30:56Z</time>
      </trkpt>
      <trkpt lat="44.33401" lon="2.96213">
        <ele>667</ele>
        <time>2013-04-21T07:30:59Z</time>
      </trkpt>
      <trkpt lat="44.33396" lon="2.96213">
        <ele>666</ele>
        <time>2013-04-21T07:31:02Z</time>
      </trkpt>
      <trkpt lat="44.33391" lon="2.96214">
        <ele>666</ele>
        <time>2013-04-21T07:31:05Z</time>
      </trkpt>
      <trkpt lat="44.33385" lon="2.96213">
        <ele>666</ele>
        <time>2013-04-21T07:31:08Z</time>
      </trkpt>
      <trkpt lat="44.3338" lon="2.96213">
        <ele>666</ele>
        <time>2013-04-21T07:31:11Z</time>
      </trkpt>
      <trkpt lat="44.3337" lon="2.9621">
        <ele>667</ele>
        <time>2013-04-21T07:31:16Z</time>
      </trkpt>
      <trkpt lat="44.33364" lon="2.96209">
        <ele>668</ele>
        <time>2013-04-21T07:31:19Z</time>
      </trkpt>
      <trkpt lat="44.33358" lon="2.96207">
        <ele>668</ele>
        <time>2013-04-21T07:31:22Z</time>
      </trkpt>
      <trkpt lat="44.33352" lon="2.96206">
        <ele>669</ele>
        <time>2013-04-21T07:31:25Z</time>
      </trkpt>
      <trkpt lat="44.33348" lon="2.96205">
        <ele>669</ele>
        <time>2013-04-21T07:31:28Z</time>
      </trkpt>
      <trkpt lat="44.33343" lon="2.96204">
        <ele>670</ele>
        <time>2013-04-21T07:31:31Z</time>
      </trkpt>
      <trkpt lat="44.33338" lon="2.96202">
        <ele>670</ele>
        <time>2013-04-21T07:31:34Z</time>
      </trkpt>
      <trkpt lat="44.33333" lon="2.96201">
        <ele>670</ele>
        <time>2013-04-21T07:31:37Z</time>
      </trkpt>
      <trkpt lat="44.3333" lon="2.96201">
        <ele>670</ele>
        <time>2013-04-21T07:31:48Z</time>
      </trkpt>
      <trkpt lat="44.33327" lon="2.962">
        <ele>670</ele>
        <time>2013-04-21T07:31:59Z</time>
      </trkpt>
      <trkpt lat="44.33323" lon="2.96198">
        <ele>670</ele>
        <time>2013-04-21T07:32:05Z</time>
      </trkpt>
      <trkpt lat="44.33318" lon="2.96197">
        <ele>670</ele>
        <time>2013-04-21T07:32:08Z</time>
      </trkpt>
      <trkpt lat="44.33312" lon="2.96195">
        <ele>668</ele>
        <time>2013-04-21T07:32:30Z</time>
      </trkpt>
      <trkpt lat="44.33307" lon="2.96194">
        <ele>668</ele>
        <time>2013-04-21T07:32:33Z</time>
      </trkpt>
      <trkpt lat="44.33302" lon="2.96193">
        <ele>668</ele>
        <time>2013-04-21T07:32:36Z</time>
      </trkpt>
      <trkpt lat="44.33297" lon="2.96191">
        <ele>668</ele>
        <time>2013-04-21T07:32:39Z</time>
      </trkpt>
      <trkpt lat="44.33292" lon="2.9619">
        <ele>668</ele>
        <time>2013-04-21T07:32:42Z</time>
      </trkpt>
      <trkpt lat="44.33287" lon="2.96189">
        <ele>668</ele>
        <time>2013-04-21T07:32:45Z</time>
      </trkpt>
      <trkpt lat="44.33281" lon="2.96188">
        <ele>668</ele>
        <time>2013-04-21T07:32:49Z</time>
      </trkpt>
      <trkpt lat="44.33276" lon="2.96187">
        <ele>669</ele>
        <time>2013-04-21T07:32:52Z</time>
      </trkpt>
      <trkpt lat="44.33271" lon="2.96186">
        <ele>668</ele>
        <time>2013-04-21T07:32:55Z</time>
      </trkpt>
      <trkpt lat="44.33266" lon="2.96186">
        <ele>669</ele>
        <time>2013-04-21T07:32:58Z</time>
      </trkpt>
      <trkpt lat="44.33261" lon="2.96186">
        <ele>668</ele>
        <time>2013-04-21T07:33:01Z</time>
      </trkpt>
      <trkpt lat="44.33255" lon="2.96185">
        <ele>667</ele>
        <time>2013-04-21T07:33:04Z</time>
      </trkpt>
      <trkpt lat="44.3325" lon="2.96184">
        <ele>666</ele>
        <time>2013-04-21T07:33:07Z</time>
      </trkpt>
      <trkpt lat="44.33244" lon="2.96183">
        <ele>665</ele>
        <time>2013-04-21T07:33:11Z</time>
      </trkpt>
      <trkpt lat="44.33239" lon="2.96182">
        <ele>665</ele>
        <time>2013-04-21T07:33:14Z</time>
      </trkpt>
      <trkpt lat="44.33233" lon="2.96183">
        <ele>665</ele>
        <time>2013-04-21T07:33:17Z</time>
      </trkpt>
      <trkpt lat="44.33228" lon="2.96183">
        <ele>665</ele>
        <time>2013-04-21T07:33:20Z</time>
      </trkpt>
      <trkpt lat="44.33223" lon="2.96185">
        <ele>665</ele>
        <time>2013-04-21T07:33:23Z</time>
      </trkpt>
      <trkpt lat="44.33218" lon="2.96185">
        <ele>665</ele>
        <time>2013-04-21T07:33:26Z</time>
      </trkpt>
      <trkpt lat="44.33213" lon="2.96185">
        <ele>665</ele>
        <time>2013-04-21T07:33:29Z</time>
      </trkpt>
      <trkpt lat="44.33208" lon="2.96185">
        <ele>665</ele>
        <time>2013-04-21T07:33:32Z</time>
      </trkpt>
      <trkpt lat="44.33202" lon="2.96185">
        <ele>665</ele>
        <time>2013-04-21T07:33:35Z</time>
      </trkpt>
      <trkpt lat="44.33198" lon="2.96183">
        <ele>665</ele>
        <time>2013-04-21T07:33:38Z</time>
      </trkpt>
      <trkpt lat="44.33194" lon="2.96179">
        <ele>665</ele>
        <time>2013-04-21T07:33:41Z</time>
      </trkpt>
      <trkpt lat="44.33189" lon="2.96174">
        <ele>666</ele>
        <time>2013-04-21T07:33:45Z</time>
      </trkpt>
      <trkpt lat="44.33185" lon="2.9617">
        <ele>666</ele>
        <time>2013-04-21T07:33:48Z</time>
      </trkpt>
      <trkpt lat="44.33182" lon="2.96165">
        <ele>667</ele>
        <time>2013-04-21T07:33:51Z</time>
      </trkpt>
      <trkpt lat="44.33178" lon="2.9616">
        <ele>668</ele>
        <time>2013-04-21T07:33:54Z</time>
      </trkpt>
      <trkpt lat="44.33175" lon="2.96156">
        <ele>668</ele>
        <time>2013-04-21T07:33:57Z</time>
      </trkpt>
      <trkpt lat="44.33171" lon="2.96151">
        <ele>668</ele>
        <time>2013-04-21T07:34:00Z</time>
      </trkpt>
      <trkpt lat="44.33167" lon="2.96144">
        <ele>669</ele>
        <time>2013-04-21T07:34:03Z</time>
      </trkpt>
      <trkpt lat="44.33163" lon="2.96138">
        <ele>670</ele>
        <time>2013-04-21T07:34:06Z</time>
      </trkpt>
      <trkpt lat="44.3316" lon="2.96134">
        <ele>670</ele>
        <time>2013-04-21T07:34:09Z</time>
      </trkpt>
      <trkpt lat="44.33157" lon="2.96128">
        <ele>670</ele>
        <time>2013-04-21T07:34:12Z</time>
      </trkpt>
      <trkpt lat="44.33154" lon="2.96122">
        <ele>670</ele>
        <time>2013-04-21T07:34:15Z</time>
      </trkpt>
      <trkpt lat="44.33151" lon="2.96116">
        <ele>670</ele>
        <time>2013-04-21T07:34:18Z</time>
      </trkpt>
      <trkpt lat="44.33149" lon="2.9611">
        <ele>670</ele>
        <time>2013-04-21T07:34:21Z</time>
      </trkpt>
      <trkpt lat="44.33146" lon="2.96103">
        <ele>670</ele>
        <time>2013-04-21T07:34:24Z</time>
      </trkpt>
      <trkpt lat="44.33144" lon="2.96097">
        <ele>670</ele>
        <time>2013-04-21T07:34:27Z</time>
      </trkpt>
      <trkpt lat="44.33141" lon="2.96091">
        <ele>670</ele>
        <time>2013-04-21T07:34:30Z</time>
      </trkpt>
      <trkpt lat="44.33138" lon="2.96086">
        <ele>671</ele>
        <time>2013-04-21T07:34:33Z</time>
      </trkpt>
      <trkpt lat="44.33134" lon="2.96081">
        <ele>671</ele>
        <time>2013-04-21T07:34:36Z</time>
      </trkpt>
      <trkpt lat="44.33131" lon="2.96077">
        <ele>671</ele>
        <time>2013-04-21T07:34:39Z</time>
      </trkpt>
      <trkpt lat="44.33126" lon="2.96073">
        <ele>671</ele>
        <time>2013-04-21T07:34:43Z</time>
      </trkpt>
      <trkpt lat="44.33121" lon="2.9607">
        <ele>671</ele>
        <time>2013-04-21T07:34:46Z</time>
      </trkpt>
      <trkpt lat="44.33115" lon="2.96068">
        <ele>671</ele>
        <time>2013-04-21T07:34:49Z</time>
      </trkpt>
      <trkpt lat="44.33109" lon="2.96065">
        <ele>671</ele>
        <time>2013-04-21T07:34:52Z</time>
      </trkpt>
      <trkpt lat="44.33104" lon="2.96064">
        <ele>672</ele>
        <time>2013-04-21T07:34:55Z</time>
      </trkpt>
      <trkpt lat="44.33098" lon="2.96065">
        <ele>672</ele>
        <time>2013-04-21T07:34:59Z</time>
      </trkpt>
      <trkpt lat="44.33093" lon="2.96066">
        <ele>671</ele>
        <time>2013-04-21T07:35:02Z</time>
      </trkpt>
      <trkpt lat="44.33087" lon="2.96067">
        <ele>672</ele>
        <time>2013-04-21T07:35:05Z</time>
      </trkpt>
      <trkpt lat="44.33082" lon="2.96069">
        <ele>673</ele>
        <time>2013-04-21T07:35:08Z</time>
      </trkpt>
      <trkpt lat="44.33077" lon="2.9607">
        <ele>673</ele>
        <time>2013-04-21T07:35:11Z</time>
      </trkpt>
      <trkpt lat="44.33072" lon="2.96073">
        <ele>674</ele>
        <time>2013-04-21T07:35:14Z</time>
      </trkpt>
      <trkpt lat="44.33067" lon="2.96075">
        <ele>675</ele>
        <time>2013-04-21T07:35:18Z</time>
      </trkpt>
      <trkpt lat="44.33062" lon="2.96077">
        <ele>674</ele>
        <time>2013-04-21T07:35:22Z</time>
      </trkpt>
      <trkpt lat="44.33056" lon="2.96078">
        <ele>674</ele>
        <time>2013-04-21T07:35:26Z</time>
      </trkpt>
      <trkpt lat="44.33051" lon="2.96079">
        <ele>674</ele>
        <time>2013-04-21T07:35:29Z</time>
      </trkpt>
      <trkpt lat="44.33045" lon="2.96079">
        <ele>674</ele>
        <time>2013-04-21T07:35:33Z</time>
      </trkpt>
      <trkpt lat="44.33039" lon="2.96082">
        <ele>674</ele>
        <time>2013-04-21T07:35:36Z</time>
      </trkpt>
      <trkpt lat="44.33033" lon="2.96084">
        <ele>674</ele>
        <time>2013-04-21T07:35:40Z</time>
      </trkpt>
      <trkpt lat="44.33028" lon="2.96085">
        <ele>675</ele>
        <time>2013-04-21T07:35:43Z</time>
      </trkpt>
      <trkpt lat="44.33023" lon="2.96087">
        <ele>675</ele>
        <time>2013-04-21T07:35:46Z</time>
      </trkpt>
      <trkpt lat="44.33018" lon="2.9609">
        <ele>675</ele>
        <time>2013-04-21T07:35:49Z</time>
      </trkpt>
      <trkpt lat="44.33015" lon="2.96091">
        <ele>675</ele>
        <time>2013-04-21T07:35:57Z</time>
      </trkpt>
      <trkpt lat="44.3301" lon="2.96092">
        <ele>675</ele>
        <time>2013-04-21T07:36:05Z</time>
      </trkpt>
      <trkpt lat="44.33006" lon="2.96094">
        <ele>674</ele>
        <time>2013-04-21T07:36:09Z</time>
      </trkpt>
      <trkpt lat="44.33001" lon="2.96096">
        <ele>674</ele>
        <time>2013-04-21T07:36:11Z</time>
      </trkpt>
      <trkpt lat="44.32996" lon="2.96097">
        <ele>673</ele>
        <time>2013-04-21T07:36:14Z</time>
      </trkpt>
      <trkpt lat="44.32992" lon="2.96098">
        <ele>672</ele>
        <time>2013-04-21T07:36:17Z</time>
      </trkpt>
      <trkpt lat="44.32986" lon="2.96099">
        <ele>673</ele>
        <time>2013-04-21T07:36:21Z</time>
      </trkpt>
      <trkpt lat="44.32978" lon="2.96104">
        <ele>673</ele>
        <time>2013-04-21T07:36:27Z</time>
      </trkpt>
      <trkpt lat="44.32973" lon="2.96105">
        <ele>673</ele>
        <time>2013-04-21T07:36:30Z</time>
      </trkpt>
      <trkpt lat="44.32966" lon="2.96106">
        <ele>673</ele>
        <time>2013-04-21T07:36:34Z</time>
      </trkpt>
      <trkpt lat="44.32961" lon="2.96109">
        <ele>672</ele>
        <time>2013-04-21T07:36:37Z</time>
      </trkpt>
      <trkpt lat="44.32955" lon="2.96111">
        <ele>673</ele>
        <time>2013-04-21T07:36:41Z</time>
      </trkpt>
      <trkpt lat="44.3295" lon="2.96112">
        <ele>673</ele>
        <time>2013-04-21T07:36:45Z</time>
      </trkpt>
      <trkpt lat="44.32942" lon="2.96113">
        <ele>674</ele>
        <time>2013-04-21T07:36:50Z</time>
      </trkpt>
      <trkpt lat="44.32933" lon="2.96114">
        <ele>674</ele>
        <time>2013-04-21T07:36:56Z</time>
      </trkpt>
      <trkpt lat="44.32928" lon="2.96117">
        <ele>674</ele>
        <time>2013-04-21T07:36:59Z</time>
      </trkpt>
      <trkpt lat="44.32922" lon="2.9612">
        <ele>676</ele>
        <time>2013-04-21T07:37:02Z</time>
      </trkpt>
      <trkpt lat="44.32917" lon="2.96122">
        <ele>677</ele>
        <time>2013-04-21T07:37:05Z</time>
      </trkpt>
      <trkpt lat="44.32912" lon="2.96123">
        <ele>678</ele>
        <time>2013-04-21T07:37:08Z</time>
      </trkpt>
      <trkpt lat="44.32907" lon="2.96124">
        <ele>680</ele>
        <time>2013-04-21T07:37:11Z</time>
      </trkpt>
      <trkpt lat="44.32902" lon="2.96124">
        <ele>681</ele>
        <time>2013-04-21T07:37:14Z</time>
      </trkpt>
      <trkpt lat="44.32897" lon="2.96126">
        <ele>682</ele>
        <time>2013-04-21T07:37:18Z</time>
      </trkpt>
      <trkpt lat="44.32891" lon="2.96129">
        <ele>683</ele>
        <time>2013-04-21T07:37:22Z</time>
      </trkpt>
      <trkpt lat="44.32886" lon="2.96132">
        <ele>683</ele>
        <time>2013-04-21T07:37:26Z</time>
      </trkpt>
      <trkpt lat="44.32881" lon="2.96134">
        <ele>684</ele>
        <time>2013-04-21T07:37:29Z</time>
      </trkpt>
      <trkpt lat="44.32876" lon="2.96136">
        <ele>684</ele>
        <time>2013-04-21T07:37:33Z</time>
      </trkpt>
      <trkpt lat="44.32871" lon="2.96138">
        <ele>684</ele>
        <time>2013-04-21T07:37:36Z</time>
      </trkpt>
      <trkpt lat="44.32866" lon="2.96141">
        <ele>684</ele>
        <time>2013-04-21T07:37:39Z</time>
      </trkpt>
      <trkpt lat="44.32862" lon="2.96143">
        <ele>685</ele>
        <time>2013-04-21T07:37:44Z</time>
      </trkpt>
      <trkpt lat="44.32855" lon="2.96152">
        <ele>686</ele>
        <time>2013-04-21T07:37:52Z</time>
      </trkpt>
      <trkpt lat="44.32846" lon="2.9616">
        <ele>687</ele>
        <time>2013-04-21T07:37:59Z</time>
      </trkpt>
      <trkpt lat="44.32838" lon="2.96168">
        <ele>687</ele>
        <time>2013-04-21T07:38:03Z</time>
      </trkpt>
      <trkpt lat="44.32828" lon="2.96178">
        <ele>687</ele>
        <time>2013-04-21T07:38:06Z</time>
      </trkpt>
      <trkpt lat="44.32821" lon="2.96188">
        <ele>687</ele>
        <time>2013-04-21T07:38:08Z</time>
      </trkpt>
      <trkpt lat="44.32814" lon="2.96199">
        <ele>686</ele>
        <time>2013-04-21T07:38:10Z</time>
      </trkpt>
      <trkpt lat="44.32804" lon="2.96211">
        <ele>686</ele>
        <time>2013-04-21T07:38:13Z</time>
      </trkpt>
      <trkpt lat="44.32796" lon="2.96219">
        <ele>685</ele>
        <time>2013-04-21T07:38:15Z</time>
      </trkpt>
      <trkpt lat="44.32788" lon="2.96229">
        <ele>684</ele>
        <time>2013-04-21T07:38:17Z</time>
      </trkpt>
      <trkpt lat="44.3278" lon="2.96239">
        <ele>684</ele>
        <time>2013-04-21T07:38:19Z</time>
      </trkpt>
      <trkpt lat="44.32772" lon="2.9625">
        <ele>683</ele>
        <time>2013-04-21T07:38:21Z</time>
      </trkpt>
      <trkpt lat="44.32764" lon="2.96262">
        <ele>683</ele>
        <time>2013-04-21T07:38:23Z</time>
      </trkpt>
      <trkpt lat="44.32756" lon="2.96274">
        <ele>684</ele>
        <time>2013-04-21T07:38:25Z</time>
      </trkpt>
      <trkpt lat="44.32748" lon="2.96287">
        <ele>684</ele>
        <time>2013-04-21T07:38:27Z</time>
      </trkpt>
      <trkpt lat="44.32739" lon="2.963">
        <ele>684</ele>
        <time>2013-04-21T07:38:29Z</time>
      </trkpt>
      <trkpt lat="44.32731" lon="2.96312">
        <ele>684</ele>
        <time>2013-04-21T07:38:31Z</time>
      </trkpt>
      <trkpt lat="44.32723" lon="2.96326">
        <ele>684</ele>
        <time>2013-04-21T07:38:33Z</time>
      </trkpt>
      <trkpt lat="44.32714" lon="2.96339">
        <ele>684</ele>
        <time>2013-04-21T07:38:35Z</time>
      </trkpt>
      <trkpt lat="44.32704" lon="2.96351">
        <ele>685</ele>
        <time>2013-04-21T07:38:37Z</time>
      </trkpt>
      <trkpt lat="44.32695" lon="2.96361">
        <ele>686</ele>
        <time>2013-04-21T07:38:39Z</time>
      </trkpt>
      <trkpt lat="44.32684" lon="2.96369">
        <ele>687</ele>
        <time>2013-04-21T07:38:41Z</time>
      </trkpt>
      <trkpt lat="44.32674" lon="2.96373">
        <ele>687</ele>
        <time>2013-04-21T07:38:43Z</time>
      </trkpt>
      <trkpt lat="44.32663" lon="2.96376">
        <ele>688</ele>
        <time>2013-04-21T07:38:45Z</time>
      </trkpt>
      <trkpt lat="44.32653" lon="2.96378">
        <ele>689</ele>
        <time>2013-04-21T07:38:47Z</time>
      </trkpt>
      <trkpt lat="44.32643" lon="2.96379">
        <ele>690</ele>
        <time>2013-04-21T07:38:49Z</time>
      </trkpt>
      <trkpt lat="44.32632" lon="2.9638">
        <ele>690</ele>
        <time>2013-04-21T07:38:51Z</time>
      </trkpt>
      <trkpt lat="44.32621" lon="2.96381">
        <ele>690</ele>
        <time>2013-04-21T07:38:53Z</time>
      </trkpt>
      <trkpt lat="44.32612" lon="2.9638">
        <ele>690</ele>
        <time>2013-04-21T07:38:55Z</time>
      </trkpt>
      <trkpt lat="44.32599" lon="2.96377">
        <ele>690</ele>
        <time>2013-04-21T07:38:58Z</time>
      </trkpt>
      <trkpt lat="44.32587" lon="2.96378">
        <ele>690</ele>
        <time>2013-04-21T07:39:01Z</time>
      </trkpt>
      <trkpt lat="44.32575" lon="2.96372">
        <ele>692</ele>
        <time>2013-04-21T07:39:04Z</time>
      </trkpt>
      <trkpt lat="44.32567" lon="2.96364">
        <ele>694</ele>
        <time>2013-04-21T07:39:06Z</time>
      </trkpt>
      <trkpt lat="44.3256" lon="2.96349">
        <ele>697</ele>
        <time>2013-04-21T07:39:09Z</time>
      </trkpt>
      <trkpt lat="44.32558" lon="2.96336">
        <ele>698</ele>
        <time>2013-04-21T07:39:11Z</time>
      </trkpt>
      <trkpt lat="44.32555" lon="2.9632">
        <ele>700</ele>
        <time>2013-04-21T07:39:14Z</time>
      </trkpt>
      <trkpt lat="44.32555" lon="2.96305">
        <ele>702</ele>
        <time>2013-04-21T07:39:17Z</time>
      </trkpt>
      <trkpt lat="44.32553" lon="2.9629">
        <ele>703</ele>
        <time>2013-04-21T07:39:20Z</time>
      </trkpt>
      <trkpt lat="44.32551" lon="2.96277">
        <ele>704</ele>
        <time>2013-04-21T07:39:23Z</time>
      </trkpt>
      <trkpt lat="44.32548" lon="2.96262">
        <ele>705</ele>
        <time>2013-04-21T07:39:27Z</time>
      </trkpt>
      <trkpt lat="44.32544" lon="2.9625">
        <ele>708</ele>
        <time>2013-04-21T07:39:31Z</time>
      </trkpt>
      <trkpt lat="44.32539" lon="2.96242">
        <ele>712</ele>
        <time>2013-04-21T07:39:34Z</time>
      </trkpt>
      <trkpt lat="44.32535" lon="2.96234">
        <ele>715</ele>
        <time>2013-04-21T07:39:37Z</time>
      </trkpt>
      <trkpt lat="44.32532" lon="2.96227">
        <ele>717</ele>
        <time>2013-04-21T07:39:40Z</time>
      </trkpt>
      <trkpt lat="44.32531" lon="2.96221">
        <ele>718</ele>
        <time>2013-04-21T07:39:43Z</time>
      </trkpt>
      <trkpt lat="44.32531" lon="2.96214">
        <ele>720</ele>
        <time>2013-04-21T07:39:46Z</time>
      </trkpt>
      <trkpt lat="44.32531" lon="2.96207">
        <ele>722</ele>
        <time>2013-04-21T07:39:49Z</time>
      </trkpt>
      <trkpt lat="44.32532" lon="2.962">
        <ele>723</ele>
        <time>2013-04-21T07:39:52Z</time>
      </trkpt>
      <trkpt lat="44.32534" lon="2.96193">
        <ele>724</ele>
        <time>2013-04-21T07:39:55Z</time>
      </trkpt>
      <trkpt lat="44.32537" lon="2.96186">
        <ele>726</ele>
        <time>2013-04-21T07:39:59Z</time>
      </trkpt>
      <trkpt lat="44.32538" lon="2.9618">
        <ele>726</ele>
        <time>2013-04-21T07:40:02Z</time>
      </trkpt>
      <trkpt lat="44.3254" lon="2.96173">
        <ele>726</ele>
        <time>2013-04-21T07:40:05Z</time>
      </trkpt>
      <trkpt lat="44.3254" lon="2.96163">
        <ele>727</ele>
        <time>2013-04-21T07:40:09Z</time>
      </trkpt>
      <trkpt lat="44.32541" lon="2.96148">
        <ele>728</ele>
        <time>2013-04-21T07:40:16Z</time>
      </trkpt>
      <trkpt lat="44.32542" lon="2.96141">
        <ele>729</ele>
        <time>2013-04-21T07:40:19Z</time>
      </trkpt>
      <trkpt lat="44.32543" lon="2.96135">
        <ele>730</ele>
        <time>2013-04-21T07:40:22Z</time>
      </trkpt>
      <trkpt lat="44.32544" lon="2.96128">
        <ele>730</ele>
        <time>2013-04-21T07:40:25Z</time>
      </trkpt>
      <trkpt lat="44.32544" lon="2.9612">
        <ele>731</ele>
        <time>2013-04-21T07:40:29Z</time>
      </trkpt>
      <trkpt lat="44.32545" lon="2.96113">
        <ele>731</ele>
        <time>2013-04-21T07:40:32Z</time>
      </trkpt>
      <trkpt lat="44.32546" lon="2.96105">
        <ele>732</ele>
        <time>2013-04-21T07:40:36Z</time>
      </trkpt>
      <trkpt lat="44.32545" lon="2.96095">
        <ele>732</ele>
        <time>2013-04-21T07:40:40Z</time>
      </trkpt>
      <trkpt lat="44.32546" lon="2.96088">
        <ele>732</ele>
        <time>2013-04-21T07:40:43Z</time>
      </trkpt>
      <trkpt lat="44.32547" lon="2.96081">
        <ele>732</ele>
        <time>2013-04-21T07:40:46Z</time>
      </trkpt>
      <trkpt lat="44.32547" lon="2.96074">
        <ele>732</ele>
        <time>2013-04-21T07:40:49Z</time>
      </trkpt>
      <trkpt lat="44.32547" lon="2.96061">
        <ele>733</ele>
        <time>2013-04-21T07:40:55Z</time>
      </trkpt>
      <trkpt lat="44.32547" lon="2.96054">
        <ele>734</ele>
        <time>2013-04-21T07:41:01Z</time>
      </trkpt>
      <trkpt lat="44.3255" lon="2.96045">
        <ele>737</ele>
        <time>2013-04-21T07:41:29Z</time>
      </trkpt>
      <trkpt lat="44.32551" lon="2.96033">
        <ele>738</ele>
        <time>2013-04-21T07:41:34Z</time>
      </trkpt>
      <trkpt lat="44.32551" lon="2.96025">
        <ele>739</ele>
        <time>2013-04-21T07:41:37Z</time>
      </trkpt>
      <trkpt lat="44.32552" lon="2.96019">
        <ele>740</ele>
        <time>2013-04-21T07:41:40Z</time>
      </trkpt>
      <trkpt lat="44.32551" lon="2.96012">
        <ele>741</ele>
        <time>2013-04-21T07:41:43Z</time>
      </trkpt>
      <trkpt lat="44.32552" lon="2.96005">
        <ele>742</ele>
        <time>2013-04-21T07:41:46Z</time>
      </trkpt>
      <trkpt lat="44.3255" lon="2.95991">
        <ele>742</ele>
        <time>2013-04-21T07:41:54Z</time>
      </trkpt>
      <trkpt lat="44.32544" lon="2.95981">
        <ele>742</ele>
        <time>2013-04-21T07:42:02Z</time>
      </trkpt>
      <trkpt lat="44.3254" lon="2.95971">
        <ele>744</ele>
        <time>2013-04-21T07:42:06Z</time>
      </trkpt>
      <trkpt lat="44.32534" lon="2.95963">
        <ele>746</ele>
        <time>2013-04-21T07:42:12Z</time>
      </trkpt>
      <trkpt lat="44.3253" lon="2.95955">
        <ele>746</ele>
        <time>2013-04-21T07:42:18Z</time>
      </trkpt>
      <trkpt lat="44.32525" lon="2.95948">
        <ele>747</ele>
        <time>2013-04-21T07:42:22Z</time>
      </trkpt>
      <trkpt lat="44.32522" lon="2.95943">
        <ele>748</ele>
        <time>2013-04-21T07:42:25Z</time>
      </trkpt>
      <trkpt lat="44.32518" lon="2.95938">
        <ele>748</ele>
        <time>2013-04-21T07:42:28Z</time>
      </trkpt>
      <trkpt lat="44.32514" lon="2.95933">
        <ele>750</ele>
        <time>2013-04-21T07:42:34Z</time>
      </trkpt>
      <trkpt lat="44.32502" lon="2.95928">
        <ele>751</ele>
        <time>2013-04-21T07:42:43Z</time>
      </trkpt>
      <trkpt lat="44.32493" lon="2.95925">
        <ele>750</ele>
        <time>2013-04-21T07:42:47Z</time>
      </trkpt>
      <trkpt lat="44.32484" lon="2.95922">
        <ele>748</ele>
        <time>2013-04-21T07:42:52Z</time>
      </trkpt>
      <trkpt lat="44.32474" lon="2.95917">
        <ele>749</ele>
        <time>2013-04-21T07:42:57Z</time>
      </trkpt>
      <trkpt lat="44.32467" lon="2.95913">
        <ele>751</ele>
        <time>2013-04-21T07:43:02Z</time>
      </trkpt>
      <trkpt lat="44.32458" lon="2.95909">
        <ele>752</ele>
        <time>2013-04-21T07:43:09Z</time>
      </trkpt>
      <trkpt lat="44.32449" lon="2.95905">
        <ele>752</ele>
        <time>2013-04-21T07:43:16Z</time>
      </trkpt>
      <trkpt lat="44.32439" lon="2.95904">
        <ele>751</ele>
        <time>2013-04-21T07:43:22Z</time>
      </trkpt>
      <trkpt lat="44.32429" lon="2.95906">
        <ele>749</ele>
        <time>2013-04-21T07:43:30Z</time>
      </trkpt>
      <trkpt lat="44.3242" lon="2.95913">
        <ele>747</ele>
        <time>2013-04-21T07:43:37Z</time>
      </trkpt>
      <trkpt lat="44.32411" lon="2.95921">
        <ele>745</ele>
        <time>2013-04-21T07:43:45Z</time>
      </trkpt>
      <trkpt lat="44.324" lon="2.95929">
        <ele>744</ele>
        <time>2013-04-21T07:43:52Z</time>
      </trkpt>
      <trkpt lat="44.3239" lon="2.95936">
        <ele>744</ele>
        <time>2013-04-21T07:43:57Z</time>
      </trkpt>
      <trkpt lat="44.32379" lon="2.9594">
        <ele>745</ele>
        <time>2013-04-21T07:44:02Z</time>
      </trkpt>
      <trkpt lat="44.3237" lon="2.95943">
        <ele>746</ele>
        <time>2013-04-21T07:44:06Z</time>
      </trkpt>
      <trkpt lat="44.3236" lon="2.95945">
        <ele>748</ele>
        <time>2013-04-21T07:44:10Z</time>
      </trkpt>
      <trkpt lat="44.32351" lon="2.95948">
        <ele>752</ele>
        <time>2013-04-21T07:44:15Z</time>
      </trkpt>
      <trkpt lat="44.32341" lon="2.95951">
        <ele>755</ele>
        <time>2013-04-21T07:44:21Z</time>
      </trkpt>
      <trkpt lat="44.32336" lon="2.9595">
        <ele>757</ele>
        <time>2013-04-21T07:44:26Z</time>
      </trkpt>
      <trkpt lat="44.32326" lon="2.95952">
        <ele>758</ele>
        <time>2013-04-21T07:44:38Z</time>
      </trkpt>
      <trkpt lat="44.32317" lon="2.95952">
        <ele>759</ele>
        <time>2013-04-21T07:44:45Z</time>
      </trkpt>
      <trkpt lat="44.32308" lon="2.9595">
        <ele>759</ele>
        <time>2013-04-21T07:44:50Z</time>
      </trkpt>
      <trkpt lat="44.32295" lon="2.95958">
        <ele>766</ele>
        <time>2013-04-21T07:45:05Z</time>
      </trkpt>
      <trkpt lat="44.32285" lon="2.95965">
        <ele>769</ele>
        <time>2013-04-21T07:45:11Z</time>
      </trkpt>
      <trkpt lat="44.32275" lon="2.95965">
        <ele>769</ele>
        <time>2013-04-21T07:45:15Z</time>
      </trkpt>
      <trkpt lat="44.32265" lon="2.95968">
        <ele>770</ele>
        <time>2013-04-21T07:45:21Z</time>
      </trkpt>
      <trkpt lat="44.32255" lon="2.95976">
        <ele>768</ele>
        <time>2013-04-21T07:45:29Z</time>
      </trkpt>
      <trkpt lat="44.32245" lon="2.95977">
        <ele>767</ele>
        <time>2013-04-21T07:45:35Z</time>
      </trkpt>
      <trkpt lat="44.32237" lon="2.9598">
        <ele>766</ele>
        <time>2013-04-21T07:45:41Z</time>
      </trkpt>
      <trkpt lat="44.32227" lon="2.95982">
        <ele>768</ele>
        <time>2013-04-21T07:45:48Z</time>
      </trkpt>
      <trkpt lat="44.32217" lon="2.95987">
        <ele>770</ele>
        <time>2013-04-21T07:45:55Z</time>
      </trkpt>
      <trkpt lat="44.32208" lon="2.95989">
        <ele>770</ele>
        <time>2013-04-21T07:46:03Z</time>
      </trkpt>
      <trkpt lat="44.32198" lon="2.95994">
        <ele>767</ele>
        <time>2013-04-21T07:46:12Z</time>
      </trkpt>
      <trkpt lat="44.32188" lon="2.95997">
        <ele>764</ele>
        <time>2013-04-21T07:46:20Z</time>
      </trkpt>
      <trkpt lat="44.32179" lon="2.96005">
        <ele>762</ele>
        <time>2013-04-21T07:46:27Z</time>
      </trkpt>
      <trkpt lat="44.32171" lon="2.96014">
        <ele>758</ele>
        <time>2013-04-21T07:46:35Z</time>
      </trkpt>
      <trkpt lat="44.32161" lon="2.96024">
        <ele>757</ele>
        <time>2013-04-21T07:46:40Z</time>
      </trkpt>
      <trkpt lat="44.32153" lon="2.96032">
        <ele>758</ele>
        <time>2013-04-21T07:46:44Z</time>
      </trkpt>
      <trkpt lat="44.32117" lon="2.96048">
        <ele>777</ele>
        <time>2013-04-21T07:47:02Z</time>
      </trkpt>
      <trkpt lat="44.32113" lon="2.96061">
        <ele>780</ele>
        <time>2013-04-21T07:47:07Z</time>
      </trkpt>
      <trkpt lat="44.32111" lon="2.96074">
        <ele>782</ele>
        <time>2013-04-21T07:47:12Z</time>
      </trkpt>
      <trkpt lat="44.32108" lon="2.96087">
        <ele>784</ele>
        <time>2013-04-21T07:47:17Z</time>
      </trkpt>
      <trkpt lat="44.32104" lon="2.96098">
        <ele>787</ele>
        <time>2013-04-21T07:47:22Z</time>
      </trkpt>
      <trkpt lat="44.32099" lon="2.96108">
        <ele>791</ele>
        <time>2013-04-21T07:47:28Z</time>
      </trkpt>
      <trkpt lat="44.32094" lon="2.96119">
        <ele>793</ele>
        <time>2013-04-21T07:47:34Z</time>
      </trkpt>
      <trkpt lat="44.32092" lon="2.96125">
        <ele>795</ele>
        <time>2013-04-21T07:47:38Z</time>
      </trkpt>
      <trkpt lat="44.32088" lon="2.96132">
        <ele>796</ele>
        <time>2013-04-21T07:47:43Z</time>
      </trkpt>
      <trkpt lat="44.32084" lon="2.96138">
        <ele>796</ele>
        <time>2013-04-21T07:47:47Z</time>
      </trkpt>
      <trkpt lat="44.3208" lon="2.96143">
        <ele>796</ele>
        <time>2013-04-21T07:47:50Z</time>
      </trkpt>
      <trkpt lat="44.32076" lon="2.96147">
        <ele>796</ele>
        <time>2013-04-21T07:47:53Z</time>
      </trkpt>
      <trkpt lat="44.3207" lon="2.96156">
        <ele>796</ele>
        <time>2013-04-21T07:47:59Z</time>
      </trkpt>
      <trkpt lat="44.3206" lon="2.96157">
        <ele>796</ele>
        <time>2013-04-21T07:48:07Z</time>
      </trkpt>
      <trkpt lat="44.32056" lon="2.96156">
        <ele>794</ele>
        <time>2013-04-21T07:48:12Z</time>
      </trkpt>
      <trkpt lat="44.32047" lon="2.96149">
        <ele>797</ele>
        <time>2013-04-21T07:48:20Z</time>
      </trkpt>
      <trkpt lat="44.32043" lon="2.96136">
        <ele>798</ele>
        <time>2013-04-21T07:48:31Z</time>
      </trkpt>
      <trkpt lat="44.32039" lon="2.96123">
        <ele>798</ele>
        <time>2013-04-21T07:48:36Z</time>
      </trkpt>
      <trkpt lat="44.32036" lon="2.9611">
        <ele>799</ele>
        <time>2013-04-21T07:48:41Z</time>
      </trkpt>
      <trkpt lat="44.32031" lon="2.96096">
        <ele>800</ele>
        <time>2013-04-21T07:48:47Z</time>
      </trkpt>
      <trkpt lat="44.32028" lon="2.96084">
        <ele>802</ele>
        <time>2013-04-21T07:48:53Z</time>
      </trkpt>
      <trkpt lat="44.32024" lon="2.96077">
        <ele>804</ele>
        <time>2013-04-21T07:48:57Z</time>
      </trkpt>
      <trkpt lat="44.32018" lon="2.9607">
        <ele>805</ele>
        <time>2013-04-21T07:49:02Z</time>
      </trkpt>
      <trkpt lat="44.3201" lon="2.96064">
        <ele>806</ele>
        <time>2013-04-21T07:49:09Z</time>
      </trkpt>
      <trkpt lat="44.32001" lon="2.96054">
        <ele>807</ele>
        <time>2013-04-21T07:49:16Z</time>
      </trkpt>
      <trkpt lat="44.31995" lon="2.96048">
        <ele>806</ele>
        <time>2013-04-21T07:49:20Z</time>
      </trkpt>
      <trkpt lat="44.3199" lon="2.96044">
        <ele>805</ele>
        <time>2013-04-21T07:49:23Z</time>
      </trkpt>
      <trkpt lat="44.31986" lon="2.96041">
        <ele>805</ele>
        <time>2013-04-21T07:49:27Z</time>
      </trkpt>
      <trkpt lat="44.31978" lon="2.96035">
        <ele>807</ele>
        <time>2013-04-21T07:49:35Z</time>
      </trkpt>
      <trkpt lat="44.31972" lon="2.96025">
        <ele>810</ele>
        <time>2013-04-21T07:49:44Z</time>
      </trkpt>
      <trkpt lat="44.31964" lon="2.96015">
        <ele>806</ele>
        <time>2013-04-21T07:49:53Z</time>
      </trkpt>
      <trkpt lat="44.31962" lon="2.96009">
        <ele>804</ele>
        <time>2013-04-21T07:50:02Z</time>
      </trkpt>
      <trkpt lat="44.3196" lon="2.96">
        <ele>808</ele>
        <time>2013-04-21T07:50:17Z</time>
      </trkpt>
      <trkpt lat="44.3195" lon="2.95993">
        <ele>814</ele>
        <time>2013-04-21T07:50:47Z</time>
      </trkpt>
      <trkpt lat="44.31946" lon="2.95992">
        <ele>819</ele>
        <time>2013-04-21T07:51:31Z</time>
      </trkpt>
      <trkpt lat="44.3194" lon="2.95981">
        <ele>820</ele>
        <time>2013-04-21T07:51:41Z</time>
      </trkpt>
      <trkpt lat="44.31929" lon="2.95971">
        <ele>823</ele>
        <time>2013-04-21T07:51:59Z</time>
      </trkpt>
      <trkpt lat="44.3192" lon="2.95964">
        <ele>824</ele>
        <time>2013-04-21T07:52:06Z</time>
      </trkpt>
      <trkpt lat="44.3191" lon="2.95959">
        <ele>825</ele>
        <time>2013-04-21T07:52:13Z</time>
      </trkpt>
      <trkpt lat="44.319" lon="2.95955">
        <ele>826</ele>
        <time>2013-04-21T07:52:20Z</time>
      </trkpt>
      <trkpt lat="44.31889" lon="2.9595">
        <ele>823</ele>
        <time>2013-04-21T07:52:28Z</time>
      </trkpt>
      <trkpt lat="44.3188" lon="2.95942">
        <ele>822</ele>
        <time>2013-04-21T07:52:33Z</time>
      </trkpt>
      <trkpt lat="44.3187" lon="2.95933">
        <ele>821</ele>
        <time>2013-04-21T07:52:39Z</time>
      </trkpt>
      <trkpt lat="44.31863" lon="2.95922">
        <ele>821</ele>
        <time>2013-04-21T07:52:46Z</time>
      </trkpt>
      <trkpt lat="44.31857" lon="2.95912">
        <ele>821</ele>
        <time>2013-04-21T07:52:52Z</time>
      </trkpt>
      <trkpt lat="44.31851" lon="2.95901">
        <ele>822</ele>
        <time>2013-04-21T07:52:59Z</time>
      </trkpt>
      <trkpt lat="44.31842" lon="2.95896">
        <ele>822</ele>
        <time>2013-04-21T07:53:04Z</time>
      </trkpt>
      <trkpt lat="44.31834" lon="2.95888">
        <ele>821</ele>
        <time>2013-04-21T07:53:08Z</time>
      </trkpt>
      <trkpt lat="44.31826" lon="2.9588">
        <ele>821</ele>
        <time>2013-04-21T07:53:13Z</time>
      </trkpt>
      <trkpt lat="44.31817" lon="2.95875">
        <ele>821</ele>
        <time>2013-04-21T07:53:18Z</time>
      </trkpt>
      <trkpt lat="44.31808" lon="2.95869">
        <ele>821</ele>
        <time>2013-04-21T07:53:23Z</time>
      </trkpt>
      <trkpt lat="44.318" lon="2.95876">
        <ele>822</ele>
        <time>2013-04-21T07:53:30Z</time>
      </trkpt>
      <trkpt lat="44.3179" lon="2.95881">
        <ele>822</ele>
        <time>2013-04-21T07:53:37Z</time>
      </trkpt>
      <trkpt lat="44.3178" lon="2.95884">
        <ele>820</ele>
        <time>2013-04-21T07:53:44Z</time>
      </trkpt>
      <trkpt lat="44.31771" lon="2.95884">
        <ele>822</ele>
        <time>2013-04-21T07:53:51Z</time>
      </trkpt>
      <trkpt lat="44.31762" lon="2.95882">
        <ele>823</ele>
        <time>2013-04-21T07:53:57Z</time>
      </trkpt>
      <trkpt lat="44.31752" lon="2.95881">
        <ele>823</ele>
        <time>2013-04-21T07:54:03Z</time>
      </trkpt>
      <trkpt lat="44.31742" lon="2.95879">
        <ele>827</ele>
        <time>2013-04-21T07:54:10Z</time>
      </trkpt>
      <trkpt lat="44.31704" lon="2.95845">
        <ele>846</ele>
        <time>2013-04-21T07:54:43Z</time>
      </trkpt>
      <trkpt lat="44.31697" lon="2.95835">
        <ele>848</ele>
        <time>2013-04-21T07:54:51Z</time>
      </trkpt>
      <trkpt lat="44.31687" lon="2.95825">
        <ele>847</ele>
        <time>2013-04-21T07:55:03Z</time>
      </trkpt>
      <trkpt lat="44.31678" lon="2.95821">
        <ele>850</ele>
        <time>2013-04-21T07:55:11Z</time>
      </trkpt>
      <trkpt lat="44.31673" lon="2.95809">
        <ele>852</ele>
        <time>2013-04-21T07:55:21Z</time>
      </trkpt>
      <trkpt lat="44.31671" lon="2.95797">
        <ele>851</ele>
        <time>2013-04-21T07:55:30Z</time>
      </trkpt>
      <trkpt lat="44.3167" lon="2.95783">
        <ele>850</ele>
        <time>2013-04-21T07:55:39Z</time>
      </trkpt>
      <trkpt lat="44.31663" lon="2.95764">
        <ele>850</ele>
        <time>2013-04-21T07:55:44Z</time>
      </trkpt>
      <trkpt lat="44.31657" lon="2.95742">
        <ele>852</ele>
        <time>2013-04-21T07:55:53Z</time>
      </trkpt>
      <trkpt lat="44.31654" lon="2.95729">
        <ele>855</ele>
        <time>2013-04-21T07:55:57Z</time>
      </trkpt>
      <trkpt lat="44.3165" lon="2.95708">
        <ele>858</ele>
        <time>2013-04-21T07:56:07Z</time>
      </trkpt>
      <trkpt lat="44.31644" lon="2.95694">
        <ele>860</ele>
        <time>2013-04-21T07:56:15Z</time>
      </trkpt>
      <trkpt lat="44.31638" lon="2.95679">
        <ele>862</ele>
        <time>2013-04-21T07:56:20Z</time>
      </trkpt>
      <trkpt lat="44.3163" lon="2.9567">
        <ele>864</ele>
        <time>2013-04-21T07:56:27Z</time>
      </trkpt>
      <trkpt lat="44.31621" lon="2.95661">
        <ele>866</ele>
        <time>2013-04-21T07:56:34Z</time>
      </trkpt>
      <trkpt lat="44.31617" lon="2.95656">
        <ele>867</ele>
        <time>2013-04-21T07:56:37Z</time>
      </trkpt>
      <trkpt lat="44.31612" lon="2.95653">
        <ele>868</ele>
        <time>2013-04-21T07:56:40Z</time>
      </trkpt>
      <trkpt lat="44.31603" lon="2.95648">
        <ele>868</ele>
        <time>2013-04-21T07:56:47Z</time>
      </trkpt>
      <trkpt lat="44.31598" lon="2.95644">
        <ele>868</ele>
        <time>2013-04-21T07:56:50Z</time>
      </trkpt>
      <trkpt lat="44.31594" lon="2.9564">
        <ele>869</ele>
        <time>2013-04-21T07:56:53Z</time>
      </trkpt>
      <trkpt lat="44.31588" lon="2.95631">
        <ele>870</ele>
        <time>2013-04-21T07:56:59Z</time>
      </trkpt>
      <trkpt lat="44.31582" lon="2.95622">
        <ele>869</ele>
        <time>2013-04-21T07:57:05Z</time>
      </trkpt>
      <trkpt lat="44.31575" lon="2.95614">
        <ele>867</ele>
        <time>2013-04-21T07:57:11Z</time>
      </trkpt>
      <trkpt lat="44.31571" lon="2.95609">
        <ele>866</ele>
        <time>2013-04-21T07:57:15Z</time>
      </trkpt>
      <trkpt lat="44.31563" lon="2.95603">
        <ele>866</ele>
        <time>2013-04-21T07:57:22Z</time>
      </trkpt>
      <trkpt lat="44.31554" lon="2.956">
        <ele>869</ele>
        <time>2013-04-21T07:57:30Z</time>
      </trkpt>
      <trkpt lat="44.31545" lon="2.95598">
        <ele>872</ele>
        <time>2013-04-21T07:57:37Z</time>
      </trkpt>
      <trkpt lat="44.31535" lon="2.95596">
        <ele>874</ele>
        <time>2013-04-21T07:57:43Z</time>
      </trkpt>
      <trkpt lat="44.31525" lon="2.95596">
        <ele>874</ele>
        <time>2013-04-21T07:57:50Z</time>
      </trkpt>
      <trkpt lat="44.31516" lon="2.95597">
        <ele>873</ele>
        <time>2013-04-21T07:57:56Z</time>
      </trkpt>
      <trkpt lat="44.31506" lon="2.95599">
        <ele>871</ele>
        <time>2013-04-21T07:58:03Z</time>
      </trkpt>
      <trkpt lat="44.31497" lon="2.95602">
        <ele>869</ele>
        <time>2013-04-21T07:58:09Z</time>
      </trkpt>
      <trkpt lat="44.31487" lon="2.95605">
        <ele>867</ele>
        <time>2013-04-21T07:58:16Z</time>
      </trkpt>
      <trkpt lat="44.3148" lon="2.95608">
        <ele>866</ele>
        <time>2013-04-21T07:58:21Z</time>
      </trkpt>
      <trkpt lat="44.3147" lon="2.95611">
        <ele>866</ele>
        <time>2013-04-21T07:58:28Z</time>
      </trkpt>
      <trkpt lat="44.31461" lon="2.95613">
        <ele>867</ele>
        <time>2013-04-21T07:58:34Z</time>
      </trkpt>
      <trkpt lat="44.31452" lon="2.95616">
        <ele>870</ele>
        <time>2013-04-21T07:58:40Z</time>
      </trkpt>
      <trkpt lat="44.31443" lon="2.95622">
        <ele>871</ele>
        <time>2013-04-21T07:58:46Z</time>
      </trkpt>
      <trkpt lat="44.31434" lon="2.95626">
        <ele>872</ele>
        <time>2013-04-21T07:58:53Z</time>
      </trkpt>
      <trkpt lat="44.31423" lon="2.95629">
        <ele>873</ele>
        <time>2013-04-21T07:59:02Z</time>
      </trkpt>
      <trkpt lat="44.31414" lon="2.95629">
        <ele>873</ele>
        <time>2013-04-21T07:59:10Z</time>
      </trkpt>
      <trkpt lat="44.31405" lon="2.95631">
        <ele>872</ele>
        <time>2013-04-21T07:59:17Z</time>
      </trkpt>
      <trkpt lat="44.31396" lon="2.95634">
        <ele>872</ele>
        <time>2013-04-21T07:59:23Z</time>
      </trkpt>
      <trkpt lat="44.31385" lon="2.95635">
        <ele>870</ele>
        <time>2013-04-21T07:59:31Z</time>
      </trkpt>
      <trkpt lat="44.31375" lon="2.95638">
        <ele>871</ele>
        <time>2013-04-21T07:59:36Z</time>
      </trkpt>
      <trkpt lat="44.31366" lon="2.95644">
        <ele>876</ele>
        <time>2013-04-21T07:59:41Z</time>
      </trkpt>
      <trkpt lat="44.3134" lon="2.95656">
        <ele>889</ele>
        <time>2013-04-21T07:59:59Z</time>
      </trkpt>
      <trkpt lat="44.31335" lon="2.95659">
        <ele>889</ele>
        <time>2013-04-21T08:00:03Z</time>
      </trkpt>
      <trkpt lat="44.31326" lon="2.95663">
        <ele>890</ele>
        <time>2013-04-21T08:00:11Z</time>
      </trkpt>
      <trkpt lat="44.31315" lon="2.9567">
        <ele>892</ele>
        <time>2013-04-21T08:00:20Z</time>
      </trkpt>
      <trkpt lat="44.31307" lon="2.95677">
        <ele>889</ele>
        <time>2013-04-21T08:00:29Z</time>
      </trkpt>
      <trkpt lat="44.31299" lon="2.95686">
        <ele>887</ele>
        <time>2013-04-21T08:00:36Z</time>
      </trkpt>
      <trkpt lat="44.3129" lon="2.95692">
        <ele>885</ele>
        <time>2013-04-21T08:00:42Z</time>
      </trkpt>
      <trkpt lat="44.31281" lon="2.95694">
        <ele>883</ele>
        <time>2013-04-21T08:00:49Z</time>
      </trkpt>
      <trkpt lat="44.31272" lon="2.95698">
        <ele>881</ele>
        <time>2013-04-21T08:00:58Z</time>
      </trkpt>
      <trkpt lat="44.31263" lon="2.95699">
        <ele>880</ele>
        <time>2013-04-21T08:01:05Z</time>
      </trkpt>
      <trkpt lat="44.31253" lon="2.95702">
        <ele>884</ele>
        <time>2013-04-21T08:01:14Z</time>
      </trkpt>
      <trkpt lat="44.3121" lon="2.95685">
        <ele>911</ele>
        <time>2013-04-21T08:01:48Z</time>
      </trkpt>
      <trkpt lat="44.312" lon="2.95681">
        <ele>907</ele>
        <time>2013-04-21T08:02:00Z</time>
      </trkpt>
      <trkpt lat="44.31192" lon="2.95676">
        <ele>906</ele>
        <time>2013-04-21T08:02:04Z</time>
      </trkpt>
      <trkpt lat="44.31183" lon="2.9567">
        <ele>905</ele>
        <time>2013-04-21T08:02:11Z</time>
      </trkpt>
      <trkpt lat="44.31176" lon="2.95661">
        <ele>906</ele>
        <time>2013-04-21T08:02:18Z</time>
      </trkpt>
      <trkpt lat="44.31169" lon="2.95652">
        <ele>907</ele>
        <time>2013-04-21T08:02:25Z</time>
      </trkpt>
      <trkpt lat="44.31161" lon="2.95642">
        <ele>908</ele>
        <time>2013-04-21T08:02:29Z</time>
      </trkpt>
      <trkpt lat="44.31154" lon="2.9563">
        <ele>912</ele>
        <time>2013-04-21T08:02:36Z</time>
      </trkpt>
      <trkpt lat="44.31151" lon="2.95622">
        <ele>913</ele>
        <time>2013-04-21T08:02:40Z</time>
      </trkpt>
      <trkpt lat="44.31147" lon="2.95608">
        <ele>913</ele>
        <time>2013-04-21T08:02:51Z</time>
      </trkpt>
      <trkpt lat="44.31144" lon="2.95596">
        <ele>914</ele>
        <time>2013-04-21T08:02:55Z</time>
      </trkpt>
      <trkpt lat="44.31142" lon="2.95579">
        <ele>917</ele>
        <time>2013-04-21T08:03:04Z</time>
      </trkpt>
      <trkpt lat="44.3114" lon="2.95562">
        <ele>918</ele>
        <time>2013-04-21T08:03:09Z</time>
      </trkpt>
      <trkpt lat="44.31137" lon="2.95543">
        <ele>922</ele>
        <time>2013-04-21T08:03:19Z</time>
      </trkpt>
      <trkpt lat="44.31136" lon="2.9553">
        <ele>921</ele>
        <time>2013-04-21T08:03:27Z</time>
      </trkpt>
      <trkpt lat="44.31132" lon="2.95518">
        <ele>919</ele>
        <time>2013-04-21T08:03:32Z</time>
      </trkpt>
      <trkpt lat="44.31128" lon="2.95503">
        <ele>916</ele>
        <time>2013-04-21T08:03:45Z</time>
      </trkpt>
      <trkpt lat="44.31124" lon="2.95489">
        <ele>917</ele>
        <time>2013-04-21T08:03:50Z</time>
      </trkpt>
      <trkpt lat="44.31122" lon="2.95476">
        <ele>919</ele>
        <time>2013-04-21T08:03:58Z</time>
      </trkpt>
      <trkpt lat="44.31122" lon="2.95462">
        <ele>921</ele>
        <time>2013-04-21T08:04:09Z</time>
      </trkpt>
      <trkpt lat="44.31122" lon="2.95449">
        <ele>922</ele>
        <time>2013-04-21T08:04:16Z</time>
      </trkpt>
      <trkpt lat="44.31123" lon="2.95436">
        <ele>922</ele>
        <time>2013-04-21T08:04:23Z</time>
      </trkpt>
      <trkpt lat="44.3112" lon="2.95422">
        <ele>920</ele>
        <time>2013-04-21T08:04:28Z</time>
      </trkpt>
      <trkpt lat="44.31118" lon="2.95412">
        <ele>920</ele>
        <time>2013-04-21T08:04:32Z</time>
      </trkpt>
      <trkpt lat="44.31111" lon="2.95403">
        <ele>921</ele>
        <time>2013-04-21T08:04:39Z</time>
      </trkpt>
      <trkpt lat="44.31102" lon="2.95398">
        <ele>922</ele>
        <time>2013-04-21T08:04:46Z</time>
      </trkpt>
      <trkpt lat="44.31093" lon="2.95394">
        <ele>922</ele>
        <time>2013-04-21T08:04:54Z</time>
      </trkpt>
      <trkpt lat="44.31081" lon="2.95388">
        <ele>924</ele>
        <time>2013-04-21T08:05:00Z</time>
      </trkpt>
      <trkpt lat="44.31072" lon="2.95382">
        <ele>925</ele>
        <time>2013-04-21T08:05:10Z</time>
      </trkpt>
      <trkpt lat="44.31062" lon="2.95364">
        <ele>923</ele>
        <time>2013-04-21T08:05:19Z</time>
      </trkpt>
      <trkpt lat="44.31058" lon="2.95351">
        <ele>923</ele>
        <time>2013-04-21T08:05:22Z</time>
      </trkpt>
      <trkpt lat="44.31055" lon="2.95336">
        <ele>924</ele>
        <time>2013-04-21T08:05:34Z</time>
      </trkpt>
      <trkpt lat="44.3105" lon="2.95324">
        <ele>925</ele>
        <time>2013-04-21T08:05:39Z</time>
      </trkpt>
      <trkpt lat="44.31045" lon="2.95312">
        <ele>924</ele>
        <time>2013-04-21T08:05:47Z</time>
      </trkpt>
      <trkpt lat="44.3104" lon="2.953">
        <ele>922</ele>
        <time>2013-04-21T08:05:54Z</time>
      </trkpt>
      <trkpt lat="44.31038" lon="2.95285">
        <ele>919</ele>
        <time>2013-04-21T08:06:00Z</time>
      </trkpt>
      <trkpt lat="44.31034" lon="2.95274">
        <ele>919</ele>
        <time>2013-04-21T08:06:07Z</time>
      </trkpt>
      <trkpt lat="44.3103" lon="2.95261">
        <ele>922</ele>
        <time>2013-04-21T08:06:16Z</time>
      </trkpt>
      <trkpt lat="44.31031" lon="2.95247">
        <ele>923</ele>
        <time>2013-04-21T08:06:22Z</time>
      </trkpt>
      <trkpt lat="44.3103" lon="2.95233">
        <ele>926</ele>
        <time>2013-04-21T08:06:29Z</time>
      </trkpt>
      <trkpt lat="44.31025" lon="2.95219">
        <ele>926</ele>
        <time>2013-04-21T08:06:39Z</time>
      </trkpt>
      <trkpt lat="44.31016" lon="2.95212">
        <ele>928</ele>
        <time>2013-04-21T08:06:46Z</time>
      </trkpt>
      <trkpt lat="44.31005" lon="2.95205">
        <ele>929</ele>
        <time>2013-04-21T08:06:50Z</time>
      </trkpt>
      <trkpt lat="44.30997" lon="2.95197">
        <ele>929</ele>
        <time>2013-04-21T08:06:53Z</time>
      </trkpt>
      <trkpt lat="44.30988" lon="2.95195">
        <ele>930</ele>
        <time>2013-04-21T08:06:57Z</time>
      </trkpt>
      <trkpt lat="44.30978" lon="2.95195">
        <ele>927</ele>
        <time>2013-04-21T08:07:03Z</time>
      </trkpt>
      <trkpt lat="44.30971" lon="2.95206">
        <ele>927</ele>
        <time>2013-04-21T08:07:11Z</time>
      </trkpt>
      <trkpt lat="44.30963" lon="2.95217">
        <ele>928</ele>
        <time>2013-04-21T08:07:18Z</time>
      </trkpt>
      <trkpt lat="44.30957" lon="2.95225">
        <ele>929</ele>
        <time>2013-04-21T08:07:24Z</time>
      </trkpt>
      <trkpt lat="44.30953" lon="2.9524">
        <ele>932</ele>
        <time>2013-04-21T08:07:29Z</time>
      </trkpt>
      <trkpt lat="44.30946" lon="2.95252">
        <ele>938</ele>
        <time>2013-04-21T08:07:37Z</time>
      </trkpt>
      <trkpt lat="44.30935" lon="2.95255">
        <ele>945</ele>
        <time>2013-04-21T08:07:42Z</time>
      </trkpt>
      <trkpt lat="44.30926" lon="2.95258">
        <ele>948</ele>
        <time>2013-04-21T08:07:47Z</time>
      </trkpt>
      <trkpt lat="44.30917" lon="2.95262">
        <ele>950</ele>
        <time>2013-04-21T08:07:57Z</time>
      </trkpt>
      <trkpt lat="44.30907" lon="2.95265">
        <ele>950</ele>
        <time>2013-04-21T08:08:05Z</time>
      </trkpt>
      <trkpt lat="44.30896" lon="2.95271">
        <ele>947</ele>
        <time>2013-04-21T08:08:14Z</time>
      </trkpt>
      <trkpt lat="44.30887" lon="2.95276">
        <ele>945</ele>
        <time>2013-04-21T08:08:19Z</time>
      </trkpt>
      <trkpt lat="44.30878" lon="2.95282">
        <ele>943</ele>
        <time>2013-04-21T08:08:26Z</time>
      </trkpt>
      <trkpt lat="44.30868" lon="2.95285">
        <ele>940</ele>
        <time>2013-04-21T08:08:34Z</time>
      </trkpt>
      <trkpt lat="44.30858" lon="2.95285">
        <ele>942</ele>
        <time>2013-04-21T08:08:44Z</time>
      </trkpt>
      <trkpt lat="44.30849" lon="2.95281">
        <ele>945</ele>
        <time>2013-04-21T08:08:55Z</time>
      </trkpt>
      <trkpt lat="44.30836" lon="2.95281">
        <ele>947</ele>
        <time>2013-04-21T08:09:02Z</time>
      </trkpt>
      <trkpt lat="44.30827" lon="2.95277">
        <ele>950</ele>
        <time>2013-04-21T08:09:09Z</time>
      </trkpt>
      <trkpt lat="44.30818" lon="2.95276">
        <ele>951</ele>
        <time>2013-04-21T08:09:15Z</time>
      </trkpt>
      <trkpt lat="44.30805" lon="2.95275">
        <ele>947</ele>
        <time>2013-04-21T08:09:26Z</time>
      </trkpt>
      <trkpt lat="44.30796" lon="2.95278">
        <ele>944</ele>
        <time>2013-04-21T08:09:32Z</time>
      </trkpt>
      <trkpt lat="44.30787" lon="2.95272">
        <ele>942</ele>
        <time>2013-04-21T08:09:41Z</time>
      </trkpt>
      <trkpt lat="44.30777" lon="2.95268">
        <ele>940</ele>
        <time>2013-04-21T08:09:45Z</time>
      </trkpt>
      <trkpt lat="44.30764" lon="2.9527">
        <ele>941</ele>
        <time>2013-04-21T08:09:55Z</time>
      </trkpt>
      <trkpt lat="44.30754" lon="2.95271">
        <ele>943</ele>
        <time>2013-04-21T08:10:02Z</time>
      </trkpt>
      <trkpt lat="44.30744" lon="2.95273">
        <ele>945</ele>
        <time>2013-04-21T08:10:08Z</time>
      </trkpt>
      <trkpt lat="44.30735" lon="2.95271">
        <ele>947</ele>
        <time>2013-04-21T08:10:16Z</time>
      </trkpt>
      <trkpt lat="44.30724" lon="2.95269">
        <ele>949</ele>
        <time>2013-04-21T08:10:23Z</time>
      </trkpt>
      <trkpt lat="44.30714" lon="2.95269">
        <ele>948</ele>
        <time>2013-04-21T08:10:29Z</time>
      </trkpt>
      <trkpt lat="44.30709" lon="2.95269">
        <ele>948</ele>
        <time>2013-04-21T08:10:40Z</time>
      </trkpt>
      <trkpt lat="44.30699" lon="2.95268">
        <ele>948</ele>
        <time>2013-04-21T08:10:48Z</time>
      </trkpt>
      <trkpt lat="44.30689" lon="2.95265">
        <ele>948</ele>
        <time>2013-04-21T08:10:54Z</time>
      </trkpt>
      <trkpt lat="44.30679" lon="2.95264">
        <ele>950</ele>
        <time>2013-04-21T08:10:59Z</time>
      </trkpt>
      <trkpt lat="44.30665" lon="2.95259">
        <ele>951</ele>
        <time>2013-04-21T08:11:05Z</time>
      </trkpt>
      <trkpt lat="44.30655" lon="2.95258">
        <ele>952</ele>
        <time>2013-04-21T08:11:11Z</time>
      </trkpt>
      <trkpt lat="44.30646" lon="2.95252">
        <ele>952</ele>
        <time>2013-04-21T08:11:19Z</time>
      </trkpt>
      <trkpt lat="44.30635" lon="2.95243">
        <ele>952</ele>
        <time>2013-04-21T08:11:27Z</time>
      </trkpt>
      <trkpt lat="44.30626" lon="2.95237">
        <ele>952</ele>
        <time>2013-04-21T08:11:32Z</time>
      </trkpt>
      <trkpt lat="44.30618" lon="2.95228">
        <ele>951</ele>
        <time>2013-04-21T08:11:38Z</time>
      </trkpt>
      <trkpt lat="44.30607" lon="2.95225">
        <ele>951</ele>
        <time>2013-04-21T08:11:51Z</time>
      </trkpt>
      <trkpt lat="44.30597" lon="2.95228">
        <ele>951</ele>
        <time>2013-04-21T08:11:56Z</time>
      </trkpt>
      <trkpt lat="44.30589" lon="2.95233">
        <ele>951</ele>
        <time>2013-04-21T08:12:03Z</time>
      </trkpt>
      <trkpt lat="44.30579" lon="2.95241">
        <ele>953</ele>
        <time>2013-04-21T08:12:11Z</time>
      </trkpt>
      <trkpt lat="44.3057" lon="2.95245">
        <ele>954</ele>
        <time>2013-04-21T08:12:19Z</time>
      </trkpt>
      <trkpt lat="44.3056" lon="2.9525">
        <ele>954</ele>
        <time>2013-04-21T08:12:28Z</time>
      </trkpt>
      <trkpt lat="44.30551" lon="2.95253">
        <ele>955</ele>
        <time>2013-04-21T08:12:34Z</time>
      </trkpt>
      <trkpt lat="44.30544" lon="2.95262">
        <ele>954</ele>
        <time>2013-04-21T08:12:37Z</time>
      </trkpt>
      <trkpt lat="44.30535" lon="2.9527">
        <ele>952</ele>
        <time>2013-04-21T08:12:44Z</time>
      </trkpt>
      <trkpt lat="44.30532" lon="2.95283">
        <ele>951</ele>
        <time>2013-04-21T08:12:49Z</time>
      </trkpt>
      <trkpt lat="44.30527" lon="2.95296">
        <ele>953</ele>
        <time>2013-04-21T08:12:55Z</time>
      </trkpt>
      <trkpt lat="44.3052" lon="2.95304">
        <ele>956</ele>
        <time>2013-04-21T08:13:02Z</time>
      </trkpt>
      <trkpt lat="44.30513" lon="2.95307">
        <ele>958</ele>
        <time>2013-04-21T08:13:17Z</time>
      </trkpt>
      <trkpt lat="44.30504" lon="2.95314">
        <ele>958</ele>
        <time>2013-04-21T08:13:27Z</time>
      </trkpt>
      <trkpt lat="44.30501" lon="2.95319">
        <ele>959</ele>
        <time>2013-04-21T08:13:29Z</time>
      </trkpt>
      <trkpt lat="44.30497" lon="2.95325">
        <ele>962</ele>
        <time>2013-04-21T08:13:32Z</time>
      </trkpt>
      <trkpt lat="44.30491" lon="2.95336">
        <ele>965</ele>
        <time>2013-04-21T08:13:38Z</time>
      </trkpt>
      <trkpt lat="44.30485" lon="2.95346">
        <ele>966</ele>
        <time>2013-04-21T08:13:44Z</time>
      </trkpt>
      <trkpt lat="44.30479" lon="2.95354">
        <ele>967</ele>
        <time>2013-04-21T08:13:49Z</time>
      </trkpt>
      <trkpt lat="44.30476" lon="2.95359">
        <ele>968</ele>
        <time>2013-04-21T08:13:52Z</time>
      </trkpt>
      <trkpt lat="44.30469" lon="2.95369">
        <ele>969</ele>
        <time>2013-04-21T08:13:57Z</time>
      </trkpt>
      <trkpt lat="44.30463" lon="2.95381">
        <ele>968</ele>
        <time>2013-04-21T08:14:03Z</time>
      </trkpt>
      <trkpt lat="44.30461" lon="2.95388">
        <ele>968</ele>
        <time>2013-04-21T08:14:08Z</time>
      </trkpt>
      <trkpt lat="44.30458" lon="2.95393">
        <ele>968</ele>
        <time>2013-04-21T08:14:11Z</time>
      </trkpt>
      <trkpt lat="44.30451" lon="2.95401">
        <ele>968</ele>
        <time>2013-04-21T08:14:17Z</time>
      </trkpt>
      <trkpt lat="44.30444" lon="2.9541">
        <ele>969</ele>
        <time>2013-04-21T08:14:22Z</time>
      </trkpt>
      <trkpt lat="44.3044" lon="2.95415">
        <ele>969</ele>
        <time>2013-04-21T08:14:25Z</time>
      </trkpt>
      <trkpt lat="44.30436" lon="2.95419">
        <ele>970</ele>
        <time>2013-04-21T08:14:28Z</time>
      </trkpt>
      <trkpt lat="44.30432" lon="2.95427">
        <ele>970</ele>
        <time>2013-04-21T08:14:33Z</time>
      </trkpt>
      <trkpt lat="44.30429" lon="2.95432">
        <ele>970</ele>
        <time>2013-04-21T08:14:36Z</time>
      </trkpt>
      <trkpt lat="44.30423" lon="2.95443">
        <ele>970</ele>
        <time>2013-04-21T08:14:42Z</time>
      </trkpt>
      <trkpt lat="44.30416" lon="2.95452">
        <ele>973</ele>
        <time>2013-04-21T08:14:48Z</time>
      </trkpt>
      <trkpt lat="44.30407" lon="2.95459">
        <ele>974</ele>
        <time>2013-04-21T08:14:54Z</time>
      </trkpt>
      <trkpt lat="44.30402" lon="2.95466">
        <ele>973</ele>
        <time>2013-04-21T08:14:59Z</time>
      </trkpt>
      <trkpt lat="44.30398" lon="2.95472">
        <ele>972</ele>
        <time>2013-04-21T08:15:03Z</time>
      </trkpt>
      <trkpt lat="44.30393" lon="2.95482">
        <ele>972</ele>
        <time>2013-04-21T08:15:10Z</time>
      </trkpt>
      <trkpt lat="44.30388" lon="2.95493">
        <ele>972</ele>
        <time>2013-04-21T08:15:18Z</time>
      </trkpt>
      <trkpt lat="44.30381" lon="2.95503">
        <ele>973</ele>
        <time>2013-04-21T08:15:23Z</time>
      </trkpt>
      <trkpt lat="44.30376" lon="2.95513">
        <ele>973</ele>
        <time>2013-04-21T08:15:29Z</time>
      </trkpt>
      <trkpt lat="44.30369" lon="2.95522">
        <ele>973</ele>
        <time>2013-04-21T08:15:35Z</time>
      </trkpt>
      <trkpt lat="44.30361" lon="2.95531">
        <ele>973</ele>
        <time>2013-04-21T08:15:40Z</time>
      </trkpt>
      <trkpt lat="44.30353" lon="2.95537">
        <ele>973</ele>
        <time>2013-04-21T08:15:47Z</time>
      </trkpt>
      <trkpt lat="44.30346" lon="2.95546">
        <ele>972</ele>
        <time>2013-04-21T08:15:53Z</time>
      </trkpt>
      <trkpt lat="44.30338" lon="2.95555">
        <ele>971</ele>
        <time>2013-04-21T08:15:59Z</time>
      </trkpt>
      <trkpt lat="44.30331" lon="2.95564">
        <ele>972</ele>
        <time>2013-04-21T08:16:05Z</time>
      </trkpt>
      <trkpt lat="44.30324" lon="2.95574">
        <ele>973</ele>
        <time>2013-04-21T08:16:12Z</time>
      </trkpt>
      <trkpt lat="44.30314" lon="2.95576">
        <ele>976</ele>
        <time>2013-04-21T08:16:24Z</time>
      </trkpt>
      <trkpt lat="44.30305" lon="2.95584">
        <ele>975</ele>
        <time>2013-04-21T08:16:32Z</time>
      </trkpt>
      <trkpt lat="44.30296" lon="2.95591">
        <ele>976</ele>
        <time>2013-04-21T08:16:38Z</time>
      </trkpt>
      <trkpt lat="44.30288" lon="2.95598">
        <ele>977</ele>
        <time>2013-04-21T08:16:44Z</time>
      </trkpt>
      <trkpt lat="44.30282" lon="2.956">
        <ele>977</ele>
        <time>2013-04-21T08:16:48Z</time>
      </trkpt>
      <trkpt lat="44.30277" lon="2.95604">
        <ele>976</ele>
        <time>2013-04-21T08:16:52Z</time>
      </trkpt>
      <trkpt lat="44.30273" lon="2.95605">
        <ele>975</ele>
        <time>2013-04-21T08:16:55Z</time>
      </trkpt>
      <trkpt lat="44.30268" lon="2.95606">
        <ele>974</ele>
        <time>2013-04-21T08:16:58Z</time>
      </trkpt>
      <trkpt lat="44.30263" lon="2.95608">
        <ele>974</ele>
        <time>2013-04-21T08:17:01Z</time>
      </trkpt>
      <trkpt lat="44.30257" lon="2.95609">
        <ele>973</ele>
        <time>2013-04-21T08:17:04Z</time>
      </trkpt>
      <trkpt lat="44.30253" lon="2.9561">
        <ele>973</ele>
        <time>2013-04-21T08:17:07Z</time>
      </trkpt>
      <trkpt lat="44.30248" lon="2.95613">
        <ele>973</ele>
        <time>2013-04-21T08:17:10Z</time>
      </trkpt>
      <trkpt lat="44.30243" lon="2.95615">
        <ele>974</ele>
        <time>2013-04-21T08:17:13Z</time>
      </trkpt>
      <trkpt lat="44.30238" lon="2.95617">
        <ele>974</ele>
        <time>2013-04-21T08:17:16Z</time>
      </trkpt>
      <trkpt lat="44.30229" lon="2.9562">
        <ele>974</ele>
        <time>2013-04-21T08:17:22Z</time>
      </trkpt>
      <trkpt lat="44.30224" lon="2.95621">
        <ele>974</ele>
        <time>2013-04-21T08:17:25Z</time>
      </trkpt>
      <trkpt lat="44.30219" lon="2.95622">
        <ele>974</ele>
        <time>2013-04-21T08:17:28Z</time>
      </trkpt>
      <trkpt lat="44.30213" lon="2.95624">
        <ele>975</ele>
        <time>2013-04-21T08:17:32Z</time>
      </trkpt>
      <trkpt lat="44.30208" lon="2.95626">
        <ele>975</ele>
        <time>2013-04-21T08:17:35Z</time>
      </trkpt>
      <trkpt lat="44.30204" lon="2.95627">
        <ele>975</ele>
        <time>2013-04-21T08:17:38Z</time>
      </trkpt>
      <trkpt lat="44.30193" lon="2.95631">
        <ele>976</ele>
        <time>2013-04-21T08:17:45Z</time>
      </trkpt>
      <trkpt lat="44.30186" lon="2.95632">
        <ele>974</ele>
        <time>2013-04-21T08:17:51Z</time>
      </trkpt>
      <trkpt lat="44.30181" lon="2.95632">
        <ele>973</ele>
        <time>2013-04-21T08:17:54Z</time>
      </trkpt>
      <trkpt lat="44.30175" lon="2.95633">
        <ele>973</ele>
        <time>2013-04-21T08:17:58Z</time>
      </trkpt>
      <trkpt lat="44.3017" lon="2.95634">
        <ele>972</ele>
        <time>2013-04-21T08:18:01Z</time>
      </trkpt>
      <trkpt lat="44.30166" lon="2.95633">
        <ele>971</ele>
        <time>2013-04-21T08:18:04Z</time>
      </trkpt>
      <trkpt lat="44.30161" lon="2.95632">
        <ele>971</ele>
        <time>2013-04-21T08:18:07Z</time>
      </trkpt>
      <trkpt lat="44.30156" lon="2.9563">
        <ele>971</ele>
        <time>2013-04-21T08:18:11Z</time>
      </trkpt>
      <trkpt lat="44.30151" lon="2.95627">
        <ele>970</ele>
        <time>2013-04-21T08:18:14Z</time>
      </trkpt>
      <trkpt lat="44.30146" lon="2.95625">
        <ele>970</ele>
        <time>2013-04-21T08:18:18Z</time>
      </trkpt>
      <trkpt lat="44.30141" lon="2.95623">
        <ele>971</ele>
        <time>2013-04-21T08:18:22Z</time>
      </trkpt>
      <trkpt lat="44.30137" lon="2.9562">
        <ele>972</ele>
        <time>2013-04-21T08:18:25Z</time>
      </trkpt>
      <trkpt lat="44.30132" lon="2.95617">
        <ele>973</ele>
        <time>2013-04-21T08:18:28Z</time>
      </trkpt>
      <trkpt lat="44.30128" lon="2.95615">
        <ele>973</ele>
        <time>2013-04-21T08:18:31Z</time>
      </trkpt>
      <trkpt lat="44.30123" lon="2.95613">
        <ele>973</ele>
        <time>2013-04-21T08:18:35Z</time>
      </trkpt>
      <trkpt lat="44.30116" lon="2.95609">
        <ele>972</ele>
        <time>2013-04-21T08:18:39Z</time>
      </trkpt>
      <trkpt lat="44.30111" lon="2.95606">
        <ele>972</ele>
        <time>2013-04-21T08:18:43Z</time>
      </trkpt>
      <trkpt lat="44.30104" lon="2.95603">
        <ele>972</ele>
        <time>2013-04-21T08:18:48Z</time>
      </trkpt>
      <trkpt lat="44.30099" lon="2.95601">
        <ele>972</ele>
        <time>2013-04-21T08:18:51Z</time>
      </trkpt>
      <trkpt lat="44.30094" lon="2.95597">
        <ele>972</ele>
        <time>2013-04-21T08:18:55Z</time>
      </trkpt>
      <trkpt lat="44.30089" lon="2.95595">
        <ele>972</ele>
        <time>2013-04-21T08:18:58Z</time>
      </trkpt>
      <trkpt lat="44.30085" lon="2.95592">
        <ele>972</ele>
        <time>2013-04-21T08:19:01Z</time>
      </trkpt>
      <trkpt lat="44.30077" lon="2.95589">
        <ele>971</ele>
        <time>2013-04-21T08:19:08Z</time>
      </trkpt>
      <trkpt lat="44.30072" lon="2.95587">
        <ele>971</ele>
        <time>2013-04-21T08:19:11Z</time>
      </trkpt>
      <trkpt lat="44.30067" lon="2.95584">
        <ele>972</ele>
        <time>2013-04-21T08:19:14Z</time>
      </trkpt>
      <trkpt lat="44.30062" lon="2.95582">
        <ele>972</ele>
        <time>2013-04-21T08:19:17Z</time>
      </trkpt>
      <trkpt lat="44.30057" lon="2.95579">
        <ele>971</ele>
        <time>2013-04-21T08:19:21Z</time>
      </trkpt>
      <trkpt lat="44.30052" lon="2.95576">
        <ele>971</ele>
        <time>2013-04-21T08:19:24Z</time>
      </trkpt>
      <trkpt lat="44.30048" lon="2.95572">
        <ele>972</ele>
        <time>2013-04-21T08:19:27Z</time>
      </trkpt>
      <trkpt lat="44.30043" lon="2.95569">
        <ele>971</ele>
        <time>2013-04-21T08:19:30Z</time>
      </trkpt>
      <trkpt lat="44.30038" lon="2.95567">
        <ele>971</ele>
        <time>2013-04-21T08:19:34Z</time>
      </trkpt>
      <trkpt lat="44.30029" lon="2.95567">
        <ele>973</ele>
        <time>2013-04-21T08:19:40Z</time>
      </trkpt>
      <trkpt lat="44.30023" lon="2.95567">
        <ele>973</ele>
        <time>2013-04-21T08:19:43Z</time>
      </trkpt>
      <trkpt lat="44.30013" lon="2.9557">
        <ele>974</ele>
        <time>2013-04-21T08:19:49Z</time>
      </trkpt>
      <trkpt lat="44.30008" lon="2.95571">
        <ele>975</ele>
        <time>2013-04-21T08:19:52Z</time>
      </trkpt>
      <trkpt lat="44.30009" lon="2.95572">
        <ele>978</ele>
        <time>2013-04-21T08:20:42Z</time>
      </trkpt>
      <trkpt lat="44.30002" lon="2.95569">
        <ele>981</ele>
        <time>2013-04-21T08:22:20Z</time>
      </trkpt>
      <trkpt lat="44.3" lon="2.95572">
        <ele>981</ele>
        <time>2013-04-21T08:22:56Z</time>
      </trkpt>
      <trkpt lat="44.29993" lon="2.95571">
        <ele>980</ele>
        <time>2013-04-21T08:23:03Z</time>
      </trkpt>
      <trkpt lat="44.29987" lon="2.95572">
        <ele>979</ele>
        <time>2013-04-21T08:23:07Z</time>
      </trkpt>
      <trkpt lat="44.2998" lon="2.95572">
        <ele>978</ele>
        <time>2013-04-21T08:23:11Z</time>
      </trkpt>
      <trkpt lat="44.29969" lon="2.95574">
        <ele>978</ele>
        <time>2013-04-21T08:23:19Z</time>
      </trkpt>
      <trkpt lat="44.29958" lon="2.95573">
        <ele>977</ele>
        <time>2013-04-21T08:23:28Z</time>
      </trkpt>
      <trkpt lat="44.29949" lon="2.95571">
        <ele>977</ele>
        <time>2013-04-21T08:23:34Z</time>
      </trkpt>
      <trkpt lat="44.29939" lon="2.9557">
        <ele>976</ele>
        <time>2013-04-21T08:23:40Z</time>
      </trkpt>
      <trkpt lat="44.2993" lon="2.95574">
        <ele>975</ele>
        <time>2013-04-21T08:23:47Z</time>
      </trkpt>
      <trkpt lat="44.29921" lon="2.95578">
        <ele>974</ele>
        <time>2013-04-21T08:23:54Z</time>
      </trkpt>
      <trkpt lat="44.29911" lon="2.95581">
        <ele>973</ele>
        <time>2013-04-21T08:24:01Z</time>
      </trkpt>
      <trkpt lat="44.29903" lon="2.95587">
        <ele>975</ele>
        <time>2013-04-21T08:24:11Z</time>
      </trkpt>
      <trkpt lat="44.29896" lon="2.95595">
        <ele>977</ele>
        <time>2013-04-21T08:24:17Z</time>
      </trkpt>
      <trkpt lat="44.29887" lon="2.95604">
        <ele>980</ele>
        <time>2013-04-21T08:24:25Z</time>
      </trkpt>
      <trkpt lat="44.29878" lon="2.9561">
        <ele>981</ele>
        <time>2013-04-21T08:24:31Z</time>
      </trkpt>
      <trkpt lat="44.29869" lon="2.95616">
        <ele>983</ele>
        <time>2013-04-21T08:24:37Z</time>
      </trkpt>
      <trkpt lat="44.29864" lon="2.9562">
        <ele>985</ele>
        <time>2013-04-21T08:24:41Z</time>
      </trkpt>
      <trkpt lat="44.29856" lon="2.95627">
        <ele>987</ele>
        <time>2013-04-21T08:24:48Z</time>
      </trkpt>
      <trkpt lat="44.2985" lon="2.95634">
        <ele>989</ele>
        <time>2013-04-21T08:24:53Z</time>
      </trkpt>
      <trkpt lat="44.29843" lon="2.95642">
        <ele>991</ele>
        <time>2013-04-21T08:24:59Z</time>
      </trkpt>
      <trkpt lat="44.29839" lon="2.95645">
        <ele>992</ele>
        <time>2013-04-21T08:25:02Z</time>
      </trkpt>
      <trkpt lat="44.29834" lon="2.9565">
        <ele>994</ele>
        <time>2013-04-21T08:25:05Z</time>
      </trkpt>
      <trkpt lat="44.2983" lon="2.95653">
        <ele>995</ele>
        <time>2013-04-21T08:25:08Z</time>
      </trkpt>
      <trkpt lat="44.29825" lon="2.95657">
        <ele>995</ele>
        <time>2013-04-21T08:25:12Z</time>
      </trkpt>
      <trkpt lat="44.2982" lon="2.95661">
        <ele>996</ele>
        <time>2013-04-21T08:25:16Z</time>
      </trkpt>
      <trkpt lat="44.29815" lon="2.95665">
        <ele>996</ele>
        <time>2013-04-21T08:25:19Z</time>
      </trkpt>
      <trkpt lat="44.29812" lon="2.95669">
        <ele>996</ele>
        <time>2013-04-21T08:25:22Z</time>
      </trkpt>
      <trkpt lat="44.29807" lon="2.95673">
        <ele>997</ele>
        <time>2013-04-21T08:25:26Z</time>
      </trkpt>
      <trkpt lat="44.29803" lon="2.95677">
        <ele>998</ele>
        <time>2013-04-21T08:25:29Z</time>
      </trkpt>
      <trkpt lat="44.29799" lon="2.95681">
        <ele>999</ele>
        <time>2013-04-21T08:25:32Z</time>
      </trkpt>
      <trkpt lat="44.29794" lon="2.95684">
        <ele>1000</ele>
        <time>2013-04-21T08:25:35Z</time>
      </trkpt>
      <trkpt lat="44.2979" lon="2.95688">
        <ele>1001</ele>
        <time>2013-04-21T08:25:38Z</time>
      </trkpt>
      <trkpt lat="44.29785" lon="2.95692">
        <ele>1002</ele>
        <time>2013-04-21T08:25:41Z</time>
      </trkpt>
      <trkpt lat="44.2978" lon="2.95695">
        <ele>1003</ele>
        <time>2013-04-21T08:25:44Z</time>
      </trkpt>
      <trkpt lat="44.29776" lon="2.95699">
        <ele>1004</ele>
        <time>2013-04-21T08:25:47Z</time>
      </trkpt>
      <trkpt lat="44.29771" lon="2.95702">
        <ele>1005</ele>
        <time>2013-04-21T08:25:51Z</time>
      </trkpt>
      <trkpt lat="44.29766" lon="2.95706">
        <ele>1005</ele>
        <time>2013-04-21T08:25:55Z</time>
      </trkpt>
      <trkpt lat="44.29762" lon="2.95709">
        <ele>1005</ele>
        <time>2013-04-21T08:25:58Z</time>
      </trkpt>
      <trkpt lat="44.29756" lon="2.95712">
        <ele>1005</ele>
        <time>2013-04-21T08:26:02Z</time>
      </trkpt>
      <trkpt lat="44.29751" lon="2.95715">
        <ele>1005</ele>
        <time>2013-04-21T08:26:06Z</time>
      </trkpt>
      <trkpt lat="44.29746" lon="2.95717">
        <ele>1004</ele>
        <time>2013-04-21T08:26:10Z</time>
      </trkpt>
      <trkpt lat="44.29741" lon="2.95719">
        <ele>1003</ele>
        <time>2013-04-21T08:26:14Z</time>
      </trkpt>
      <trkpt lat="44.29736" lon="2.95723">
        <ele>1003</ele>
        <time>2013-04-21T08:26:18Z</time>
      </trkpt>
      <trkpt lat="44.29732" lon="2.95725">
        <ele>1003</ele>
        <time>2013-04-21T08:26:21Z</time>
      </trkpt>
      <trkpt lat="44.29726" lon="2.9573">
        <ele>1004</ele>
        <time>2013-04-21T08:26:24Z</time>
      </trkpt>
      <trkpt lat="44.29721" lon="2.95734">
        <ele>1004</ele>
        <time>2013-04-21T08:26:28Z</time>
      </trkpt>
      <trkpt lat="44.29716" lon="2.95736">
        <ele>1005</ele>
        <time>2013-04-21T08:26:31Z</time>
      </trkpt>
      <trkpt lat="44.29712" lon="2.95738">
        <ele>1005</ele>
        <time>2013-04-21T08:26:34Z</time>
      </trkpt>
      <trkpt lat="44.29703" lon="2.95741">
        <ele>1006</ele>
        <time>2013-04-21T08:26:40Z</time>
      </trkpt>
      <trkpt lat="44.29697" lon="2.95744">
        <ele>1008</ele>
        <time>2013-04-21T08:26:43Z</time>
      </trkpt>
      <trkpt lat="44.29692" lon="2.95744">
        <ele>1009</ele>
        <time>2013-04-21T08:26:46Z</time>
      </trkpt>
      <trkpt lat="44.29688" lon="2.95746">
        <ele>1010</ele>
        <time>2013-04-21T08:26:49Z</time>
      </trkpt>
      <trkpt lat="44.29682" lon="2.95747">
        <ele>1011</ele>
        <time>2013-04-21T08:26:53Z</time>
      </trkpt>
      <trkpt lat="44.29676" lon="2.95747">
        <ele>1012</ele>
        <time>2013-04-21T08:26:59Z</time>
      </trkpt>
      <trkpt lat="44.29671" lon="2.95748">
        <ele>1012</ele>
        <time>2013-04-21T08:27:02Z</time>
      </trkpt>
      <trkpt lat="44.29665" lon="2.95749">
        <ele>1013</ele>
        <time>2013-04-21T08:27:06Z</time>
      </trkpt>
      <trkpt lat="44.2966" lon="2.9575">
        <ele>1014</ele>
        <time>2013-04-21T08:27:10Z</time>
      </trkpt>
      <trkpt lat="44.29655" lon="2.95752">
        <ele>1014</ele>
        <time>2013-04-21T08:27:13Z</time>
      </trkpt>
      <trkpt lat="44.2965" lon="2.95754">
        <ele>1014</ele>
        <time>2013-04-21T08:27:16Z</time>
      </trkpt>
      <trkpt lat="44.29645" lon="2.95757">
        <ele>1015</ele>
        <time>2013-04-21T08:27:19Z</time>
      </trkpt>
      <trkpt lat="44.29639" lon="2.9576">
        <ele>1019</ele>
        <time>2013-04-21T08:27:30Z</time>
      </trkpt>
      <trkpt lat="44.29627" lon="2.95768">
        <ele>1020</ele>
        <time>2013-04-21T08:27:33Z</time>
      </trkpt>
      <trkpt lat="44.2962" lon="2.95777">
        <ele>1020</ele>
        <time>2013-04-21T08:27:35Z</time>
      </trkpt>
      <trkpt lat="44.29614" lon="2.95786">
        <ele>1020</ele>
        <time>2013-04-21T08:27:37Z</time>
      </trkpt>
      <trkpt lat="44.29604" lon="2.95797">
        <ele>1020</ele>
        <time>2013-04-21T08:27:40Z</time>
      </trkpt>
      <trkpt lat="44.29598" lon="2.95806">
        <ele>1020</ele>
        <time>2013-04-21T08:27:42Z</time>
      </trkpt>
      <trkpt lat="44.29588" lon="2.95818">
        <ele>1020</ele>
        <time>2013-04-21T08:27:45Z</time>
      </trkpt>
      <trkpt lat="44.29581" lon="2.95827">
        <ele>1021</ele>
        <time>2013-04-21T08:27:47Z</time>
      </trkpt>
      <trkpt lat="44.29574" lon="2.95837">
        <ele>1021</ele>
        <time>2013-04-21T08:27:49Z</time>
      </trkpt>
      <trkpt lat="44.29567" lon="2.95846">
        <ele>1021</ele>
        <time>2013-04-21T08:27:51Z</time>
      </trkpt>
      <trkpt lat="44.2956" lon="2.95856">
        <ele>1021</ele>
        <time>2013-04-21T08:27:53Z</time>
      </trkpt>
      <trkpt lat="44.29557" lon="2.95861">
        <ele>1022</ele>
        <time>2013-04-21T08:27:54Z</time>
      </trkpt>
      <trkpt lat="44.29554" lon="2.95866">
        <ele>1022</ele>
        <time>2013-04-21T08:27:55Z</time>
      </trkpt>
      <trkpt lat="44.29551" lon="2.9587">
        <ele>1022</ele>
        <time>2013-04-21T08:27:56Z</time>
      </trkpt>
      <trkpt lat="44.29547" lon="2.95875">
        <ele>1023</ele>
        <time>2013-04-21T08:27:57Z</time>
      </trkpt>
      <trkpt lat="44.29544" lon="2.9588">
        <ele>1023</ele>
        <time>2013-04-21T08:27:58Z</time>
      </trkpt>
      <trkpt lat="44.29537" lon="2.95887">
        <ele>1023</ele>
        <time>2013-04-21T08:28:00Z</time>
      </trkpt>
      <trkpt lat="44.29533" lon="2.95892">
        <ele>1023</ele>
        <time>2013-04-21T08:28:01Z</time>
      </trkpt>
      <trkpt lat="44.2953" lon="2.95897">
        <ele>1024</ele>
        <time>2013-04-21T08:28:02Z</time>
      </trkpt>
      <trkpt lat="44.29526" lon="2.95903">
        <ele>1024</ele>
        <time>2013-04-21T08:28:03Z</time>
      </trkpt>
      <trkpt lat="44.29523" lon="2.95908">
        <ele>1024</ele>
        <time>2013-04-21T08:28:04Z</time>
      </trkpt>
      <trkpt lat="44.29519" lon="2.95914">
        <ele>1025</ele>
        <time>2013-04-21T08:28:05Z</time>
      </trkpt>
      <trkpt lat="44.29515" lon="2.9592">
        <ele>1025</ele>
        <time>2013-04-21T08:28:06Z</time>
      </trkpt>
      <trkpt lat="44.29512" lon="2.95926">
        <ele>1026</ele>
        <time>2013-04-21T08:28:07Z</time>
      </trkpt>
      <trkpt lat="44.29509" lon="2.95932">
        <ele>1026</ele>
        <time>2013-04-21T08:28:08Z</time>
      </trkpt>
      <trkpt lat="44.29507" lon="2.95937">
        <ele>1027</ele>
        <time>2013-04-21T08:28:09Z</time>
      </trkpt>
      <trkpt lat="44.29505" lon="2.95944">
        <ele>1027</ele>
        <time>2013-04-21T08:28:10Z</time>
      </trkpt>
      <trkpt lat="44.29503" lon="2.9595">
        <ele>1028</ele>
        <time>2013-04-21T08:28:11Z</time>
      </trkpt>
      <trkpt lat="44.29501" lon="2.95957">
        <ele>1028</ele>
        <time>2013-04-21T08:28:12Z</time>
      </trkpt>
      <trkpt lat="44.295" lon="2.95964">
        <ele>1029</ele>
        <time>2013-04-21T08:28:13Z</time>
      </trkpt>
      <trkpt lat="44.29497" lon="2.95978">
        <ele>1029</ele>
        <time>2013-04-21T08:28:15Z</time>
      </trkpt>
      <trkpt lat="44.29494" lon="2.95993">
        <ele>1030</ele>
        <time>2013-04-21T08:28:17Z</time>
      </trkpt>
      <trkpt lat="44.29492" lon="2.96007">
        <ele>1030</ele>
        <time>2013-04-21T08:28:19Z</time>
      </trkpt>
      <trkpt lat="44.29489" lon="2.96021">
        <ele>1031</ele>
        <time>2013-04-21T08:28:21Z</time>
      </trkpt>
      <trkpt lat="44.29486" lon="2.96035">
        <ele>1031</ele>
        <time>2013-04-21T08:28:23Z</time>
      </trkpt>
      <trkpt lat="44.29483" lon="2.9605">
        <ele>1030</ele>
        <time>2013-04-21T08:28:25Z</time>
      </trkpt>
      <trkpt lat="44.2948" lon="2.96064">
        <ele>1030</ele>
        <time>2013-04-21T08:28:27Z</time>
      </trkpt>
      <trkpt lat="44.29477" lon="2.96077">
        <ele>1030</ele>
        <time>2013-04-21T08:28:29Z</time>
      </trkpt>
      <trkpt lat="44.29473" lon="2.96095">
        <ele>1031</ele>
        <time>2013-04-21T08:28:32Z</time>
      </trkpt>
      <trkpt lat="44.29469" lon="2.96108">
        <ele>1030</ele>
        <time>2013-04-21T08:28:34Z</time>
      </trkpt>
      <trkpt lat="44.29465" lon="2.96122">
        <ele>1030</ele>
        <time>2013-04-21T08:28:36Z</time>
      </trkpt>
      <trkpt lat="44.29461" lon="2.96135">
        <ele>1030</ele>
        <time>2013-04-21T08:28:38Z</time>
      </trkpt>
      <trkpt lat="44.29457" lon="2.96149">
        <ele>1030</ele>
        <time>2013-04-21T08:28:40Z</time>
      </trkpt>
      <trkpt lat="44.29453" lon="2.96162">
        <ele>1030</ele>
        <time>2013-04-21T08:28:42Z</time>
      </trkpt>
      <trkpt lat="44.29451" lon="2.96168">
        <ele>1031</ele>
        <time>2013-04-21T08:28:43Z</time>
      </trkpt>
      <trkpt lat="44.29449" lon="2.96175">
        <ele>1031</ele>
        <time>2013-04-21T08:28:44Z</time>
      </trkpt>
      <trkpt lat="44.29447" lon="2.96181">
        <ele>1030</ele>
        <time>2013-04-21T08:28:45Z</time>
      </trkpt>
      <trkpt lat="44.29442" lon="2.96195">
        <ele>1029</ele>
        <time>2013-04-21T08:28:47Z</time>
      </trkpt>
      <trkpt lat="44.2944" lon="2.96207">
        <ele>1028</ele>
        <time>2013-04-21T08:28:49Z</time>
      </trkpt>
      <trkpt lat="44.29436" lon="2.96219">
        <ele>1028</ele>
        <time>2013-04-21T08:28:51Z</time>
      </trkpt>
      <trkpt lat="44.29432" lon="2.96232">
        <ele>1027</ele>
        <time>2013-04-21T08:28:53Z</time>
      </trkpt>
      <trkpt lat="44.29428" lon="2.96245">
        <ele>1027</ele>
        <time>2013-04-21T08:28:55Z</time>
      </trkpt>
      <trkpt lat="44.29425" lon="2.96257">
        <ele>1027</ele>
        <time>2013-04-21T08:28:57Z</time>
      </trkpt>
      <trkpt lat="44.29421" lon="2.96269">
        <ele>1027</ele>
        <time>2013-04-21T08:28:59Z</time>
      </trkpt>
      <trkpt lat="44.29417" lon="2.96281">
        <ele>1027</ele>
        <time>2013-04-21T08:29:01Z</time>
      </trkpt>
      <trkpt lat="44.29413" lon="2.96294">
        <ele>1027</ele>
        <time>2013-04-21T08:29:03Z</time>
      </trkpt>
      <trkpt lat="44.29409" lon="2.96309">
        <ele>1028</ele>
        <time>2013-04-21T08:29:05Z</time>
      </trkpt>
      <trkpt lat="44.29405" lon="2.96322">
        <ele>1029</ele>
        <time>2013-04-21T08:29:07Z</time>
      </trkpt>
      <trkpt lat="44.29401" lon="2.96335">
        <ele>1029</ele>
        <time>2013-04-21T08:29:09Z</time>
      </trkpt>
      <trkpt lat="44.29397" lon="2.96347">
        <ele>1029</ele>
        <time>2013-04-21T08:29:11Z</time>
      </trkpt>
      <trkpt lat="44.29392" lon="2.9636">
        <ele>1030</ele>
        <time>2013-04-21T08:29:13Z</time>
      </trkpt>
      <trkpt lat="44.29387" lon="2.96372">
        <ele>1031</ele>
        <time>2013-04-21T08:29:15Z</time>
      </trkpt>
      <trkpt lat="44.29383" lon="2.96385">
        <ele>1033</ele>
        <time>2013-04-21T08:29:17Z</time>
      </trkpt>
      <trkpt lat="44.29378" lon="2.96396">
        <ele>1034</ele>
        <time>2013-04-21T08:29:19Z</time>
      </trkpt>
      <trkpt lat="44.29373" lon="2.9641">
        <ele>1035</ele>
        <time>2013-04-21T08:29:21Z</time>
      </trkpt>
      <trkpt lat="44.2937" lon="2.96416">
        <ele>1036</ele>
        <time>2013-04-21T08:29:22Z</time>
      </trkpt>
      <trkpt lat="44.29368" lon="2.96423">
        <ele>1037</ele>
        <time>2013-04-21T08:29:23Z</time>
      </trkpt>
      <trkpt lat="44.29365" lon="2.96429">
        <ele>1037</ele>
        <time>2013-04-21T08:29:24Z</time>
      </trkpt>
      <trkpt lat="44.29363" lon="2.96435">
        <ele>1038</ele>
        <time>2013-04-21T08:29:25Z</time>
      </trkpt>
      <trkpt lat="44.29361" lon="2.96441">
        <ele>1039</ele>
        <time>2013-04-21T08:29:26Z</time>
      </trkpt>
      <trkpt lat="44.29359" lon="2.96447">
        <ele>1040</ele>
        <time>2013-04-21T08:29:27Z</time>
      </trkpt>
      <trkpt lat="44.29357" lon="2.96453">
        <ele>1040</ele>
        <time>2013-04-21T08:29:28Z</time>
      </trkpt>
      <trkpt lat="44.29354" lon="2.96458">
        <ele>1040</ele>
        <time>2013-04-21T08:29:29Z</time>
      </trkpt>
      <trkpt lat="44.29352" lon="2.96464">
        <ele>1040</ele>
        <time>2013-04-21T08:29:30Z</time>
      </trkpt>
      <trkpt lat="44.29347" lon="2.96474">
        <ele>1041</ele>
        <time>2013-04-21T08:29:32Z</time>
      </trkpt>
      <trkpt lat="44.29343" lon="2.96485">
        <ele>1042</ele>
        <time>2013-04-21T08:29:34Z</time>
      </trkpt>
      <trkpt lat="44.2934" lon="2.96491">
        <ele>1042</ele>
        <time>2013-04-21T08:29:35Z</time>
      </trkpt>
      <trkpt lat="44.29338" lon="2.96496">
        <ele>1042</ele>
        <time>2013-04-21T08:29:36Z</time>
      </trkpt>
      <trkpt lat="44.29335" lon="2.96502">
        <ele>1042</ele>
        <time>2013-04-21T08:29:37Z</time>
      </trkpt>
      <trkpt lat="44.29333" lon="2.96508">
        <ele>1042</ele>
        <time>2013-04-21T08:29:38Z</time>
      </trkpt>
      <trkpt lat="44.2933" lon="2.96513">
        <ele>1042</ele>
        <time>2013-04-21T08:29:39Z</time>
      </trkpt>
      <trkpt lat="44.29327" lon="2.9652">
        <ele>1042</ele>
        <time>2013-04-21T08:29:40Z</time>
      </trkpt>
      <trkpt lat="44.29324" lon="2.96526">
        <ele>1042</ele>
        <time>2013-04-21T08:29:41Z</time>
      </trkpt>
      <trkpt lat="44.29319" lon="2.96539">
        <ele>1042</ele>
        <time>2013-04-21T08:29:43Z</time>
      </trkpt>
      <trkpt lat="44.29314" lon="2.96552">
        <ele>1042</ele>
        <time>2013-04-21T08:29:45Z</time>
      </trkpt>
      <trkpt lat="44.29311" lon="2.96558">
        <ele>1042</ele>
        <time>2013-04-21T08:29:46Z</time>
      </trkpt>
      <trkpt lat="44.29308" lon="2.96564">
        <ele>1042</ele>
        <time>2013-04-21T08:29:47Z</time>
      </trkpt>
      <trkpt lat="44.29305" lon="2.96571">
        <ele>1042</ele>
        <time>2013-04-21T08:29:48Z</time>
      </trkpt>
      <trkpt lat="44.29297" lon="2.96585">
        <ele>1041</ele>
        <time>2013-04-21T08:29:50Z</time>
      </trkpt>
      <trkpt lat="44.29287" lon="2.96599">
        <ele>1041</ele>
        <time>2013-04-21T08:29:52Z</time>
      </trkpt>
      <trkpt lat="44.29276" lon="2.96614">
        <ele>1040</ele>
        <time>2013-04-21T08:29:54Z</time>
      </trkpt>
      <trkpt lat="44.29264" lon="2.96633">
        <ele>1040</ele>
        <time>2013-04-21T08:29:56Z</time>
      </trkpt>
      <trkpt lat="44.29258" lon="2.96643">
        <ele>1040</ele>
        <time>2013-04-21T08:29:57Z</time>
      </trkpt>
      <trkpt lat="44.29245" lon="2.96661">
        <ele>1040</ele>
        <time>2013-04-21T08:29:59Z</time>
      </trkpt>
      <trkpt lat="44.29234" lon="2.96678">
        <ele>1040</ele>
        <time>2013-04-21T08:30:01Z</time>
      </trkpt>
      <trkpt lat="44.29224" lon="2.96692">
        <ele>1040</ele>
        <time>2013-04-21T08:30:03Z</time>
      </trkpt>
      <trkpt lat="44.29214" lon="2.96707">
        <ele>1040</ele>
        <time>2013-04-21T08:30:05Z</time>
      </trkpt>
      <trkpt lat="44.29203" lon="2.96719">
        <ele>1040</ele>
        <time>2013-04-21T08:30:07Z</time>
      </trkpt>
      <trkpt lat="44.29191" lon="2.96733">
        <ele>1041</ele>
        <time>2013-04-21T08:30:09Z</time>
      </trkpt>
      <trkpt lat="44.2918" lon="2.96747">
        <ele>1042</ele>
        <time>2013-04-21T08:30:11Z</time>
      </trkpt>
      <trkpt lat="44.2917" lon="2.96763">
        <ele>1042</ele>
        <time>2013-04-21T08:30:13Z</time>
      </trkpt>
      <trkpt lat="44.29163" lon="2.96776">
        <ele>1043</ele>
        <time>2013-04-21T08:30:15Z</time>
      </trkpt>
      <trkpt lat="44.29157" lon="2.96791">
        <ele>1045</ele>
        <time>2013-04-21T08:30:17Z</time>
      </trkpt>
      <trkpt lat="44.29154" lon="2.96804">
        <ele>1046</ele>
        <time>2013-04-21T08:30:19Z</time>
      </trkpt>
      <trkpt lat="44.29153" lon="2.96817">
        <ele>1047</ele>
        <time>2013-04-21T08:30:21Z</time>
      </trkpt>
      <trkpt lat="44.29147" lon="2.96832">
        <ele>1049</ele>
        <time>2013-04-21T08:30:24Z</time>
      </trkpt>
      <trkpt lat="44.29142" lon="2.96843">
        <ele>1050</ele>
        <time>2013-04-21T08:30:27Z</time>
      </trkpt>
      <trkpt lat="44.29137" lon="2.9686">
        <ele>1051</ele>
        <time>2013-04-21T08:30:30Z</time>
      </trkpt>
      <trkpt lat="44.29132" lon="2.96872">
        <ele>1054</ele>
        <time>2013-04-21T08:30:33Z</time>
      </trkpt>
      <trkpt lat="44.29129" lon="2.9688">
        <ele>1055</ele>
        <time>2013-04-21T08:30:35Z</time>
      </trkpt>
      <trkpt lat="44.29125" lon="2.96886">
        <ele>1057</ele>
        <time>2013-04-21T08:30:38Z</time>
      </trkpt>
      <trkpt lat="44.29122" lon="2.96893">
        <ele>1059</ele>
        <time>2013-04-21T08:30:41Z</time>
      </trkpt>
      <trkpt lat="44.29118" lon="2.96896">
        <ele>1059</ele>
        <time>2013-04-21T08:30:44Z</time>
      </trkpt>
      <trkpt lat="44.29115" lon="2.96903">
        <ele>1059</ele>
        <time>2013-04-21T08:30:47Z</time>
      </trkpt>
      <trkpt lat="44.29113" lon="2.9691">
        <ele>1059</ele>
        <time>2013-04-21T08:30:50Z</time>
      </trkpt>
      <trkpt lat="44.29114" lon="2.96916">
        <ele>1059</ele>
        <time>2013-04-21T08:30:53Z</time>
      </trkpt>
      <trkpt lat="44.29115" lon="2.96922">
        <ele>1060</ele>
        <time>2013-04-21T08:30:57Z</time>
      </trkpt>
      <trkpt lat="44.29116" lon="2.96935">
        <ele>1060</ele>
        <time>2013-04-21T08:31:02Z</time>
      </trkpt>
      <trkpt lat="44.29118" lon="2.96942">
        <ele>1060</ele>
        <time>2013-04-21T08:31:05Z</time>
      </trkpt>
      <trkpt lat="44.29119" lon="2.9695">
        <ele>1061</ele>
        <time>2013-04-21T08:31:08Z</time>
      </trkpt>
      <trkpt lat="44.29121" lon="2.96956">
        <ele>1061</ele>
        <time>2013-04-21T08:31:11Z</time>
      </trkpt>
      <trkpt lat="44.29123" lon="2.96964">
        <ele>1061</ele>
        <time>2013-04-21T08:31:14Z</time>
      </trkpt>
      <trkpt lat="44.29125" lon="2.96971">
        <ele>1061</ele>
        <time>2013-04-21T08:31:17Z</time>
      </trkpt>
      <trkpt lat="44.29127" lon="2.96978">
        <ele>1061</ele>
        <time>2013-04-21T08:31:20Z</time>
      </trkpt>
      <trkpt lat="44.29129" lon="2.96985">
        <ele>1061</ele>
        <time>2013-04-21T08:31:23Z</time>
      </trkpt>
      <trkpt lat="44.29131" lon="2.96992">
        <ele>1061</ele>
        <time>2013-04-21T08:31:26Z</time>
      </trkpt>
      <trkpt lat="44.29132" lon="2.96999">
        <ele>1060</ele>
        <time>2013-04-21T08:31:29Z</time>
      </trkpt>
      <trkpt lat="44.29132" lon="2.97007">
        <ele>1060</ele>
        <time>2013-04-21T08:31:32Z</time>
      </trkpt>
      <trkpt lat="44.29133" lon="2.97015">
        <ele>1060</ele>
        <time>2013-04-21T08:31:35Z</time>
      </trkpt>
      <trkpt lat="44.29131" lon="2.97023">
        <ele>1061</ele>
        <time>2013-04-21T08:31:39Z</time>
      </trkpt>
      <trkpt lat="44.2913" lon="2.97032">
        <ele>1062</ele>
        <time>2013-04-21T08:31:43Z</time>
      </trkpt>
      <trkpt lat="44.29128" lon="2.9704">
        <ele>1062</ele>
        <time>2013-04-21T08:31:46Z</time>
      </trkpt>
      <trkpt lat="44.29126" lon="2.97048">
        <ele>1061</ele>
        <time>2013-04-21T08:31:49Z</time>
      </trkpt>
      <trkpt lat="44.29124" lon="2.97055">
        <ele>1060</ele>
        <time>2013-04-21T08:31:53Z</time>
      </trkpt>
      <trkpt lat="44.29121" lon="2.97061">
        <ele>1060</ele>
        <time>2013-04-21T08:31:56Z</time>
      </trkpt>
      <trkpt lat="44.29116" lon="2.97072">
        <ele>1060</ele>
        <time>2013-04-21T08:32:02Z</time>
      </trkpt>
      <trkpt lat="44.2911" lon="2.97081">
        <ele>1061</ele>
        <time>2013-04-21T08:32:08Z</time>
      </trkpt>
      <trkpt lat="44.29103" lon="2.97093">
        <ele>1059</ele>
        <time>2013-04-21T08:32:19Z</time>
      </trkpt>
      <trkpt lat="44.29098" lon="2.97102">
        <ele>1058</ele>
        <time>2013-04-21T08:32:24Z</time>
      </trkpt>
      <trkpt lat="44.29095" lon="2.97106">
        <ele>1057</ele>
        <time>2013-04-21T08:32:27Z</time>
      </trkpt>
      <trkpt lat="44.29092" lon="2.97112">
        <ele>1057</ele>
        <time>2013-04-21T08:32:30Z</time>
      </trkpt>
      <trkpt lat="44.29089" lon="2.97118">
        <ele>1057</ele>
        <time>2013-04-21T08:32:34Z</time>
      </trkpt>
      <trkpt lat="44.29085" lon="2.97126">
        <ele>1057</ele>
        <time>2013-04-21T08:32:38Z</time>
      </trkpt>
      <trkpt lat="44.29082" lon="2.97133">
        <ele>1058</ele>
        <time>2013-04-21T08:32:41Z</time>
      </trkpt>
      <trkpt lat="44.29079" lon="2.97139">
        <ele>1058</ele>
        <time>2013-04-21T08:32:44Z</time>
      </trkpt>
      <trkpt lat="44.29077" lon="2.97145">
        <ele>1059</ele>
        <time>2013-04-21T08:32:47Z</time>
      </trkpt>
      <trkpt lat="44.29073" lon="2.97157">
        <ele>1058</ele>
        <time>2013-04-21T08:32:52Z</time>
      </trkpt>
      <trkpt lat="44.29068" lon="2.9717">
        <ele>1057</ele>
        <time>2013-04-21T08:32:59Z</time>
      </trkpt>
      <trkpt lat="44.29064" lon="2.97182">
        <ele>1057</ele>
        <time>2013-04-21T08:33:05Z</time>
      </trkpt>
      <trkpt lat="44.2906" lon="2.97195">
        <ele>1057</ele>
        <time>2013-04-21T08:33:14Z</time>
      </trkpt>
      <trkpt lat="44.29058" lon="2.97201">
        <ele>1056</ele>
        <time>2013-04-21T08:33:17Z</time>
      </trkpt>
      <trkpt lat="44.29055" lon="2.97214">
        <ele>1056</ele>
        <time>2013-04-21T08:33:22Z</time>
      </trkpt>
      <trkpt lat="44.29055" lon="2.97221">
        <ele>1056</ele>
        <time>2013-04-21T08:33:25Z</time>
      </trkpt>
      <trkpt lat="44.29054" lon="2.97227">
        <ele>1056</ele>
        <time>2013-04-21T08:33:28Z</time>
      </trkpt>
      <trkpt lat="44.29053" lon="2.97234">
        <ele>1056</ele>
        <time>2013-04-21T08:33:31Z</time>
      </trkpt>
      <trkpt lat="44.29052" lon="2.97243">
        <ele>1056</ele>
        <time>2013-04-21T08:33:34Z</time>
      </trkpt>
      <trkpt lat="44.29051" lon="2.9725">
        <ele>1056</ele>
        <time>2013-04-21T08:33:37Z</time>
      </trkpt>
      <trkpt lat="44.29051" lon="2.97258">
        <ele>1056</ele>
        <time>2013-04-21T08:33:40Z</time>
      </trkpt>
      <trkpt lat="44.2905" lon="2.97266">
        <ele>1056</ele>
        <time>2013-04-21T08:33:43Z</time>
      </trkpt>
      <trkpt lat="44.2905" lon="2.97274">
        <ele>1056</ele>
        <time>2013-04-21T08:33:46Z</time>
      </trkpt>
      <trkpt lat="44.29051" lon="2.97282">
        <ele>1055</ele>
        <time>2013-04-21T08:33:49Z</time>
      </trkpt>
      <trkpt lat="44.29052" lon="2.97289">
        <ele>1055</ele>
        <time>2013-04-21T08:33:53Z</time>
      </trkpt>
      <trkpt lat="44.29051" lon="2.97297">
        <ele>1055</ele>
        <time>2013-04-21T08:33:56Z</time>
      </trkpt>
      <trkpt lat="44.29051" lon="2.97308">
        <ele>1054</ele>
        <time>2013-04-21T08:34:00Z</time>
      </trkpt>
      <trkpt lat="44.29051" lon="2.97317">
        <ele>1053</ele>
        <time>2013-04-21T08:34:03Z</time>
      </trkpt>
      <trkpt lat="44.29052" lon="2.97323">
        <ele>1053</ele>
        <time>2013-04-21T08:34:06Z</time>
      </trkpt>
      <trkpt lat="44.29054" lon="2.9733">
        <ele>1053</ele>
        <time>2013-04-21T08:34:09Z</time>
      </trkpt>
      <trkpt lat="44.29056" lon="2.97338">
        <ele>1053</ele>
        <time>2013-04-21T08:34:12Z</time>
      </trkpt>
      <trkpt lat="44.29059" lon="2.97346">
        <ele>1053</ele>
        <time>2013-04-21T08:34:15Z</time>
      </trkpt>
      <trkpt lat="44.29062" lon="2.97352">
        <ele>1053</ele>
        <time>2013-04-21T08:34:18Z</time>
      </trkpt>
      <trkpt lat="44.29066" lon="2.97358">
        <ele>1053</ele>
        <time>2013-04-21T08:34:21Z</time>
      </trkpt>
      <trkpt lat="44.29069" lon="2.97363">
        <ele>1052</ele>
        <time>2013-04-21T08:34:24Z</time>
      </trkpt>
      <trkpt lat="44.29072" lon="2.9737">
        <ele>1052</ele>
        <time>2013-04-21T08:34:27Z</time>
      </trkpt>
      <trkpt lat="44.29076" lon="2.97376">
        <ele>1052</ele>
        <time>2013-04-21T08:34:30Z</time>
      </trkpt>
      <trkpt lat="44.29078" lon="2.97383">
        <ele>1052</ele>
        <time>2013-04-21T08:34:34Z</time>
      </trkpt>
      <trkpt lat="44.2908" lon="2.97389">
        <ele>1052</ele>
        <time>2013-04-21T08:34:37Z</time>
      </trkpt>
      <trkpt lat="44.29082" lon="2.97396">
        <ele>1051</ele>
        <time>2013-04-21T08:34:40Z</time>
      </trkpt>
      <trkpt lat="44.29083" lon="2.97402">
        <ele>1050</ele>
        <time>2013-04-21T08:34:43Z</time>
      </trkpt>
      <trkpt lat="44.29084" lon="2.9741">
        <ele>1049</ele>
        <time>2013-04-21T08:34:46Z</time>
      </trkpt>
      <trkpt lat="44.29084" lon="2.97417">
        <ele>1049</ele>
        <time>2013-04-21T08:34:49Z</time>
      </trkpt>
      <trkpt lat="44.29084" lon="2.97424">
        <ele>1049</ele>
        <time>2013-04-21T08:34:52Z</time>
      </trkpt>
      <trkpt lat="44.29083" lon="2.97431">
        <ele>1048</ele>
        <time>2013-04-21T08:34:55Z</time>
      </trkpt>
      <trkpt lat="44.29083" lon="2.97438">
        <ele>1047</ele>
        <time>2013-04-21T08:34:58Z</time>
      </trkpt>
      <trkpt lat="44.29082" lon="2.97446">
        <ele>1046</ele>
        <time>2013-04-21T08:35:01Z</time>
      </trkpt>
      <trkpt lat="44.2908" lon="2.97453">
        <ele>1045</ele>
        <time>2013-04-21T08:35:04Z</time>
      </trkpt>
      <trkpt lat="44.2908" lon="2.97465">
        <ele>1044</ele>
        <time>2013-04-21T08:35:11Z</time>
      </trkpt>
      <trkpt lat="44.29079" lon="2.97478">
        <ele>1042</ele>
        <time>2013-04-21T08:35:18Z</time>
      </trkpt>
      <trkpt lat="44.29077" lon="2.97487">
        <ele>1041</ele>
        <time>2013-04-21T08:35:21Z</time>
      </trkpt>
      <trkpt lat="44.29074" lon="2.97494">
        <ele>1041</ele>
        <time>2013-04-21T08:35:24Z</time>
      </trkpt>
      <trkpt lat="44.29072" lon="2.97503">
        <ele>1041</ele>
        <time>2013-04-21T08:35:27Z</time>
      </trkpt>
      <trkpt lat="44.29071" lon="2.9751">
        <ele>1040</ele>
        <time>2013-04-21T08:35:29Z</time>
      </trkpt>
      <trkpt lat="44.29067" lon="2.97518">
        <ele>1040</ele>
        <time>2013-04-21T08:35:32Z</time>
      </trkpt>
      <trkpt lat="44.29065" lon="2.97525">
        <ele>1040</ele>
        <time>2013-04-21T08:35:35Z</time>
      </trkpt>
      <trkpt lat="44.29061" lon="2.97534">
        <ele>1040</ele>
        <time>2013-04-21T08:35:39Z</time>
      </trkpt>
      <trkpt lat="44.2906" lon="2.97541">
        <ele>1041</ele>
        <time>2013-04-21T08:35:42Z</time>
      </trkpt>
      <trkpt lat="44.29058" lon="2.97548">
        <ele>1042</ele>
        <time>2013-04-21T08:35:45Z</time>
      </trkpt>
      <trkpt lat="44.29056" lon="2.97555">
        <ele>1043</ele>
        <time>2013-04-21T08:35:48Z</time>
      </trkpt>
      <trkpt lat="44.29056" lon="2.97563">
        <ele>1043</ele>
        <time>2013-04-21T08:35:51Z</time>
      </trkpt>
      <trkpt lat="44.29055" lon="2.97571">
        <ele>1043</ele>
        <time>2013-04-21T08:35:54Z</time>
      </trkpt>
      <trkpt lat="44.29054" lon="2.97578">
        <ele>1043</ele>
        <time>2013-04-21T08:35:58Z</time>
      </trkpt>
      <trkpt lat="44.29054" lon="2.97585">
        <ele>1042</ele>
        <time>2013-04-21T08:36:01Z</time>
      </trkpt>
      <trkpt lat="44.29053" lon="2.97591">
        <ele>1042</ele>
        <time>2013-04-21T08:36:04Z</time>
      </trkpt>
      <trkpt lat="44.29052" lon="2.97598">
        <ele>1042</ele>
        <time>2013-04-21T08:36:08Z</time>
      </trkpt>
      <trkpt lat="44.29051" lon="2.97605">
        <ele>1042</ele>
        <time>2013-04-21T08:36:11Z</time>
      </trkpt>
      <trkpt lat="44.2905" lon="2.97612">
        <ele>1041</ele>
        <time>2013-04-21T08:36:14Z</time>
      </trkpt>
      <trkpt lat="44.29049" lon="2.9762">
        <ele>1041</ele>
        <time>2013-04-21T08:36:18Z</time>
      </trkpt>
      <trkpt lat="44.29047" lon="2.97627">
        <ele>1040</ele>
        <time>2013-04-21T08:36:21Z</time>
      </trkpt>
      <trkpt lat="44.29047" lon="2.97634">
        <ele>1040</ele>
        <time>2013-04-21T08:36:24Z</time>
      </trkpt>
      <trkpt lat="44.29045" lon="2.97653">
        <ele>1040</ele>
        <time>2013-04-21T08:36:28Z</time>
      </trkpt>
      <trkpt lat="44.29046" lon="2.97669">
        <ele>1041</ele>
        <time>2013-04-21T08:36:30Z</time>
      </trkpt>
      <trkpt lat="44.29047" lon="2.97686">
        <ele>1041</ele>
        <time>2013-04-21T08:36:32Z</time>
      </trkpt>
      <trkpt lat="44.29049" lon="2.97703">
        <ele>1041</ele>
        <time>2013-04-21T08:36:34Z</time>
      </trkpt>
      <trkpt lat="44.29051" lon="2.9772">
        <ele>1040</ele>
        <time>2013-04-21T08:36:36Z</time>
      </trkpt>
      <trkpt lat="44.29054" lon="2.97736">
        <ele>1040</ele>
        <time>2013-04-21T08:36:38Z</time>
      </trkpt>
      <trkpt lat="44.29058" lon="2.97751">
        <ele>1039</ele>
        <time>2013-04-21T08:36:40Z</time>
      </trkpt>
      <trkpt lat="44.29062" lon="2.97765">
        <ele>1039</ele>
        <time>2013-04-21T08:36:42Z</time>
      </trkpt>
      <trkpt lat="44.29067" lon="2.97778">
        <ele>1038</ele>
        <time>2013-04-21T08:36:44Z</time>
      </trkpt>
      <trkpt lat="44.29073" lon="2.97795">
        <ele>1038</ele>
        <time>2013-04-21T08:36:47Z</time>
      </trkpt>
      <trkpt lat="44.29077" lon="2.97809">
        <ele>1038</ele>
        <time>2013-04-21T08:36:49Z</time>
      </trkpt>
      <trkpt lat="44.29077" lon="2.97815">
        <ele>1039</ele>
        <time>2013-04-21T08:36:50Z</time>
      </trkpt>
      <trkpt lat="44.29073" lon="2.97825">
        <ele>1039</ele>
        <time>2013-04-21T08:36:52Z</time>
      </trkpt>
      <trkpt lat="44.29066" lon="2.97833">
        <ele>1039</ele>
        <time>2013-04-21T08:36:54Z</time>
      </trkpt>
      <trkpt lat="44.29058" lon="2.97839">
        <ele>1040</ele>
        <time>2013-04-21T08:36:56Z</time>
      </trkpt>
      <trkpt lat="44.29054" lon="2.97842">
        <ele>1040</ele>
        <time>2013-04-21T08:36:57Z</time>
      </trkpt>
      <trkpt lat="44.29049" lon="2.97845">
        <ele>1040</ele>
        <time>2013-04-21T08:36:58Z</time>
      </trkpt>
      <trkpt lat="44.29045" lon="2.97848">
        <ele>1040</ele>
        <time>2013-04-21T08:36:59Z</time>
      </trkpt>
      <trkpt lat="44.2904" lon="2.97852">
        <ele>1040</ele>
        <time>2013-04-21T08:37:00Z</time>
      </trkpt>
      <trkpt lat="44.29035" lon="2.97855">
        <ele>1040</ele>
        <time>2013-04-21T08:37:01Z</time>
      </trkpt>
      <trkpt lat="44.2903" lon="2.97858">
        <ele>1040</ele>
        <time>2013-04-21T08:37:02Z</time>
      </trkpt>
      <trkpt lat="44.29026" lon="2.9786">
        <ele>1040</ele>
        <time>2013-04-21T08:37:03Z</time>
      </trkpt>
      <trkpt lat="44.29021" lon="2.97863">
        <ele>1040</ele>
        <time>2013-04-21T08:37:04Z</time>
      </trkpt>
      <trkpt lat="44.29017" lon="2.97866">
        <ele>1040</ele>
        <time>2013-04-21T08:37:05Z</time>
      </trkpt>
      <trkpt lat="44.29012" lon="2.9787">
        <ele>1040</ele>
        <time>2013-04-21T08:37:06Z</time>
      </trkpt>
      <trkpt lat="44.29007" lon="2.97874">
        <ele>1040</ele>
        <time>2013-04-21T08:37:07Z</time>
      </trkpt>
      <trkpt lat="44.29002" lon="2.97878">
        <ele>1040</ele>
        <time>2013-04-21T08:37:08Z</time>
      </trkpt>
      <trkpt lat="44.28993" lon="2.97886">
        <ele>1040</ele>
        <time>2013-04-21T08:37:10Z</time>
      </trkpt>
      <trkpt lat="44.28984" lon="2.97893">
        <ele>1041</ele>
        <time>2013-04-21T08:37:12Z</time>
      </trkpt>
      <trkpt lat="44.28973" lon="2.97901">
        <ele>1041</ele>
        <time>2013-04-21T08:37:15Z</time>
      </trkpt>
      <trkpt lat="44.28967" lon="2.97907">
        <ele>1041</ele>
        <time>2013-04-21T08:37:17Z</time>
      </trkpt>
      <trkpt lat="44.2896" lon="2.97912">
        <ele>1041</ele>
        <time>2013-04-21T08:37:19Z</time>
      </trkpt>
      <trkpt lat="44.28952" lon="2.97917">
        <ele>1041</ele>
        <time>2013-04-21T08:37:21Z</time>
      </trkpt>
      <trkpt lat="44.28944" lon="2.97923">
        <ele>1041</ele>
        <time>2013-04-21T08:37:23Z</time>
      </trkpt>
      <trkpt lat="44.2894" lon="2.97927">
        <ele>1041</ele>
        <time>2013-04-21T08:37:24Z</time>
      </trkpt>
      <trkpt lat="44.28934" lon="2.97932">
        <ele>1040</ele>
        <time>2013-04-21T08:37:26Z</time>
      </trkpt>
      <trkpt lat="44.28928" lon="2.97937">
        <ele>1040</ele>
        <time>2013-04-21T08:37:28Z</time>
      </trkpt>
      <trkpt lat="44.28919" lon="2.97946">
        <ele>1040</ele>
        <time>2013-04-21T08:37:32Z</time>
      </trkpt>
      <trkpt lat="44.28915" lon="2.97949">
        <ele>1040</ele>
        <time>2013-04-21T08:37:34Z</time>
      </trkpt>
      <trkpt lat="44.2891" lon="2.97952">
        <ele>1040</ele>
        <time>2013-04-21T08:37:38Z</time>
      </trkpt>
      <trkpt lat="44.28905" lon="2.97956">
        <ele>1040</ele>
        <time>2013-04-21T08:37:42Z</time>
      </trkpt>
      <trkpt lat="44.28901" lon="2.9796">
        <ele>1040</ele>
        <time>2013-04-21T08:37:45Z</time>
      </trkpt>
      <trkpt lat="44.28896" lon="2.97963">
        <ele>1040</ele>
        <time>2013-04-21T08:37:48Z</time>
      </trkpt>
      <trkpt lat="44.28893" lon="2.97969">
        <ele>1040</ele>
        <time>2013-04-21T08:37:52Z</time>
      </trkpt>
      <trkpt lat="44.28888" lon="2.97973">
        <ele>1040</ele>
        <time>2013-04-21T08:37:55Z</time>
      </trkpt>
      <trkpt lat="44.28883" lon="2.97977">
        <ele>1039</ele>
        <time>2013-04-21T08:37:59Z</time>
      </trkpt>
      <trkpt lat="44.28879" lon="2.97981">
        <ele>1039</ele>
        <time>2013-04-21T08:38:02Z</time>
      </trkpt>
      <trkpt lat="44.28874" lon="2.97984">
        <ele>1039</ele>
        <time>2013-04-21T08:38:05Z</time>
      </trkpt>
      <trkpt lat="44.28869" lon="2.97987">
        <ele>1038</ele>
        <time>2013-04-21T08:38:09Z</time>
      </trkpt>
      <trkpt lat="44.28864" lon="2.9799">
        <ele>1037</ele>
        <time>2013-04-21T08:38:12Z</time>
      </trkpt>
      <trkpt lat="44.28854" lon="2.97995">
        <ele>1036</ele>
        <time>2013-04-21T08:38:15Z</time>
      </trkpt>
      <trkpt lat="44.28845" lon="2.97999">
        <ele>1036</ele>
        <time>2013-04-21T08:38:17Z</time>
      </trkpt>
      <trkpt lat="44.28833" lon="2.98005">
        <ele>1035</ele>
        <time>2013-04-21T08:38:19Z</time>
      </trkpt>
      <trkpt lat="44.28822" lon="2.98015">
        <ele>1034</ele>
        <time>2013-04-21T08:38:21Z</time>
      </trkpt>
      <trkpt lat="44.28808" lon="2.98027">
        <ele>1033</ele>
        <time>2013-04-21T08:38:23Z</time>
      </trkpt>
      <trkpt lat="44.28797" lon="2.98037">
        <ele>1033</ele>
        <time>2013-04-21T08:38:25Z</time>
      </trkpt>
      <trkpt lat="44.28792" lon="2.98042">
        <ele>1033</ele>
        <time>2013-04-21T08:38:26Z</time>
      </trkpt>
      <trkpt lat="44.28788" lon="2.98046">
        <ele>1033</ele>
        <time>2013-04-21T08:38:27Z</time>
      </trkpt>
      <trkpt lat="44.28783" lon="2.98051">
        <ele>1033</ele>
        <time>2013-04-21T08:38:28Z</time>
      </trkpt>
      <trkpt lat="44.28774" lon="2.9806">
        <ele>1034</ele>
        <time>2013-04-21T08:38:30Z</time>
      </trkpt>
      <trkpt lat="44.28764" lon="2.98071">
        <ele>1034</ele>
        <time>2013-04-21T08:38:32Z</time>
      </trkpt>
      <trkpt lat="44.28759" lon="2.98076">
        <ele>1034</ele>
        <time>2013-04-21T08:38:33Z</time>
      </trkpt>
      <trkpt lat="44.28753" lon="2.98081">
        <ele>1034</ele>
        <time>2013-04-21T08:38:34Z</time>
      </trkpt>
      <trkpt lat="44.28749" lon="2.98085">
        <ele>1034</ele>
        <time>2013-04-21T08:38:35Z</time>
      </trkpt>
      <trkpt lat="44.28744" lon="2.9809">
        <ele>1034</ele>
        <time>2013-04-21T08:38:36Z</time>
      </trkpt>
      <trkpt lat="44.28735" lon="2.98099">
        <ele>1034</ele>
        <time>2013-04-21T08:38:38Z</time>
      </trkpt>
      <trkpt lat="44.28726" lon="2.98108">
        <ele>1033</ele>
        <time>2013-04-21T08:38:40Z</time>
      </trkpt>
      <trkpt lat="44.28717" lon="2.98118">
        <ele>1033</ele>
        <time>2013-04-21T08:38:42Z</time>
      </trkpt>
      <trkpt lat="44.28708" lon="2.98127">
        <ele>1033</ele>
        <time>2013-04-21T08:38:44Z</time>
      </trkpt>
      <trkpt lat="44.287" lon="2.98135">
        <ele>1033</ele>
        <time>2013-04-21T08:38:46Z</time>
      </trkpt>
      <trkpt lat="44.28691" lon="2.98144">
        <ele>1034</ele>
        <time>2013-04-21T08:38:48Z</time>
      </trkpt>
      <trkpt lat="44.28682" lon="2.98156">
        <ele>1034</ele>
        <time>2013-04-21T08:38:50Z</time>
      </trkpt>
      <trkpt lat="44.28672" lon="2.98167">
        <ele>1034</ele>
        <time>2013-04-21T08:38:52Z</time>
      </trkpt>
      <trkpt lat="44.28663" lon="2.98177">
        <ele>1034</ele>
        <time>2013-04-21T08:38:54Z</time>
      </trkpt>
      <trkpt lat="44.28654" lon="2.98187">
        <ele>1034</ele>
        <time>2013-04-21T08:38:56Z</time>
      </trkpt>
      <trkpt lat="44.28645" lon="2.98195">
        <ele>1034</ele>
        <time>2013-04-21T08:38:58Z</time>
      </trkpt>
      <trkpt lat="44.28636" lon="2.98203">
        <ele>1034</ele>
        <time>2013-04-21T08:39:00Z</time>
      </trkpt>
      <trkpt lat="44.28626" lon="2.98212">
        <ele>1034</ele>
        <time>2013-04-21T08:39:02Z</time>
      </trkpt>
      <trkpt lat="44.28616" lon="2.98222">
        <ele>1034</ele>
        <time>2013-04-21T08:39:04Z</time>
      </trkpt>
      <trkpt lat="44.28603" lon="2.98231">
        <ele>1033</ele>
        <time>2013-04-21T08:39:08Z</time>
      </trkpt>
      <trkpt lat="44.28593" lon="2.98241">
        <ele>1033</ele>
        <time>2013-04-21T08:39:10Z</time>
      </trkpt>
      <trkpt lat="44.28586" lon="2.9825">
        <ele>1033</ele>
        <time>2013-04-21T08:39:12Z</time>
      </trkpt>
      <trkpt lat="44.28578" lon="2.98261">
        <ele>1032</ele>
        <time>2013-04-21T08:39:15Z</time>
      </trkpt>
      <trkpt lat="44.2857" lon="2.9827">
        <ele>1032</ele>
        <time>2013-04-21T08:39:18Z</time>
      </trkpt>
      <trkpt lat="44.28557" lon="2.98285">
        <ele>1032</ele>
        <time>2013-04-21T08:39:22Z</time>
      </trkpt>
      <trkpt lat="44.28551" lon="2.98294">
        <ele>1032</ele>
        <time>2013-04-21T08:39:24Z</time>
      </trkpt>
      <trkpt lat="44.28544" lon="2.98302">
        <ele>1032</ele>
        <time>2013-04-21T08:39:26Z</time>
      </trkpt>
      <trkpt lat="44.28537" lon="2.98314">
        <ele>1032</ele>
        <time>2013-04-21T08:39:28Z</time>
      </trkpt>
      <trkpt lat="44.28529" lon="2.98326">
        <ele>1031</ele>
        <time>2013-04-21T08:39:30Z</time>
      </trkpt>
      <trkpt lat="44.28521" lon="2.98339">
        <ele>1031</ele>
        <time>2013-04-21T08:39:32Z</time>
      </trkpt>
      <trkpt lat="44.28514" lon="2.98352">
        <ele>1031</ele>
        <time>2013-04-21T08:39:34Z</time>
      </trkpt>
      <trkpt lat="44.28505" lon="2.98364">
        <ele>1031</ele>
        <time>2013-04-21T08:39:36Z</time>
      </trkpt>
      <trkpt lat="44.28497" lon="2.98372">
        <ele>1032</ele>
        <time>2013-04-21T08:39:38Z</time>
      </trkpt>
      <trkpt lat="44.28489" lon="2.98381">
        <ele>1032</ele>
        <time>2013-04-21T08:39:40Z</time>
      </trkpt>
      <trkpt lat="44.28482" lon="2.98391">
        <ele>1033</ele>
        <time>2013-04-21T08:39:42Z</time>
      </trkpt>
      <trkpt lat="44.28475" lon="2.98401">
        <ele>1033</ele>
        <time>2013-04-21T08:39:45Z</time>
      </trkpt>
      <trkpt lat="44.28467" lon="2.9841">
        <ele>1032</ele>
        <time>2013-04-21T08:39:51Z</time>
      </trkpt>
      <trkpt lat="44.28457" lon="2.98414">
        <ele>1034</ele>
        <time>2013-04-21T08:39:56Z</time>
      </trkpt>
      <trkpt lat="44.28447" lon="2.98419">
        <ele>1035</ele>
        <time>2013-04-21T08:40:02Z</time>
      </trkpt>
      <trkpt lat="44.28433" lon="2.98422">
        <ele>1032</ele>
        <time>2013-04-21T08:40:11Z</time>
      </trkpt>
      <trkpt lat="44.28423" lon="2.98422">
        <ele>1031</ele>
        <time>2013-04-21T08:40:17Z</time>
      </trkpt>
      <trkpt lat="44.28413" lon="2.9843">
        <ele>1032</ele>
        <time>2013-04-21T08:40:24Z</time>
      </trkpt>
      <trkpt lat="44.28403" lon="2.98429">
        <ele>1031</ele>
        <time>2013-04-21T08:40:34Z</time>
      </trkpt>
      <trkpt lat="44.28393" lon="2.98427">
        <ele>1031</ele>
        <time>2013-04-21T08:40:38Z</time>
      </trkpt>
      <trkpt lat="44.28382" lon="2.98425">
        <ele>1030</ele>
        <time>2013-04-21T08:40:45Z</time>
      </trkpt>
      <trkpt lat="44.28372" lon="2.98428">
        <ele>1029</ele>
        <time>2013-04-21T08:40:52Z</time>
      </trkpt>
      <trkpt lat="44.28356" lon="2.98432">
        <ele>1028</ele>
        <time>2013-04-21T08:41:03Z</time>
      </trkpt>
      <trkpt lat="44.28346" lon="2.98433">
        <ele>1030</ele>
        <time>2013-04-21T08:41:08Z</time>
      </trkpt>
      <trkpt lat="44.28337" lon="2.98435">
        <ele>1030</ele>
        <time>2013-04-21T08:41:12Z</time>
      </trkpt>
      <trkpt lat="44.28329" lon="2.98441">
        <ele>1030</ele>
        <time>2013-04-21T08:41:18Z</time>
      </trkpt>
      <trkpt lat="44.28319" lon="2.98448">
        <ele>1030</ele>
        <time>2013-04-21T08:41:23Z</time>
      </trkpt>
      <trkpt lat="44.28309" lon="2.98457">
        <ele>1033</ele>
        <time>2013-04-21T08:41:30Z</time>
      </trkpt>
      <trkpt lat="44.283" lon="2.98462">
        <ele>1034</ele>
        <time>2013-04-21T08:41:34Z</time>
      </trkpt>
      <trkpt lat="44.28296" lon="2.98464">
        <ele>1035</ele>
        <time>2013-04-21T08:41:37Z</time>
      </trkpt>
      <trkpt lat="44.2829" lon="2.98468">
        <ele>1036</ele>
        <time>2013-04-21T08:41:41Z</time>
      </trkpt>
      <trkpt lat="44.28285" lon="2.98472">
        <ele>1037</ele>
        <time>2013-04-21T08:41:44Z</time>
      </trkpt>
      <trkpt lat="44.2828" lon="2.98477">
        <ele>1039</ele>
        <time>2013-04-21T08:41:47Z</time>
      </trkpt>
      <trkpt lat="44.28271" lon="2.98483">
        <ele>1041</ele>
        <time>2013-04-21T08:41:52Z</time>
      </trkpt>
      <trkpt lat="44.28261" lon="2.98487">
        <ele>1043</ele>
        <time>2013-04-21T08:41:59Z</time>
      </trkpt>
      <trkpt lat="44.28252" lon="2.98492">
        <ele>1042</ele>
        <time>2013-04-21T08:42:04Z</time>
      </trkpt>
      <trkpt lat="44.28242" lon="2.98501">
        <ele>1040</ele>
        <time>2013-04-21T08:42:10Z</time>
      </trkpt>
      <trkpt lat="44.28235" lon="2.98509">
        <ele>1038</ele>
        <time>2013-04-21T08:42:15Z</time>
      </trkpt>
      <trkpt lat="44.2822" lon="2.98522">
        <ele>1035</ele>
        <time>2013-04-21T08:42:29Z</time>
      </trkpt>
      <trkpt lat="44.28214" lon="2.98534">
        <ele>1035</ele>
        <time>2013-04-21T08:42:35Z</time>
      </trkpt>
      <trkpt lat="44.28207" lon="2.98544">
        <ele>1033</ele>
        <time>2013-04-21T08:42:40Z</time>
      </trkpt>
      <trkpt lat="44.28202" lon="2.98556">
        <ele>1033</ele>
        <time>2013-04-21T08:42:44Z</time>
      </trkpt>
      <trkpt lat="44.28192" lon="2.98568">
        <ele>1030</ele>
        <time>2013-04-21T08:42:50Z</time>
      </trkpt>
      <trkpt lat="44.28186" lon="2.98577">
        <ele>1028</ele>
        <time>2013-04-21T08:42:55Z</time>
      </trkpt>
      <trkpt lat="44.28179" lon="2.98586">
        <ele>1027</ele>
        <time>2013-04-21T08:43:01Z</time>
      </trkpt>
      <trkpt lat="44.28173" lon="2.98591">
        <ele>1026</ele>
        <time>2013-04-21T08:43:06Z</time>
      </trkpt>
      <trkpt lat="44.28167" lon="2.98594">
        <ele>1025</ele>
        <time>2013-04-21T08:43:08Z</time>
      </trkpt>
      <trkpt lat="44.28157" lon="2.986">
        <ele>1025</ele>
        <time>2013-04-21T08:43:14Z</time>
      </trkpt>
      <trkpt lat="44.28151" lon="2.98602">
        <ele>1025</ele>
        <time>2013-04-21T08:43:17Z</time>
      </trkpt>
      <trkpt lat="44.28142" lon="2.98601">
        <ele>1026</ele>
        <time>2013-04-21T08:43:23Z</time>
      </trkpt>
      <trkpt lat="44.28136" lon="2.98599">
        <ele>1026</ele>
        <time>2013-04-21T08:43:27Z</time>
      </trkpt>
      <trkpt lat="44.28132" lon="2.98596">
        <ele>1026</ele>
        <time>2013-04-21T08:43:29Z</time>
      </trkpt>
      <trkpt lat="44.28127" lon="2.98593">
        <ele>1025</ele>
        <time>2013-04-21T08:43:33Z</time>
      </trkpt>
      <trkpt lat="44.28121" lon="2.9859">
        <ele>1024</ele>
        <time>2013-04-21T08:43:37Z</time>
      </trkpt>
      <trkpt lat="44.28116" lon="2.98587">
        <ele>1024</ele>
        <time>2013-04-21T08:43:40Z</time>
      </trkpt>
      <trkpt lat="44.28108" lon="2.98585">
        <ele>1022</ele>
        <time>2013-04-21T08:43:45Z</time>
      </trkpt>
      <trkpt lat="44.28103" lon="2.98583">
        <ele>1021</ele>
        <time>2013-04-21T08:43:48Z</time>
      </trkpt>
      <trkpt lat="44.28098" lon="2.98582">
        <ele>1021</ele>
        <time>2013-04-21T08:43:51Z</time>
      </trkpt>
      <trkpt lat="44.28093" lon="2.9858">
        <ele>1021</ele>
        <time>2013-04-21T08:43:54Z</time>
      </trkpt>
      <trkpt lat="44.28087" lon="2.98579">
        <ele>1020</ele>
        <time>2013-04-21T08:43:57Z</time>
      </trkpt>
      <trkpt lat="44.28081" lon="2.98577">
        <ele>1020</ele>
        <time>2013-04-21T08:44:00Z</time>
      </trkpt>
      <trkpt lat="44.28074" lon="2.98576">
        <ele>1021</ele>
        <time>2013-04-21T08:44:04Z</time>
      </trkpt>
      <trkpt lat="44.28068" lon="2.98575">
        <ele>1022</ele>
        <time>2013-04-21T08:44:08Z</time>
      </trkpt>
      <trkpt lat="44.28062" lon="2.98575">
        <ele>1024</ele>
        <time>2013-04-21T08:44:11Z</time>
      </trkpt>
      <trkpt lat="44.28056" lon="2.98574">
        <ele>1024</ele>
        <time>2013-04-21T08:44:14Z</time>
      </trkpt>
      <trkpt lat="44.2805" lon="2.98573">
        <ele>1025</ele>
        <time>2013-04-21T08:44:17Z</time>
      </trkpt>
      <trkpt lat="44.28043" lon="2.98573">
        <ele>1025</ele>
        <time>2013-04-21T08:44:21Z</time>
      </trkpt>
      <trkpt lat="44.28038" lon="2.98574">
        <ele>1026</ele>
        <time>2013-04-21T08:44:24Z</time>
      </trkpt>
      <trkpt lat="44.28032" lon="2.98574">
        <ele>1026</ele>
        <time>2013-04-21T08:44:27Z</time>
      </trkpt>
      <trkpt lat="44.28026" lon="2.98575">
        <ele>1026</ele>
        <time>2013-04-21T08:44:30Z</time>
      </trkpt>
      <trkpt lat="44.28021" lon="2.98577">
        <ele>1027</ele>
        <time>2013-04-21T08:44:33Z</time>
      </trkpt>
      <trkpt lat="44.28016" lon="2.98578">
        <ele>1027</ele>
        <time>2013-04-21T08:44:36Z</time>
      </trkpt>
      <trkpt lat="44.28011" lon="2.98579">
        <ele>1026</ele>
        <time>2013-04-21T08:44:39Z</time>
      </trkpt>
      <trkpt lat="44.28007" lon="2.98582">
        <ele>1026</ele>
        <time>2013-04-21T08:44:42Z</time>
      </trkpt>
      <trkpt lat="44.28002" lon="2.98585">
        <ele>1026</ele>
        <time>2013-04-21T08:44:45Z</time>
      </trkpt>
      <trkpt lat="44.27998" lon="2.98588">
        <ele>1025</ele>
        <time>2013-04-21T08:44:48Z</time>
      </trkpt>
      <trkpt lat="44.27994" lon="2.98593">
        <ele>1026</ele>
        <time>2013-04-21T08:44:51Z</time>
      </trkpt>
      <trkpt lat="44.27989" lon="2.98597">
        <ele>1026</ele>
        <time>2013-04-21T08:44:54Z</time>
      </trkpt>
      <trkpt lat="44.27985" lon="2.98601">
        <ele>1026</ele>
        <time>2013-04-21T08:44:57Z</time>
      </trkpt>
      <trkpt lat="44.27982" lon="2.98606">
        <ele>1026</ele>
        <time>2013-04-21T08:45:00Z</time>
      </trkpt>
      <trkpt lat="44.27978" lon="2.98611">
        <ele>1026</ele>
        <time>2013-04-21T08:45:03Z</time>
      </trkpt>
      <trkpt lat="44.27974" lon="2.98616">
        <ele>1026</ele>
        <time>2013-04-21T08:45:06Z</time>
      </trkpt>
      <trkpt lat="44.27972" lon="2.98623">
        <ele>1025</ele>
        <time>2013-04-21T08:45:09Z</time>
      </trkpt>
      <trkpt lat="44.27971" lon="2.98629">
        <ele>1024</ele>
        <time>2013-04-21T08:45:12Z</time>
      </trkpt>
      <trkpt lat="44.27967" lon="2.98641">
        <ele>1023</ele>
        <time>2013-04-21T08:45:19Z</time>
      </trkpt>
      <trkpt lat="44.27961" lon="2.98648">
        <ele>1022</ele>
        <time>2013-04-21T08:45:24Z</time>
      </trkpt>
      <trkpt lat="44.27953" lon="2.98652">
        <ele>1022</ele>
        <time>2013-04-21T08:45:29Z</time>
      </trkpt>
      <trkpt lat="44.27947" lon="2.98652">
        <ele>1022</ele>
        <time>2013-04-21T08:45:32Z</time>
      </trkpt>
      <trkpt lat="44.27938" lon="2.98655">
        <ele>1023</ele>
        <time>2013-04-21T08:45:37Z</time>
      </trkpt>
      <trkpt lat="44.27933" lon="2.98653">
        <ele>1025</ele>
        <time>2013-04-21T08:45:41Z</time>
      </trkpt>
      <trkpt lat="44.27927" lon="2.98652">
        <ele>1025</ele>
        <time>2013-04-21T08:45:44Z</time>
      </trkpt>
      <trkpt lat="44.27923" lon="2.9865">
        <ele>1026</ele>
        <time>2013-04-21T08:45:47Z</time>
      </trkpt>
      <trkpt lat="44.27918" lon="2.98648">
        <ele>1027</ele>
        <time>2013-04-21T08:45:50Z</time>
      </trkpt>
      <trkpt lat="44.27909" lon="2.98642">
        <ele>1028</ele>
        <time>2013-04-21T08:45:56Z</time>
      </trkpt>
      <trkpt lat="44.27904" lon="2.98641">
        <ele>1029</ele>
        <time>2013-04-21T08:45:59Z</time>
      </trkpt>
      <trkpt lat="44.27899" lon="2.98638">
        <ele>1028</ele>
        <time>2013-04-21T08:46:02Z</time>
      </trkpt>
      <trkpt lat="44.2789" lon="2.98631">
        <ele>1027</ele>
        <time>2013-04-21T08:46:08Z</time>
      </trkpt>
      <trkpt lat="44.27884" lon="2.98634">
        <ele>1027</ele>
        <time>2013-04-21T08:46:15Z</time>
      </trkpt>
      <trkpt lat="44.27887" lon="2.98645">
        <ele>1028</ele>
        <time>2013-04-21T08:46:22Z</time>
      </trkpt>
      <trkpt lat="44.27891" lon="2.98651">
        <ele>1029</ele>
        <time>2013-04-21T08:46:26Z</time>
      </trkpt>
      <trkpt lat="44.27895" lon="2.98657">
        <ele>1029</ele>
        <time>2013-04-21T08:46:30Z</time>
      </trkpt>
      <trkpt lat="44.27899" lon="2.98663">
        <ele>1029</ele>
        <time>2013-04-21T08:46:34Z</time>
      </trkpt>
      <trkpt lat="44.27904" lon="2.98673">
        <ele>1031</ele>
        <time>2013-04-21T08:46:39Z</time>
      </trkpt>
      <trkpt lat="44.27907" lon="2.98679">
        <ele>1032</ele>
        <time>2013-04-21T08:46:42Z</time>
      </trkpt>
      <trkpt lat="44.2791" lon="2.98683">
        <ele>1033</ele>
        <time>2013-04-21T08:46:45Z</time>
      </trkpt>
      <trkpt lat="44.27913" lon="2.98689">
        <ele>1034</ele>
        <time>2013-04-21T08:46:49Z</time>
      </trkpt>
      <trkpt lat="44.27917" lon="2.98694">
        <ele>1035</ele>
        <time>2013-04-21T08:46:52Z</time>
      </trkpt>
      <trkpt lat="44.2792" lon="2.987">
        <ele>1036</ele>
        <time>2013-04-21T08:46:55Z</time>
      </trkpt>
      <trkpt lat="44.27926" lon="2.98709">
        <ele>1038</ele>
        <time>2013-04-21T08:47:01Z</time>
      </trkpt>
      <trkpt lat="44.27929" lon="2.98715">
        <ele>1038</ele>
        <time>2013-04-21T08:47:04Z</time>
      </trkpt>
      <trkpt lat="44.27931" lon="2.98721">
        <ele>1038</ele>
        <time>2013-04-21T08:47:08Z</time>
      </trkpt>
      <trkpt lat="44.27936" lon="2.98732">
        <ele>1038</ele>
        <time>2013-04-21T08:47:15Z</time>
      </trkpt>
      <trkpt lat="44.27938" lon="2.98738">
        <ele>1039</ele>
        <time>2013-04-21T08:47:19Z</time>
      </trkpt>
      <trkpt lat="44.27941" lon="2.98743">
        <ele>1039</ele>
        <time>2013-04-21T08:47:22Z</time>
      </trkpt>
      <trkpt lat="44.27945" lon="2.9875">
        <ele>1040</ele>
        <time>2013-04-21T08:47:26Z</time>
      </trkpt>
      <trkpt lat="44.27947" lon="2.98755">
        <ele>1040</ele>
        <time>2013-04-21T08:47:29Z</time>
      </trkpt>
      <trkpt lat="44.2795" lon="2.98761">
        <ele>1041</ele>
        <time>2013-04-21T08:47:32Z</time>
      </trkpt>
      <trkpt lat="44.27953" lon="2.98768">
        <ele>1042</ele>
        <time>2013-04-21T08:47:36Z</time>
      </trkpt>
      <trkpt lat="44.27954" lon="2.98775">
        <ele>1043</ele>
        <time>2013-04-21T08:47:40Z</time>
      </trkpt>
      <trkpt lat="44.27956" lon="2.98782">
        <ele>1044</ele>
        <time>2013-04-21T08:47:44Z</time>
      </trkpt>
      <trkpt lat="44.27958" lon="2.98789">
        <ele>1045</ele>
        <time>2013-04-21T08:47:48Z</time>
      </trkpt>
      <trkpt lat="44.2796" lon="2.98795">
        <ele>1046</ele>
        <time>2013-04-21T08:47:52Z</time>
      </trkpt>
      <trkpt lat="44.27962" lon="2.98803">
        <ele>1047</ele>
        <time>2013-04-21T08:47:56Z</time>
      </trkpt>
      <trkpt lat="44.27964" lon="2.9881">
        <ele>1048</ele>
        <time>2013-04-21T08:48:00Z</time>
      </trkpt>
      <trkpt lat="44.27967" lon="2.98817">
        <ele>1049</ele>
        <time>2013-04-21T08:48:04Z</time>
      </trkpt>
      <trkpt lat="44.2797" lon="2.98823">
        <ele>1049</ele>
        <time>2013-04-21T08:48:08Z</time>
      </trkpt>
      <trkpt lat="44.27973" lon="2.98829">
        <ele>1049</ele>
        <time>2013-04-21T08:48:12Z</time>
      </trkpt>
      <trkpt lat="44.27977" lon="2.98835">
        <ele>1048</ele>
        <time>2013-04-21T08:48:16Z</time>
      </trkpt>
      <trkpt lat="44.27982" lon="2.98836">
        <ele>1048</ele>
        <time>2013-04-21T08:48:22Z</time>
      </trkpt>
      <trkpt lat="44.27992" lon="2.98833">
        <ele>1047</ele>
        <time>2013-04-21T08:48:31Z</time>
      </trkpt>
      <trkpt lat="44.28002" lon="2.98828">
        <ele>1048</ele>
        <time>2013-04-21T08:48:39Z</time>
      </trkpt>
      <trkpt lat="44.28012" lon="2.98823">
        <ele>1048</ele>
        <time>2013-04-21T08:48:45Z</time>
      </trkpt>
      <trkpt lat="44.28021" lon="2.98825">
        <ele>1049</ele>
        <time>2013-04-21T08:48:52Z</time>
      </trkpt>
      <trkpt lat="44.28032" lon="2.98826">
        <ele>1050</ele>
        <time>2013-04-21T08:48:58Z</time>
      </trkpt>
      <trkpt lat="44.28042" lon="2.98825">
        <ele>1051</ele>
        <time>2013-04-21T08:49:03Z</time>
      </trkpt>
      <trkpt lat="44.28051" lon="2.98825">
        <ele>1052</ele>
        <time>2013-04-21T08:49:10Z</time>
      </trkpt>
      <trkpt lat="44.28057" lon="2.98827">
        <ele>1053</ele>
        <time>2013-04-21T08:49:14Z</time>
      </trkpt>
      <trkpt lat="44.28063" lon="2.9883">
        <ele>1055</ele>
        <time>2013-04-21T08:49:18Z</time>
      </trkpt>
      <trkpt lat="44.28067" lon="2.98831">
        <ele>1056</ele>
        <time>2013-04-21T08:49:21Z</time>
      </trkpt>
      <trkpt lat="44.28073" lon="2.98834">
        <ele>1058</ele>
        <time>2013-04-21T08:49:26Z</time>
      </trkpt>
      <trkpt lat="44.28078" lon="2.98837">
        <ele>1059</ele>
        <time>2013-04-21T08:49:30Z</time>
      </trkpt>
      <trkpt lat="44.28082" lon="2.98842">
        <ele>1059</ele>
        <time>2013-04-21T08:49:34Z</time>
      </trkpt>
      <trkpt lat="44.28086" lon="2.98845">
        <ele>1060</ele>
        <time>2013-04-21T08:49:39Z</time>
      </trkpt>
      <trkpt lat="44.28095" lon="2.98853">
        <ele>1060</ele>
        <time>2013-04-21T08:49:47Z</time>
      </trkpt>
      <trkpt lat="44.28099" lon="2.98857">
        <ele>1060</ele>
        <time>2013-04-21T08:49:51Z</time>
      </trkpt>
      <trkpt lat="44.28103" lon="2.98861">
        <ele>1060</ele>
        <time>2013-04-21T08:49:54Z</time>
      </trkpt>
      <trkpt lat="44.28109" lon="2.98865">
        <ele>1060</ele>
        <time>2013-04-21T08:49:59Z</time>
      </trkpt>
      <trkpt lat="44.28114" lon="2.98869">
        <ele>1061</ele>
        <time>2013-04-21T08:50:04Z</time>
      </trkpt>
      <trkpt lat="44.28124" lon="2.98877">
        <ele>1062</ele>
        <time>2013-04-21T08:50:12Z</time>
      </trkpt>
      <trkpt lat="44.28134" lon="2.98882">
        <ele>1063</ele>
        <time>2013-04-21T08:50:20Z</time>
      </trkpt>
      <trkpt lat="44.28144" lon="2.98887">
        <ele>1064</ele>
        <time>2013-04-21T08:50:29Z</time>
      </trkpt>
      <trkpt lat="44.28154" lon="2.98891">
        <ele>1065</ele>
        <time>2013-04-21T08:50:35Z</time>
      </trkpt>
      <trkpt lat="44.28163" lon="2.98896">
        <ele>1066</ele>
        <time>2013-04-21T08:50:43Z</time>
      </trkpt>
      <trkpt lat="44.28172" lon="2.98896">
        <ele>1068</ele>
        <time>2013-04-21T08:50:51Z</time>
      </trkpt>
      <trkpt lat="44.28191" lon="2.98898">
        <ele>1069</ele>
        <time>2013-04-21T08:51:06Z</time>
      </trkpt>
      <trkpt lat="44.282" lon="2.98896">
        <ele>1069</ele>
        <time>2013-04-21T08:51:13Z</time>
      </trkpt>
      <trkpt lat="44.28209" lon="2.98895">
        <ele>1069</ele>
        <time>2013-04-21T08:51:19Z</time>
      </trkpt>
      <trkpt lat="44.28219" lon="2.98893">
        <ele>1069</ele>
        <time>2013-04-21T08:51:25Z</time>
      </trkpt>
      <trkpt lat="44.28236" lon="2.98896">
        <ele>1070</ele>
        <time>2013-04-21T08:51:36Z</time>
      </trkpt>
      <trkpt lat="44.28249" lon="2.98896">
        <ele>1071</ele>
        <time>2013-04-21T08:51:44Z</time>
      </trkpt>
      <trkpt lat="44.28259" lon="2.98896">
        <ele>1072</ele>
        <time>2013-04-21T08:51:48Z</time>
      </trkpt>
      <trkpt lat="44.28269" lon="2.98898">
        <ele>1075</ele>
        <time>2013-04-21T08:51:53Z</time>
      </trkpt>
      <trkpt lat="44.28281" lon="2.989">
        <ele>1077</ele>
        <time>2013-04-21T08:52:00Z</time>
      </trkpt>
      <trkpt lat="44.28291" lon="2.989">
        <ele>1077</ele>
        <time>2013-04-21T08:52:04Z</time>
      </trkpt>
      <trkpt lat="44.283" lon="2.98904">
        <ele>1078</ele>
        <time>2013-04-21T08:52:10Z</time>
      </trkpt>
      <trkpt lat="44.2831" lon="2.98909">
        <ele>1078</ele>
        <time>2013-04-21T08:52:18Z</time>
      </trkpt>
      <trkpt lat="44.28313" lon="2.98921">
        <ele>1079</ele>
        <time>2013-04-21T08:52:26Z</time>
      </trkpt>
      <trkpt lat="44.28311" lon="2.98935">
        <ele>1081</ele>
        <time>2013-04-21T08:52:32Z</time>
      </trkpt>
      <trkpt lat="44.28306" lon="2.98941">
        <ele>1083</ele>
        <time>2013-04-21T08:52:36Z</time>
      </trkpt>
      <trkpt lat="44.28302" lon="2.98947">
        <ele>1084</ele>
        <time>2013-04-21T08:52:39Z</time>
      </trkpt>
      <trkpt lat="44.283" lon="2.9895">
        <ele>1086</ele>
        <time>2013-04-21T08:52:46Z</time>
      </trkpt>
      <trkpt lat="44.28296" lon="2.98956">
        <ele>1087</ele>
        <time>2013-04-21T08:52:52Z</time>
      </trkpt>
      <trkpt lat="44.28292" lon="2.98962">
        <ele>1087</ele>
        <time>2013-04-21T08:52:56Z</time>
      </trkpt>
      <trkpt lat="44.28289" lon="2.98966">
        <ele>1088</ele>
        <time>2013-04-21T08:52:59Z</time>
      </trkpt>
      <trkpt lat="44.28285" lon="2.98972">
        <ele>1089</ele>
        <time>2013-04-21T08:53:02Z</time>
      </trkpt>
      <trkpt lat="44.28281" lon="2.98977">
        <ele>1090</ele>
        <time>2013-04-21T08:53:05Z</time>
      </trkpt>
      <trkpt lat="44.28277" lon="2.98983">
        <ele>1090</ele>
        <time>2013-04-21T08:53:09Z</time>
      </trkpt>
      <trkpt lat="44.28273" lon="2.98987">
        <ele>1089</ele>
        <time>2013-04-21T08:53:13Z</time>
      </trkpt>
      <trkpt lat="44.28268" lon="2.98991">
        <ele>1089</ele>
        <time>2013-04-21T08:53:17Z</time>
      </trkpt>
      <trkpt lat="44.28264" lon="2.98995">
        <ele>1089</ele>
        <time>2013-04-21T08:53:20Z</time>
      </trkpt>
      <trkpt lat="44.2826" lon="2.99">
        <ele>1089</ele>
        <time>2013-04-21T08:53:23Z</time>
      </trkpt>
      <trkpt lat="44.28256" lon="2.99006">
        <ele>1088</ele>
        <time>2013-04-21T08:53:26Z</time>
      </trkpt>
      <trkpt lat="44.28253" lon="2.99011">
        <ele>1088</ele>
        <time>2013-04-21T08:53:29Z</time>
      </trkpt>
      <trkpt lat="44.2825" lon="2.99016">
        <ele>1089</ele>
        <time>2013-04-21T08:53:32Z</time>
      </trkpt>
      <trkpt lat="44.28246" lon="2.99023">
        <ele>1090</ele>
        <time>2013-04-21T08:53:36Z</time>
      </trkpt>
      <trkpt lat="44.28243" lon="2.99028">
        <ele>1090</ele>
        <time>2013-04-21T08:53:39Z</time>
      </trkpt>
      <trkpt lat="44.28241" lon="2.99034">
        <ele>1090</ele>
        <time>2013-04-21T08:53:42Z</time>
      </trkpt>
      <trkpt lat="44.28235" lon="2.99045">
        <ele>1090</ele>
        <time>2013-04-21T08:53:48Z</time>
      </trkpt>
      <trkpt lat="44.28231" lon="2.99051">
        <ele>1091</ele>
        <time>2013-04-21T08:53:52Z</time>
      </trkpt>
      <trkpt lat="44.28228" lon="2.99058">
        <ele>1092</ele>
        <time>2013-04-21T08:53:55Z</time>
      </trkpt>
      <trkpt lat="44.28225" lon="2.99063">
        <ele>1093</ele>
        <time>2013-04-21T08:53:58Z</time>
      </trkpt>
      <trkpt lat="44.28221" lon="2.99068">
        <ele>1093</ele>
        <time>2013-04-21T08:54:01Z</time>
      </trkpt>
      <trkpt lat="44.28217" lon="2.99073">
        <ele>1093</ele>
        <time>2013-04-21T08:54:05Z</time>
      </trkpt>
      <trkpt lat="44.28211" lon="2.99081">
        <ele>1094</ele>
        <time>2013-04-21T08:54:10Z</time>
      </trkpt>
      <trkpt lat="44.28203" lon="2.99088">
        <ele>1095</ele>
        <time>2013-04-21T08:54:16Z</time>
      </trkpt>
      <trkpt lat="44.28198" lon="2.99099">
        <ele>1096</ele>
        <time>2013-04-21T08:54:22Z</time>
      </trkpt>
      <trkpt lat="44.28193" lon="2.9911">
        <ele>1096</ele>
        <time>2013-04-21T08:54:28Z</time>
      </trkpt>
      <trkpt lat="44.2819" lon="2.99117">
        <ele>1097</ele>
        <time>2013-04-21T08:54:32Z</time>
      </trkpt>
      <trkpt lat="44.28186" lon="2.99124">
        <ele>1098</ele>
        <time>2013-04-21T08:54:36Z</time>
      </trkpt>
      <trkpt lat="44.28179" lon="2.99132">
        <ele>1099</ele>
        <time>2013-04-21T08:54:43Z</time>
      </trkpt>
      <trkpt lat="44.28171" lon="2.99136">
        <ele>1100</ele>
        <time>2013-04-21T08:54:49Z</time>
      </trkpt>
      <trkpt lat="44.28163" lon="2.99144">
        <ele>1100</ele>
        <time>2013-04-21T08:54:56Z</time>
      </trkpt>
      <trkpt lat="44.28158" lon="2.99149">
        <ele>1100</ele>
        <time>2013-04-21T08:55:00Z</time>
      </trkpt>
      <trkpt lat="44.28154" lon="2.99153">
        <ele>1100</ele>
        <time>2013-04-21T08:55:04Z</time>
      </trkpt>
      <trkpt lat="44.28147" lon="2.99162">
        <ele>1102</ele>
        <time>2013-04-21T08:55:14Z</time>
      </trkpt>
      <trkpt lat="44.28127" lon="2.99184">
        <ele>1112</ele>
        <time>2013-04-21T08:55:40Z</time>
      </trkpt>
      <trkpt lat="44.2812" lon="2.99194">
        <ele>1113</ele>
        <time>2013-04-21T08:55:47Z</time>
      </trkpt>
      <trkpt lat="44.28114" lon="2.99205">
        <ele>1113</ele>
        <time>2013-04-21T08:55:55Z</time>
      </trkpt>
      <trkpt lat="44.2811" lon="2.99217">
        <ele>1110</ele>
        <time>2013-04-21T08:56:02Z</time>
      </trkpt>
      <trkpt lat="44.28103" lon="2.99226">
        <ele>1108</ele>
        <time>2013-04-21T08:56:10Z</time>
      </trkpt>
      <trkpt lat="44.28097" lon="2.99236">
        <ele>1109</ele>
        <time>2013-04-21T08:56:15Z</time>
      </trkpt>
      <trkpt lat="44.28091" lon="2.99245">
        <ele>1108</ele>
        <time>2013-04-21T08:56:22Z</time>
      </trkpt>
      <trkpt lat="44.28082" lon="2.99255">
        <ele>1108</ele>
        <time>2013-04-21T08:56:28Z</time>
      </trkpt>
      <trkpt lat="44.28076" lon="2.99266">
        <ele>1109</ele>
        <time>2013-04-21T08:56:35Z</time>
      </trkpt>
      <trkpt lat="44.28072" lon="2.99277">
        <ele>1108</ele>
        <time>2013-04-21T08:56:44Z</time>
      </trkpt>
      <trkpt lat="44.28066" lon="2.99288">
        <ele>1109</ele>
        <time>2013-04-21T08:56:53Z</time>
      </trkpt>
      <trkpt lat="44.28062" lon="2.993">
        <ele>1111</ele>
        <time>2013-04-21T08:57:00Z</time>
      </trkpt>
      <trkpt lat="44.28058" lon="2.99314">
        <ele>1112</ele>
        <time>2013-04-21T08:57:07Z</time>
      </trkpt>
      <trkpt lat="44.28054" lon="2.99326">
        <ele>1113</ele>
        <time>2013-04-21T08:57:13Z</time>
      </trkpt>
      <trkpt lat="44.28053" lon="2.99341">
        <ele>1116</ele>
        <time>2013-04-21T08:57:26Z</time>
      </trkpt>
      <trkpt lat="44.28049" lon="2.99354">
        <ele>1117</ele>
        <time>2013-04-21T08:57:34Z</time>
      </trkpt>
      <trkpt lat="44.28044" lon="2.99369">
        <ele>1118</ele>
        <time>2013-04-21T08:57:42Z</time>
      </trkpt>
      <trkpt lat="44.28044" lon="2.99382">
        <ele>1118</ele>
        <time>2013-04-21T08:57:50Z</time>
      </trkpt>
      <trkpt lat="44.28043" lon="2.99387">
        <ele>1124</ele>
        <time>2013-04-21T08:58:02Z</time>
      </trkpt>
      <trkpt lat="44.28039" lon="2.994">
        <ele>1126</ele>
        <time>2013-04-21T08:58:10Z</time>
      </trkpt>
      <trkpt lat="44.28035" lon="2.99412">
        <ele>1124</ele>
        <time>2013-04-21T08:58:16Z</time>
      </trkpt>
      <trkpt lat="44.28028" lon="2.99423">
        <ele>1123</ele>
        <time>2013-04-21T08:58:23Z</time>
      </trkpt>
      <trkpt lat="44.28023" lon="2.99433">
        <ele>1125</ele>
        <time>2013-04-21T08:58:30Z</time>
      </trkpt>
      <trkpt lat="44.28028" lon="2.99444">
        <ele>1128</ele>
        <time>2013-04-21T08:58:41Z</time>
      </trkpt>
      <trkpt lat="44.28021" lon="2.99454">
        <ele>1129</ele>
        <time>2013-04-21T08:58:49Z</time>
      </trkpt>
      <trkpt lat="44.28013" lon="2.99463">
        <ele>1129</ele>
        <time>2013-04-21T08:58:58Z</time>
      </trkpt>
      <trkpt lat="44.28011" lon="2.99473">
        <ele>1132</ele>
        <time>2013-04-21T08:59:16Z</time>
      </trkpt>
      <trkpt lat="44.2801" lon="2.99488">
        <ele>1134</ele>
        <time>2013-04-21T08:59:23Z</time>
      </trkpt>
      <trkpt lat="44.28007" lon="2.995">
        <ele>1136</ele>
        <time>2013-04-21T08:59:28Z</time>
      </trkpt>
      <trkpt lat="44.28005" lon="2.99515">
        <ele>1138</ele>
        <time>2013-04-21T08:59:35Z</time>
      </trkpt>
      <trkpt lat="44.28004" lon="2.99528">
        <ele>1137</ele>
        <time>2013-04-21T08:59:40Z</time>
      </trkpt>
      <trkpt lat="44.28003" lon="2.99535">
        <ele>1137</ele>
        <time>2013-04-21T08:59:43Z</time>
      </trkpt>
      <trkpt lat="44.28002" lon="2.99542">
        <ele>1137</ele>
        <time>2013-04-21T08:59:47Z</time>
      </trkpt>
      <trkpt lat="44.27996" lon="2.99554">
        <ele>1138</ele>
        <time>2013-04-21T08:59:55Z</time>
      </trkpt>
      <trkpt lat="44.2799" lon="2.99564">
        <ele>1139</ele>
        <time>2013-04-21T09:00:03Z</time>
      </trkpt>
      <trkpt lat="44.27981" lon="2.99572">
        <ele>1141</ele>
        <time>2013-04-21T09:00:10Z</time>
      </trkpt>
      <trkpt lat="44.27977" lon="2.99569">
        <ele>1142</ele>
        <time>2013-04-21T09:00:14Z</time>
      </trkpt>
      <trkpt lat="44.27969" lon="2.99564">
        <ele>1142</ele>
        <time>2013-04-21T09:00:22Z</time>
      </trkpt>
      <trkpt lat="44.27959" lon="2.99567">
        <ele>1140</ele>
        <time>2013-04-21T09:00:29Z</time>
      </trkpt>
      <trkpt lat="44.27949" lon="2.9957">
        <ele>1140</ele>
        <time>2013-04-21T09:00:38Z</time>
      </trkpt>
      <trkpt lat="44.27939" lon="2.99567">
        <ele>1137</ele>
        <time>2013-04-21T09:00:50Z</time>
      </trkpt>
      <trkpt lat="44.2793" lon="2.99563">
        <ele>1136</ele>
        <time>2013-04-21T09:00:55Z</time>
      </trkpt>
      <trkpt lat="44.27919" lon="2.99559">
        <ele>1137</ele>
        <time>2013-04-21T09:01:02Z</time>
      </trkpt>
      <trkpt lat="44.27907" lon="2.9956">
        <ele>1136</ele>
        <time>2013-04-21T09:01:33Z</time>
      </trkpt>
      <trkpt lat="44.27898" lon="2.99556">
        <ele>1137</ele>
        <time>2013-04-21T09:01:38Z</time>
      </trkpt>
      <trkpt lat="44.27889" lon="2.99551">
        <ele>1138</ele>
        <time>2013-04-21T09:01:43Z</time>
      </trkpt>
      <trkpt lat="44.27882" lon="2.99548">
        <ele>1140</ele>
        <time>2013-04-21T09:01:47Z</time>
      </trkpt>
      <trkpt lat="44.27876" lon="2.99546">
        <ele>1141</ele>
        <time>2013-04-21T09:01:50Z</time>
      </trkpt>
      <trkpt lat="44.27866" lon="2.99546">
        <ele>1141</ele>
        <time>2013-04-21T09:01:55Z</time>
      </trkpt>
      <trkpt lat="44.27858" lon="2.99551">
        <ele>1144</ele>
        <time>2013-04-21T09:02:00Z</time>
      </trkpt>
      <trkpt lat="44.2785" lon="2.99557">
        <ele>1147</ele>
        <time>2013-04-21T09:02:06Z</time>
      </trkpt>
      <trkpt lat="44.27842" lon="2.99561">
        <ele>1150</ele>
        <time>2013-04-21T09:02:14Z</time>
      </trkpt>
      <trkpt lat="44.27837" lon="2.99559">
        <ele>1150</ele>
        <time>2013-04-21T09:02:19Z</time>
      </trkpt>
      <trkpt lat="44.27832" lon="2.9957">
        <ele>1149</ele>
        <time>2013-04-21T09:02:28Z</time>
      </trkpt>
      <trkpt lat="44.27823" lon="2.99575">
        <ele>1147</ele>
        <time>2013-04-21T09:02:33Z</time>
      </trkpt>
      <trkpt lat="44.27815" lon="2.99583">
        <ele>1147</ele>
        <time>2013-04-21T09:02:38Z</time>
      </trkpt>
      <trkpt lat="44.27812" lon="2.99597">
        <ele>1144</ele>
        <time>2013-04-21T09:02:45Z</time>
      </trkpt>
      <trkpt lat="44.27812" lon="2.9961">
        <ele>1141</ele>
        <time>2013-04-21T09:02:50Z</time>
      </trkpt>
      <trkpt lat="44.27814" lon="2.99622">
        <ele>1141</ele>
        <time>2013-04-21T09:02:56Z</time>
      </trkpt>
      <trkpt lat="44.27817" lon="2.99635">
        <ele>1139</ele>
        <time>2013-04-21T09:03:05Z</time>
      </trkpt>
      <trkpt lat="44.27819" lon="2.99647">
        <ele>1138</ele>
        <time>2013-04-21T09:03:12Z</time>
      </trkpt>
      <trkpt lat="44.27823" lon="2.99662">
        <ele>1138</ele>
        <time>2013-04-21T09:03:20Z</time>
      </trkpt>
      <trkpt lat="44.27825" lon="2.99678">
        <ele>1137</ele>
        <time>2013-04-21T09:03:28Z</time>
      </trkpt>
      <trkpt lat="44.27825" lon="2.99693">
        <ele>1139</ele>
        <time>2013-04-21T09:03:38Z</time>
      </trkpt>
      <trkpt lat="44.27823" lon="2.99706">
        <ele>1140</ele>
        <time>2013-04-21T09:03:44Z</time>
      </trkpt>
      <trkpt lat="44.27821" lon="2.99719">
        <ele>1140</ele>
        <time>2013-04-21T09:03:52Z</time>
      </trkpt>
      <trkpt lat="44.2782" lon="2.99733">
        <ele>1141</ele>
        <time>2013-04-21T09:03:59Z</time>
      </trkpt>
      <trkpt lat="44.27819" lon="2.99744">
        <ele>1143</ele>
        <time>2013-04-21T09:04:04Z</time>
      </trkpt>
      <trkpt lat="44.27818" lon="2.99751">
        <ele>1144</ele>
        <time>2013-04-21T09:04:07Z</time>
      </trkpt>
      <trkpt lat="44.27819" lon="2.99758">
        <ele>1144</ele>
        <time>2013-04-21T09:04:11Z</time>
      </trkpt>
      <trkpt lat="44.27818" lon="2.99766">
        <ele>1144</ele>
        <time>2013-04-21T09:04:15Z</time>
      </trkpt>
      <trkpt lat="44.27818" lon="2.99774">
        <ele>1143</ele>
        <time>2013-04-21T09:04:19Z</time>
      </trkpt>
      <trkpt lat="44.27817" lon="2.99786">
        <ele>1140</ele>
        <time>2013-04-21T09:04:26Z</time>
      </trkpt>
      <trkpt lat="44.27817" lon="2.99799">
        <ele>1139</ele>
        <time>2013-04-21T09:04:33Z</time>
      </trkpt>
      <trkpt lat="44.27814" lon="2.99812">
        <ele>1140</ele>
        <time>2013-04-21T09:04:39Z</time>
      </trkpt>
      <trkpt lat="44.27814" lon="2.99819">
        <ele>1141</ele>
        <time>2013-04-21T09:04:43Z</time>
      </trkpt>
      <trkpt lat="44.27814" lon="2.99825">
        <ele>1141</ele>
        <time>2013-04-21T09:04:47Z</time>
      </trkpt>
      <trkpt lat="44.27814" lon="2.99832">
        <ele>1141</ele>
        <time>2013-04-21T09:04:51Z</time>
      </trkpt>
      <trkpt lat="44.27814" lon="2.99845">
        <ele>1141</ele>
        <time>2013-04-21T09:04:57Z</time>
      </trkpt>
      <trkpt lat="44.27814" lon="2.99852">
        <ele>1141</ele>
        <time>2013-04-21T09:05:00Z</time>
      </trkpt>
      <trkpt lat="44.27813" lon="2.99858">
        <ele>1141</ele>
        <time>2013-04-21T09:05:04Z</time>
      </trkpt>
      <trkpt lat="44.27813" lon="2.99872">
        <ele>1141</ele>
        <time>2013-04-21T09:05:11Z</time>
      </trkpt>
      <trkpt lat="44.27815" lon="2.99884">
        <ele>1140</ele>
        <time>2013-04-21T09:05:16Z</time>
      </trkpt>
      <trkpt lat="44.2782" lon="2.99893">
        <ele>1140</ele>
        <time>2013-04-21T09:05:22Z</time>
      </trkpt>
      <trkpt lat="44.27826" lon="2.99906">
        <ele>1140</ele>
        <time>2013-04-21T09:05:32Z</time>
      </trkpt>
      <trkpt lat="44.2783" lon="2.99919">
        <ele>1140</ele>
        <time>2013-04-21T09:05:40Z</time>
      </trkpt>
      <trkpt lat="44.27836" lon="2.99931">
        <ele>1141</ele>
        <time>2013-04-21T09:05:47Z</time>
      </trkpt>
      <trkpt lat="44.27841" lon="2.99942">
        <ele>1142</ele>
        <time>2013-04-21T09:05:54Z</time>
      </trkpt>
      <trkpt lat="44.27849" lon="2.99951">
        <ele>1143</ele>
        <time>2013-04-21T09:05:59Z</time>
      </trkpt>
      <trkpt lat="44.27854" lon="2.99962">
        <ele>1145</ele>
        <time>2013-04-21T09:06:05Z</time>
      </trkpt>
      <trkpt lat="44.27861" lon="2.9997">
        <ele>1148</ele>
        <time>2013-04-21T09:06:11Z</time>
      </trkpt>
      <trkpt lat="44.27869" lon="2.99981">
        <ele>1148</ele>
        <time>2013-04-21T09:06:18Z</time>
      </trkpt>
      <trkpt lat="44.27877" lon="2.9999">
        <ele>1150</ele>
        <time>2013-04-21T09:06:23Z</time>
      </trkpt>
      <trkpt lat="44.27885" lon="3">
        <ele>1151</ele>
        <time>2013-04-21T09:06:28Z</time>
      </trkpt>
      <trkpt lat="44.27892" lon="3.00008">
        <ele>1151</ele>
        <time>2013-04-21T09:06:35Z</time>
      </trkpt>
      <trkpt lat="44.27902" lon="3.00012">
        <ele>1151</ele>
        <time>2013-04-21T09:06:42Z</time>
      </trkpt>
      <trkpt lat="44.27912" lon="3.0001">
        <ele>1151</ele>
        <time>2013-04-21T09:06:50Z</time>
      </trkpt>
      <trkpt lat="44.2792" lon="3.00004">
        <ele>1148</ele>
        <time>2013-04-21T09:06:59Z</time>
      </trkpt>
      <trkpt lat="44.27928" lon="2.99996">
        <ele>1149</ele>
        <time>2013-04-21T09:07:05Z</time>
      </trkpt>
      <trkpt lat="44.27937" lon="2.9999">
        <ele>1150</ele>
        <time>2013-04-21T09:07:12Z</time>
      </trkpt>
      <trkpt lat="44.27945" lon="2.99983">
        <ele>1151</ele>
        <time>2013-04-21T09:07:20Z</time>
      </trkpt>
      <trkpt lat="44.27953" lon="2.99975">
        <ele>1151</ele>
        <time>2013-04-21T09:07:26Z</time>
      </trkpt>
      <trkpt lat="44.27959" lon="2.99963">
        <ele>1153</ele>
        <time>2013-04-21T09:07:36Z</time>
      </trkpt>
      <trkpt lat="44.27966" lon="2.99952">
        <ele>1154</ele>
        <time>2013-04-21T09:07:42Z</time>
      </trkpt>
      <trkpt lat="44.27974" lon="2.99946">
        <ele>1154</ele>
        <time>2013-04-21T09:07:46Z</time>
      </trkpt>
      <trkpt lat="44.27982" lon="2.99936">
        <ele>1154</ele>
        <time>2013-04-21T09:07:50Z</time>
      </trkpt>
      <trkpt lat="44.27991" lon="2.9993">
        <ele>1153</ele>
        <time>2013-04-21T09:07:56Z</time>
      </trkpt>
      <trkpt lat="44.28001" lon="2.99926">
        <ele>1152</ele>
        <time>2013-04-21T09:08:02Z</time>
      </trkpt>
      <trkpt lat="44.28011" lon="2.99921">
        <ele>1151</ele>
        <time>2013-04-21T09:08:07Z</time>
      </trkpt>
      <trkpt lat="44.28021" lon="2.9992">
        <ele>1149</ele>
        <time>2013-04-21T09:08:14Z</time>
      </trkpt>
      <trkpt lat="44.28031" lon="2.99917">
        <ele>1145</ele>
        <time>2013-04-21T09:08:19Z</time>
      </trkpt>
      <trkpt lat="44.2804" lon="2.99915">
        <ele>1142</ele>
        <time>2013-04-21T09:08:24Z</time>
      </trkpt>
      <trkpt lat="44.28048" lon="2.99929">
        <ele>1143</ele>
        <time>2013-04-21T09:08:35Z</time>
      </trkpt>
      <trkpt lat="44.28054" lon="2.99939">
        <ele>1143</ele>
        <time>2013-04-21T09:08:41Z</time>
      </trkpt>
      <trkpt lat="44.28058" lon="2.99946">
        <ele>1144</ele>
        <time>2013-04-21T09:08:44Z</time>
      </trkpt>
      <trkpt lat="44.2806" lon="2.99953">
        <ele>1145</ele>
        <time>2013-04-21T09:08:47Z</time>
      </trkpt>
      <trkpt lat="44.28061" lon="2.9996">
        <ele>1145</ele>
        <time>2013-04-21T09:08:50Z</time>
      </trkpt>
      <trkpt lat="44.28062" lon="2.99968">
        <ele>1144</ele>
        <time>2013-04-21T09:08:54Z</time>
      </trkpt>
      <trkpt lat="44.28063" lon="2.99975">
        <ele>1143</ele>
        <time>2013-04-21T09:08:58Z</time>
      </trkpt>
      <trkpt lat="44.28063" lon="2.99982">
        <ele>1144</ele>
        <time>2013-04-21T09:09:01Z</time>
      </trkpt>
      <trkpt lat="44.28064" lon="2.99989">
        <ele>1143</ele>
        <time>2013-04-21T09:09:04Z</time>
      </trkpt>
      <trkpt lat="44.28061" lon="2.99997">
        <ele>1145</ele>
        <time>2013-04-21T09:09:19Z</time>
      </trkpt>
      <trkpt lat="44.28058" lon="2.99997">
        <ele>1143</ele>
        <time>2013-04-21T09:09:57Z</time>
      </trkpt>
      <trkpt lat="44.28061" lon="3.00001">
        <ele>1145</ele>
        <time>2013-04-21T09:11:26Z</time>
      </trkpt>
      <trkpt lat="44.28061" lon="3.0001">
        <ele>1146</ele>
        <time>2013-04-21T09:11:56Z</time>
      </trkpt>
      <trkpt lat="44.28062" lon="3.00017">
        <ele>1147</ele>
        <time>2013-04-21T09:11:59Z</time>
      </trkpt>
      <trkpt lat="44.28061" lon="3.00025">
        <ele>1148</ele>
        <time>2013-04-21T09:12:03Z</time>
      </trkpt>
      <trkpt lat="44.2806" lon="3.00031">
        <ele>1148</ele>
        <time>2013-04-21T09:12:06Z</time>
      </trkpt>
      <trkpt lat="44.2806" lon="3.00038">
        <ele>1147</ele>
        <time>2013-04-21T09:12:09Z</time>
      </trkpt>
      <trkpt lat="44.28058" lon="3.00046">
        <ele>1146</ele>
        <time>2013-04-21T09:12:13Z</time>
      </trkpt>
      <trkpt lat="44.28058" lon="3.00053">
        <ele>1145</ele>
        <time>2013-04-21T09:12:17Z</time>
      </trkpt>
      <trkpt lat="44.28058" lon="3.00061">
        <ele>1144</ele>
        <time>2013-04-21T09:12:20Z</time>
      </trkpt>
      <trkpt lat="44.2806" lon="3.00073">
        <ele>1144</ele>
        <time>2013-04-21T09:12:29Z</time>
      </trkpt>
      <trkpt lat="44.2806" lon="3.0008">
        <ele>1143</ele>
        <time>2013-04-21T09:12:32Z</time>
      </trkpt>
      <trkpt lat="44.2806" lon="3.00091">
        <ele>1142</ele>
        <time>2013-04-21T09:12:37Z</time>
      </trkpt>
      <trkpt lat="44.28057" lon="3.00105">
        <ele>1141</ele>
        <time>2013-04-21T09:12:42Z</time>
      </trkpt>
      <trkpt lat="44.28056" lon="3.00118">
        <ele>1141</ele>
        <time>2013-04-21T09:12:46Z</time>
      </trkpt>
      <trkpt lat="44.28055" lon="3.00127">
        <ele>1141</ele>
        <time>2013-04-21T09:12:49Z</time>
      </trkpt>
      <trkpt lat="44.28054" lon="3.00135">
        <ele>1140</ele>
        <time>2013-04-21T09:12:52Z</time>
      </trkpt>
      <trkpt lat="44.28053" lon="3.00143">
        <ele>1140</ele>
        <time>2013-04-21T09:12:55Z</time>
      </trkpt>
      <trkpt lat="44.28051" lon="3.00151">
        <ele>1140</ele>
        <time>2013-04-21T09:12:58Z</time>
      </trkpt>
      <trkpt lat="44.28049" lon="3.0016">
        <ele>1140</ele>
        <time>2013-04-21T09:13:01Z</time>
      </trkpt>
      <trkpt lat="44.28048" lon="3.00167">
        <ele>1139</ele>
        <time>2013-04-21T09:13:04Z</time>
      </trkpt>
      <trkpt lat="44.28046" lon="3.00174">
        <ele>1138</ele>
        <time>2013-04-21T09:13:07Z</time>
      </trkpt>
      <trkpt lat="44.28044" lon="3.00181">
        <ele>1137</ele>
        <time>2013-04-21T09:13:11Z</time>
      </trkpt>
      <trkpt lat="44.28044" lon="3.0019">
        <ele>1137</ele>
        <time>2013-04-21T09:13:15Z</time>
      </trkpt>
      <trkpt lat="44.28042" lon="3.00197">
        <ele>1136</ele>
        <time>2013-04-21T09:13:19Z</time>
      </trkpt>
      <trkpt lat="44.28038" lon="3.00209">
        <ele>1135</ele>
        <time>2013-04-21T09:13:25Z</time>
      </trkpt>
      <trkpt lat="44.28037" lon="3.00217">
        <ele>1135</ele>
        <time>2013-04-21T09:13:28Z</time>
      </trkpt>
      <trkpt lat="44.28037" lon="3.00225">
        <ele>1134</ele>
        <time>2013-04-21T09:13:31Z</time>
      </trkpt>
      <trkpt lat="44.28035" lon="3.00233">
        <ele>1134</ele>
        <time>2013-04-21T09:13:34Z</time>
      </trkpt>
      <trkpt lat="44.28034" lon="3.00239">
        <ele>1132</ele>
        <time>2013-04-21T09:13:37Z</time>
      </trkpt>
      <trkpt lat="44.28034" lon="3.00246">
        <ele>1130</ele>
        <time>2013-04-21T09:13:40Z</time>
      </trkpt>
      <trkpt lat="44.28034" lon="3.00256">
        <ele>1129</ele>
        <time>2013-04-21T09:13:45Z</time>
      </trkpt>
      <trkpt lat="44.28033" lon="3.00263">
        <ele>1129</ele>
        <time>2013-04-21T09:13:48Z</time>
      </trkpt>
      <trkpt lat="44.28032" lon="3.00271">
        <ele>1129</ele>
        <time>2013-04-21T09:13:51Z</time>
      </trkpt>
      <trkpt lat="44.28033" lon="3.00279">
        <ele>1129</ele>
        <time>2013-04-21T09:13:54Z</time>
      </trkpt>
      <trkpt lat="44.28034" lon="3.00289">
        <ele>1127</ele>
        <time>2013-04-21T09:13:59Z</time>
      </trkpt>
      <trkpt lat="44.28035" lon="3.00297">
        <ele>1126</ele>
        <time>2013-04-21T09:14:02Z</time>
      </trkpt>
      <trkpt lat="44.28033" lon="3.00311">
        <ele>1125</ele>
        <time>2013-04-21T09:14:08Z</time>
      </trkpt>
      <trkpt lat="44.2803" lon="3.00321">
        <ele>1124</ele>
        <time>2013-04-21T09:14:12Z</time>
      </trkpt>
      <trkpt lat="44.28026" lon="3.00335">
        <ele>1123</ele>
        <time>2013-04-21T09:14:18Z</time>
      </trkpt>
      <trkpt lat="44.28021" lon="3.00347">
        <ele>1121</ele>
        <time>2013-04-21T09:14:24Z</time>
      </trkpt>
      <trkpt lat="44.28018" lon="3.00359">
        <ele>1120</ele>
        <time>2013-04-21T09:14:30Z</time>
      </trkpt>
      <trkpt lat="44.28014" lon="3.00372">
        <ele>1118</ele>
        <time>2013-04-21T09:14:35Z</time>
      </trkpt>
      <trkpt lat="44.28011" lon="3.00378">
        <ele>1118</ele>
        <time>2013-04-21T09:14:38Z</time>
      </trkpt>
      <trkpt lat="44.28007" lon="3.0039">
        <ele>1118</ele>
        <time>2013-04-21T09:14:43Z</time>
      </trkpt>
      <trkpt lat="44.28006" lon="3.00396">
        <ele>1118</ele>
        <time>2013-04-21T09:14:46Z</time>
      </trkpt>
      <trkpt lat="44.28005" lon="3.00403">
        <ele>1118</ele>
        <time>2013-04-21T09:14:49Z</time>
      </trkpt>
      <trkpt lat="44.28002" lon="3.00412">
        <ele>1117</ele>
        <time>2013-04-21T09:14:52Z</time>
      </trkpt>
      <trkpt lat="44.28001" lon="3.00418">
        <ele>1116</ele>
        <time>2013-04-21T09:14:55Z</time>
      </trkpt>
      <trkpt lat="44.27999" lon="3.00424">
        <ele>1115</ele>
        <time>2013-04-21T09:14:58Z</time>
      </trkpt>
      <trkpt lat="44.27998" lon="3.0043">
        <ele>1115</ele>
        <time>2013-04-21T09:15:01Z</time>
      </trkpt>
      <trkpt lat="44.27996" lon="3.00443">
        <ele>1113</ele>
        <time>2013-04-21T09:15:07Z</time>
      </trkpt>
      <trkpt lat="44.27995" lon="3.0045">
        <ele>1112</ele>
        <time>2013-04-21T09:15:10Z</time>
      </trkpt>
      <trkpt lat="44.27992" lon="3.00458">
        <ele>1108</ele>
        <time>2013-04-21T09:15:22Z</time>
      </trkpt>
      <trkpt lat="44.27985" lon="3.0047">
        <ele>1108</ele>
        <time>2013-04-21T09:15:29Z</time>
      </trkpt>
      <trkpt lat="44.27977" lon="3.00479">
        <ele>1107</ele>
        <time>2013-04-21T09:15:35Z</time>
      </trkpt>
      <trkpt lat="44.27971" lon="3.0048">
        <ele>1107</ele>
        <time>2013-04-21T09:15:39Z</time>
      </trkpt>
      <trkpt lat="44.27967" lon="3.0048">
        <ele>1107</ele>
        <time>2013-04-21T09:15:42Z</time>
      </trkpt>
      <trkpt lat="44.27958" lon="3.00484">
        <ele>1107</ele>
        <time>2013-04-21T09:15:48Z</time>
      </trkpt>
      <trkpt lat="44.27952" lon="3.00484">
        <ele>1107</ele>
        <time>2013-04-21T09:15:52Z</time>
      </trkpt>
      <trkpt lat="44.27946" lon="3.00483">
        <ele>1106</ele>
        <time>2013-04-21T09:15:55Z</time>
      </trkpt>
      <trkpt lat="44.27941" lon="3.00482">
        <ele>1105</ele>
        <time>2013-04-21T09:15:58Z</time>
      </trkpt>
      <trkpt lat="44.27936" lon="3.00484">
        <ele>1104</ele>
        <time>2013-04-21T09:16:01Z</time>
      </trkpt>
      <trkpt lat="44.2793" lon="3.00485">
        <ele>1103</ele>
        <time>2013-04-21T09:16:05Z</time>
      </trkpt>
      <trkpt lat="44.27925" lon="3.00487">
        <ele>1102</ele>
        <time>2013-04-21T09:16:08Z</time>
      </trkpt>
      <trkpt lat="44.2792" lon="3.0049">
        <ele>1099</ele>
        <time>2013-04-21T09:16:12Z</time>
      </trkpt>
      <trkpt lat="44.27914" lon="3.00503">
        <ele>1096</ele>
        <time>2013-04-21T09:16:23Z</time>
      </trkpt>
      <trkpt lat="44.27909" lon="3.00515">
        <ele>1094</ele>
        <time>2013-04-21T09:16:28Z</time>
      </trkpt>
      <trkpt lat="44.27905" lon="3.00521">
        <ele>1094</ele>
        <time>2013-04-21T09:16:31Z</time>
      </trkpt>
      <trkpt lat="44.27903" lon="3.00527">
        <ele>1093</ele>
        <time>2013-04-21T09:16:34Z</time>
      </trkpt>
      <trkpt lat="44.27902" lon="3.00535">
        <ele>1092</ele>
        <time>2013-04-21T09:16:37Z</time>
      </trkpt>
      <trkpt lat="44.27903" lon="3.00547">
        <ele>1089</ele>
        <time>2013-04-21T09:16:42Z</time>
      </trkpt>
      <trkpt lat="44.27903" lon="3.00558">
        <ele>1088</ele>
        <time>2013-04-21T09:16:46Z</time>
      </trkpt>
      <trkpt lat="44.27901" lon="3.00566">
        <ele>1087</ele>
        <time>2013-04-21T09:16:50Z</time>
      </trkpt>
      <trkpt lat="44.27898" lon="3.00572">
        <ele>1087</ele>
        <time>2013-04-21T09:16:53Z</time>
      </trkpt>
      <trkpt lat="44.27895" lon="3.00578">
        <ele>1086</ele>
        <time>2013-04-21T09:16:56Z</time>
      </trkpt>
      <trkpt lat="44.2789" lon="3.00584">
        <ele>1085</ele>
        <time>2013-04-21T09:17:01Z</time>
      </trkpt>
      <trkpt lat="44.27887" lon="3.00589">
        <ele>1084</ele>
        <time>2013-04-21T09:17:04Z</time>
      </trkpt>
      <trkpt lat="44.27884" lon="3.00595">
        <ele>1082</ele>
        <time>2013-04-21T09:17:07Z</time>
      </trkpt>
      <trkpt lat="44.27879" lon="3.00604">
        <ele>1081</ele>
        <time>2013-04-21T09:17:13Z</time>
      </trkpt>
      <trkpt lat="44.27875" lon="3.00609">
        <ele>1080</ele>
        <time>2013-04-21T09:17:16Z</time>
      </trkpt>
      <trkpt lat="44.27867" lon="3.00616">
        <ele>1080</ele>
        <time>2013-04-21T09:17:21Z</time>
      </trkpt>
      <trkpt lat="44.2786" lon="3.00626">
        <ele>1079</ele>
        <time>2013-04-21T09:17:27Z</time>
      </trkpt>
      <trkpt lat="44.27851" lon="3.00632">
        <ele>1079</ele>
        <time>2013-04-21T09:17:34Z</time>
      </trkpt>
      <trkpt lat="44.27845" lon="3.00636">
        <ele>1078</ele>
        <time>2013-04-21T09:17:38Z</time>
      </trkpt>
      <trkpt lat="44.27841" lon="3.00639">
        <ele>1077</ele>
        <time>2013-04-21T09:17:41Z</time>
      </trkpt>
      <trkpt lat="44.27837" lon="3.00642">
        <ele>1077</ele>
        <time>2013-04-21T09:17:44Z</time>
      </trkpt>
      <trkpt lat="44.27832" lon="3.0065">
        <ele>1077</ele>
        <time>2013-04-21T09:17:50Z</time>
      </trkpt>
      <trkpt lat="44.27829" lon="3.00657">
        <ele>1076</ele>
        <time>2013-04-21T09:17:53Z</time>
      </trkpt>
      <trkpt lat="44.27824" lon="3.00669">
        <ele>1076</ele>
        <time>2013-04-21T09:18:00Z</time>
      </trkpt>
      <trkpt lat="44.27823" lon="3.00675">
        <ele>1076</ele>
        <time>2013-04-21T09:18:03Z</time>
      </trkpt>
      <trkpt lat="44.27822" lon="3.00681">
        <ele>1074</ele>
        <time>2013-04-21T09:18:06Z</time>
      </trkpt>
      <trkpt lat="44.27818" lon="3.0069">
        <ele>1072</ele>
        <time>2013-04-21T09:18:12Z</time>
      </trkpt>
      <trkpt lat="44.27814" lon="3.00695">
        <ele>1072</ele>
        <time>2013-04-21T09:18:15Z</time>
      </trkpt>
      <trkpt lat="44.27811" lon="3.00699">
        <ele>1071</ele>
        <time>2013-04-21T09:18:19Z</time>
      </trkpt>
      <trkpt lat="44.27807" lon="3.00703">
        <ele>1070</ele>
        <time>2013-04-21T09:18:22Z</time>
      </trkpt>
      <trkpt lat="44.27802" lon="3.00708">
        <ele>1069</ele>
        <time>2013-04-21T09:18:26Z</time>
      </trkpt>
      <trkpt lat="44.27794" lon="3.00714">
        <ele>1067</ele>
        <time>2013-04-21T09:18:31Z</time>
      </trkpt>
      <trkpt lat="44.27789" lon="3.00718">
        <ele>1065</ele>
        <time>2013-04-21T09:18:35Z</time>
      </trkpt>
      <trkpt lat="44.2778" lon="3.00723">
        <ele>1064</ele>
        <time>2013-04-21T09:18:41Z</time>
      </trkpt>
      <trkpt lat="44.2777" lon="3.00726">
        <ele>1064</ele>
        <time>2013-04-21T09:18:47Z</time>
      </trkpt>
      <trkpt lat="44.27764" lon="3.00729">
        <ele>1063</ele>
        <time>2013-04-21T09:18:51Z</time>
      </trkpt>
      <trkpt lat="44.27759" lon="3.0073">
        <ele>1063</ele>
        <time>2013-04-21T09:18:54Z</time>
      </trkpt>
      <trkpt lat="44.2775" lon="3.00734">
        <ele>1061</ele>
        <time>2013-04-21T09:18:59Z</time>
      </trkpt>
      <trkpt lat="44.27742" lon="3.0074">
        <ele>1059</ele>
        <time>2013-04-21T09:19:04Z</time>
      </trkpt>
      <trkpt lat="44.27732" lon="3.00744">
        <ele>1057</ele>
        <time>2013-04-21T09:19:10Z</time>
      </trkpt>
      <trkpt lat="44.27728" lon="3.00748">
        <ele>1056</ele>
        <time>2013-04-21T09:19:13Z</time>
      </trkpt>
      <trkpt lat="44.27723" lon="3.00751">
        <ele>1056</ele>
        <time>2013-04-21T09:19:16Z</time>
      </trkpt>
      <trkpt lat="44.27714" lon="3.00755">
        <ele>1056</ele>
        <time>2013-04-21T09:19:24Z</time>
      </trkpt>
      <trkpt lat="44.27704" lon="3.00754">
        <ele>1056</ele>
        <time>2013-04-21T09:19:31Z</time>
      </trkpt>
      <trkpt lat="44.27696" lon="3.00761">
        <ele>1056</ele>
        <time>2013-04-21T09:19:36Z</time>
      </trkpt>
      <trkpt lat="44.27691" lon="3.00778">
        <ele>1053</ele>
        <time>2013-04-21T09:19:53Z</time>
      </trkpt>
      <trkpt lat="44.27679" lon="3.00771">
        <ele>1052</ele>
        <time>2013-04-21T09:20:09Z</time>
      </trkpt>
      <trkpt lat="44.27679" lon="3.00758">
        <ele>1052</ele>
        <time>2013-04-21T09:20:14Z</time>
      </trkpt>
      <trkpt lat="44.27673" lon="3.00751">
        <ele>1052</ele>
        <time>2013-04-21T09:20:48Z</time>
      </trkpt>
      <trkpt lat="44.2767" lon="3.00758">
        <ele>1050</ele>
        <time>2013-04-21T09:21:52Z</time>
      </trkpt>
      <trkpt lat="44.27678" lon="3.00764">
        <ele>1051</ele>
        <time>2013-04-21T09:22:21Z</time>
      </trkpt>
      <trkpt lat="44.27676" lon="3.00766">
        <ele>1046</ele>
        <time>2013-04-21T09:23:13Z</time>
      </trkpt>
      <trkpt lat="44.27676" lon="3.00772">
        <ele>1053</ele>
        <time>2013-04-21T09:25:31Z</time>
      </trkpt>
      <trkpt lat="44.27677" lon="3.00769">
        <ele>1054</ele>
        <time>2013-04-21T09:26:39Z</time>
      </trkpt>
      <trkpt lat="44.27673" lon="3.00771">
        <ele>1053</ele>
        <time>2013-04-21T09:31:17Z</time>
      </trkpt>
      <trkpt lat="44.27682" lon="3.00758">
        <ele>1053</ele>
        <time>2013-04-21T09:32:03Z</time>
      </trkpt>
      <trkpt lat="44.27684" lon="3.00764">
        <ele>1053</ele>
        <time>2013-04-21T09:33:03Z</time>
      </trkpt>
      <trkpt lat="44.27674" lon="3.00775">
        <ele>1053</ele>
        <time>2013-04-21T09:33:22Z</time>
      </trkpt>
      <trkpt lat="44.27669" lon="3.00776">
        <ele>1053</ele>
        <time>2013-04-21T09:33:36Z</time>
      </trkpt>
      <trkpt lat="44.27675" lon="3.00774">
        <ele>1054</ele>
        <time>2013-04-21T09:36:03Z</time>
      </trkpt>
      <trkpt lat="44.27681" lon="3.00768">
        <ele>1054</ele>
        <time>2013-04-21T09:36:23Z</time>
      </trkpt>
      <trkpt lat="44.27681" lon="3.0076">
        <ele>1053</ele>
        <time>2013-04-21T09:36:51Z</time>
      </trkpt>
      <trkpt lat="44.27684" lon="3.00751">
        <ele>1043</ele>
        <time>2013-04-21T09:37:08Z</time>
      </trkpt>
      <trkpt lat="44.27679" lon="3.00747">
        <ele>1040</ele>
        <time>2013-04-21T09:37:17Z</time>
      </trkpt>
      <trkpt lat="44.2768" lon="3.00739">
        <ele>1041</ele>
        <time>2013-04-21T09:38:07Z</time>
      </trkpt>
      <trkpt lat="44.2768" lon="3.00732">
        <ele>1041</ele>
        <time>2013-04-21T09:38:21Z</time>
      </trkpt>
      <trkpt lat="44.27684" lon="3.00725">
        <ele>1047</ele>
        <time>2013-04-21T09:39:00Z</time>
      </trkpt>
      <trkpt lat="44.27684" lon="3.00743">
        <ele>1049</ele>
        <time>2013-04-21T09:39:21Z</time>
      </trkpt>
      <trkpt lat="44.27683" lon="3.0075">
        <ele>1049</ele>
        <time>2013-04-21T09:39:34Z</time>
      </trkpt>
      <trkpt lat="44.27679" lon="3.0075">
        <ele>1050</ele>
        <time>2013-04-21T09:40:09Z</time>
      </trkpt>
      <trkpt lat="44.2767" lon="3.00744">
        <ele>1047</ele>
        <time>2013-04-21T09:41:20Z</time>
      </trkpt>
      <trkpt lat="44.27664" lon="3.00745">
        <ele>1048</ele>
        <time>2013-04-21T09:41:34Z</time>
      </trkpt>
      <trkpt lat="44.2766" lon="3.00741">
        <ele>1049</ele>
        <time>2013-04-21T09:41:36Z</time>
      </trkpt>
      <trkpt lat="44.27666" lon="3.00738">
        <ele>1050</ele>
        <time>2013-04-21T09:42:23Z</time>
      </trkpt>
      <trkpt lat="44.27675" lon="3.00744">
        <ele>1050</ele>
        <time>2013-04-21T09:42:43Z</time>
      </trkpt>
      <trkpt lat="44.27682" lon="3.00743">
        <ele>1042</ele>
        <time>2013-04-21T09:43:52Z</time>
      </trkpt>
      <trkpt lat="44.27686" lon="3.0074">
        <ele>1041</ele>
        <time>2013-04-21T09:44:13Z</time>
      </trkpt>
      <trkpt lat="44.27689" lon="3.00752">
        <ele>1045</ele>
        <time>2013-04-21T09:44:46Z</time>
      </trkpt>
      <trkpt lat="44.27688" lon="3.00759">
        <ele>1050</ele>
        <time>2013-04-21T09:44:58Z</time>
      </trkpt>
      <trkpt lat="44.27684" lon="3.00754">
        <ele>1050</ele>
        <time>2013-04-21T09:45:07Z</time>
      </trkpt>
      <trkpt lat="44.27679" lon="3.00751">
        <ele>1046</ele>
        <time>2013-04-21T09:45:21Z</time>
      </trkpt>
      <trkpt lat="44.27684" lon="3.00751">
        <ele>1051</ele>
        <time>2013-04-21T09:48:15Z</time>
      </trkpt>
      <trkpt lat="44.27688" lon="3.00747">
        <ele>1050</ele>
        <time>2013-04-21T09:48:55Z</time>
      </trkpt>
      <trkpt lat="44.27693" lon="3.00742">
        <ele>1052</ele>
        <time>2013-04-21T09:49:35Z</time>
      </trkpt>
      <trkpt lat="44.27683" lon="3.00774">
        <ele>1052</ele>
        <time>2013-04-21T09:50:06Z</time>
      </trkpt>
      <trkpt lat="44.27674" lon="3.00783">
        <ele>1052</ele>
        <time>2013-04-21T09:50:11Z</time>
      </trkpt>
      <trkpt lat="44.27667" lon="3.0079">
        <ele>1051</ele>
        <time>2013-04-21T09:50:15Z</time>
      </trkpt>
      <trkpt lat="44.2766" lon="3.00799">
        <ele>1051</ele>
        <time>2013-04-21T09:50:22Z</time>
      </trkpt>
      <trkpt lat="44.27652" lon="3.00808">
        <ele>1051</ele>
        <time>2013-04-21T09:50:27Z</time>
      </trkpt>
      <trkpt lat="44.27644" lon="3.00815">
        <ele>1051</ele>
        <time>2013-04-21T09:50:35Z</time>
      </trkpt>
      <trkpt lat="44.27633" lon="3.00822">
        <ele>1051</ele>
        <time>2013-04-21T09:50:43Z</time>
      </trkpt>
      <trkpt lat="44.27626" lon="3.00832">
        <ele>1052</ele>
        <time>2013-04-21T09:50:49Z</time>
      </trkpt>
      <trkpt lat="44.27616" lon="3.00842">
        <ele>1052</ele>
        <time>2013-04-21T09:50:57Z</time>
      </trkpt>
      <trkpt lat="44.27608" lon="3.00849">
        <ele>1052</ele>
        <time>2013-04-21T09:51:02Z</time>
      </trkpt>
      <trkpt lat="44.27601" lon="3.00856">
        <ele>1051</ele>
        <time>2013-04-21T09:51:07Z</time>
      </trkpt>
      <trkpt lat="44.27592" lon="3.00863">
        <ele>1051</ele>
        <time>2013-04-21T09:51:14Z</time>
      </trkpt>
      <trkpt lat="44.27583" lon="3.00871">
        <ele>1049</ele>
        <time>2013-04-21T09:51:20Z</time>
      </trkpt>
      <trkpt lat="44.27575" lon="3.00879">
        <ele>1049</ele>
        <time>2013-04-21T09:51:31Z</time>
      </trkpt>
      <trkpt lat="44.27567" lon="3.0089">
        <ele>1048</ele>
        <time>2013-04-21T09:51:41Z</time>
      </trkpt>
      <trkpt lat="44.27559" lon="3.00899">
        <ele>1048</ele>
        <time>2013-04-21T09:51:47Z</time>
      </trkpt>
      <trkpt lat="44.2755" lon="3.0091">
        <ele>1048</ele>
        <time>2013-04-21T09:51:51Z</time>
      </trkpt>
      <trkpt lat="44.2754" lon="3.00918">
        <ele>1046</ele>
        <time>2013-04-21T09:51:56Z</time>
      </trkpt>
      <trkpt lat="44.27531" lon="3.00923">
        <ele>1046</ele>
        <time>2013-04-21T09:52:02Z</time>
      </trkpt>
      <trkpt lat="44.27523" lon="3.00931">
        <ele>1048</ele>
        <time>2013-04-21T09:52:06Z</time>
      </trkpt>
      <trkpt lat="44.27516" lon="3.00938">
        <ele>1049</ele>
        <time>2013-04-21T09:52:12Z</time>
      </trkpt>
      <trkpt lat="44.27509" lon="3.00947">
        <ele>1049</ele>
        <time>2013-04-21T09:52:17Z</time>
      </trkpt>
      <trkpt lat="44.275" lon="3.00954">
        <ele>1048</ele>
        <time>2013-04-21T09:52:25Z</time>
      </trkpt>
      <trkpt lat="44.27492" lon="3.00962">
        <ele>1047</ele>
        <time>2013-04-21T09:52:32Z</time>
      </trkpt>
      <trkpt lat="44.27485" lon="3.00973">
        <ele>1047</ele>
        <time>2013-04-21T09:52:39Z</time>
      </trkpt>
      <trkpt lat="44.2748" lon="3.00984">
        <ele>1048</ele>
        <time>2013-04-21T09:52:46Z</time>
      </trkpt>
      <trkpt lat="44.27474" lon="3.00997">
        <ele>1048</ele>
        <time>2013-04-21T09:52:54Z</time>
      </trkpt>
      <trkpt lat="44.2747" lon="3.01009">
        <ele>1048</ele>
        <time>2013-04-21T09:52:59Z</time>
      </trkpt>
      <trkpt lat="44.27466" lon="3.01025">
        <ele>1047</ele>
        <time>2013-04-21T09:53:06Z</time>
      </trkpt>
      <trkpt lat="44.27461" lon="3.01037">
        <ele>1047</ele>
        <time>2013-04-21T09:53:12Z</time>
      </trkpt>
      <trkpt lat="44.27455" lon="3.01051">
        <ele>1048</ele>
        <time>2013-04-21T09:53:23Z</time>
      </trkpt>
      <trkpt lat="44.2745" lon="3.0107">
        <ele>1050</ele>
        <time>2013-04-21T09:53:38Z</time>
      </trkpt>
      <trkpt lat="44.27445" lon="3.01084">
        <ele>1049</ele>
        <time>2013-04-21T09:53:45Z</time>
      </trkpt>
      <trkpt lat="44.27438" lon="3.01094">
        <ele>1050</ele>
        <time>2013-04-21T09:53:50Z</time>
      </trkpt>
      <trkpt lat="44.27434" lon="3.01107">
        <ele>1050</ele>
        <time>2013-04-21T09:53:58Z</time>
      </trkpt>
      <trkpt lat="44.2743" lon="3.0112">
        <ele>1051</ele>
        <time>2013-04-21T09:54:07Z</time>
      </trkpt>
      <trkpt lat="44.27422" lon="3.01129">
        <ele>1051</ele>
        <time>2013-04-21T09:54:13Z</time>
      </trkpt>
      <trkpt lat="44.27414" lon="3.01136">
        <ele>1052</ele>
        <time>2013-04-21T09:54:17Z</time>
      </trkpt>
      <trkpt lat="44.27404" lon="3.0114">
        <ele>1052</ele>
        <time>2013-04-21T09:54:22Z</time>
      </trkpt>
      <trkpt lat="44.27395" lon="3.01144">
        <ele>1054</ele>
        <time>2013-04-21T09:54:28Z</time>
      </trkpt>
      <trkpt lat="44.27386" lon="3.01148">
        <ele>1056</ele>
        <time>2013-04-21T09:54:34Z</time>
      </trkpt>
      <trkpt lat="44.27376" lon="3.0115">
        <ele>1056</ele>
        <time>2013-04-21T09:54:41Z</time>
      </trkpt>
      <trkpt lat="44.27368" lon="3.01154">
        <ele>1056</ele>
        <time>2013-04-21T09:54:47Z</time>
      </trkpt>
      <trkpt lat="44.27359" lon="3.0116">
        <ele>1056</ele>
        <time>2013-04-21T09:54:53Z</time>
      </trkpt>
      <trkpt lat="44.2735" lon="3.01164">
        <ele>1056</ele>
        <time>2013-04-21T09:55:00Z</time>
      </trkpt>
      <trkpt lat="44.2734" lon="3.01171">
        <ele>1056</ele>
        <time>2013-04-21T09:55:06Z</time>
      </trkpt>
      <trkpt lat="44.2733" lon="3.01174">
        <ele>1056</ele>
        <time>2013-04-21T09:55:14Z</time>
      </trkpt>
      <trkpt lat="44.27319" lon="3.01181">
        <ele>1056</ele>
        <time>2013-04-21T09:55:22Z</time>
      </trkpt>
      <trkpt lat="44.2731" lon="3.01185">
        <ele>1056</ele>
        <time>2013-04-21T09:55:28Z</time>
      </trkpt>
      <trkpt lat="44.27301" lon="3.01187">
        <ele>1056</ele>
        <time>2013-04-21T09:55:34Z</time>
      </trkpt>
      <trkpt lat="44.27291" lon="3.01185">
        <ele>1055</ele>
        <time>2013-04-21T09:55:42Z</time>
      </trkpt>
      <trkpt lat="44.27281" lon="3.01189">
        <ele>1055</ele>
        <time>2013-04-21T09:55:50Z</time>
      </trkpt>
      <trkpt lat="44.27272" lon="3.01194">
        <ele>1057</ele>
        <time>2013-04-21T09:55:56Z</time>
      </trkpt>
      <trkpt lat="44.27263" lon="3.01198">
        <ele>1060</ele>
        <time>2013-04-21T09:56:01Z</time>
      </trkpt>
      <trkpt lat="44.27253" lon="3.01197">
        <ele>1060</ele>
        <time>2013-04-21T09:56:06Z</time>
      </trkpt>
      <trkpt lat="44.27243" lon="3.01199">
        <ele>1061</ele>
        <time>2013-04-21T09:56:12Z</time>
      </trkpt>
      <trkpt lat="44.27233" lon="3.01198">
        <ele>1060</ele>
        <time>2013-04-21T09:56:19Z</time>
      </trkpt>
      <trkpt lat="44.27223" lon="3.01199">
        <ele>1057</ele>
        <time>2013-04-21T09:56:26Z</time>
      </trkpt>
      <trkpt lat="44.27214" lon="3.01197">
        <ele>1056</ele>
        <time>2013-04-21T09:56:32Z</time>
      </trkpt>
      <trkpt lat="44.27206" lon="3.01196">
        <ele>1056</ele>
        <time>2013-04-21T09:56:37Z</time>
      </trkpt>
      <trkpt lat="44.272" lon="3.01194">
        <ele>1056</ele>
        <time>2013-04-21T09:56:41Z</time>
      </trkpt>
      <trkpt lat="44.27191" lon="3.01191">
        <ele>1057</ele>
        <time>2013-04-21T09:56:47Z</time>
      </trkpt>
      <trkpt lat="44.27187" lon="3.01188">
        <ele>1058</ele>
        <time>2013-04-21T09:56:50Z</time>
      </trkpt>
      <trkpt lat="44.27181" lon="3.01186">
        <ele>1058</ele>
        <time>2013-04-21T09:56:54Z</time>
      </trkpt>
      <trkpt lat="44.27176" lon="3.01184">
        <ele>1058</ele>
        <time>2013-04-21T09:56:57Z</time>
      </trkpt>
      <trkpt lat="44.27171" lon="3.01183">
        <ele>1058</ele>
        <time>2013-04-21T09:57:01Z</time>
      </trkpt>
      <trkpt lat="44.27167" lon="3.0118">
        <ele>1058</ele>
        <time>2013-04-21T09:57:05Z</time>
      </trkpt>
      <trkpt lat="44.27158" lon="3.01173">
        <ele>1058</ele>
        <time>2013-04-21T09:57:12Z</time>
      </trkpt>
      <trkpt lat="44.27154" lon="3.0117">
        <ele>1058</ele>
        <time>2013-04-21T09:57:15Z</time>
      </trkpt>
      <trkpt lat="44.27149" lon="3.01167">
        <ele>1058</ele>
        <time>2013-04-21T09:57:18Z</time>
      </trkpt>
      <trkpt lat="44.27141" lon="3.01162">
        <ele>1058</ele>
        <time>2013-04-21T09:57:25Z</time>
      </trkpt>
      <trkpt lat="44.27132" lon="3.01159">
        <ele>1057</ele>
        <time>2013-04-21T09:57:32Z</time>
      </trkpt>
      <trkpt lat="44.27122" lon="3.01157">
        <ele>1057</ele>
        <time>2013-04-21T09:57:39Z</time>
      </trkpt>
      <trkpt lat="44.27113" lon="3.01149">
        <ele>1056</ele>
        <time>2013-04-21T09:57:45Z</time>
      </trkpt>
      <trkpt lat="44.27103" lon="3.01144">
        <ele>1056</ele>
        <time>2013-04-21T09:57:51Z</time>
      </trkpt>
      <trkpt lat="44.27094" lon="3.01138">
        <ele>1056</ele>
        <time>2013-04-21T09:57:57Z</time>
      </trkpt>
      <trkpt lat="44.27086" lon="3.01133">
        <ele>1057</ele>
        <time>2013-04-21T09:58:03Z</time>
      </trkpt>
      <trkpt lat="44.27076" lon="3.0113">
        <ele>1059</ele>
        <time>2013-04-21T09:58:10Z</time>
      </trkpt>
      <trkpt lat="44.27067" lon="3.01127">
        <ele>1059</ele>
        <time>2013-04-21T09:58:17Z</time>
      </trkpt>
      <trkpt lat="44.27057" lon="3.01123">
        <ele>1058</ele>
        <time>2013-04-21T09:58:25Z</time>
      </trkpt>
      <trkpt lat="44.27048" lon="3.01122">
        <ele>1057</ele>
        <time>2013-04-21T09:58:32Z</time>
      </trkpt>
      <trkpt lat="44.27039" lon="3.01118">
        <ele>1056</ele>
        <time>2013-04-21T09:58:40Z</time>
      </trkpt>
      <trkpt lat="44.27029" lon="3.01114">
        <ele>1056</ele>
        <time>2013-04-21T09:58:46Z</time>
      </trkpt>
      <trkpt lat="44.2702" lon="3.01112">
        <ele>1057</ele>
        <time>2013-04-21T09:58:53Z</time>
      </trkpt>
      <trkpt lat="44.27009" lon="3.0111">
        <ele>1057</ele>
        <time>2013-04-21T09:58:59Z</time>
      </trkpt>
      <trkpt lat="44.26999" lon="3.01108">
        <ele>1057</ele>
        <time>2013-04-21T09:59:04Z</time>
      </trkpt>
      <trkpt lat="44.26989" lon="3.01106">
        <ele>1056</ele>
        <time>2013-04-21T09:59:10Z</time>
      </trkpt>
      <trkpt lat="44.26979" lon="3.01102">
        <ele>1058</ele>
        <time>2013-04-21T09:59:18Z</time>
      </trkpt>
      <trkpt lat="44.2697" lon="3.01102">
        <ele>1057</ele>
        <time>2013-04-21T09:59:29Z</time>
      </trkpt>
      <trkpt lat="44.26972" lon="3.01117">
        <ele>1059</ele>
        <time>2013-04-21T09:59:41Z</time>
      </trkpt>
      <trkpt lat="44.26976" lon="3.01129">
        <ele>1062</ele>
        <time>2013-04-21T09:59:48Z</time>
      </trkpt>
      <trkpt lat="44.26981" lon="3.01141">
        <ele>1064</ele>
        <time>2013-04-21T09:59:55Z</time>
      </trkpt>
      <trkpt lat="44.26985" lon="3.01152">
        <ele>1065</ele>
        <time>2013-04-21T10:00:05Z</time>
      </trkpt>
      <trkpt lat="44.26981" lon="3.01157">
        <ele>1066</ele>
        <time>2013-04-21T10:00:16Z</time>
      </trkpt>
      <trkpt lat="44.26978" lon="3.01164">
        <ele>1066</ele>
        <time>2013-04-21T10:00:55Z</time>
      </trkpt>
      <trkpt lat="44.26973" lon="3.01169">
        <ele>1071</ele>
        <time>2013-04-21T10:01:21Z</time>
      </trkpt>
      <trkpt lat="44.26975" lon="3.01172">
        <ele>1071</ele>
        <time>2013-04-21T10:02:16Z</time>
      </trkpt>
      <trkpt lat="44.26979" lon="3.01172">
        <ele>1071</ele>
        <time>2013-04-21T10:02:20Z</time>
      </trkpt>
      <trkpt lat="44.26982" lon="3.01166">
        <ele>1071</ele>
        <time>2013-04-21T10:02:28Z</time>
      </trkpt>
      <trkpt lat="44.26987" lon="3.01175">
        <ele>1071</ele>
        <time>2013-04-21T10:02:35Z</time>
      </trkpt>
      <trkpt lat="44.26991" lon="3.01182">
        <ele>1069</ele>
        <time>2013-04-21T10:02:41Z</time>
      </trkpt>
      <trkpt lat="44.26999" lon="3.01189">
        <ele>1069</ele>
        <time>2013-04-21T10:02:50Z</time>
      </trkpt>
      <trkpt lat="44.27007" lon="3.01192">
        <ele>1070</ele>
        <time>2013-04-21T10:03:10Z</time>
      </trkpt>
      <trkpt lat="44.27005" lon="3.0121">
        <ele>1074</ele>
        <time>2013-04-21T10:03:32Z</time>
      </trkpt>
      <trkpt lat="44.27006" lon="3.01206">
        <ele>1074</ele>
        <time>2013-04-21T10:05:01Z</time>
      </trkpt>
      <trkpt lat="44.27009" lon="3.01226">
        <ele>1071</ele>
        <time>2013-04-21T10:05:25Z</time>
      </trkpt>
      <trkpt lat="44.27013" lon="3.01237">
        <ele>1072</ele>
        <time>2013-04-21T10:05:33Z</time>
      </trkpt>
      <trkpt lat="44.27018" lon="3.01249">
        <ele>1072</ele>
        <time>2013-04-21T10:05:40Z</time>
      </trkpt>
      <trkpt lat="44.27024" lon="3.01265">
        <ele>1071</ele>
        <time>2013-04-21T10:05:51Z</time>
      </trkpt>
      <trkpt lat="44.27031" lon="3.01273">
        <ele>1072</ele>
        <time>2013-04-21T10:05:57Z</time>
      </trkpt>
      <trkpt lat="44.27039" lon="3.01284">
        <ele>1074</ele>
        <time>2013-04-21T10:06:04Z</time>
      </trkpt>
      <trkpt lat="44.27046" lon="3.01294">
        <ele>1075</ele>
        <time>2013-04-21T10:06:15Z</time>
      </trkpt>
      <trkpt lat="44.27053" lon="3.01303">
        <ele>1076</ele>
        <time>2013-04-21T10:06:22Z</time>
      </trkpt>
      <trkpt lat="44.2706" lon="3.01314">
        <ele>1075</ele>
        <time>2013-04-21T10:06:30Z</time>
      </trkpt>
      <trkpt lat="44.27065" lon="3.01327">
        <ele>1072</ele>
        <time>2013-04-21T10:06:37Z</time>
      </trkpt>
      <trkpt lat="44.2707" lon="3.0134">
        <ele>1071</ele>
        <time>2013-04-21T10:06:44Z</time>
      </trkpt>
      <trkpt lat="44.27075" lon="3.01353">
        <ele>1070</ele>
        <time>2013-04-21T10:06:51Z</time>
      </trkpt>
      <trkpt lat="44.27082" lon="3.01363">
        <ele>1071</ele>
        <time>2013-04-21T10:06:56Z</time>
      </trkpt>
      <trkpt lat="44.27088" lon="3.01377">
        <ele>1071</ele>
        <time>2013-04-21T10:07:03Z</time>
      </trkpt>
      <trkpt lat="44.27093" lon="3.01388">
        <ele>1074</ele>
        <time>2013-04-21T10:07:11Z</time>
      </trkpt>
      <trkpt lat="44.27098" lon="3.014">
        <ele>1078</ele>
        <time>2013-04-21T10:07:17Z</time>
      </trkpt>
      <trkpt lat="44.27102" lon="3.01413">
        <ele>1080</ele>
        <time>2013-04-21T10:07:21Z</time>
      </trkpt>
      <trkpt lat="44.27103" lon="3.01426">
        <ele>1082</ele>
        <time>2013-04-21T10:07:26Z</time>
      </trkpt>
      <trkpt lat="44.27107" lon="3.01439">
        <ele>1084</ele>
        <time>2013-04-21T10:07:31Z</time>
      </trkpt>
      <trkpt lat="44.27109" lon="3.01452">
        <ele>1086</ele>
        <time>2013-04-21T10:07:36Z</time>
      </trkpt>
      <trkpt lat="44.27107" lon="3.01461">
        <ele>1086</ele>
        <time>2013-04-21T10:07:39Z</time>
      </trkpt>
      <trkpt lat="44.27102" lon="3.01472">
        <ele>1088</ele>
        <time>2013-04-21T10:07:43Z</time>
      </trkpt>
      <trkpt lat="44.27098" lon="3.01476">
        <ele>1092</ele>
        <time>2013-04-21T10:07:54Z</time>
      </trkpt>
      <trkpt lat="44.27095" lon="3.01481">
        <ele>1093</ele>
        <time>2013-04-21T10:08:19Z</time>
      </trkpt>
      <trkpt lat="44.27086" lon="3.01491">
        <ele>1093</ele>
        <time>2013-04-21T10:09:07Z</time>
      </trkpt>
      <trkpt lat="44.27079" lon="3.01499">
        <ele>1093</ele>
        <time>2013-04-21T10:09:12Z</time>
      </trkpt>
      <trkpt lat="44.27072" lon="3.01509">
        <ele>1092</ele>
        <time>2013-04-21T10:09:18Z</time>
      </trkpt>
      <trkpt lat="44.27069" lon="3.01514">
        <ele>1092</ele>
        <time>2013-04-21T10:09:20Z</time>
      </trkpt>
      <trkpt lat="44.27065" lon="3.01521">
        <ele>1091</ele>
        <time>2013-04-21T10:09:23Z</time>
      </trkpt>
      <trkpt lat="44.27062" lon="3.01525">
        <ele>1091</ele>
        <time>2013-04-21T10:09:25Z</time>
      </trkpt>
      <trkpt lat="44.27058" lon="3.0153">
        <ele>1090</ele>
        <time>2013-04-21T10:09:28Z</time>
      </trkpt>
      <trkpt lat="44.27054" lon="3.01535">
        <ele>1090</ele>
        <time>2013-04-21T10:09:30Z</time>
      </trkpt>
      <trkpt lat="44.2705" lon="3.0154">
        <ele>1090</ele>
        <time>2013-04-21T10:09:33Z</time>
      </trkpt>
      <trkpt lat="44.27042" lon="3.0155">
        <ele>1089</ele>
        <time>2013-04-21T10:09:40Z</time>
      </trkpt>
      <trkpt lat="44.27039" lon="3.01554">
        <ele>1089</ele>
        <time>2013-04-21T10:09:43Z</time>
      </trkpt>
      <trkpt lat="44.27031" lon="3.01562">
        <ele>1088</ele>
        <time>2013-04-21T10:09:50Z</time>
      </trkpt>
      <trkpt lat="44.27022" lon="3.01571">
        <ele>1088</ele>
        <time>2013-04-21T10:09:56Z</time>
      </trkpt>
      <trkpt lat="44.27016" lon="3.01583">
        <ele>1087</ele>
        <time>2013-04-21T10:10:01Z</time>
      </trkpt>
      <trkpt lat="44.27014" lon="3.01596">
        <ele>1087</ele>
        <time>2013-04-21T10:10:07Z</time>
      </trkpt>
      <trkpt lat="44.27012" lon="3.01609">
        <ele>1086</ele>
        <time>2013-04-21T10:10:12Z</time>
      </trkpt>
      <trkpt lat="44.27008" lon="3.01622">
        <ele>1086</ele>
        <time>2013-04-21T10:10:16Z</time>
      </trkpt>
      <trkpt lat="44.27005" lon="3.01635">
        <ele>1086</ele>
        <time>2013-04-21T10:10:20Z</time>
      </trkpt>
      <trkpt lat="44.27002" lon="3.01648">
        <ele>1085</ele>
        <time>2013-04-21T10:10:24Z</time>
      </trkpt>
      <trkpt lat="44.27" lon="3.01661">
        <ele>1085</ele>
        <time>2013-04-21T10:10:30Z</time>
      </trkpt>
      <trkpt lat="44.26993" lon="3.01656">
        <ele>1079</ele>
        <time>2013-04-21T10:10:54Z</time>
      </trkpt>
      <trkpt lat="44.26991" lon="3.01653">
        <ele>1078</ele>
        <time>2013-04-21T10:11:10Z</time>
      </trkpt>
      <trkpt lat="44.26988" lon="3.01652">
        <ele>1079</ele>
        <time>2013-04-21T10:11:27Z</time>
      </trkpt>
      <trkpt lat="44.26985" lon="3.01654">
        <ele>1080</ele>
        <time>2013-04-21T10:11:56Z</time>
      </trkpt>
      <trkpt lat="44.2699" lon="3.01659">
        <ele>1080</ele>
        <time>2013-04-21T10:12:02Z</time>
      </trkpt>
      <trkpt lat="44.26996" lon="3.01665">
        <ele>1080</ele>
        <time>2013-04-21T10:12:06Z</time>
      </trkpt>
      <trkpt lat="44.27001" lon="3.01669">
        <ele>1080</ele>
        <time>2013-04-21T10:12:08Z</time>
      </trkpt>
      <trkpt lat="44.27006" lon="3.01672">
        <ele>1080</ele>
        <time>2013-04-21T10:12:11Z</time>
      </trkpt>
      <trkpt lat="44.2701" lon="3.01676">
        <ele>1080</ele>
        <time>2013-04-21T10:12:14Z</time>
      </trkpt>
      <trkpt lat="44.27017" lon="3.0168">
        <ele>1079</ele>
        <time>2013-04-21T10:12:18Z</time>
      </trkpt>
      <trkpt lat="44.27022" lon="3.01682">
        <ele>1079</ele>
        <time>2013-04-21T10:12:21Z</time>
      </trkpt>
      <trkpt lat="44.27027" lon="3.01685">
        <ele>1080</ele>
        <time>2013-04-21T10:12:24Z</time>
      </trkpt>
      <trkpt lat="44.27032" lon="3.01688">
        <ele>1079</ele>
        <time>2013-04-21T10:12:27Z</time>
      </trkpt>
      <trkpt lat="44.27038" lon="3.0169">
        <ele>1078</ele>
        <time>2013-04-21T10:12:30Z</time>
      </trkpt>
      <trkpt lat="44.27043" lon="3.01693">
        <ele>1078</ele>
        <time>2013-04-21T10:12:33Z</time>
      </trkpt>
      <trkpt lat="44.27048" lon="3.01695">
        <ele>1077</ele>
        <time>2013-04-21T10:12:35Z</time>
      </trkpt>
      <trkpt lat="44.27053" lon="3.01698">
        <ele>1076</ele>
        <time>2013-04-21T10:12:38Z</time>
      </trkpt>
      <trkpt lat="44.27058" lon="3.01702">
        <ele>1075</ele>
        <time>2013-04-21T10:12:41Z</time>
      </trkpt>
      <trkpt lat="44.27064" lon="3.01705">
        <ele>1075</ele>
        <time>2013-04-21T10:12:44Z</time>
      </trkpt>
      <trkpt lat="44.27069" lon="3.01708">
        <ele>1074</ele>
        <time>2013-04-21T10:12:47Z</time>
      </trkpt>
      <trkpt lat="44.27074" lon="3.01712">
        <ele>1073</ele>
        <time>2013-04-21T10:12:50Z</time>
      </trkpt>
      <trkpt lat="44.27082" lon="3.01719">
        <ele>1072</ele>
        <time>2013-04-21T10:12:56Z</time>
      </trkpt>
      <trkpt lat="44.27087" lon="3.01721">
        <ele>1072</ele>
        <time>2013-04-21T10:12:59Z</time>
      </trkpt>
      <trkpt lat="44.27093" lon="3.01725">
        <ele>1073</ele>
        <time>2013-04-21T10:13:02Z</time>
      </trkpt>
      <trkpt lat="44.27099" lon="3.01729">
        <ele>1074</ele>
        <time>2013-04-21T10:13:05Z</time>
      </trkpt>
      <trkpt lat="44.27104" lon="3.01733">
        <ele>1075</ele>
        <time>2013-04-21T10:13:08Z</time>
      </trkpt>
      <trkpt lat="44.2711" lon="3.01738">
        <ele>1075</ele>
        <time>2013-04-21T10:13:12Z</time>
      </trkpt>
      <trkpt lat="44.27119" lon="3.01745">
        <ele>1076</ele>
        <time>2013-04-21T10:13:18Z</time>
      </trkpt>
      <trkpt lat="44.27125" lon="3.01748">
        <ele>1076</ele>
        <time>2013-04-21T10:13:23Z</time>
      </trkpt>
      <trkpt lat="44.2713" lon="3.0175">
        <ele>1075</ele>
        <time>2013-04-21T10:13:26Z</time>
      </trkpt>
      <trkpt lat="44.27134" lon="3.01755">
        <ele>1075</ele>
        <time>2013-04-21T10:13:30Z</time>
      </trkpt>
      <trkpt lat="44.27141" lon="3.01759">
        <ele>1075</ele>
        <time>2013-04-21T10:13:35Z</time>
      </trkpt>
      <trkpt lat="44.27145" lon="3.01761">
        <ele>1075</ele>
        <time>2013-04-21T10:13:38Z</time>
      </trkpt>
      <trkpt lat="44.2715" lon="3.01763">
        <ele>1074</ele>
        <time>2013-04-21T10:13:41Z</time>
      </trkpt>
      <trkpt lat="44.27155" lon="3.01765">
        <ele>1074</ele>
        <time>2013-04-21T10:13:44Z</time>
      </trkpt>
      <trkpt lat="44.27164" lon="3.01771">
        <ele>1073</ele>
        <time>2013-04-21T10:13:51Z</time>
      </trkpt>
      <trkpt lat="44.27173" lon="3.01778">
        <ele>1072</ele>
        <time>2013-04-21T10:13:58Z</time>
      </trkpt>
      <trkpt lat="44.27177" lon="3.01781">
        <ele>1071</ele>
        <time>2013-04-21T10:14:02Z</time>
      </trkpt>
      <trkpt lat="44.27181" lon="3.01785">
        <ele>1071</ele>
        <time>2013-04-21T10:14:05Z</time>
      </trkpt>
      <trkpt lat="44.27186" lon="3.01791">
        <ele>1070</ele>
        <time>2013-04-21T10:14:09Z</time>
      </trkpt>
      <trkpt lat="44.27192" lon="3.01794">
        <ele>1071</ele>
        <time>2013-04-21T10:14:12Z</time>
      </trkpt>
      <trkpt lat="44.27196" lon="3.01798">
        <ele>1072</ele>
        <time>2013-04-21T10:14:15Z</time>
      </trkpt>
      <trkpt lat="44.272" lon="3.01802">
        <ele>1073</ele>
        <time>2013-04-21T10:14:19Z</time>
      </trkpt>
      <trkpt lat="44.27204" lon="3.01805">
        <ele>1073</ele>
        <time>2013-04-21T10:14:22Z</time>
      </trkpt>
      <trkpt lat="44.27208" lon="3.01811">
        <ele>1073</ele>
        <time>2013-04-21T10:14:26Z</time>
      </trkpt>
      <trkpt lat="44.27217" lon="3.01817">
        <ele>1072</ele>
        <time>2013-04-21T10:14:34Z</time>
      </trkpt>
      <trkpt lat="44.27222" lon="3.0182">
        <ele>1072</ele>
        <time>2013-04-21T10:14:37Z</time>
      </trkpt>
      <trkpt lat="44.27226" lon="3.01823">
        <ele>1072</ele>
        <time>2013-04-21T10:14:40Z</time>
      </trkpt>
      <trkpt lat="44.27233" lon="3.01827">
        <ele>1072</ele>
        <time>2013-04-21T10:14:45Z</time>
      </trkpt>
      <trkpt lat="44.27238" lon="3.01831">
        <ele>1073</ele>
        <time>2013-04-21T10:14:49Z</time>
      </trkpt>
      <trkpt lat="44.27241" lon="3.01837">
        <ele>1073</ele>
        <time>2013-04-21T10:14:53Z</time>
      </trkpt>
      <trkpt lat="44.27241" lon="3.01844">
        <ele>1073</ele>
        <time>2013-04-21T10:14:56Z</time>
      </trkpt>
      <trkpt lat="44.27244" lon="3.01851">
        <ele>1074</ele>
        <time>2013-04-21T10:14:59Z</time>
      </trkpt>
      <trkpt lat="44.27248" lon="3.01864">
        <ele>1074</ele>
        <time>2013-04-21T10:15:06Z</time>
      </trkpt>
      <trkpt lat="44.2725" lon="3.01869">
        <ele>1075</ele>
        <time>2013-04-21T10:15:09Z</time>
      </trkpt>
      <trkpt lat="44.27257" lon="3.0188">
        <ele>1076</ele>
        <time>2013-04-21T10:15:15Z</time>
      </trkpt>
      <trkpt lat="44.27261" lon="3.01884">
        <ele>1076</ele>
        <time>2013-04-21T10:15:18Z</time>
      </trkpt>
      <trkpt lat="44.27265" lon="3.01889">
        <ele>1076</ele>
        <time>2013-04-21T10:15:23Z</time>
      </trkpt>
      <trkpt lat="44.27269" lon="3.01892">
        <ele>1076</ele>
        <time>2013-04-21T10:15:27Z</time>
      </trkpt>
      <trkpt lat="44.27274" lon="3.01897">
        <ele>1077</ele>
        <time>2013-04-21T10:15:32Z</time>
      </trkpt>
      <trkpt lat="44.27281" lon="3.01905">
        <ele>1076</ele>
        <time>2013-04-21T10:15:38Z</time>
      </trkpt>
      <trkpt lat="44.27288" lon="3.01914">
        <ele>1074</ele>
        <time>2013-04-21T10:15:43Z</time>
      </trkpt>
      <trkpt lat="44.27293" lon="3.01917">
        <ele>1073</ele>
        <time>2013-04-21T10:15:47Z</time>
      </trkpt>
      <trkpt lat="44.27301" lon="3.01925">
        <ele>1072</ele>
        <time>2013-04-21T10:15:52Z</time>
      </trkpt>
      <trkpt lat="44.2731" lon="3.01934">
        <ele>1071</ele>
        <time>2013-04-21T10:15:57Z</time>
      </trkpt>
      <trkpt lat="44.27317" lon="3.01942">
        <ele>1071</ele>
        <time>2013-04-21T10:16:03Z</time>
      </trkpt>
      <trkpt lat="44.27322" lon="3.01948">
        <ele>1070</ele>
        <time>2013-04-21T10:16:06Z</time>
      </trkpt>
      <trkpt lat="44.27328" lon="3.01953">
        <ele>1070</ele>
        <time>2013-04-21T10:16:10Z</time>
      </trkpt>
      <trkpt lat="44.27336" lon="3.01962">
        <ele>1069</ele>
        <time>2013-04-21T10:16:17Z</time>
      </trkpt>
      <trkpt lat="44.27344" lon="3.01967">
        <ele>1069</ele>
        <time>2013-04-21T10:16:21Z</time>
      </trkpt>
      <trkpt lat="44.27352" lon="3.01974">
        <ele>1068</ele>
        <time>2013-04-21T10:16:26Z</time>
      </trkpt>
      <trkpt lat="44.27358" lon="3.01986">
        <ele>1068</ele>
        <time>2013-04-21T10:16:31Z</time>
      </trkpt>
      <trkpt lat="44.27367" lon="3.01994">
        <ele>1068</ele>
        <time>2013-04-21T10:16:37Z</time>
      </trkpt>
      <trkpt lat="44.27376" lon="3.01999">
        <ele>1066</ele>
        <time>2013-04-21T10:16:43Z</time>
      </trkpt>
      <trkpt lat="44.27386" lon="3.0201">
        <ele>1067</ele>
        <time>2013-04-21T10:16:54Z</time>
      </trkpt>
      <trkpt lat="44.27395" lon="3.02018">
        <ele>1064</ele>
        <time>2013-04-21T10:17:01Z</time>
      </trkpt>
      <trkpt lat="44.27403" lon="3.02028">
        <ele>1062</ele>
        <time>2013-04-21T10:17:09Z</time>
      </trkpt>
      <trkpt lat="44.2741" lon="3.02038">
        <ele>1060</ele>
        <time>2013-04-21T10:17:15Z</time>
      </trkpt>
      <trkpt lat="44.27419" lon="3.02047">
        <ele>1058</ele>
        <time>2013-04-21T10:17:21Z</time>
      </trkpt>
      <trkpt lat="44.27427" lon="3.02056">
        <ele>1058</ele>
        <time>2013-04-21T10:17:25Z</time>
      </trkpt>
      <trkpt lat="44.27435" lon="3.02064">
        <ele>1059</ele>
        <time>2013-04-21T10:17:30Z</time>
      </trkpt>
      <trkpt lat="44.27439" lon="3.02068">
        <ele>1059</ele>
        <time>2013-04-21T10:17:32Z</time>
      </trkpt>
      <trkpt lat="44.27443" lon="3.02072">
        <ele>1059</ele>
        <time>2013-04-21T10:17:34Z</time>
      </trkpt>
      <trkpt lat="44.27451" lon="3.02079">
        <ele>1060</ele>
        <time>2013-04-21T10:17:39Z</time>
      </trkpt>
      <trkpt lat="44.27455" lon="3.02084">
        <ele>1061</ele>
        <time>2013-04-21T10:17:42Z</time>
      </trkpt>
      <trkpt lat="44.27459" lon="3.02089">
        <ele>1060</ele>
        <time>2013-04-21T10:17:46Z</time>
      </trkpt>
      <trkpt lat="44.27464" lon="3.02094">
        <ele>1059</ele>
        <time>2013-04-21T10:17:49Z</time>
      </trkpt>
      <trkpt lat="44.2747" lon="3.02099">
        <ele>1059</ele>
        <time>2013-04-21T10:17:52Z</time>
      </trkpt>
      <trkpt lat="44.27476" lon="3.02103">
        <ele>1058</ele>
        <time>2013-04-21T10:17:55Z</time>
      </trkpt>
      <trkpt lat="44.27483" lon="3.0211">
        <ele>1057</ele>
        <time>2013-04-21T10:18:00Z</time>
      </trkpt>
      <trkpt lat="44.27489" lon="3.02116">
        <ele>1057</ele>
        <time>2013-04-21T10:18:04Z</time>
      </trkpt>
      <trkpt lat="44.27494" lon="3.02121">
        <ele>1057</ele>
        <time>2013-04-21T10:18:07Z</time>
      </trkpt>
      <trkpt lat="44.27498" lon="3.02127">
        <ele>1056</ele>
        <time>2013-04-21T10:18:10Z</time>
      </trkpt>
      <trkpt lat="44.27503" lon="3.02131">
        <ele>1056</ele>
        <time>2013-04-21T10:18:13Z</time>
      </trkpt>
      <trkpt lat="44.27505" lon="3.02136">
        <ele>1055</ele>
        <time>2013-04-21T10:18:16Z</time>
      </trkpt>
      <trkpt lat="44.27509" lon="3.02141">
        <ele>1055</ele>
        <time>2013-04-21T10:18:19Z</time>
      </trkpt>
      <trkpt lat="44.27512" lon="3.02145">
        <ele>1054</ele>
        <time>2013-04-21T10:18:22Z</time>
      </trkpt>
      <trkpt lat="44.27515" lon="3.02151">
        <ele>1054</ele>
        <time>2013-04-21T10:18:25Z</time>
      </trkpt>
      <trkpt lat="44.27519" lon="3.02156">
        <ele>1053</ele>
        <time>2013-04-21T10:18:28Z</time>
      </trkpt>
      <trkpt lat="44.27523" lon="3.02161">
        <ele>1053</ele>
        <time>2013-04-21T10:18:31Z</time>
      </trkpt>
      <trkpt lat="44.27526" lon="3.02166">
        <ele>1052</ele>
        <time>2013-04-21T10:18:34Z</time>
      </trkpt>
      <trkpt lat="44.2753" lon="3.02173">
        <ele>1051</ele>
        <time>2013-04-21T10:18:38Z</time>
      </trkpt>
      <trkpt lat="44.27533" lon="3.0218">
        <ele>1050</ele>
        <time>2013-04-21T10:18:42Z</time>
      </trkpt>
      <trkpt lat="44.27536" lon="3.02187">
        <ele>1048</ele>
        <time>2013-04-21T10:18:46Z</time>
      </trkpt>
      <trkpt lat="44.2754" lon="3.02192">
        <ele>1047</ele>
        <time>2013-04-21T10:18:49Z</time>
      </trkpt>
      <trkpt lat="44.27543" lon="3.02197">
        <ele>1046</ele>
        <time>2013-04-21T10:18:53Z</time>
      </trkpt>
      <trkpt lat="44.27546" lon="3.02201">
        <ele>1045</ele>
        <time>2013-04-21T10:18:56Z</time>
      </trkpt>
      <trkpt lat="44.2755" lon="3.02207">
        <ele>1043</ele>
        <time>2013-04-21T10:19:00Z</time>
      </trkpt>
      <trkpt lat="44.27554" lon="3.0221">
        <ele>1041</ele>
        <time>2013-04-21T10:19:06Z</time>
      </trkpt>
      <trkpt lat="44.27556" lon="3.02196">
        <ele>1043</ele>
        <time>2013-04-21T10:19:13Z</time>
      </trkpt>
      <trkpt lat="44.27556" lon="3.02189">
        <ele>1043</ele>
        <time>2013-04-21T10:19:16Z</time>
      </trkpt>
      <trkpt lat="44.27556" lon="3.02182">
        <ele>1043</ele>
        <time>2013-04-21T10:19:19Z</time>
      </trkpt>
      <trkpt lat="44.27557" lon="3.0217">
        <ele>1042</ele>
        <time>2013-04-21T10:19:25Z</time>
      </trkpt>
      <trkpt lat="44.27557" lon="3.02163">
        <ele>1042</ele>
        <time>2013-04-21T10:19:28Z</time>
      </trkpt>
      <trkpt lat="44.27557" lon="3.02156">
        <ele>1042</ele>
        <time>2013-04-21T10:19:31Z</time>
      </trkpt>
      <trkpt lat="44.27555" lon="3.02148">
        <ele>1044</ele>
        <time>2013-04-21T10:19:35Z</time>
      </trkpt>
      <trkpt lat="44.27554" lon="3.0214">
        <ele>1046</ele>
        <time>2013-04-21T10:19:38Z</time>
      </trkpt>
      <trkpt lat="44.27553" lon="3.02132">
        <ele>1047</ele>
        <time>2013-04-21T10:19:41Z</time>
      </trkpt>
      <trkpt lat="44.27548" lon="3.0208">
        <ele>1066</ele>
        <time>2013-04-21T10:20:06Z</time>
      </trkpt>
      <trkpt lat="44.27549" lon="3.02067">
        <ele>1066</ele>
        <time>2013-04-21T10:20:12Z</time>
      </trkpt>
      <trkpt lat="44.2755" lon="3.02052">
        <ele>1063</ele>
        <time>2013-04-21T10:20:17Z</time>
      </trkpt>
      <trkpt lat="44.27549" lon="3.02044">
        <ele>1061</ele>
        <time>2013-04-21T10:20:20Z</time>
      </trkpt>
      <trkpt lat="44.27549" lon="3.02034">
        <ele>1058</ele>
        <time>2013-04-21T10:20:24Z</time>
      </trkpt>
      <trkpt lat="44.27548" lon="3.02026">
        <ele>1056</ele>
        <time>2013-04-21T10:20:27Z</time>
      </trkpt>
      <trkpt lat="44.27548" lon="3.02018">
        <ele>1055</ele>
        <time>2013-04-21T10:20:31Z</time>
      </trkpt>
      <trkpt lat="44.27548" lon="3.02009">
        <ele>1054</ele>
        <time>2013-04-21T10:20:35Z</time>
      </trkpt>
      <trkpt lat="44.27548" lon="3.02003">
        <ele>1053</ele>
        <time>2013-04-21T10:20:38Z</time>
      </trkpt>
      <trkpt lat="44.27547" lon="3.01995">
        <ele>1053</ele>
        <time>2013-04-21T10:20:43Z</time>
      </trkpt>
      <trkpt lat="44.27545" lon="3.01988">
        <ele>1053</ele>
        <time>2013-04-21T10:20:47Z</time>
      </trkpt>
      <trkpt lat="44.27544" lon="3.01981">
        <ele>1053</ele>
        <time>2013-04-21T10:20:50Z</time>
      </trkpt>
      <trkpt lat="44.27542" lon="3.01973">
        <ele>1053</ele>
        <time>2013-04-21T10:20:54Z</time>
      </trkpt>
      <trkpt lat="44.2754" lon="3.01967">
        <ele>1053</ele>
        <time>2013-04-21T10:20:57Z</time>
      </trkpt>
      <trkpt lat="44.27537" lon="3.01962">
        <ele>1054</ele>
        <time>2013-04-21T10:21:00Z</time>
      </trkpt>
      <trkpt lat="44.27531" lon="3.01951">
        <ele>1054</ele>
        <time>2013-04-21T10:21:07Z</time>
      </trkpt>
      <trkpt lat="44.27528" lon="3.0194">
        <ele>1054</ele>
        <time>2013-04-21T10:21:13Z</time>
      </trkpt>
      <trkpt lat="44.27525" lon="3.01933">
        <ele>1053</ele>
        <time>2013-04-21T10:21:16Z</time>
      </trkpt>
      <trkpt lat="44.27522" lon="3.01928">
        <ele>1053</ele>
        <time>2013-04-21T10:21:19Z</time>
      </trkpt>
      <trkpt lat="44.27518" lon="3.01922">
        <ele>1053</ele>
        <time>2013-04-21T10:21:23Z</time>
      </trkpt>
      <trkpt lat="44.27515" lon="3.01916">
        <ele>1053</ele>
        <time>2013-04-21T10:21:26Z</time>
      </trkpt>
      <trkpt lat="44.27511" lon="3.0191">
        <ele>1053</ele>
        <time>2013-04-21T10:21:30Z</time>
      </trkpt>
      <trkpt lat="44.27506" lon="3.01903">
        <ele>1054</ele>
        <time>2013-04-21T10:21:34Z</time>
      </trkpt>
      <trkpt lat="44.27502" lon="3.01897">
        <ele>1053</ele>
        <time>2013-04-21T10:21:38Z</time>
      </trkpt>
      <trkpt lat="44.27497" lon="3.01891">
        <ele>1053</ele>
        <time>2013-04-21T10:21:42Z</time>
      </trkpt>
      <trkpt lat="44.27494" lon="3.01885">
        <ele>1053</ele>
        <time>2013-04-21T10:21:46Z</time>
      </trkpt>
      <trkpt lat="44.27489" lon="3.01874">
        <ele>1053</ele>
        <time>2013-04-21T10:21:51Z</time>
      </trkpt>
      <trkpt lat="44.27484" lon="3.01862">
        <ele>1054</ele>
        <time>2013-04-21T10:21:57Z</time>
      </trkpt>
      <trkpt lat="44.2748" lon="3.01851">
        <ele>1054</ele>
        <time>2013-04-21T10:22:03Z</time>
      </trkpt>
      <trkpt lat="44.27479" lon="3.01837">
        <ele>1054</ele>
        <time>2013-04-21T10:22:10Z</time>
      </trkpt>
      <trkpt lat="44.27479" lon="3.0182">
        <ele>1053</ele>
        <time>2013-04-21T10:22:16Z</time>
      </trkpt>
      <trkpt lat="44.27477" lon="3.01806">
        <ele>1053</ele>
        <time>2013-04-21T10:22:18Z</time>
      </trkpt>
      <trkpt lat="44.27475" lon="3.01788">
        <ele>1052</ele>
        <time>2013-04-21T10:22:21Z</time>
      </trkpt>
      <trkpt lat="44.27472" lon="3.01771">
        <ele>1051</ele>
        <time>2013-04-21T10:22:24Z</time>
      </trkpt>
      <trkpt lat="44.27469" lon="3.01757">
        <ele>1051</ele>
        <time>2013-04-21T10:22:26Z</time>
      </trkpt>
      <trkpt lat="44.27467" lon="3.01743">
        <ele>1049</ele>
        <time>2013-04-21T10:22:28Z</time>
      </trkpt>
      <trkpt lat="44.27464" lon="3.01729">
        <ele>1049</ele>
        <time>2013-04-21T10:22:30Z</time>
      </trkpt>
      <trkpt lat="44.27459" lon="3.01716">
        <ele>1048</ele>
        <time>2013-04-21T10:22:32Z</time>
      </trkpt>
      <trkpt lat="44.27453" lon="3.01702">
        <ele>1048</ele>
        <time>2013-04-21T10:22:34Z</time>
      </trkpt>
      <trkpt lat="44.27447" lon="3.0169">
        <ele>1048</ele>
        <time>2013-04-21T10:22:36Z</time>
      </trkpt>
      <trkpt lat="44.27441" lon="3.01681">
        <ele>1048</ele>
        <time>2013-04-21T10:22:38Z</time>
      </trkpt>
      <trkpt lat="44.27434" lon="3.01671">
        <ele>1048</ele>
        <time>2013-04-21T10:22:40Z</time>
      </trkpt>
      <trkpt lat="44.27427" lon="3.01661">
        <ele>1048</ele>
        <time>2013-04-21T10:22:42Z</time>
      </trkpt>
      <trkpt lat="44.27421" lon="3.01649">
        <ele>1048</ele>
        <time>2013-04-21T10:22:44Z</time>
      </trkpt>
      <trkpt lat="44.27416" lon="3.01637">
        <ele>1048</ele>
        <time>2013-04-21T10:22:46Z</time>
      </trkpt>
      <trkpt lat="44.27412" lon="3.01624">
        <ele>1048</ele>
        <time>2013-04-21T10:22:48Z</time>
      </trkpt>
      <trkpt lat="44.27411" lon="3.0161">
        <ele>1048</ele>
        <time>2013-04-21T10:22:50Z</time>
      </trkpt>
      <trkpt lat="44.2741" lon="3.01596">
        <ele>1048</ele>
        <time>2013-04-21T10:22:52Z</time>
      </trkpt>
      <trkpt lat="44.2741" lon="3.01581">
        <ele>1048</ele>
        <time>2013-04-21T10:22:54Z</time>
      </trkpt>
      <trkpt lat="44.27412" lon="3.01566">
        <ele>1049</ele>
        <time>2013-04-21T10:22:56Z</time>
      </trkpt>
      <trkpt lat="44.27413" lon="3.01549">
        <ele>1050</ele>
        <time>2013-04-21T10:22:58Z</time>
      </trkpt>
      <trkpt lat="44.27415" lon="3.01533">
        <ele>1050</ele>
        <time>2013-04-21T10:23:00Z</time>
      </trkpt>
      <trkpt lat="44.27417" lon="3.01518">
        <ele>1050</ele>
        <time>2013-04-21T10:23:02Z</time>
      </trkpt>
      <trkpt lat="44.27417" lon="3.01501">
        <ele>1049</ele>
        <time>2013-04-21T10:23:05Z</time>
      </trkpt>
      <trkpt lat="44.27417" lon="3.01486">
        <ele>1048</ele>
        <time>2013-04-21T10:23:08Z</time>
      </trkpt>
      <trkpt lat="44.27415" lon="3.01474">
        <ele>1049</ele>
        <time>2013-04-21T10:23:17Z</time>
      </trkpt>
      <trkpt lat="44.27413" lon="3.01461">
        <ele>1050</ele>
        <time>2013-04-21T10:23:22Z</time>
      </trkpt>
      <trkpt lat="44.27408" lon="3.01448">
        <ele>1050</ele>
        <time>2013-04-21T10:23:27Z</time>
      </trkpt>
      <trkpt lat="44.27404" lon="3.01435">
        <ele>1051</ele>
        <time>2013-04-21T10:23:31Z</time>
      </trkpt>
      <trkpt lat="44.27399" lon="3.01422">
        <ele>1054</ele>
        <time>2013-04-21T10:23:36Z</time>
      </trkpt>
      <trkpt lat="44.27396" lon="3.01416">
        <ele>1056</ele>
        <time>2013-04-21T10:23:39Z</time>
      </trkpt>
      <trkpt lat="44.27392" lon="3.0141">
        <ele>1057</ele>
        <time>2013-04-21T10:23:42Z</time>
      </trkpt>
      <trkpt lat="44.27388" lon="3.01405">
        <ele>1058</ele>
        <time>2013-04-21T10:23:45Z</time>
      </trkpt>
      <trkpt lat="44.27382" lon="3.01394">
        <ele>1059</ele>
        <time>2013-04-21T10:23:52Z</time>
      </trkpt>
      <trkpt lat="44.27375" lon="3.01385">
        <ele>1061</ele>
        <time>2013-04-21T10:23:57Z</time>
      </trkpt>
      <trkpt lat="44.27369" lon="3.01375">
        <ele>1061</ele>
        <time>2013-04-21T10:24:03Z</time>
      </trkpt>
      <trkpt lat="44.27371" lon="3.01361">
        <ele>1059</ele>
        <time>2013-04-21T10:24:10Z</time>
      </trkpt>
      <trkpt lat="44.27376" lon="3.01348">
        <ele>1059</ele>
        <time>2013-04-21T10:24:15Z</time>
      </trkpt>
      <trkpt lat="44.27383" lon="3.01336">
        <ele>1059</ele>
        <time>2013-04-21T10:24:21Z</time>
      </trkpt>
      <trkpt lat="44.27389" lon="3.01324">
        <ele>1058</ele>
        <time>2013-04-21T10:24:27Z</time>
      </trkpt>
      <trkpt lat="44.27393" lon="3.01312">
        <ele>1056</ele>
        <time>2013-04-21T10:24:32Z</time>
      </trkpt>
      <trkpt lat="44.27397" lon="3.013">
        <ele>1056</ele>
        <time>2013-04-21T10:24:37Z</time>
      </trkpt>
      <trkpt lat="44.27401" lon="3.01286">
        <ele>1056</ele>
        <time>2013-04-21T10:24:43Z</time>
      </trkpt>
      <trkpt lat="44.27403" lon="3.01278">
        <ele>1056</ele>
        <time>2013-04-21T10:24:57Z</time>
      </trkpt>
      <trkpt lat="44.27403" lon="3.0126">
        <ele>1061</ele>
        <time>2013-04-21T10:25:29Z</time>
      </trkpt>
      <trkpt lat="44.27404" lon="3.01245">
        <ele>1062</ele>
        <time>2013-04-21T10:25:35Z</time>
      </trkpt>
      <trkpt lat="44.27402" lon="3.01232">
        <ele>1062</ele>
        <time>2013-04-21T10:25:40Z</time>
      </trkpt>
      <trkpt lat="44.27402" lon="3.01224">
        <ele>1062</ele>
        <time>2013-04-21T10:25:44Z</time>
      </trkpt>
      <trkpt lat="44.27403" lon="3.0121">
        <ele>1062</ele>
        <time>2013-04-21T10:25:50Z</time>
      </trkpt>
      <trkpt lat="44.27405" lon="3.01197">
        <ele>1061</ele>
        <time>2013-04-21T10:25:55Z</time>
      </trkpt>
      <trkpt lat="44.27408" lon="3.01184">
        <ele>1059</ele>
        <time>2013-04-21T10:26:01Z</time>
      </trkpt>
      <trkpt lat="44.27413" lon="3.01163">
        <ele>1057</ele>
        <time>2013-04-21T10:26:11Z</time>
      </trkpt>
      <trkpt lat="44.27415" lon="3.01151">
        <ele>1055</ele>
        <time>2013-04-21T10:26:17Z</time>
      </trkpt>
      <trkpt lat="44.27416" lon="3.01144">
        <ele>1054</ele>
        <time>2013-04-21T10:26:20Z</time>
      </trkpt>
      <trkpt lat="44.27425" lon="3.01128">
        <ele>1054</ele>
        <time>2013-04-21T10:26:29Z</time>
      </trkpt>
      <trkpt lat="44.27431" lon="3.01118">
        <ele>1054</ele>
        <time>2013-04-21T10:26:35Z</time>
      </trkpt>
      <trkpt lat="44.27437" lon="3.01108">
        <ele>1054</ele>
        <time>2013-04-21T10:26:41Z</time>
      </trkpt>
      <trkpt lat="44.27442" lon="3.01096">
        <ele>1053</ele>
        <time>2013-04-21T10:26:46Z</time>
      </trkpt>
      <trkpt lat="44.27446" lon="3.01084">
        <ele>1051</ele>
        <time>2013-04-21T10:26:52Z</time>
      </trkpt>
      <trkpt lat="44.27452" lon="3.0107">
        <ele>1050</ele>
        <time>2013-04-21T10:26:58Z</time>
      </trkpt>
      <trkpt lat="44.27457" lon="3.01057">
        <ele>1047</ele>
        <time>2013-04-21T10:27:04Z</time>
      </trkpt>
      <trkpt lat="44.27463" lon="3.0104">
        <ele>1045</ele>
        <time>2013-04-21T10:27:12Z</time>
      </trkpt>
      <trkpt lat="44.27469" lon="3.01023">
        <ele>1043</ele>
        <time>2013-04-21T10:27:19Z</time>
      </trkpt>
      <trkpt lat="44.27474" lon="3.0101">
        <ele>1043</ele>
        <time>2013-04-21T10:27:25Z</time>
      </trkpt>
      <trkpt lat="44.2748" lon="3.01001">
        <ele>1043</ele>
        <time>2013-04-21T10:27:31Z</time>
      </trkpt>
      <trkpt lat="44.27488" lon="3.0099">
        <ele>1041</ele>
        <time>2013-04-21T10:27:39Z</time>
      </trkpt>
      <trkpt lat="44.27494" lon="3.0098">
        <ele>1038</ele>
        <time>2013-04-21T10:27:49Z</time>
      </trkpt>
      <trkpt lat="44.27501" lon="3.00958">
        <ele>1054</ele>
        <time>2013-04-21T10:28:42Z</time>
      </trkpt>
      <trkpt lat="44.27507" lon="3.00949">
        <ele>1055</ele>
        <time>2013-04-21T10:28:50Z</time>
      </trkpt>
      <trkpt lat="44.27515" lon="3.00944">
        <ele>1056</ele>
        <time>2013-04-21T10:28:58Z</time>
      </trkpt>
      <trkpt lat="44.2752" lon="3.00939">
        <ele>1055</ele>
        <time>2013-04-21T10:29:01Z</time>
      </trkpt>
      <trkpt lat="44.27529" lon="3.00931">
        <ele>1053</ele>
        <time>2013-04-21T10:29:07Z</time>
      </trkpt>
      <trkpt lat="44.27538" lon="3.00925">
        <ele>1051</ele>
        <time>2013-04-21T10:29:14Z</time>
      </trkpt>
      <trkpt lat="44.27547" lon="3.00916">
        <ele>1048</ele>
        <time>2013-04-21T10:29:22Z</time>
      </trkpt>
      <trkpt lat="44.27556" lon="3.00908">
        <ele>1046</ele>
        <time>2013-04-21T10:29:30Z</time>
      </trkpt>
      <trkpt lat="44.27564" lon="3.00898">
        <ele>1046</ele>
        <time>2013-04-21T10:29:36Z</time>
      </trkpt>
      <trkpt lat="44.27571" lon="3.00886">
        <ele>1049</ele>
        <time>2013-04-21T10:29:44Z</time>
      </trkpt>
      <trkpt lat="44.27582" lon="3.00878">
        <ele>1051</ele>
        <time>2013-04-21T10:29:52Z</time>
      </trkpt>
      <trkpt lat="44.27589" lon="3.00872">
        <ele>1052</ele>
        <time>2013-04-21T10:29:56Z</time>
      </trkpt>
      <trkpt lat="44.27599" lon="3.00864">
        <ele>1053</ele>
        <time>2013-04-21T10:30:03Z</time>
      </trkpt>
      <trkpt lat="44.27607" lon="3.00856">
        <ele>1052</ele>
        <time>2013-04-21T10:30:10Z</time>
      </trkpt>
      <trkpt lat="44.27616" lon="3.00849">
        <ele>1053</ele>
        <time>2013-04-21T10:30:17Z</time>
      </trkpt>
      <trkpt lat="44.27623" lon="3.0084">
        <ele>1056</ele>
        <time>2013-04-21T10:30:24Z</time>
      </trkpt>
      <trkpt lat="44.2763" lon="3.00831">
        <ele>1058</ele>
        <time>2013-04-21T10:30:29Z</time>
      </trkpt>
      <trkpt lat="44.27637" lon="3.00822">
        <ele>1059</ele>
        <time>2013-04-21T10:30:36Z</time>
      </trkpt>
      <trkpt lat="44.27644" lon="3.00811">
        <ele>1060</ele>
        <time>2013-04-21T10:30:44Z</time>
      </trkpt>
      <trkpt lat="44.27651" lon="3.00799">
        <ele>1060</ele>
        <time>2013-04-21T10:30:52Z</time>
      </trkpt>
      <trkpt lat="44.27658" lon="3.00789">
        <ele>1059</ele>
        <time>2013-04-21T10:30:58Z</time>
      </trkpt>
      <trkpt lat="44.27668" lon="3.00784">
        <ele>1061</ele>
        <time>2013-04-21T10:31:04Z</time>
      </trkpt>
      <trkpt lat="44.27677" lon="3.00775">
        <ele>1064</ele>
        <time>2013-04-21T10:31:15Z</time>
      </trkpt>
      <trkpt lat="44.27679" lon="3.00762">
        <ele>1062</ele>
        <time>2013-04-21T10:31:22Z</time>
      </trkpt>
      <trkpt lat="44.27679" lon="3.0076">
        <ele>1053</ele>
        <time>2013-04-21T10:34:10Z</time>
      </trkpt>
      <trkpt lat="44.27685" lon="3.00774">
        <ele>1052</ele>
        <time>2013-04-21T10:34:27Z</time>
      </trkpt>
      <trkpt lat="44.27694" lon="3.00779">
        <ele>1053</ele>
        <time>2013-04-21T10:34:32Z</time>
      </trkpt>
      <trkpt lat="44.27703" lon="3.00779">
        <ele>1057</ele>
        <time>2013-04-21T10:34:41Z</time>
      </trkpt>
      <trkpt lat="44.27712" lon="3.00782">
        <ele>1056</ele>
        <time>2013-04-21T10:34:56Z</time>
      </trkpt>
      <trkpt lat="44.27721" lon="3.00786">
        <ele>1056</ele>
        <time>2013-04-21T10:35:06Z</time>
      </trkpt>
      <trkpt lat="44.27732" lon="3.00788">
        <ele>1056</ele>
        <time>2013-04-21T10:35:12Z</time>
      </trkpt>
      <trkpt lat="44.27741" lon="3.00792">
        <ele>1055</ele>
        <time>2013-04-21T10:35:16Z</time>
      </trkpt>
      <trkpt lat="44.2775" lon="3.00795">
        <ele>1056</ele>
        <time>2013-04-21T10:35:21Z</time>
      </trkpt>
      <trkpt lat="44.2776" lon="3.00797">
        <ele>1056</ele>
        <time>2013-04-21T10:35:27Z</time>
      </trkpt>
      <trkpt lat="44.27766" lon="3.00802">
        <ele>1057</ele>
        <time>2013-04-21T10:35:31Z</time>
      </trkpt>
      <trkpt lat="44.27774" lon="3.00809">
        <ele>1056</ele>
        <time>2013-04-21T10:35:38Z</time>
      </trkpt>
      <trkpt lat="44.27783" lon="3.00817">
        <ele>1055</ele>
        <time>2013-04-21T10:35:46Z</time>
      </trkpt>
      <trkpt lat="44.27792" lon="3.00823">
        <ele>1054</ele>
        <time>2013-04-21T10:35:52Z</time>
      </trkpt>
      <trkpt lat="44.27801" lon="3.0083">
        <ele>1051</ele>
        <time>2013-04-21T10:35:57Z</time>
      </trkpt>
      <trkpt lat="44.27809" lon="3.00837">
        <ele>1050</ele>
        <time>2013-04-21T10:36:03Z</time>
      </trkpt>
      <trkpt lat="44.27817" lon="3.00847">
        <ele>1050</ele>
        <time>2013-04-21T10:36:09Z</time>
      </trkpt>
      <trkpt lat="44.27824" lon="3.00858">
        <ele>1051</ele>
        <time>2013-04-21T10:36:15Z</time>
      </trkpt>
      <trkpt lat="44.27827" lon="3.0087">
        <ele>1052</ele>
        <time>2013-04-21T10:36:21Z</time>
      </trkpt>
      <trkpt lat="44.27836" lon="3.0088">
        <ele>1054</ele>
        <time>2013-04-21T10:36:28Z</time>
      </trkpt>
      <trkpt lat="44.2784" lon="3.00882">
        <ele>1054</ele>
        <time>2013-04-21T10:36:31Z</time>
      </trkpt>
      <trkpt lat="44.27846" lon="3.00887">
        <ele>1054</ele>
        <time>2013-04-21T10:36:34Z</time>
      </trkpt>
      <trkpt lat="44.27851" lon="3.00892">
        <ele>1056</ele>
        <time>2013-04-21T10:36:38Z</time>
      </trkpt>
      <trkpt lat="44.27857" lon="3.00894">
        <ele>1055</ele>
        <time>2013-04-21T10:36:41Z</time>
      </trkpt>
      <trkpt lat="44.27861" lon="3.00897">
        <ele>1055</ele>
        <time>2013-04-21T10:36:44Z</time>
      </trkpt>
      <trkpt lat="44.27866" lon="3.00899">
        <ele>1055</ele>
        <time>2013-04-21T10:36:47Z</time>
      </trkpt>
      <trkpt lat="44.27875" lon="3.00907">
        <ele>1057</ele>
        <time>2013-04-21T10:36:55Z</time>
      </trkpt>
      <trkpt lat="44.27884" lon="3.00912">
        <ele>1058</ele>
        <time>2013-04-21T10:37:01Z</time>
      </trkpt>
      <trkpt lat="44.2789" lon="3.00915">
        <ele>1058</ele>
        <time>2013-04-21T10:37:05Z</time>
      </trkpt>
      <trkpt lat="44.27901" lon="3.00913">
        <ele>1058</ele>
        <time>2013-04-21T10:37:12Z</time>
      </trkpt>
      <trkpt lat="44.2791" lon="3.00909">
        <ele>1057</ele>
        <time>2013-04-21T10:37:18Z</time>
      </trkpt>
      <trkpt lat="44.27919" lon="3.00905">
        <ele>1056</ele>
        <time>2013-04-21T10:37:23Z</time>
      </trkpt>
      <trkpt lat="44.27928" lon="3.00903">
        <ele>1055</ele>
        <time>2013-04-21T10:37:28Z</time>
      </trkpt>
      <trkpt lat="44.27937" lon="3.00896">
        <ele>1055</ele>
        <time>2013-04-21T10:37:33Z</time>
      </trkpt>
      <trkpt lat="44.27945" lon="3.00888">
        <ele>1054</ele>
        <time>2013-04-21T10:37:38Z</time>
      </trkpt>
      <trkpt lat="44.27953" lon="3.0088">
        <ele>1055</ele>
        <time>2013-04-21T10:37:43Z</time>
      </trkpt>
      <trkpt lat="44.27962" lon="3.00873">
        <ele>1054</ele>
        <time>2013-04-21T10:37:49Z</time>
      </trkpt>
      <trkpt lat="44.27971" lon="3.00865">
        <ele>1053</ele>
        <time>2013-04-21T10:37:55Z</time>
      </trkpt>
      <trkpt lat="44.27979" lon="3.00859">
        <ele>1051</ele>
        <time>2013-04-21T10:38:01Z</time>
      </trkpt>
      <trkpt lat="44.27986" lon="3.00853">
        <ele>1049</ele>
        <time>2013-04-21T10:38:07Z</time>
      </trkpt>
      <trkpt lat="44.2799" lon="3.0085">
        <ele>1048</ele>
        <time>2013-04-21T10:38:10Z</time>
      </trkpt>
      <trkpt lat="44.27995" lon="3.00846">
        <ele>1048</ele>
        <time>2013-04-21T10:38:13Z</time>
      </trkpt>
      <trkpt lat="44.28" lon="3.00841">
        <ele>1048</ele>
        <time>2013-04-21T10:38:16Z</time>
      </trkpt>
      <trkpt lat="44.28004" lon="3.00839">
        <ele>1048</ele>
        <time>2013-04-21T10:38:19Z</time>
      </trkpt>
      <trkpt lat="44.28012" lon="3.00836">
        <ele>1047</ele>
        <time>2013-04-21T10:38:25Z</time>
      </trkpt>
      <trkpt lat="44.28019" lon="3.00834">
        <ele>1048</ele>
        <time>2013-04-21T10:38:31Z</time>
      </trkpt>
      <trkpt lat="44.28029" lon="3.00834">
        <ele>1049</ele>
        <time>2013-04-21T10:38:39Z</time>
      </trkpt>
      <trkpt lat="44.28034" lon="3.00835">
        <ele>1049</ele>
        <time>2013-04-21T10:38:43Z</time>
      </trkpt>
      <trkpt lat="44.28043" lon="3.0084">
        <ele>1050</ele>
        <time>2013-04-21T10:38:49Z</time>
      </trkpt>
      <trkpt lat="44.28054" lon="3.00843">
        <ele>1050</ele>
        <time>2013-04-21T10:38:55Z</time>
      </trkpt>
      <trkpt lat="44.28063" lon="3.00846">
        <ele>1050</ele>
        <time>2013-04-21T10:39:00Z</time>
      </trkpt>
      <trkpt lat="44.28073" lon="3.00849">
        <ele>1050</ele>
        <time>2013-04-21T10:39:05Z</time>
      </trkpt>
      <trkpt lat="44.2808" lon="3.00856">
        <ele>1051</ele>
        <time>2013-04-21T10:39:12Z</time>
      </trkpt>
      <trkpt lat="44.28088" lon="3.00864">
        <ele>1052</ele>
        <time>2013-04-21T10:39:19Z</time>
      </trkpt>
      <trkpt lat="44.28097" lon="3.00873">
        <ele>1052</ele>
        <time>2013-04-21T10:39:26Z</time>
      </trkpt>
      <trkpt lat="44.28105" lon="3.00879">
        <ele>1051</ele>
        <time>2013-04-21T10:39:30Z</time>
      </trkpt>
      <trkpt lat="44.28114" lon="3.00887">
        <ele>1051</ele>
        <time>2013-04-21T10:39:35Z</time>
      </trkpt>
      <trkpt lat="44.28122" lon="3.00895">
        <ele>1050</ele>
        <time>2013-04-21T10:39:40Z</time>
      </trkpt>
      <trkpt lat="44.28127" lon="3.00899">
        <ele>1050</ele>
        <time>2013-04-21T10:39:43Z</time>
      </trkpt>
      <trkpt lat="44.28131" lon="3.00904">
        <ele>1050</ele>
        <time>2013-04-21T10:39:46Z</time>
      </trkpt>
      <trkpt lat="44.28137" lon="3.00915">
        <ele>1051</ele>
        <time>2013-04-21T10:39:51Z</time>
      </trkpt>
      <trkpt lat="44.28142" lon="3.00922">
        <ele>1050</ele>
        <time>2013-04-21T10:39:55Z</time>
      </trkpt>
      <trkpt lat="44.28146" lon="3.00926">
        <ele>1050</ele>
        <time>2013-04-21T10:39:58Z</time>
      </trkpt>
      <trkpt lat="44.28154" lon="3.00935">
        <ele>1049</ele>
        <time>2013-04-21T10:40:04Z</time>
      </trkpt>
      <trkpt lat="44.28161" lon="3.00946">
        <ele>1046</ele>
        <time>2013-04-21T10:40:11Z</time>
      </trkpt>
      <trkpt lat="44.28168" lon="3.00954">
        <ele>1045</ele>
        <time>2013-04-21T10:40:15Z</time>
      </trkpt>
      <trkpt lat="44.28174" lon="3.00958">
        <ele>1045</ele>
        <time>2013-04-21T10:40:18Z</time>
      </trkpt>
      <trkpt lat="44.28179" lon="3.00961">
        <ele>1045</ele>
        <time>2013-04-21T10:40:21Z</time>
      </trkpt>
      <trkpt lat="44.28184" lon="3.00964">
        <ele>1046</ele>
        <time>2013-04-21T10:40:24Z</time>
      </trkpt>
      <trkpt lat="44.28189" lon="3.00967">
        <ele>1046</ele>
        <time>2013-04-21T10:40:27Z</time>
      </trkpt>
      <trkpt lat="44.28194" lon="3.00969">
        <ele>1046</ele>
        <time>2013-04-21T10:40:30Z</time>
      </trkpt>
      <trkpt lat="44.28204" lon="3.00972">
        <ele>1045</ele>
        <time>2013-04-21T10:40:36Z</time>
      </trkpt>
      <trkpt lat="44.28214" lon="3.00973">
        <ele>1045</ele>
        <time>2013-04-21T10:40:43Z</time>
      </trkpt>
      <trkpt lat="44.28223" lon="3.00975">
        <ele>1044</ele>
        <time>2013-04-21T10:40:48Z</time>
      </trkpt>
      <trkpt lat="44.28229" lon="3.00977">
        <ele>1044</ele>
        <time>2013-04-21T10:40:51Z</time>
      </trkpt>
      <trkpt lat="44.28235" lon="3.00978">
        <ele>1043</ele>
        <time>2013-04-21T10:40:54Z</time>
      </trkpt>
      <trkpt lat="44.28241" lon="3.0098">
        <ele>1043</ele>
        <time>2013-04-21T10:40:57Z</time>
      </trkpt>
      <trkpt lat="44.28246" lon="3.00983">
        <ele>1042</ele>
        <time>2013-04-21T10:41:00Z</time>
      </trkpt>
      <trkpt lat="44.28251" lon="3.00986">
        <ele>1041</ele>
        <time>2013-04-21T10:41:03Z</time>
      </trkpt>
      <trkpt lat="44.28255" lon="3.00991">
        <ele>1041</ele>
        <time>2013-04-21T10:41:06Z</time>
      </trkpt>
      <trkpt lat="44.28262" lon="3.00995">
        <ele>1040</ele>
        <time>2013-04-21T10:41:10Z</time>
      </trkpt>
      <trkpt lat="44.28267" lon="3.00998">
        <ele>1039</ele>
        <time>2013-04-21T10:41:13Z</time>
      </trkpt>
      <trkpt lat="44.28276" lon="3.01004">
        <ele>1037</ele>
        <time>2013-04-21T10:41:20Z</time>
      </trkpt>
      <trkpt lat="44.28284" lon="3.01008">
        <ele>1036</ele>
        <time>2013-04-21T10:41:25Z</time>
      </trkpt>
      <trkpt lat="44.28289" lon="3.01012">
        <ele>1035</ele>
        <time>2013-04-21T10:41:28Z</time>
      </trkpt>
      <trkpt lat="44.28296" lon="3.01015">
        <ele>1034</ele>
        <time>2013-04-21T10:41:32Z</time>
      </trkpt>
      <trkpt lat="44.28302" lon="3.01016">
        <ele>1033</ele>
        <time>2013-04-21T10:41:35Z</time>
      </trkpt>
      <trkpt lat="44.28307" lon="3.01019">
        <ele>1033</ele>
        <time>2013-04-21T10:41:38Z</time>
      </trkpt>
      <trkpt lat="44.28312" lon="3.01022">
        <ele>1033</ele>
        <time>2013-04-21T10:41:41Z</time>
      </trkpt>
      <trkpt lat="44.28317" lon="3.01024">
        <ele>1033</ele>
        <time>2013-04-21T10:41:44Z</time>
      </trkpt>
      <trkpt lat="44.28327" lon="3.01027">
        <ele>1033</ele>
        <time>2013-04-21T10:41:50Z</time>
      </trkpt>
      <trkpt lat="44.2834" lon="3.01033">
        <ele>1028</ele>
        <time>2013-04-21T10:42:12Z</time>
      </trkpt>
      <trkpt lat="44.2835" lon="3.01034">
        <ele>1026</ele>
        <time>2013-04-21T10:42:17Z</time>
      </trkpt>
      <trkpt lat="44.28361" lon="3.01034">
        <ele>1027</ele>
        <time>2013-04-21T10:42:23Z</time>
      </trkpt>
      <trkpt lat="44.28372" lon="3.01032">
        <ele>1029</ele>
        <time>2013-04-21T10:42:30Z</time>
      </trkpt>
      <trkpt lat="44.28383" lon="3.01026">
        <ele>1032</ele>
        <time>2013-04-21T10:42:39Z</time>
      </trkpt>
      <trkpt lat="44.28395" lon="3.01027">
        <ele>1036</ele>
        <time>2013-04-21T10:42:49Z</time>
      </trkpt>
      <trkpt lat="44.28405" lon="3.01027">
        <ele>1035</ele>
        <time>2013-04-21T10:42:54Z</time>
      </trkpt>
      <trkpt lat="44.28417" lon="3.01028">
        <ele>1033</ele>
        <time>2013-04-21T10:43:05Z</time>
      </trkpt>
      <trkpt lat="44.28426" lon="3.01026">
        <ele>1033</ele>
        <time>2013-04-21T10:43:08Z</time>
      </trkpt>
      <trkpt lat="44.2844" lon="3.01022">
        <ele>1032</ele>
        <time>2013-04-21T10:43:15Z</time>
      </trkpt>
      <trkpt lat="44.28451" lon="3.01018">
        <ele>1031</ele>
        <time>2013-04-21T10:43:22Z</time>
      </trkpt>
      <trkpt lat="44.28461" lon="3.01013">
        <ele>1030</ele>
        <time>2013-04-21T10:43:26Z</time>
      </trkpt>
      <trkpt lat="44.2847" lon="3.01004">
        <ele>1029</ele>
        <time>2013-04-21T10:43:30Z</time>
      </trkpt>
      <trkpt lat="44.28478" lon="3.00997">
        <ele>1029</ele>
        <time>2013-04-21T10:43:34Z</time>
      </trkpt>
      <trkpt lat="44.28489" lon="3.00994">
        <ele>1026</ele>
        <time>2013-04-21T10:43:42Z</time>
      </trkpt>
      <trkpt lat="44.28498" lon="3.00995">
        <ele>1024</ele>
        <time>2013-04-21T10:43:47Z</time>
      </trkpt>
      <trkpt lat="44.28507" lon="3.00996">
        <ele>1021</ele>
        <time>2013-04-21T10:43:53Z</time>
      </trkpt>
      <trkpt lat="44.28517" lon="3.00998">
        <ele>1019</ele>
        <time>2013-04-21T10:43:58Z</time>
      </trkpt>
      <trkpt lat="44.28527" lon="3.00998">
        <ele>1016</ele>
        <time>2013-04-21T10:44:03Z</time>
      </trkpt>
      <trkpt lat="44.28537" lon="3.00998">
        <ele>1015</ele>
        <time>2013-04-21T10:44:08Z</time>
      </trkpt>
      <trkpt lat="44.28546" lon="3.01">
        <ele>1014</ele>
        <time>2013-04-21T10:44:17Z</time>
      </trkpt>
      <trkpt lat="44.28556" lon="3.01003">
        <ele>1012</ele>
        <time>2013-04-21T10:44:24Z</time>
      </trkpt>
      <trkpt lat="44.28565" lon="3.01005">
        <ele>1011</ele>
        <time>2013-04-21T10:44:29Z</time>
      </trkpt>
      <trkpt lat="44.28578" lon="3.01007">
        <ele>1008</ele>
        <time>2013-04-21T10:44:35Z</time>
      </trkpt>
      <trkpt lat="44.28587" lon="3.01007">
        <ele>1006</ele>
        <time>2013-04-21T10:44:40Z</time>
      </trkpt>
      <trkpt lat="44.28596" lon="3.01014">
        <ele>1006</ele>
        <time>2013-04-21T10:44:46Z</time>
      </trkpt>
      <trkpt lat="44.28608" lon="3.01014">
        <ele>1006</ele>
        <time>2013-04-21T10:44:59Z</time>
      </trkpt>
      <trkpt lat="44.28612" lon="3.01017">
        <ele>1007</ele>
        <time>2013-04-21T10:45:18Z</time>
      </trkpt>
      <trkpt lat="44.2862" lon="3.01024">
        <ele>1006</ele>
        <time>2013-04-21T10:45:27Z</time>
      </trkpt>
      <trkpt lat="44.2863" lon="3.01026">
        <ele>1001</ele>
        <time>2013-04-21T10:45:37Z</time>
      </trkpt>
      <trkpt lat="44.2864" lon="3.01026">
        <ele>1000</ele>
        <time>2013-04-21T10:45:45Z</time>
      </trkpt>
      <trkpt lat="44.28649" lon="3.01032">
        <ele>999</ele>
        <time>2013-04-21T10:45:56Z</time>
      </trkpt>
      <trkpt lat="44.2866" lon="3.01044">
        <ele>1000</ele>
        <time>2013-04-21T10:46:08Z</time>
      </trkpt>
      <trkpt lat="44.28668" lon="3.01049">
        <ele>999</ele>
        <time>2013-04-21T10:46:15Z</time>
      </trkpt>
      <trkpt lat="44.28675" lon="3.0105">
        <ele>997</ele>
        <time>2013-04-21T10:46:25Z</time>
      </trkpt>
      <trkpt lat="44.28684" lon="3.01052">
        <ele>996</ele>
        <time>2013-04-21T10:46:33Z</time>
      </trkpt>
      <trkpt lat="44.28693" lon="3.01058">
        <ele>997</ele>
        <time>2013-04-21T10:46:39Z</time>
      </trkpt>
      <trkpt lat="44.28702" lon="3.01062">
        <ele>997</ele>
        <time>2013-04-21T10:46:47Z</time>
      </trkpt>
      <trkpt lat="44.28712" lon="3.01066">
        <ele>996</ele>
        <time>2013-04-21T10:46:53Z</time>
      </trkpt>
      <trkpt lat="44.28718" lon="3.01068">
        <ele>995</ele>
        <time>2013-04-21T10:46:56Z</time>
      </trkpt>
      <trkpt lat="44.28727" lon="3.01072">
        <ele>993</ele>
        <time>2013-04-21T10:47:02Z</time>
      </trkpt>
      <trkpt lat="44.28734" lon="3.01082">
        <ele>990</ele>
        <time>2013-04-21T10:47:16Z</time>
      </trkpt>
      <trkpt lat="44.28745" lon="3.01085">
        <ele>989</ele>
        <time>2013-04-21T10:47:22Z</time>
      </trkpt>
      <trkpt lat="44.28755" lon="3.01087">
        <ele>988</ele>
        <time>2013-04-21T10:47:31Z</time>
      </trkpt>
      <trkpt lat="44.28766" lon="3.01089">
        <ele>982</ele>
        <time>2013-04-21T10:47:46Z</time>
      </trkpt>
      <trkpt lat="44.28777" lon="3.0109">
        <ele>982</ele>
        <time>2013-04-21T10:47:50Z</time>
      </trkpt>
      <trkpt lat="44.28783" lon="3.0109">
        <ele>981</ele>
        <time>2013-04-21T10:47:51Z</time>
      </trkpt>
      <trkpt lat="44.28791" lon="3.01096">
        <ele>980</ele>
        <time>2013-04-21T10:48:04Z</time>
      </trkpt>
      <trkpt lat="44.28796" lon="3.01096">
        <ele>979</ele>
        <time>2013-04-21T10:48:05Z</time>
      </trkpt>
      <trkpt lat="44.28804" lon="3.01103">
        <ele>978</ele>
        <time>2013-04-21T10:48:18Z</time>
      </trkpt>
      <trkpt lat="44.2881" lon="3.01113">
        <ele>976</ele>
        <time>2013-04-21T10:48:27Z</time>
      </trkpt>
      <trkpt lat="44.28819" lon="3.01119">
        <ele>976</ele>
        <time>2013-04-21T10:48:37Z</time>
      </trkpt>
      <trkpt lat="44.28831" lon="3.01122">
        <ele>976</ele>
        <time>2013-04-21T10:48:44Z</time>
      </trkpt>
      <trkpt lat="44.2884" lon="3.01124">
        <ele>974</ele>
        <time>2013-04-21T10:48:50Z</time>
      </trkpt>
      <trkpt lat="44.28854" lon="3.01125">
        <ele>974</ele>
        <time>2013-04-21T10:48:53Z</time>
      </trkpt>
      <trkpt lat="44.28863" lon="3.01125">
        <ele>974</ele>
        <time>2013-04-21T10:48:57Z</time>
      </trkpt>
      <trkpt lat="44.28872" lon="3.01127">
        <ele>972</ele>
        <time>2013-04-21T10:49:13Z</time>
      </trkpt>
      <trkpt lat="44.28882" lon="3.01125">
        <ele>969</ele>
        <time>2013-04-21T10:49:26Z</time>
      </trkpt>
      <trkpt lat="44.28893" lon="3.01121">
        <ele>968</ele>
        <time>2013-04-21T10:49:32Z</time>
      </trkpt>
      <trkpt lat="44.28904" lon="3.01116">
        <ele>968</ele>
        <time>2013-04-21T10:49:36Z</time>
      </trkpt>
      <trkpt lat="44.28914" lon="3.01111">
        <ele>967</ele>
        <time>2013-04-21T10:49:39Z</time>
      </trkpt>
      <trkpt lat="44.28925" lon="3.01105">
        <ele>966</ele>
        <time>2013-04-21T10:49:44Z</time>
      </trkpt>
      <trkpt lat="44.28933" lon="3.01099">
        <ele>963</ele>
        <time>2013-04-21T10:49:52Z</time>
      </trkpt>
      <trkpt lat="44.28942" lon="3.0109">
        <ele>962</ele>
        <time>2013-04-21T10:50:00Z</time>
      </trkpt>
      <trkpt lat="44.28949" lon="3.01081">
        <ele>960</ele>
        <time>2013-04-21T10:50:05Z</time>
      </trkpt>
      <trkpt lat="44.28953" lon="3.01076">
        <ele>959</ele>
        <time>2013-04-21T10:50:09Z</time>
      </trkpt>
      <trkpt lat="44.28957" lon="3.0107">
        <ele>959</ele>
        <time>2013-04-21T10:50:12Z</time>
      </trkpt>
      <trkpt lat="44.2896" lon="3.01066">
        <ele>959</ele>
        <time>2013-04-21T10:50:15Z</time>
      </trkpt>
      <trkpt lat="44.28965" lon="3.0106">
        <ele>960</ele>
        <time>2013-04-21T10:50:20Z</time>
      </trkpt>
      <trkpt lat="44.28969" lon="3.01048">
        <ele>957</ele>
        <time>2013-04-21T10:50:28Z</time>
      </trkpt>
      <trkpt lat="44.28977" lon="3.01039">
        <ele>954</ele>
        <time>2013-04-21T10:50:35Z</time>
      </trkpt>
      <trkpt lat="44.28982" lon="3.01028">
        <ele>951</ele>
        <time>2013-04-21T10:50:41Z</time>
      </trkpt>
      <trkpt lat="44.28986" lon="3.01017">
        <ele>951</ele>
        <time>2013-04-21T10:50:48Z</time>
      </trkpt>
      <trkpt lat="44.2899" lon="3.0101">
        <ele>952</ele>
        <time>2013-04-21T10:50:52Z</time>
      </trkpt>
      <trkpt lat="44.28994" lon="3.00997">
        <ele>952</ele>
        <time>2013-04-21T10:50:58Z</time>
      </trkpt>
      <trkpt lat="44.28998" lon="3.00991">
        <ele>951</ele>
        <time>2013-04-21T10:51:01Z</time>
      </trkpt>
      <trkpt lat="44.29" lon="3.00983">
        <ele>949</ele>
        <time>2013-04-21T10:51:05Z</time>
      </trkpt>
      <trkpt lat="44.29005" lon="3.00972">
        <ele>947</ele>
        <time>2013-04-21T10:51:13Z</time>
      </trkpt>
      <trkpt lat="44.29011" lon="3.00962">
        <ele>945</ele>
        <time>2013-04-21T10:51:19Z</time>
      </trkpt>
      <trkpt lat="44.29017" lon="3.0095">
        <ele>944</ele>
        <time>2013-04-21T10:51:25Z</time>
      </trkpt>
      <trkpt lat="44.29024" lon="3.00941">
        <ele>942</ele>
        <time>2013-04-21T10:51:32Z</time>
      </trkpt>
      <trkpt lat="44.29031" lon="3.00933">
        <ele>939</ele>
        <time>2013-04-21T10:51:39Z</time>
      </trkpt>
      <trkpt lat="44.29036" lon="3.00921">
        <ele>937</ele>
        <time>2013-04-21T10:51:47Z</time>
      </trkpt>
      <trkpt lat="44.29041" lon="3.0091">
        <ele>935</ele>
        <time>2013-04-21T10:51:54Z</time>
      </trkpt>
      <trkpt lat="44.29047" lon="3.009">
        <ele>933</ele>
        <time>2013-04-21T10:51:59Z</time>
      </trkpt>
      <trkpt lat="44.29054" lon="3.00889">
        <ele>931</ele>
        <time>2013-04-21T10:52:06Z</time>
      </trkpt>
      <trkpt lat="44.2906" lon="3.00878">
        <ele>931</ele>
        <time>2013-04-21T10:52:11Z</time>
      </trkpt>
      <trkpt lat="44.29065" lon="3.00865">
        <ele>934</ele>
        <time>2013-04-21T10:52:16Z</time>
      </trkpt>
      <trkpt lat="44.29067" lon="3.00855">
        <ele>935</ele>
        <time>2013-04-21T10:52:24Z</time>
      </trkpt>
      <trkpt lat="44.29073" lon="3.00845">
        <ele>937</ele>
        <time>2013-04-21T10:52:31Z</time>
      </trkpt>
      <trkpt lat="44.2908" lon="3.00838">
        <ele>937</ele>
        <time>2013-04-21T10:52:37Z</time>
      </trkpt>
      <trkpt lat="44.29085" lon="3.00833">
        <ele>937</ele>
        <time>2013-04-21T10:52:42Z</time>
      </trkpt>
      <trkpt lat="44.29093" lon="3.00828">
        <ele>937</ele>
        <time>2013-04-21T10:52:49Z</time>
      </trkpt>
      <trkpt lat="44.29103" lon="3.00825">
        <ele>937</ele>
        <time>2013-04-21T10:52:55Z</time>
      </trkpt>
      <trkpt lat="44.29113" lon="3.00825">
        <ele>936</ele>
        <time>2013-04-21T10:53:03Z</time>
      </trkpt>
      <trkpt lat="44.29123" lon="3.0083">
        <ele>934</ele>
        <time>2013-04-21T10:53:09Z</time>
      </trkpt>
      <trkpt lat="44.2913" lon="3.00838">
        <ele>934</ele>
        <time>2013-04-21T10:53:17Z</time>
      </trkpt>
      <trkpt lat="44.29138" lon="3.00846">
        <ele>932</ele>
        <time>2013-04-21T10:53:25Z</time>
      </trkpt>
      <trkpt lat="44.29146" lon="3.00853">
        <ele>931</ele>
        <time>2013-04-21T10:53:33Z</time>
      </trkpt>
      <trkpt lat="44.29154" lon="3.0086">
        <ele>928</ele>
        <time>2013-04-21T10:53:40Z</time>
      </trkpt>
      <trkpt lat="44.29163" lon="3.00864">
        <ele>927</ele>
        <time>2013-04-21T10:53:44Z</time>
      </trkpt>
      <trkpt lat="44.29173" lon="3.00867">
        <ele>928</ele>
        <time>2013-04-21T10:53:51Z</time>
      </trkpt>
      <trkpt lat="44.29183" lon="3.0087">
        <ele>927</ele>
        <time>2013-04-21T10:54:00Z</time>
      </trkpt>
      <trkpt lat="44.29192" lon="3.00868">
        <ele>927</ele>
        <time>2013-04-21T10:54:04Z</time>
      </trkpt>
      <trkpt lat="44.29202" lon="3.00862">
        <ele>927</ele>
        <time>2013-04-21T10:54:08Z</time>
      </trkpt>
      <trkpt lat="44.29206" lon="3.00858">
        <ele>928</ele>
        <time>2013-04-21T10:54:10Z</time>
      </trkpt>
      <trkpt lat="44.2921" lon="3.00853">
        <ele>928</ele>
        <time>2013-04-21T10:54:13Z</time>
      </trkpt>
      <trkpt lat="44.29213" lon="3.00848">
        <ele>929</ele>
        <time>2013-04-21T10:54:18Z</time>
      </trkpt>
      <trkpt lat="44.29218" lon="3.00842">
        <ele>928</ele>
        <time>2013-04-21T10:54:23Z</time>
      </trkpt>
      <trkpt lat="44.29224" lon="3.0083">
        <ele>926</ele>
        <time>2013-04-21T10:54:31Z</time>
      </trkpt>
      <trkpt lat="44.29231" lon="3.0082">
        <ele>925</ele>
        <time>2013-04-21T10:54:38Z</time>
      </trkpt>
      <trkpt lat="44.29232" lon="3.00814">
        <ele>924</ele>
        <time>2013-04-21T10:54:41Z</time>
      </trkpt>
      <trkpt lat="44.29239" lon="3.00803">
        <ele>921</ele>
        <time>2013-04-21T10:54:48Z</time>
      </trkpt>
      <trkpt lat="44.29245" lon="3.00793">
        <ele>917</ele>
        <time>2013-04-21T10:54:56Z</time>
      </trkpt>
      <trkpt lat="44.29251" lon="3.0078">
        <ele>915</ele>
        <time>2013-04-21T10:55:02Z</time>
      </trkpt>
      <trkpt lat="44.29251" lon="3.00764">
        <ele>911</ele>
        <time>2013-04-21T10:55:22Z</time>
      </trkpt>
      <trkpt lat="44.29252" lon="3.00758">
        <ele>913</ele>
        <time>2013-04-21T10:55:37Z</time>
      </trkpt>
      <trkpt lat="44.29251" lon="3.00743">
        <ele>914</ele>
        <time>2013-04-21T10:55:54Z</time>
      </trkpt>
      <trkpt lat="44.29252" lon="3.00734">
        <ele>914</ele>
        <time>2013-04-21T10:55:58Z</time>
      </trkpt>
      <trkpt lat="44.29253" lon="3.00728">
        <ele>915</ele>
        <time>2013-04-21T10:56:01Z</time>
      </trkpt>
      <trkpt lat="44.29253" lon="3.00715">
        <ele>914</ele>
        <time>2013-04-21T10:56:08Z</time>
      </trkpt>
      <trkpt lat="44.29253" lon="3.00709">
        <ele>914</ele>
        <time>2013-04-21T10:56:11Z</time>
      </trkpt>
      <trkpt lat="44.29253" lon="3.00697">
        <ele>914</ele>
        <time>2013-04-21T10:56:17Z</time>
      </trkpt>
      <trkpt lat="44.29252" lon="3.00686">
        <ele>912</ele>
        <time>2013-04-21T10:56:23Z</time>
      </trkpt>
      <trkpt lat="44.29252" lon="3.00673">
        <ele>911</ele>
        <time>2013-04-21T10:56:30Z</time>
      </trkpt>
      <trkpt lat="44.29248" lon="3.00659">
        <ele>909</ele>
        <time>2013-04-21T10:56:36Z</time>
      </trkpt>
      <trkpt lat="44.29243" lon="3.00647">
        <ele>909</ele>
        <time>2013-04-21T10:56:41Z</time>
      </trkpt>
      <trkpt lat="44.29239" lon="3.0064">
        <ele>909</ele>
        <time>2013-04-21T10:56:45Z</time>
      </trkpt>
      <trkpt lat="44.29236" lon="3.00635">
        <ele>909</ele>
        <time>2013-04-21T10:56:48Z</time>
      </trkpt>
      <trkpt lat="44.29233" lon="3.00629">
        <ele>909</ele>
        <time>2013-04-21T10:56:52Z</time>
      </trkpt>
      <trkpt lat="44.29234" lon="3.00616">
        <ele>910</ele>
        <time>2013-04-21T10:56:58Z</time>
      </trkpt>
      <trkpt lat="44.29237" lon="3.0061">
        <ele>910</ele>
        <time>2013-04-21T10:57:01Z</time>
      </trkpt>
      <trkpt lat="44.29246" lon="3.00607">
        <ele>909</ele>
        <time>2013-04-21T10:57:07Z</time>
      </trkpt>
      <trkpt lat="44.29252" lon="3.00604">
        <ele>908</ele>
        <time>2013-04-21T10:57:11Z</time>
      </trkpt>
      <trkpt lat="44.2926" lon="3.00598">
        <ele>907</ele>
        <time>2013-04-21T10:57:19Z</time>
      </trkpt>
      <trkpt lat="44.29269" lon="3.00595">
        <ele>904</ele>
        <time>2013-04-21T10:57:26Z</time>
      </trkpt>
      <trkpt lat="44.29281" lon="3.00595">
        <ele>901</ele>
        <time>2013-04-21T10:57:37Z</time>
      </trkpt>
      <trkpt lat="44.29291" lon="3.00595">
        <ele>896</ele>
        <time>2013-04-21T10:57:48Z</time>
      </trkpt>
      <trkpt lat="44.29298" lon="3.00589">
        <ele>894</ele>
        <time>2013-04-21T10:57:53Z</time>
      </trkpt>
      <trkpt lat="44.29307" lon="3.00579">
        <ele>894</ele>
        <time>2013-04-21T10:57:56Z</time>
      </trkpt>
      <trkpt lat="44.29315" lon="3.0057">
        <ele>894</ele>
        <time>2013-04-21T10:57:59Z</time>
      </trkpt>
      <trkpt lat="44.29319" lon="3.00565">
        <ele>893</ele>
        <time>2013-04-21T10:58:01Z</time>
      </trkpt>
      <trkpt lat="44.29327" lon="3.00556">
        <ele>894</ele>
        <time>2013-04-21T10:58:07Z</time>
      </trkpt>
      <trkpt lat="44.29333" lon="3.00545">
        <ele>892</ele>
        <time>2013-04-21T10:58:12Z</time>
      </trkpt>
      <trkpt lat="44.29341" lon="3.00534">
        <ele>890</ele>
        <time>2013-04-21T10:58:19Z</time>
      </trkpt>
      <trkpt lat="44.29351" lon="3.00536">
        <ele>889</ele>
        <time>2013-04-21T10:58:24Z</time>
      </trkpt>
      <trkpt lat="44.29355" lon="3.00538">
        <ele>886</ele>
        <time>2013-04-21T10:58:27Z</time>
      </trkpt>
      <trkpt lat="44.29365" lon="3.0054">
        <ele>884</ele>
        <time>2013-04-21T10:58:33Z</time>
      </trkpt>
      <trkpt lat="44.29371" lon="3.00542">
        <ele>883</ele>
        <time>2013-04-21T10:58:36Z</time>
      </trkpt>
      <trkpt lat="44.29377" lon="3.00544">
        <ele>882</ele>
        <time>2013-04-21T10:58:39Z</time>
      </trkpt>
      <trkpt lat="44.29383" lon="3.00545">
        <ele>881</ele>
        <time>2013-04-21T10:58:42Z</time>
      </trkpt>
      <trkpt lat="44.29393" lon="3.00547">
        <ele>881</ele>
        <time>2013-04-21T10:58:45Z</time>
      </trkpt>
      <trkpt lat="44.29402" lon="3.00548">
        <ele>881</ele>
        <time>2013-04-21T10:58:47Z</time>
      </trkpt>
      <trkpt lat="44.29412" lon="3.00552">
        <ele>881</ele>
        <time>2013-04-21T10:58:49Z</time>
      </trkpt>
      <trkpt lat="44.29421" lon="3.00566">
        <ele>881</ele>
        <time>2013-04-21T10:58:52Z</time>
      </trkpt>
      <trkpt lat="44.29427" lon="3.00576">
        <ele>881</ele>
        <time>2013-04-21T10:58:54Z</time>
      </trkpt>
      <trkpt lat="44.29434" lon="3.00588">
        <ele>880</ele>
        <time>2013-04-21T10:58:56Z</time>
      </trkpt>
      <trkpt lat="44.29443" lon="3.00598">
        <ele>880</ele>
        <time>2013-04-21T10:58:58Z</time>
      </trkpt>
      <trkpt lat="44.2945" lon="3.00609">
        <ele>879</ele>
        <time>2013-04-21T10:59:00Z</time>
      </trkpt>
      <trkpt lat="44.29459" lon="3.00619">
        <ele>878</ele>
        <time>2013-04-21T10:59:02Z</time>
      </trkpt>
      <trkpt lat="44.29466" lon="3.00629">
        <ele>876</ele>
        <time>2013-04-21T10:59:04Z</time>
      </trkpt>
      <trkpt lat="44.29476" lon="3.00637">
        <ele>875</ele>
        <time>2013-04-21T10:59:06Z</time>
      </trkpt>
      <trkpt lat="44.29487" lon="3.00646">
        <ele>873</ele>
        <time>2013-04-21T10:59:08Z</time>
      </trkpt>
      <trkpt lat="44.29498" lon="3.00653">
        <ele>872</ele>
        <time>2013-04-21T10:59:10Z</time>
      </trkpt>
      <trkpt lat="44.29506" lon="3.00659">
        <ele>871</ele>
        <time>2013-04-21T10:59:12Z</time>
      </trkpt>
      <trkpt lat="44.29517" lon="3.00664">
        <ele>870</ele>
        <time>2013-04-21T10:59:14Z</time>
      </trkpt>
      <trkpt lat="44.29527" lon="3.00666">
        <ele>869</ele>
        <time>2013-04-21T10:59:16Z</time>
      </trkpt>
      <trkpt lat="44.29536" lon="3.00666">
        <ele>868</ele>
        <time>2013-04-21T10:59:19Z</time>
      </trkpt>
      <trkpt lat="44.29546" lon="3.00667">
        <ele>869</ele>
        <time>2013-04-21T10:59:29Z</time>
      </trkpt>
      <trkpt lat="44.29557" lon="3.00666">
        <ele>870</ele>
        <time>2013-04-21T10:59:33Z</time>
      </trkpt>
      <trkpt lat="44.29567" lon="3.00662">
        <ele>872</ele>
        <time>2013-04-21T10:59:37Z</time>
      </trkpt>
      <trkpt lat="44.29577" lon="3.00657">
        <ele>873</ele>
        <time>2013-04-21T10:59:43Z</time>
      </trkpt>
      <trkpt lat="44.29585" lon="3.00652">
        <ele>874</ele>
        <time>2013-04-21T10:59:48Z</time>
      </trkpt>
      <trkpt lat="44.29594" lon="3.00646">
        <ele>875</ele>
        <time>2013-04-21T10:59:52Z</time>
      </trkpt>
      <trkpt lat="44.29598" lon="3.00644">
        <ele>876</ele>
        <time>2013-04-21T10:59:55Z</time>
      </trkpt>
      <trkpt lat="44.29608" lon="3.00636">
        <ele>877</ele>
        <time>2013-04-21T11:00:00Z</time>
      </trkpt>
      <trkpt lat="44.29619" lon="3.0063">
        <ele>878</ele>
        <time>2013-04-21T11:00:06Z</time>
      </trkpt>
      <trkpt lat="44.29629" lon="3.00627">
        <ele>880</ele>
        <time>2013-04-21T11:00:11Z</time>
      </trkpt>
      <trkpt lat="44.29636" lon="3.00622">
        <ele>880</ele>
        <time>2013-04-21T11:00:16Z</time>
      </trkpt>
      <trkpt lat="44.29643" lon="3.00614">
        <ele>879</ele>
        <time>2013-04-21T11:00:25Z</time>
      </trkpt>
      <trkpt lat="44.2965" lon="3.00605">
        <ele>876</ele>
        <time>2013-04-21T11:00:33Z</time>
      </trkpt>
      <trkpt lat="44.29657" lon="3.00597">
        <ele>874</ele>
        <time>2013-04-21T11:00:38Z</time>
      </trkpt>
      <trkpt lat="44.29668" lon="3.00589">
        <ele>874</ele>
        <time>2013-04-21T11:00:42Z</time>
      </trkpt>
      <trkpt lat="44.29677" lon="3.00582">
        <ele>875</ele>
        <time>2013-04-21T11:00:46Z</time>
      </trkpt>
      <trkpt lat="44.29682" lon="3.00578">
        <ele>874</ele>
        <time>2013-04-21T11:00:48Z</time>
      </trkpt>
      <trkpt lat="44.29687" lon="3.00576">
        <ele>874</ele>
        <time>2013-04-21T11:00:51Z</time>
      </trkpt>
      <trkpt lat="44.29693" lon="3.00575">
        <ele>875</ele>
        <time>2013-04-21T11:00:54Z</time>
      </trkpt>
      <trkpt lat="44.29699" lon="3.00574">
        <ele>875</ele>
        <time>2013-04-21T11:00:57Z</time>
      </trkpt>
      <trkpt lat="44.29705" lon="3.00573">
        <ele>875</ele>
        <time>2013-04-21T11:01:00Z</time>
      </trkpt>
      <trkpt lat="44.29709" lon="3.00572">
        <ele>874</ele>
        <time>2013-04-21T11:01:02Z</time>
      </trkpt>
      <trkpt lat="44.29714" lon="3.00571">
        <ele>874</ele>
        <time>2013-04-21T11:01:04Z</time>
      </trkpt>
      <trkpt lat="44.2972" lon="3.00569">
        <ele>874</ele>
        <time>2013-04-21T11:01:07Z</time>
      </trkpt>
      <trkpt lat="44.29726" lon="3.00569">
        <ele>872</ele>
        <time>2013-04-21T11:01:10Z</time>
      </trkpt>
      <trkpt lat="44.29732" lon="3.00569">
        <ele>870</ele>
        <time>2013-04-21T11:01:13Z</time>
      </trkpt>
      <trkpt lat="44.29737" lon="3.0057">
        <ele>869</ele>
        <time>2013-04-21T11:01:15Z</time>
      </trkpt>
      <trkpt lat="44.29743" lon="3.0057">
        <ele>867</ele>
        <time>2013-04-21T11:01:18Z</time>
      </trkpt>
      <trkpt lat="44.29748" lon="3.0057">
        <ele>865</ele>
        <time>2013-04-21T11:01:21Z</time>
      </trkpt>
      <trkpt lat="44.29753" lon="3.0057">
        <ele>863</ele>
        <time>2013-04-21T11:01:24Z</time>
      </trkpt>
      <trkpt lat="44.29758" lon="3.00568">
        <ele>862</ele>
        <time>2013-04-21T11:01:27Z</time>
      </trkpt>
      <trkpt lat="44.29763" lon="3.00569">
        <ele>861</ele>
        <time>2013-04-21T11:01:31Z</time>
      </trkpt>
      <trkpt lat="44.29768" lon="3.00571">
        <ele>859</ele>
        <time>2013-04-21T11:01:34Z</time>
      </trkpt>
      <trkpt lat="44.29773" lon="3.00571">
        <ele>858</ele>
        <time>2013-04-21T11:01:37Z</time>
      </trkpt>
      <trkpt lat="44.29778" lon="3.00571">
        <ele>857</ele>
        <time>2013-04-21T11:01:40Z</time>
      </trkpt>
      <trkpt lat="44.29784" lon="3.0057">
        <ele>856</ele>
        <time>2013-04-21T11:01:43Z</time>
      </trkpt>
      <trkpt lat="44.29788" lon="3.0057">
        <ele>856</ele>
        <time>2013-04-21T11:01:45Z</time>
      </trkpt>
      <trkpt lat="44.29795" lon="3.00571">
        <ele>855</ele>
        <time>2013-04-21T11:01:48Z</time>
      </trkpt>
      <trkpt lat="44.29801" lon="3.00572">
        <ele>856</ele>
        <time>2013-04-21T11:01:52Z</time>
      </trkpt>
      <trkpt lat="44.29807" lon="3.00574">
        <ele>855</ele>
        <time>2013-04-21T11:01:55Z</time>
      </trkpt>
      <trkpt lat="44.29812" lon="3.00576">
        <ele>854</ele>
        <time>2013-04-21T11:01:57Z</time>
      </trkpt>
      <trkpt lat="44.29816" lon="3.00577">
        <ele>853</ele>
        <time>2013-04-21T11:02:00Z</time>
      </trkpt>
      <trkpt lat="44.29821" lon="3.00579">
        <ele>853</ele>
        <time>2013-04-21T11:02:03Z</time>
      </trkpt>
      <trkpt lat="44.2983" lon="3.00582">
        <ele>854</ele>
        <time>2013-04-21T11:02:06Z</time>
      </trkpt>
      <trkpt lat="44.29839" lon="3.00585">
        <ele>855</ele>
        <time>2013-04-21T11:02:08Z</time>
      </trkpt>
      <trkpt lat="44.29849" lon="3.00585">
        <ele>855</ele>
        <time>2013-04-21T11:02:10Z</time>
      </trkpt>
      <trkpt lat="44.29864" lon="3.00583">
        <ele>855</ele>
        <time>2013-04-21T11:02:12Z</time>
      </trkpt>
      <trkpt lat="44.29876" lon="3.00579">
        <ele>855</ele>
        <time>2013-04-21T11:02:14Z</time>
      </trkpt>
      <trkpt lat="44.2989" lon="3.00574">
        <ele>854</ele>
        <time>2013-04-21T11:02:16Z</time>
      </trkpt>
      <trkpt lat="44.29901" lon="3.00571">
        <ele>854</ele>
        <time>2013-04-21T11:02:18Z</time>
      </trkpt>
      <trkpt lat="44.29913" lon="3.00566">
        <ele>854</ele>
        <time>2013-04-21T11:02:20Z</time>
      </trkpt>
      <trkpt lat="44.29927" lon="3.0056">
        <ele>854</ele>
        <time>2013-04-21T11:02:22Z</time>
      </trkpt>
      <trkpt lat="44.29941" lon="3.00555">
        <ele>854</ele>
        <time>2013-04-21T11:02:24Z</time>
      </trkpt>
      <trkpt lat="44.29954" lon="3.00553">
        <ele>855</ele>
        <time>2013-04-21T11:02:26Z</time>
      </trkpt>
      <trkpt lat="44.29969" lon="3.00551">
        <ele>854</ele>
        <time>2013-04-21T11:02:28Z</time>
      </trkpt>
      <trkpt lat="44.29982" lon="3.00549">
        <ele>855</ele>
        <time>2013-04-21T11:02:30Z</time>
      </trkpt>
      <trkpt lat="44.29997" lon="3.00548">
        <ele>855</ele>
        <time>2013-04-21T11:02:32Z</time>
      </trkpt>
      <trkpt lat="44.30011" lon="3.00548">
        <ele>855</ele>
        <time>2013-04-21T11:02:34Z</time>
      </trkpt>
      <trkpt lat="44.30021" lon="3.00549">
        <ele>855</ele>
        <time>2013-04-21T11:02:36Z</time>
      </trkpt>
      <trkpt lat="44.3003" lon="3.00549">
        <ele>855</ele>
        <time>2013-04-21T11:02:38Z</time>
      </trkpt>
      <trkpt lat="44.30041" lon="3.00551">
        <ele>855</ele>
        <time>2013-04-21T11:02:42Z</time>
      </trkpt>
      <trkpt lat="44.3005" lon="3.00551">
        <ele>853</ele>
        <time>2013-04-21T11:02:47Z</time>
      </trkpt>
      <trkpt lat="44.30057" lon="3.00551">
        <ele>853</ele>
        <time>2013-04-21T11:02:51Z</time>
      </trkpt>
      <trkpt lat="44.30061" lon="3.00551">
        <ele>853</ele>
        <time>2013-04-21T11:02:54Z</time>
      </trkpt>
      <trkpt lat="44.30067" lon="3.0055">
        <ele>853</ele>
        <time>2013-04-21T11:02:58Z</time>
      </trkpt>
      <trkpt lat="44.30073" lon="3.00549">
        <ele>853</ele>
        <time>2013-04-21T11:03:01Z</time>
      </trkpt>
      <trkpt lat="44.30078" lon="3.00547">
        <ele>853</ele>
        <time>2013-04-21T11:03:04Z</time>
      </trkpt>
      <trkpt lat="44.30084" lon="3.00545">
        <ele>853</ele>
        <time>2013-04-21T11:03:07Z</time>
      </trkpt>
      <trkpt lat="44.3009" lon="3.00543">
        <ele>853</ele>
        <time>2013-04-21T11:03:10Z</time>
      </trkpt>
      <trkpt lat="44.30096" lon="3.00542">
        <ele>853</ele>
        <time>2013-04-21T11:03:13Z</time>
      </trkpt>
      <trkpt lat="44.30102" lon="3.0054">
        <ele>852</ele>
        <time>2013-04-21T11:03:16Z</time>
      </trkpt>
      <trkpt lat="44.30106" lon="3.00539">
        <ele>851</ele>
        <time>2013-04-21T11:03:19Z</time>
      </trkpt>
      <trkpt lat="44.30111" lon="3.00538">
        <ele>851</ele>
        <time>2013-04-21T11:03:22Z</time>
      </trkpt>
      <trkpt lat="44.30116" lon="3.00536">
        <ele>851</ele>
        <time>2013-04-21T11:03:25Z</time>
      </trkpt>
      <trkpt lat="44.30121" lon="3.00533">
        <ele>851</ele>
        <time>2013-04-21T11:03:28Z</time>
      </trkpt>
      <trkpt lat="44.30127" lon="3.00531">
        <ele>850</ele>
        <time>2013-04-21T11:03:31Z</time>
      </trkpt>
      <trkpt lat="44.30131" lon="3.00528">
        <ele>850</ele>
        <time>2013-04-21T11:03:34Z</time>
      </trkpt>
      <trkpt lat="44.30137" lon="3.00527">
        <ele>849</ele>
        <time>2013-04-21T11:03:37Z</time>
      </trkpt>
      <trkpt lat="44.30142" lon="3.00528">
        <ele>849</ele>
        <time>2013-04-21T11:03:41Z</time>
      </trkpt>
      <trkpt lat="44.30147" lon="3.00528">
        <ele>848</ele>
        <time>2013-04-21T11:03:44Z</time>
      </trkpt>
      <trkpt lat="44.30152" lon="3.00529">
        <ele>848</ele>
        <time>2013-04-21T11:03:47Z</time>
      </trkpt>
      <trkpt lat="44.30162" lon="3.00533">
        <ele>846</ele>
        <time>2013-04-21T11:03:53Z</time>
      </trkpt>
      <trkpt lat="44.30171" lon="3.00535">
        <ele>843</ele>
        <time>2013-04-21T11:04:00Z</time>
      </trkpt>
      <trkpt lat="44.30178" lon="3.00544">
        <ele>841</ele>
        <time>2013-04-21T11:04:05Z</time>
      </trkpt>
      <trkpt lat="44.30182" lon="3.00548">
        <ele>841</ele>
        <time>2013-04-21T11:04:07Z</time>
      </trkpt>
      <trkpt lat="44.30186" lon="3.00554">
        <ele>841</ele>
        <time>2013-04-21T11:04:10Z</time>
      </trkpt>
      <trkpt lat="44.30189" lon="3.00558">
        <ele>841</ele>
        <time>2013-04-21T11:04:13Z</time>
      </trkpt>
      <trkpt lat="44.30193" lon="3.00564">
        <ele>841</ele>
        <time>2013-04-21T11:04:16Z</time>
      </trkpt>
      <trkpt lat="44.30196" lon="3.00569">
        <ele>841</ele>
        <time>2013-04-21T11:04:19Z</time>
      </trkpt>
      <trkpt lat="44.30199" lon="3.00574">
        <ele>840</ele>
        <time>2013-04-21T11:04:22Z</time>
      </trkpt>
      <trkpt lat="44.30202" lon="3.00578">
        <ele>839</ele>
        <time>2013-04-21T11:04:25Z</time>
      </trkpt>
      <trkpt lat="44.30206" lon="3.00582">
        <ele>838</ele>
        <time>2013-04-21T11:04:28Z</time>
      </trkpt>
      <trkpt lat="44.3021" lon="3.00586">
        <ele>837</ele>
        <time>2013-04-21T11:04:31Z</time>
      </trkpt>
      <trkpt lat="44.30214" lon="3.00591">
        <ele>836</ele>
        <time>2013-04-21T11:04:34Z</time>
      </trkpt>
      <trkpt lat="44.30218" lon="3.00595">
        <ele>835</ele>
        <time>2013-04-21T11:04:37Z</time>
      </trkpt>
      <trkpt lat="44.30222" lon="3.00601">
        <ele>835</ele>
        <time>2013-04-21T11:04:40Z</time>
      </trkpt>
      <trkpt lat="44.30225" lon="3.00605">
        <ele>835</ele>
        <time>2013-04-21T11:04:43Z</time>
      </trkpt>
      <trkpt lat="44.30229" lon="3.0061">
        <ele>835</ele>
        <time>2013-04-21T11:04:46Z</time>
      </trkpt>
      <trkpt lat="44.30232" lon="3.00615">
        <ele>835</ele>
        <time>2013-04-21T11:04:49Z</time>
      </trkpt>
      <trkpt lat="44.30235" lon="3.0062">
        <ele>834</ele>
        <time>2013-04-21T11:04:52Z</time>
      </trkpt>
      <trkpt lat="44.30239" lon="3.00624">
        <ele>834</ele>
        <time>2013-04-21T11:04:55Z</time>
      </trkpt>
      <trkpt lat="44.30243" lon="3.00627">
        <ele>834</ele>
        <time>2013-04-21T11:04:58Z</time>
      </trkpt>
      <trkpt lat="44.30248" lon="3.0063">
        <ele>833</ele>
        <time>2013-04-21T11:05:01Z</time>
      </trkpt>
      <trkpt lat="44.3025" lon="3.00632">
        <ele>833</ele>
        <time>2013-04-21T11:05:08Z</time>
      </trkpt>
      <trkpt lat="44.30256" lon="3.00642">
        <ele>832</ele>
        <time>2013-04-21T11:05:38Z</time>
      </trkpt>
      <trkpt lat="44.30261" lon="3.00648">
        <ele>831</ele>
        <time>2013-04-21T11:05:41Z</time>
      </trkpt>
      <trkpt lat="44.30264" lon="3.00653">
        <ele>830</ele>
        <time>2013-04-21T11:05:44Z</time>
      </trkpt>
      <trkpt lat="44.30268" lon="3.00658">
        <ele>830</ele>
        <time>2013-04-21T11:05:48Z</time>
      </trkpt>
      <trkpt lat="44.30272" lon="3.00665">
        <ele>830</ele>
        <time>2013-04-21T11:05:52Z</time>
      </trkpt>
      <trkpt lat="44.30276" lon="3.00671">
        <ele>829</ele>
        <time>2013-04-21T11:05:55Z</time>
      </trkpt>
      <trkpt lat="44.30278" lon="3.00676">
        <ele>829</ele>
        <time>2013-04-21T11:05:58Z</time>
      </trkpt>
      <trkpt lat="44.30282" lon="3.00683">
        <ele>829</ele>
        <time>2013-04-21T11:06:01Z</time>
      </trkpt>
      <trkpt lat="44.30285" lon="3.00688">
        <ele>830</ele>
        <time>2013-04-21T11:06:04Z</time>
      </trkpt>
      <trkpt lat="44.30289" lon="3.00695">
        <ele>830</ele>
        <time>2013-04-21T11:06:07Z</time>
      </trkpt>
      <trkpt lat="44.30292" lon="3.007">
        <ele>830</ele>
        <time>2013-04-21T11:06:10Z</time>
      </trkpt>
      <trkpt lat="44.30296" lon="3.00707">
        <ele>830</ele>
        <time>2013-04-21T11:06:14Z</time>
      </trkpt>
      <trkpt lat="44.30298" lon="3.00712">
        <ele>831</ele>
        <time>2013-04-21T11:06:17Z</time>
      </trkpt>
      <trkpt lat="44.30301" lon="3.00718">
        <ele>830</ele>
        <time>2013-04-21T11:06:20Z</time>
      </trkpt>
      <trkpt lat="44.30303" lon="3.00724">
        <ele>829</ele>
        <time>2013-04-21T11:06:23Z</time>
      </trkpt>
      <trkpt lat="44.30305" lon="3.0073">
        <ele>829</ele>
        <time>2013-04-21T11:06:26Z</time>
      </trkpt>
      <trkpt lat="44.30309" lon="3.00735">
        <ele>829</ele>
        <time>2013-04-21T11:06:30Z</time>
      </trkpt>
      <trkpt lat="44.30312" lon="3.0074">
        <ele>829</ele>
        <time>2013-04-21T11:06:33Z</time>
      </trkpt>
      <trkpt lat="44.30316" lon="3.00744">
        <ele>829</ele>
        <time>2013-04-21T11:06:37Z</time>
      </trkpt>
      <trkpt lat="44.30323" lon="3.00756">
        <ele>830</ele>
        <time>2013-04-21T11:06:44Z</time>
      </trkpt>
      <trkpt lat="44.30327" lon="3.0076">
        <ele>830</ele>
        <time>2013-04-21T11:06:46Z</time>
      </trkpt>
      <trkpt lat="44.3033" lon="3.00765">
        <ele>829</ele>
        <time>2013-04-21T11:06:49Z</time>
      </trkpt>
      <trkpt lat="44.30337" lon="3.00771">
        <ele>827</ele>
        <time>2013-04-21T11:06:54Z</time>
      </trkpt>
      <trkpt lat="44.30345" lon="3.00777">
        <ele>826</ele>
        <time>2013-04-21T11:06:58Z</time>
      </trkpt>
      <trkpt lat="44.30349" lon="3.00781">
        <ele>825</ele>
        <time>2013-04-21T11:07:01Z</time>
      </trkpt>
      <trkpt lat="44.30353" lon="3.00784">
        <ele>824</ele>
        <time>2013-04-21T11:07:04Z</time>
      </trkpt>
      <trkpt lat="44.30363" lon="3.0079">
        <ele>823</ele>
        <time>2013-04-21T11:07:15Z</time>
      </trkpt>
      <trkpt lat="44.30374" lon="3.00788">
        <ele>819</ele>
        <time>2013-04-21T11:07:27Z</time>
      </trkpt>
      <trkpt lat="44.30383" lon="3.00782">
        <ele>818</ele>
        <time>2013-04-21T11:07:31Z</time>
      </trkpt>
      <trkpt lat="44.30392" lon="3.00777">
        <ele>818</ele>
        <time>2013-04-21T11:07:36Z</time>
      </trkpt>
      <trkpt lat="44.30397" lon="3.00774">
        <ele>817</ele>
        <time>2013-04-21T11:07:39Z</time>
      </trkpt>
      <trkpt lat="44.30408" lon="3.00771">
        <ele>815</ele>
        <time>2013-04-21T11:07:45Z</time>
      </trkpt>
      <trkpt lat="44.30418" lon="3.00766">
        <ele>814</ele>
        <time>2013-04-21T11:07:55Z</time>
      </trkpt>
      <trkpt lat="44.30426" lon="3.00759">
        <ele>812</ele>
        <time>2013-04-21T11:08:02Z</time>
      </trkpt>
      <trkpt lat="44.30435" lon="3.0075">
        <ele>810</ele>
        <time>2013-04-21T11:08:09Z</time>
      </trkpt>
      <trkpt lat="44.30442" lon="3.00743">
        <ele>808</ele>
        <time>2013-04-21T11:08:14Z</time>
      </trkpt>
      <trkpt lat="44.30448" lon="3.00732">
        <ele>805</ele>
        <time>2013-04-21T11:08:20Z</time>
      </trkpt>
      <trkpt lat="44.30456" lon="3.00723">
        <ele>803</ele>
        <time>2013-04-21T11:08:26Z</time>
      </trkpt>
      <trkpt lat="44.30465" lon="3.00713">
        <ele>800</ele>
        <time>2013-04-21T11:08:32Z</time>
      </trkpt>
      <trkpt lat="44.30472" lon="3.00703">
        <ele>798</ele>
        <time>2013-04-21T11:08:38Z</time>
      </trkpt>
      <trkpt lat="44.30481" lon="3.00695">
        <ele>795</ele>
        <time>2013-04-21T11:08:43Z</time>
      </trkpt>
      <trkpt lat="44.30492" lon="3.00686">
        <ele>793</ele>
        <time>2013-04-21T11:08:48Z</time>
      </trkpt>
      <trkpt lat="44.305" lon="3.00678">
        <ele>789</ele>
        <time>2013-04-21T11:08:56Z</time>
      </trkpt>
      <trkpt lat="44.30507" lon="3.0067">
        <ele>787</ele>
        <time>2013-04-21T11:09:02Z</time>
      </trkpt>
      <trkpt lat="44.30518" lon="3.00665">
        <ele>785</ele>
        <time>2013-04-21T11:09:07Z</time>
      </trkpt>
      <trkpt lat="44.30528" lon="3.00656">
        <ele>783</ele>
        <time>2013-04-21T11:09:14Z</time>
      </trkpt>
      <trkpt lat="44.30537" lon="3.00648">
        <ele>783</ele>
        <time>2013-04-21T11:09:19Z</time>
      </trkpt>
      <trkpt lat="44.30545" lon="3.00641">
        <ele>782</ele>
        <time>2013-04-21T11:09:24Z</time>
      </trkpt>
      <trkpt lat="44.30555" lon="3.00631">
        <ele>781</ele>
        <time>2013-04-21T11:09:29Z</time>
      </trkpt>
      <trkpt lat="44.3056" lon="3.00626">
        <ele>782</ele>
        <time>2013-04-21T11:09:32Z</time>
      </trkpt>
      <trkpt lat="44.30564" lon="3.00623">
        <ele>782</ele>
        <time>2013-04-21T11:09:34Z</time>
      </trkpt>
      <trkpt lat="44.30572" lon="3.00617">
        <ele>781</ele>
        <time>2013-04-21T11:09:39Z</time>
      </trkpt>
      <trkpt lat="44.30576" lon="3.00614">
        <ele>779</ele>
        <time>2013-04-21T11:09:42Z</time>
      </trkpt>
      <trkpt lat="44.30584" lon="3.00607">
        <ele>778</ele>
        <time>2013-04-21T11:09:47Z</time>
      </trkpt>
      <trkpt lat="44.30594" lon="3.006">
        <ele>777</ele>
        <time>2013-04-21T11:09:52Z</time>
      </trkpt>
      <trkpt lat="44.30603" lon="3.00594">
        <ele>777</ele>
        <time>2013-04-21T11:10:02Z</time>
      </trkpt>
      <trkpt lat="44.30613" lon="3.00591">
        <ele>772</ele>
        <time>2013-04-21T11:10:11Z</time>
      </trkpt>
      <trkpt lat="44.30623" lon="3.00585">
        <ele>770</ele>
        <time>2013-04-21T11:10:19Z</time>
      </trkpt>
      <trkpt lat="44.30633" lon="3.00582">
        <ele>769</ele>
        <time>2013-04-21T11:10:23Z</time>
      </trkpt>
      <trkpt lat="44.30651" lon="3.00582">
        <ele>758</ele>
        <time>2013-04-21T11:10:39Z</time>
      </trkpt>
      <trkpt lat="44.30659" lon="3.00598">
        <ele>750</ele>
        <time>2013-04-21T11:10:53Z</time>
      </trkpt>
      <trkpt lat="44.30664" lon="3.00622">
        <ele>741</ele>
        <time>2013-04-21T11:11:11Z</time>
      </trkpt>
      <trkpt lat="44.30665" lon="3.00639">
        <ele>739</ele>
        <time>2013-04-21T11:11:15Z</time>
      </trkpt>
      <trkpt lat="44.30665" lon="3.00654">
        <ele>738</ele>
        <time>2013-04-21T11:11:19Z</time>
      </trkpt>
      <trkpt lat="44.30663" lon="3.00669">
        <ele>737</ele>
        <time>2013-04-21T11:11:23Z</time>
      </trkpt>
      <trkpt lat="44.30662" lon="3.00676">
        <ele>737</ele>
        <time>2013-04-21T11:11:25Z</time>
      </trkpt>
      <trkpt lat="44.30662" lon="3.00683">
        <ele>736</ele>
        <time>2013-04-21T11:11:27Z</time>
      </trkpt>
      <trkpt lat="44.30661" lon="3.00691">
        <ele>736</ele>
        <time>2013-04-21T11:11:30Z</time>
      </trkpt>
      <trkpt lat="44.30661" lon="3.00701">
        <ele>735</ele>
        <time>2013-04-21T11:11:35Z</time>
      </trkpt>
      <trkpt lat="44.30661" lon="3.00708">
        <ele>734</ele>
        <time>2013-04-21T11:11:38Z</time>
      </trkpt>
      <trkpt lat="44.30662" lon="3.00715">
        <ele>733</ele>
        <time>2013-04-21T11:11:42Z</time>
      </trkpt>
      <trkpt lat="44.30664" lon="3.00728">
        <ele>731</ele>
        <time>2013-04-21T11:11:48Z</time>
      </trkpt>
      <trkpt lat="44.30667" lon="3.00733">
        <ele>729</ele>
        <time>2013-04-21T11:11:52Z</time>
      </trkpt>
      <trkpt lat="44.30672" lon="3.00731">
        <ele>728</ele>
        <time>2013-04-21T11:11:56Z</time>
      </trkpt>
      <trkpt lat="44.30676" lon="3.00727">
        <ele>729</ele>
        <time>2013-04-21T11:11:59Z</time>
      </trkpt>
      <trkpt lat="44.30681" lon="3.00723">
        <ele>729</ele>
        <time>2013-04-21T11:12:02Z</time>
      </trkpt>
      <trkpt lat="44.30684" lon="3.00719">
        <ele>729</ele>
        <time>2013-04-21T11:12:05Z</time>
      </trkpt>
      <trkpt lat="44.30688" lon="3.00715">
        <ele>728</ele>
        <time>2013-04-21T11:12:08Z</time>
      </trkpt>
      <trkpt lat="44.30694" lon="3.00712">
        <ele>728</ele>
        <time>2013-04-21T11:12:12Z</time>
      </trkpt>
      <trkpt lat="44.30698" lon="3.0071">
        <ele>727</ele>
        <time>2013-04-21T11:12:15Z</time>
      </trkpt>
      <trkpt lat="44.30704" lon="3.0071">
        <ele>727</ele>
        <time>2013-04-21T11:12:19Z</time>
      </trkpt>
      <trkpt lat="44.30708" lon="3.00712">
        <ele>727</ele>
        <time>2013-04-21T11:12:22Z</time>
      </trkpt>
      <trkpt lat="44.30712" lon="3.00715">
        <ele>726</ele>
        <time>2013-04-21T11:12:25Z</time>
      </trkpt>
      <trkpt lat="44.30717" lon="3.00715">
        <ele>725</ele>
        <time>2013-04-21T11:12:30Z</time>
      </trkpt>
      <trkpt lat="44.30722" lon="3.00713">
        <ele>725</ele>
        <time>2013-04-21T11:12:33Z</time>
      </trkpt>
      <trkpt lat="44.30728" lon="3.00711">
        <ele>725</ele>
        <time>2013-04-21T11:12:36Z</time>
      </trkpt>
      <trkpt lat="44.30734" lon="3.00709">
        <ele>725</ele>
        <time>2013-04-21T11:12:39Z</time>
      </trkpt>
      <trkpt lat="44.30739" lon="3.00707">
        <ele>724</ele>
        <time>2013-04-21T11:12:42Z</time>
      </trkpt>
      <trkpt lat="44.30745" lon="3.00704">
        <ele>723</ele>
        <time>2013-04-21T11:12:45Z</time>
      </trkpt>
      <trkpt lat="44.3075" lon="3.00702">
        <ele>722</ele>
        <time>2013-04-21T11:12:48Z</time>
      </trkpt>
      <trkpt lat="44.30755" lon="3.00699">
        <ele>721</ele>
        <time>2013-04-21T11:12:51Z</time>
      </trkpt>
      <trkpt lat="44.30759" lon="3.00698">
        <ele>720</ele>
        <time>2013-04-21T11:12:55Z</time>
      </trkpt>
      <trkpt lat="44.30765" lon="3.00696">
        <ele>718</ele>
        <time>2013-04-21T11:12:59Z</time>
      </trkpt>
      <trkpt lat="44.30771" lon="3.00694">
        <ele>717</ele>
        <time>2013-04-21T11:13:02Z</time>
      </trkpt>
      <trkpt lat="44.30777" lon="3.0069">
        <ele>716</ele>
        <time>2013-04-21T11:13:05Z</time>
      </trkpt>
      <trkpt lat="44.30782" lon="3.00686">
        <ele>715</ele>
        <time>2013-04-21T11:13:08Z</time>
      </trkpt>
      <trkpt lat="44.30787" lon="3.00682">
        <ele>714</ele>
        <time>2013-04-21T11:13:11Z</time>
      </trkpt>
      <trkpt lat="44.30792" lon="3.00678">
        <ele>713</ele>
        <time>2013-04-21T11:13:14Z</time>
      </trkpt>
      <trkpt lat="44.30797" lon="3.00675">
        <ele>712</ele>
        <time>2013-04-21T11:13:17Z</time>
      </trkpt>
      <trkpt lat="44.30801" lon="3.00672">
        <ele>711</ele>
        <time>2013-04-21T11:13:20Z</time>
      </trkpt>
      <trkpt lat="44.30806" lon="3.00669">
        <ele>711</ele>
        <time>2013-04-21T11:13:24Z</time>
      </trkpt>
      <trkpt lat="44.3081" lon="3.00666">
        <ele>710</ele>
        <time>2013-04-21T11:13:27Z</time>
      </trkpt>
      <trkpt lat="44.30815" lon="3.00659">
        <ele>709</ele>
        <time>2013-04-21T11:13:31Z</time>
      </trkpt>
      <trkpt lat="44.30819" lon="3.00653">
        <ele>709</ele>
        <time>2013-04-21T11:13:34Z</time>
      </trkpt>
      <trkpt lat="44.30824" lon="3.00646">
        <ele>709</ele>
        <time>2013-04-21T11:13:37Z</time>
      </trkpt>
      <trkpt lat="44.30828" lon="3.0064">
        <ele>709</ele>
        <time>2013-04-21T11:13:40Z</time>
      </trkpt>
      <trkpt lat="44.30832" lon="3.0063">
        <ele>709</ele>
        <time>2013-04-21T11:13:44Z</time>
      </trkpt>
      <trkpt lat="44.30835" lon="3.00623">
        <ele>709</ele>
        <time>2013-04-21T11:13:47Z</time>
      </trkpt>
      <trkpt lat="44.30839" lon="3.00617">
        <ele>711</ele>
        <time>2013-04-21T11:13:51Z</time>
      </trkpt>
      <trkpt lat="44.30848" lon="3.00609">
        <ele>711</ele>
        <time>2013-04-21T11:13:58Z</time>
      </trkpt>
      <trkpt lat="44.30857" lon="3.00604">
        <ele>711</ele>
        <time>2013-04-21T11:14:04Z</time>
      </trkpt>
      <trkpt lat="44.30863" lon="3.006">
        <ele>711</ele>
        <time>2013-04-21T11:14:07Z</time>
      </trkpt>
      <trkpt lat="44.30867" lon="3.00596">
        <ele>710</ele>
        <time>2013-04-21T11:14:10Z</time>
      </trkpt>
      <trkpt lat="44.30871" lon="3.00591">
        <ele>709</ele>
        <time>2013-04-21T11:14:13Z</time>
      </trkpt>
      <trkpt lat="44.30876" lon="3.00587">
        <ele>707</ele>
        <time>2013-04-21T11:14:18Z</time>
      </trkpt>
      <trkpt lat="44.30881" lon="3.00584">
        <ele>706</ele>
        <time>2013-04-21T11:14:21Z</time>
      </trkpt>
      <trkpt lat="44.30886" lon="3.0058">
        <ele>705</ele>
        <time>2013-04-21T11:14:24Z</time>
      </trkpt>
      <trkpt lat="44.30894" lon="3.00572">
        <ele>704</ele>
        <time>2013-04-21T11:14:29Z</time>
      </trkpt>
      <trkpt lat="44.30898" lon="3.00567">
        <ele>704</ele>
        <time>2013-04-21T11:14:32Z</time>
      </trkpt>
      <trkpt lat="44.30902" lon="3.00562">
        <ele>705</ele>
        <time>2013-04-21T11:14:35Z</time>
      </trkpt>
      <trkpt lat="44.30904" lon="3.00555">
        <ele>704</ele>
        <time>2013-04-21T11:14:38Z</time>
      </trkpt>
      <trkpt lat="44.30906" lon="3.00548">
        <ele>704</ele>
        <time>2013-04-21T11:14:41Z</time>
      </trkpt>
      <trkpt lat="44.30908" lon="3.00542">
        <ele>705</ele>
        <time>2013-04-21T11:14:44Z</time>
      </trkpt>
      <trkpt lat="44.3091" lon="3.00535">
        <ele>704</ele>
        <time>2013-04-21T11:14:47Z</time>
      </trkpt>
      <trkpt lat="44.3091" lon="3.00528">
        <ele>705</ele>
        <time>2013-04-21T11:14:50Z</time>
      </trkpt>
      <trkpt lat="44.3091" lon="3.0052">
        <ele>705</ele>
        <time>2013-04-21T11:14:54Z</time>
      </trkpt>
      <trkpt lat="44.30908" lon="3.00513">
        <ele>705</ele>
        <time>2013-04-21T11:14:57Z</time>
      </trkpt>
      <trkpt lat="44.30906" lon="3.00508">
        <ele>705</ele>
        <time>2013-04-21T11:15:01Z</time>
      </trkpt>
      <trkpt lat="44.30901" lon="3.005">
        <ele>704</ele>
        <time>2013-04-21T11:15:06Z</time>
      </trkpt>
      <trkpt lat="44.30899" lon="3.00494">
        <ele>705</ele>
        <time>2013-04-21T11:15:09Z</time>
      </trkpt>
      <trkpt lat="44.30894" lon="3.00484">
        <ele>705</ele>
        <time>2013-04-21T11:15:16Z</time>
      </trkpt>
      <trkpt lat="44.30889" lon="3.00474">
        <ele>705</ele>
        <time>2013-04-21T11:15:21Z</time>
      </trkpt>
      <trkpt lat="44.30886" lon="3.00469">
        <ele>704</ele>
        <time>2013-04-21T11:15:24Z</time>
      </trkpt>
      <trkpt lat="44.3088" lon="3.00459">
        <ele>704</ele>
        <time>2013-04-21T11:15:30Z</time>
      </trkpt>
      <trkpt lat="44.30876" lon="3.00445">
        <ele>702</ele>
        <time>2013-04-21T11:15:37Z</time>
      </trkpt>
      <trkpt lat="44.30876" lon="3.00438">
        <ele>701</ele>
        <time>2013-04-21T11:15:40Z</time>
      </trkpt>
      <trkpt lat="44.30877" lon="3.00432">
        <ele>701</ele>
        <time>2013-04-21T11:15:43Z</time>
      </trkpt>
      <trkpt lat="44.30878" lon="3.00422">
        <ele>701</ele>
        <time>2013-04-21T11:15:47Z</time>
      </trkpt>
      <trkpt lat="44.30879" lon="3.00414">
        <ele>701</ele>
        <time>2013-04-21T11:15:50Z</time>
      </trkpt>
      <trkpt lat="44.3088" lon="3.00407">
        <ele>701</ele>
        <time>2013-04-21T11:15:53Z</time>
      </trkpt>
      <trkpt lat="44.30884" lon="3.00396">
        <ele>700</ele>
        <time>2013-04-21T11:15:58Z</time>
      </trkpt>
      <trkpt lat="44.30887" lon="3.00383">
        <ele>700</ele>
        <time>2013-04-21T11:16:04Z</time>
      </trkpt>
      <trkpt lat="44.30887" lon="3.00376">
        <ele>700</ele>
        <time>2013-04-21T11:16:07Z</time>
      </trkpt>
      <trkpt lat="44.30891" lon="3.0037">
        <ele>699</ele>
        <time>2013-04-21T11:16:10Z</time>
      </trkpt>
      <trkpt lat="44.30889" lon="3.00357">
        <ele>698</ele>
        <time>2013-04-21T11:16:17Z</time>
      </trkpt>
      <trkpt lat="44.30888" lon="3.00351">
        <ele>700</ele>
        <time>2013-04-21T11:16:37Z</time>
      </trkpt>
      <trkpt lat="44.30888" lon="3.00347">
        <ele>700</ele>
        <time>2013-04-21T11:17:35Z</time>
      </trkpt>
      <trkpt lat="44.30895" lon="3.0035">
        <ele>700</ele>
        <time>2013-04-21T11:18:03Z</time>
      </trkpt>
      <trkpt lat="44.30904" lon="3.00355">
        <ele>699</ele>
        <time>2013-04-21T11:18:10Z</time>
      </trkpt>
      <trkpt lat="44.3091" lon="3.00358">
        <ele>699</ele>
        <time>2013-04-21T11:18:14Z</time>
      </trkpt>
      <trkpt lat="44.30914" lon="3.00362">
        <ele>697</ele>
        <time>2013-04-21T11:18:17Z</time>
      </trkpt>
      <trkpt lat="44.30917" lon="3.00365">
        <ele>697</ele>
        <time>2013-04-21T11:18:20Z</time>
      </trkpt>
      <trkpt lat="44.30922" lon="3.00368">
        <ele>696</ele>
        <time>2013-04-21T11:18:23Z</time>
      </trkpt>
      <trkpt lat="44.30927" lon="3.00373">
        <ele>695</ele>
        <time>2013-04-21T11:18:27Z</time>
      </trkpt>
      <trkpt lat="44.30933" lon="3.0038">
        <ele>696</ele>
        <time>2013-04-21T11:18:32Z</time>
      </trkpt>
      <trkpt lat="44.30937" lon="3.00385">
        <ele>694</ele>
        <time>2013-04-21T11:18:37Z</time>
      </trkpt>
      <trkpt lat="44.30942" lon="3.00391">
        <ele>695</ele>
        <time>2013-04-21T11:18:41Z</time>
      </trkpt>
      <trkpt lat="44.30945" lon="3.00394">
        <ele>695</ele>
        <time>2013-04-21T11:18:44Z</time>
      </trkpt>
      <trkpt lat="44.30949" lon="3.00399">
        <ele>696</ele>
        <time>2013-04-21T11:18:47Z</time>
      </trkpt>
      <trkpt lat="44.30956" lon="3.00405">
        <ele>695</ele>
        <time>2013-04-21T11:18:52Z</time>
      </trkpt>
      <trkpt lat="44.3096" lon="3.00408">
        <ele>696</ele>
        <time>2013-04-21T11:18:55Z</time>
      </trkpt>
      <trkpt lat="44.30965" lon="3.00412">
        <ele>696</ele>
        <time>2013-04-21T11:18:58Z</time>
      </trkpt>
      <trkpt lat="44.30968" lon="3.00417">
        <ele>696</ele>
        <time>2013-04-21T11:19:01Z</time>
      </trkpt>
      <trkpt lat="44.30972" lon="3.00422">
        <ele>696</ele>
        <time>2013-04-21T11:19:04Z</time>
      </trkpt>
      <trkpt lat="44.30976" lon="3.00428">
        <ele>696</ele>
        <time>2013-04-21T11:19:08Z</time>
      </trkpt>
      <trkpt lat="44.30982" lon="3.00433">
        <ele>696</ele>
        <time>2013-04-21T11:19:12Z</time>
      </trkpt>
      <trkpt lat="44.30991" lon="3.0044">
        <ele>694</ele>
        <time>2013-04-21T11:19:19Z</time>
      </trkpt>
      <trkpt lat="44.30997" lon="3.00446">
        <ele>694</ele>
        <time>2013-04-21T11:19:23Z</time>
      </trkpt>
      <trkpt lat="44.31001" lon="3.00449">
        <ele>694</ele>
        <time>2013-04-21T11:19:26Z</time>
      </trkpt>
      <trkpt lat="44.31008" lon="3.00457">
        <ele>693</ele>
        <time>2013-04-21T11:19:32Z</time>
      </trkpt>
      <trkpt lat="44.31012" lon="3.00461">
        <ele>693</ele>
        <time>2013-04-21T11:19:36Z</time>
      </trkpt>
      <trkpt lat="44.31017" lon="3.00464">
        <ele>693</ele>
        <time>2013-04-21T11:19:40Z</time>
      </trkpt>
      <trkpt lat="44.31023" lon="3.00467">
        <ele>692</ele>
        <time>2013-04-21T11:19:44Z</time>
      </trkpt>
      <trkpt lat="44.31032" lon="3.00472">
        <ele>692</ele>
        <time>2013-04-21T11:19:50Z</time>
      </trkpt>
      <trkpt lat="44.31038" lon="3.00476">
        <ele>691</ele>
        <time>2013-04-21T11:19:53Z</time>
      </trkpt>
      <trkpt lat="44.31044" lon="3.00481">
        <ele>690</ele>
        <time>2013-04-21T11:19:57Z</time>
      </trkpt>
      <trkpt lat="44.31049" lon="3.00483">
        <ele>689</ele>
        <time>2013-04-21T11:20:00Z</time>
      </trkpt>
      <trkpt lat="44.31053" lon="3.00485">
        <ele>689</ele>
        <time>2013-04-21T11:20:02Z</time>
      </trkpt>
      <trkpt lat="44.3106" lon="3.00485">
        <ele>689</ele>
        <time>2013-04-21T11:20:05Z</time>
      </trkpt>
      <trkpt lat="44.31064" lon="3.00486">
        <ele>688</ele>
        <time>2013-04-21T11:20:08Z</time>
      </trkpt>
      <trkpt lat="44.3107" lon="3.00486">
        <ele>689</ele>
        <time>2013-04-21T11:20:12Z</time>
      </trkpt>
      <trkpt lat="44.31075" lon="3.00487">
        <ele>689</ele>
        <time>2013-04-21T11:20:15Z</time>
      </trkpt>
      <trkpt lat="44.3108" lon="3.00488">
        <ele>689</ele>
        <time>2013-04-21T11:20:19Z</time>
      </trkpt>
      <trkpt lat="44.31089" lon="3.00491">
        <ele>690</ele>
        <time>2013-04-21T11:20:26Z</time>
      </trkpt>
      <trkpt lat="44.31095" lon="3.00494">
        <ele>689</ele>
        <time>2013-04-21T11:20:30Z</time>
      </trkpt>
      <trkpt lat="44.311" lon="3.00496">
        <ele>688</ele>
        <time>2013-04-21T11:20:34Z</time>
      </trkpt>
      <trkpt lat="44.31108" lon="3.00499">
        <ele>689</ele>
        <time>2013-04-21T11:20:39Z</time>
      </trkpt>
      <trkpt lat="44.31113" lon="3.00502">
        <ele>689</ele>
        <time>2013-04-21T11:20:42Z</time>
      </trkpt>
      <trkpt lat="44.31118" lon="3.00504">
        <ele>688</ele>
        <time>2013-04-21T11:20:45Z</time>
      </trkpt>
      <trkpt lat="44.31124" lon="3.00507">
        <ele>688</ele>
        <time>2013-04-21T11:20:49Z</time>
      </trkpt>
      <trkpt lat="44.3113" lon="3.00511">
        <ele>687</ele>
        <time>2013-04-21T11:20:53Z</time>
      </trkpt>
      <trkpt lat="44.31135" lon="3.00514">
        <ele>687</ele>
        <time>2013-04-21T11:20:56Z</time>
      </trkpt>
      <trkpt lat="44.31139" lon="3.00517">
        <ele>687</ele>
        <time>2013-04-21T11:20:59Z</time>
      </trkpt>
      <trkpt lat="44.31146" lon="3.00524">
        <ele>688</ele>
        <time>2013-04-21T11:21:04Z</time>
      </trkpt>
      <trkpt lat="44.31156" lon="3.00527">
        <ele>688</ele>
        <time>2013-04-21T11:21:10Z</time>
      </trkpt>
      <trkpt lat="44.3116" lon="3.00529">
        <ele>687</ele>
        <time>2013-04-21T11:21:13Z</time>
      </trkpt>
      <trkpt lat="44.31166" lon="3.00533">
        <ele>687</ele>
        <time>2013-04-21T11:21:16Z</time>
      </trkpt>
      <trkpt lat="44.3117" lon="3.00537">
        <ele>687</ele>
        <time>2013-04-21T11:21:19Z</time>
      </trkpt>
      <trkpt lat="44.31176" lon="3.0054">
        <ele>688</ele>
        <time>2013-04-21T11:21:22Z</time>
      </trkpt>
      <trkpt lat="44.3118" lon="3.00544">
        <ele>688</ele>
        <time>2013-04-21T11:21:25Z</time>
      </trkpt>
      <trkpt lat="44.31183" lon="3.00542">
        <ele>690</ele>
        <time>2013-04-21T11:21:35Z</time>
      </trkpt>
      <trkpt lat="44.31186" lon="3.00536">
        <ele>690</ele>
        <time>2013-04-21T11:21:41Z</time>
      </trkpt>
      <trkpt lat="44.3119" lon="3.00531">
        <ele>690</ele>
        <time>2013-04-21T11:21:44Z</time>
      </trkpt>
      <trkpt lat="44.31195" lon="3.0053">
        <ele>690</ele>
        <time>2013-04-21T11:21:48Z</time>
      </trkpt>
      <trkpt lat="44.312" lon="3.00534">
        <ele>689</ele>
        <time>2013-04-21T11:21:52Z</time>
      </trkpt>
      <trkpt lat="44.31205" lon="3.00541">
        <ele>687</ele>
        <time>2013-04-21T11:21:57Z</time>
      </trkpt>
      <trkpt lat="44.3121" lon="3.00543">
        <ele>685</ele>
        <time>2013-04-21T11:22:01Z</time>
      </trkpt>
      <trkpt lat="44.31217" lon="3.00547">
        <ele>685</ele>
        <time>2013-04-21T11:22:07Z</time>
      </trkpt>
      <trkpt lat="44.31223" lon="3.0055">
        <ele>684</ele>
        <time>2013-04-21T11:22:11Z</time>
      </trkpt>
      <trkpt lat="44.31229" lon="3.00556">
        <ele>683</ele>
        <time>2013-04-21T11:22:17Z</time>
      </trkpt>
      <trkpt lat="44.31238" lon="3.0056">
        <ele>682</ele>
        <time>2013-04-21T11:22:22Z</time>
      </trkpt>
      <trkpt lat="44.31244" lon="3.00563">
        <ele>682</ele>
        <time>2013-04-21T11:22:25Z</time>
      </trkpt>
      <trkpt lat="44.31248" lon="3.00567">
        <ele>682</ele>
        <time>2013-04-21T11:22:28Z</time>
      </trkpt>
      <trkpt lat="44.31253" lon="3.00568">
        <ele>683</ele>
        <time>2013-04-21T11:22:30Z</time>
      </trkpt>
      <trkpt lat="44.31258" lon="3.00569">
        <ele>684</ele>
        <time>2013-04-21T11:22:33Z</time>
      </trkpt>
      <trkpt lat="44.31263" lon="3.0057">
        <ele>685</ele>
        <time>2013-04-21T11:22:36Z</time>
      </trkpt>
      <trkpt lat="44.31269" lon="3.0057">
        <ele>684</ele>
        <time>2013-04-21T11:22:39Z</time>
      </trkpt>
      <trkpt lat="44.31275" lon="3.00571">
        <ele>684</ele>
        <time>2013-04-21T11:22:42Z</time>
      </trkpt>
      <trkpt lat="44.3128" lon="3.00572">
        <ele>684</ele>
        <time>2013-04-21T11:22:45Z</time>
      </trkpt>
      <trkpt lat="44.31285" lon="3.00575">
        <ele>683</ele>
        <time>2013-04-21T11:22:48Z</time>
      </trkpt>
      <trkpt lat="44.3129" lon="3.00576">
        <ele>683</ele>
        <time>2013-04-21T11:22:51Z</time>
      </trkpt>
      <trkpt lat="44.31295" lon="3.00577">
        <ele>683</ele>
        <time>2013-04-21T11:22:54Z</time>
      </trkpt>
      <trkpt lat="44.313" lon="3.00578">
        <ele>684</ele>
        <time>2013-04-21T11:22:58Z</time>
      </trkpt>
      <trkpt lat="44.31309" lon="3.00575">
        <ele>684</ele>
        <time>2013-04-21T11:23:06Z</time>
      </trkpt>
      <trkpt lat="44.31319" lon="3.00577">
        <ele>684</ele>
        <time>2013-04-21T11:23:13Z</time>
      </trkpt>
      <trkpt lat="44.31328" lon="3.00576">
        <ele>682</ele>
        <time>2013-04-21T11:23:19Z</time>
      </trkpt>
      <trkpt lat="44.31337" lon="3.00576">
        <ele>682</ele>
        <time>2013-04-21T11:23:24Z</time>
      </trkpt>
      <trkpt lat="44.31344" lon="3.00575">
        <ele>683</ele>
        <time>2013-04-21T11:23:27Z</time>
      </trkpt>
      <trkpt lat="44.31349" lon="3.00574">
        <ele>684</ele>
        <time>2013-04-21T11:23:29Z</time>
      </trkpt>
      <trkpt lat="44.31353" lon="3.00572">
        <ele>684</ele>
        <time>2013-04-21T11:23:31Z</time>
      </trkpt>
      <trkpt lat="44.31358" lon="3.0057">
        <ele>685</ele>
        <time>2013-04-21T11:23:34Z</time>
      </trkpt>
      <trkpt lat="44.31363" lon="3.00569">
        <ele>686</ele>
        <time>2013-04-21T11:23:37Z</time>
      </trkpt>
      <trkpt lat="44.31368" lon="3.00568">
        <ele>685</ele>
        <time>2013-04-21T11:23:40Z</time>
      </trkpt>
      <trkpt lat="44.31373" lon="3.00567">
        <ele>684</ele>
        <time>2013-04-21T11:23:43Z</time>
      </trkpt>
      <trkpt lat="44.31377" lon="3.00565">
        <ele>682</ele>
        <time>2013-04-21T11:23:46Z</time>
      </trkpt>
      <trkpt lat="44.31382" lon="3.00563">
        <ele>682</ele>
        <time>2013-04-21T11:23:49Z</time>
      </trkpt>
      <trkpt lat="44.31388" lon="3.00562">
        <ele>681</ele>
        <time>2013-04-21T11:23:52Z</time>
      </trkpt>
      <trkpt lat="44.31394" lon="3.00561">
        <ele>681</ele>
        <time>2013-04-21T11:23:55Z</time>
      </trkpt>
      <trkpt lat="44.31399" lon="3.00562">
        <ele>681</ele>
        <time>2013-04-21T11:23:59Z</time>
      </trkpt>
      <trkpt lat="44.31403" lon="3.00566">
        <ele>681</ele>
        <time>2013-04-21T11:24:04Z</time>
      </trkpt>
      <trkpt lat="44.31409" lon="3.00567">
        <ele>681</ele>
        <time>2013-04-21T11:24:08Z</time>
      </trkpt>
      <trkpt lat="44.31414" lon="3.00567">
        <ele>681</ele>
        <time>2013-04-21T11:24:11Z</time>
      </trkpt>
      <trkpt lat="44.31424" lon="3.00566">
        <ele>682</ele>
        <time>2013-04-21T11:24:18Z</time>
      </trkpt>
      <trkpt lat="44.31429" lon="3.00566">
        <ele>681</ele>
        <time>2013-04-21T11:24:22Z</time>
      </trkpt>
      <trkpt lat="44.31433" lon="3.00566">
        <ele>681</ele>
        <time>2013-04-21T11:24:26Z</time>
      </trkpt>
      <trkpt lat="44.31442" lon="3.00567">
        <ele>680</ele>
        <time>2013-04-21T11:24:33Z</time>
      </trkpt>
      <trkpt lat="44.31448" lon="3.00568">
        <ele>679</ele>
        <time>2013-04-21T11:24:37Z</time>
      </trkpt>
      <trkpt lat="44.31458" lon="3.00566">
        <ele>678</ele>
        <time>2013-04-21T11:24:42Z</time>
      </trkpt>
      <trkpt lat="44.31464" lon="3.00567">
        <ele>678</ele>
        <time>2013-04-21T11:24:45Z</time>
      </trkpt>
      <trkpt lat="44.31468" lon="3.00568">
        <ele>678</ele>
        <time>2013-04-21T11:24:47Z</time>
      </trkpt>
      <trkpt lat="44.31478" lon="3.00571">
        <ele>677</ele>
        <time>2013-04-21T11:24:52Z</time>
      </trkpt>
      <trkpt lat="44.3149" lon="3.00577">
        <ele>676</ele>
        <time>2013-04-21T11:24:56Z</time>
      </trkpt>
      <trkpt lat="44.31501" lon="3.00579">
        <ele>676</ele>
        <time>2013-04-21T11:24:59Z</time>
      </trkpt>
      <trkpt lat="44.31512" lon="3.00582">
        <ele>675</ele>
        <time>2013-04-21T11:25:02Z</time>
      </trkpt>
      <trkpt lat="44.31523" lon="3.00585">
        <ele>675</ele>
        <time>2013-04-21T11:25:04Z</time>
      </trkpt>
      <trkpt lat="44.31533" lon="3.00587">
        <ele>674</ele>
        <time>2013-04-21T11:25:06Z</time>
      </trkpt>
      <trkpt lat="44.31545" lon="3.00592">
        <ele>673</ele>
        <time>2013-04-21T11:25:09Z</time>
      </trkpt>
      <trkpt lat="44.31556" lon="3.00593">
        <ele>672</ele>
        <time>2013-04-21T11:25:11Z</time>
      </trkpt>
      <trkpt lat="44.31568" lon="3.00595">
        <ele>672</ele>
        <time>2013-04-21T11:25:13Z</time>
      </trkpt>
      <trkpt lat="44.31578" lon="3.00598">
        <ele>670</ele>
        <time>2013-04-21T11:25:15Z</time>
      </trkpt>
      <trkpt lat="44.3159" lon="3.00603">
        <ele>669</ele>
        <time>2013-04-21T11:25:18Z</time>
      </trkpt>
      <trkpt lat="44.316" lon="3.00605">
        <ele>667</ele>
        <time>2013-04-21T11:25:20Z</time>
      </trkpt>
      <trkpt lat="44.31609" lon="3.00607">
        <ele>666</ele>
        <time>2013-04-21T11:25:22Z</time>
      </trkpt>
      <trkpt lat="44.3162" lon="3.00607">
        <ele>664</ele>
        <time>2013-04-21T11:25:24Z</time>
      </trkpt>
      <trkpt lat="44.31629" lon="3.00607">
        <ele>664</ele>
        <time>2013-04-21T11:25:26Z</time>
      </trkpt>
      <trkpt lat="44.3164" lon="3.00607">
        <ele>663</ele>
        <time>2013-04-21T11:25:29Z</time>
      </trkpt>
      <trkpt lat="44.31653" lon="3.00605">
        <ele>663</ele>
        <time>2013-04-21T11:25:32Z</time>
      </trkpt>
      <trkpt lat="44.31664" lon="3.00603">
        <ele>663</ele>
        <time>2013-04-21T11:25:34Z</time>
      </trkpt>
      <trkpt lat="44.31678" lon="3.00602">
        <ele>664</ele>
        <time>2013-04-21T11:25:37Z</time>
      </trkpt>
      <trkpt lat="44.31691" lon="3.00599">
        <ele>665</ele>
        <time>2013-04-21T11:25:39Z</time>
      </trkpt>
      <trkpt lat="44.317" lon="3.00598">
        <ele>666</ele>
        <time>2013-04-21T11:25:41Z</time>
      </trkpt>
      <trkpt lat="44.3171" lon="3.00597">
        <ele>666</ele>
        <time>2013-04-21T11:25:43Z</time>
      </trkpt>
      <trkpt lat="44.3172" lon="3.00596">
        <ele>666</ele>
        <time>2013-04-21T11:25:45Z</time>
      </trkpt>
      <trkpt lat="44.3173" lon="3.00594">
        <ele>666</ele>
        <time>2013-04-21T11:25:47Z</time>
      </trkpt>
      <trkpt lat="44.31742" lon="3.00592">
        <ele>667</ele>
        <time>2013-04-21T11:25:49Z</time>
      </trkpt>
      <trkpt lat="44.31754" lon="3.0059">
        <ele>667</ele>
        <time>2013-04-21T11:25:51Z</time>
      </trkpt>
      <trkpt lat="44.31766" lon="3.00587">
        <ele>666</ele>
        <time>2013-04-21T11:25:53Z</time>
      </trkpt>
      <trkpt lat="44.31777" lon="3.00585">
        <ele>666</ele>
        <time>2013-04-21T11:25:55Z</time>
      </trkpt>
      <trkpt lat="44.31787" lon="3.00585">
        <ele>664</ele>
        <time>2013-04-21T11:25:57Z</time>
      </trkpt>
      <trkpt lat="44.31802" lon="3.00585">
        <ele>664</ele>
        <time>2013-04-21T11:26:00Z</time>
      </trkpt>
      <trkpt lat="44.31814" lon="3.00583">
        <ele>664</ele>
        <time>2013-04-21T11:26:02Z</time>
      </trkpt>
      <trkpt lat="44.31827" lon="3.00581">
        <ele>664</ele>
        <time>2013-04-21T11:26:04Z</time>
      </trkpt>
      <trkpt lat="44.31843" lon="3.00578">
        <ele>664</ele>
        <time>2013-04-21T11:26:06Z</time>
      </trkpt>
      <trkpt lat="44.31854" lon="3.00575">
        <ele>665</ele>
        <time>2013-04-21T11:26:07Z</time>
      </trkpt>
      <trkpt lat="44.31862" lon="3.00574">
        <ele>665</ele>
        <time>2013-04-21T11:26:09Z</time>
      </trkpt>
      <trkpt lat="44.31875" lon="3.00576">
        <ele>665</ele>
        <time>2013-04-21T11:26:12Z</time>
      </trkpt>
      <trkpt lat="44.31886" lon="3.00574">
        <ele>667</ele>
        <time>2013-04-21T11:26:15Z</time>
      </trkpt>
      <trkpt lat="44.31894" lon="3.00571">
        <ele>668</ele>
        <time>2013-04-21T11:26:18Z</time>
      </trkpt>
      <trkpt lat="44.31901" lon="3.00569">
        <ele>670</ele>
        <time>2013-04-21T11:26:22Z</time>
      </trkpt>
      <trkpt lat="44.31906" lon="3.00569">
        <ele>670</ele>
        <time>2013-04-21T11:26:26Z</time>
      </trkpt>
      <trkpt lat="44.31916" lon="3.00569">
        <ele>669</ele>
        <time>2013-04-21T11:26:32Z</time>
      </trkpt>
      <trkpt lat="44.31925" lon="3.00569">
        <ele>668</ele>
        <time>2013-04-21T11:26:37Z</time>
      </trkpt>
      <trkpt lat="44.3193" lon="3.0057">
        <ele>667</ele>
        <time>2013-04-21T11:26:41Z</time>
      </trkpt>
      <trkpt lat="44.31939" lon="3.00574">
        <ele>665</ele>
        <time>2013-04-21T11:26:50Z</time>
      </trkpt>
      <trkpt lat="44.31948" lon="3.0058">
        <ele>664</ele>
        <time>2013-04-21T11:26:58Z</time>
      </trkpt>
      <trkpt lat="44.31958" lon="3.00583">
        <ele>663</ele>
        <time>2013-04-21T11:27:06Z</time>
      </trkpt>
      <trkpt lat="44.31969" lon="3.00583">
        <ele>664</ele>
        <time>2013-04-21T11:27:11Z</time>
      </trkpt>
      <trkpt lat="44.31979" lon="3.00582">
        <ele>664</ele>
        <time>2013-04-21T11:27:19Z</time>
      </trkpt>
      <trkpt lat="44.31987" lon="3.00589">
        <ele>665</ele>
        <time>2013-04-21T11:27:22Z</time>
      </trkpt>
      <trkpt lat="44.31993" lon="3.006">
        <ele>666</ele>
        <time>2013-04-21T11:27:28Z</time>
      </trkpt>
      <trkpt lat="44.31998" lon="3.00612">
        <ele>666</ele>
        <time>2013-04-21T11:27:34Z</time>
      </trkpt>
      <trkpt lat="44.32006" lon="3.00619">
        <ele>665</ele>
        <time>2013-04-21T11:27:41Z</time>
      </trkpt>
      <trkpt lat="44.32008" lon="3.00622">
        <ele>664</ele>
        <time>2013-04-21T11:27:49Z</time>
      </trkpt>
      <trkpt lat="44.32012" lon="3.00626">
        <ele>665</ele>
        <time>2013-04-21T11:27:53Z</time>
      </trkpt>
      <trkpt lat="44.32019" lon="3.00635">
        <ele>664</ele>
        <time>2013-04-21T11:28:01Z</time>
      </trkpt>
      <trkpt lat="44.32024" lon="3.00639">
        <ele>663</ele>
        <time>2013-04-21T11:28:04Z</time>
      </trkpt>
      <trkpt lat="44.32027" lon="3.00645">
        <ele>663</ele>
        <time>2013-04-21T11:28:08Z</time>
      </trkpt>
      <trkpt lat="44.32035" lon="3.00651">
        <ele>663</ele>
        <time>2013-04-21T11:28:14Z</time>
      </trkpt>
      <trkpt lat="44.32039" lon="3.00655">
        <ele>663</ele>
        <time>2013-04-21T11:28:17Z</time>
      </trkpt>
      <trkpt lat="44.32044" lon="3.00657">
        <ele>664</ele>
        <time>2013-04-21T11:28:22Z</time>
      </trkpt>
      <trkpt lat="44.3205" lon="3.00665">
        <ele>664</ele>
        <time>2013-04-21T11:28:28Z</time>
      </trkpt>
      <trkpt lat="44.32054" lon="3.0067">
        <ele>664</ele>
        <time>2013-04-21T11:28:31Z</time>
      </trkpt>
      <trkpt lat="44.3206" lon="3.00681">
        <ele>663</ele>
        <time>2013-04-21T11:28:37Z</time>
      </trkpt>
      <trkpt lat="44.32064" lon="3.00694">
        <ele>663</ele>
        <time>2013-04-21T11:28:43Z</time>
      </trkpt>
      <trkpt lat="44.32067" lon="3.00703">
        <ele>664</ele>
        <time>2013-04-21T11:28:47Z</time>
      </trkpt>
      <trkpt lat="44.32068" lon="3.00711">
        <ele>665</ele>
        <time>2013-04-21T11:28:50Z</time>
      </trkpt>
      <trkpt lat="44.3207" lon="3.00717">
        <ele>665</ele>
        <time>2013-04-21T11:28:53Z</time>
      </trkpt>
      <trkpt lat="44.32072" lon="3.00724">
        <ele>665</ele>
        <time>2013-04-21T11:28:57Z</time>
      </trkpt>
      <trkpt lat="44.32075" lon="3.0073">
        <ele>665</ele>
        <time>2013-04-21T11:29:01Z</time>
      </trkpt>
      <trkpt lat="44.32076" lon="3.00737">
        <ele>665</ele>
        <time>2013-04-21T11:29:05Z</time>
      </trkpt>
      <trkpt lat="44.32079" lon="3.00749">
        <ele>666</ele>
        <time>2013-04-21T11:29:12Z</time>
      </trkpt>
      <trkpt lat="44.32081" lon="3.00757">
        <ele>666</ele>
        <time>2013-04-21T11:29:14Z</time>
      </trkpt>
      <trkpt lat="44.32083" lon="3.00764">
        <ele>666</ele>
        <time>2013-04-21T11:29:18Z</time>
      </trkpt>
      <trkpt lat="44.32085" lon="3.00771">
        <ele>666</ele>
        <time>2013-04-21T11:29:22Z</time>
      </trkpt>
      <trkpt lat="44.32088" lon="3.00779">
        <ele>666</ele>
        <time>2013-04-21T11:29:26Z</time>
      </trkpt>
      <trkpt lat="44.32092" lon="3.00791">
        <ele>666</ele>
        <time>2013-04-21T11:29:32Z</time>
      </trkpt>
      <trkpt lat="44.32094" lon="3.00796">
        <ele>666</ele>
        <time>2013-04-21T11:29:35Z</time>
      </trkpt>
      <trkpt lat="44.32097" lon="3.00803">
        <ele>666</ele>
        <time>2013-04-21T11:29:38Z</time>
      </trkpt>
      <trkpt lat="44.32099" lon="3.00811">
        <ele>666</ele>
        <time>2013-04-21T11:29:42Z</time>
      </trkpt>
      <trkpt lat="44.32102" lon="3.00818">
        <ele>666</ele>
        <time>2013-04-21T11:29:45Z</time>
      </trkpt>
      <trkpt lat="44.32106" lon="3.00825">
        <ele>666</ele>
        <time>2013-04-21T11:29:50Z</time>
      </trkpt>
      <trkpt lat="44.32109" lon="3.0083">
        <ele>667</ele>
        <time>2013-04-21T11:29:54Z</time>
      </trkpt>
      <trkpt lat="44.32111" lon="3.00836">
        <ele>668</ele>
        <time>2013-04-21T11:29:57Z</time>
      </trkpt>
      <trkpt lat="44.32118" lon="3.00841">
        <ele>668</ele>
        <time>2013-04-21T11:30:02Z</time>
      </trkpt>
      <trkpt lat="44.32122" lon="3.00845">
        <ele>668</ele>
        <time>2013-04-21T11:30:05Z</time>
      </trkpt>
      <trkpt lat="44.32128" lon="3.00851">
        <ele>667</ele>
        <time>2013-04-21T11:30:10Z</time>
      </trkpt>
      <trkpt lat="44.32131" lon="3.00858">
        <ele>668</ele>
        <time>2013-04-21T11:30:15Z</time>
      </trkpt>
      <trkpt lat="44.32133" lon="3.00865">
        <ele>669</ele>
        <time>2013-04-21T11:30:20Z</time>
      </trkpt>
      <trkpt lat="44.32139" lon="3.00872">
        <ele>671</ele>
        <time>2013-04-21T11:30:26Z</time>
      </trkpt>
      <trkpt lat="44.32144" lon="3.00875">
        <ele>672</ele>
        <time>2013-04-21T11:30:29Z</time>
      </trkpt>
      <trkpt lat="44.32149" lon="3.0088">
        <ele>672</ele>
        <time>2013-04-21T11:30:33Z</time>
      </trkpt>
      <trkpt lat="44.32153" lon="3.00883">
        <ele>673</ele>
        <time>2013-04-21T11:30:36Z</time>
      </trkpt>
      <trkpt lat="44.32157" lon="3.00887">
        <ele>674</ele>
        <time>2013-04-21T11:30:39Z</time>
      </trkpt>
      <trkpt lat="44.3216" lon="3.00892">
        <ele>675</ele>
        <time>2013-04-21T11:30:44Z</time>
      </trkpt>
      <trkpt lat="44.32165" lon="3.00898">
        <ele>676</ele>
        <time>2013-04-21T11:30:48Z</time>
      </trkpt>
      <trkpt lat="44.32168" lon="3.00903">
        <ele>677</ele>
        <time>2013-04-21T11:30:51Z</time>
      </trkpt>
      <trkpt lat="44.32173" lon="3.00912">
        <ele>677</ele>
        <time>2013-04-21T11:30:57Z</time>
      </trkpt>
      <trkpt lat="44.32176" lon="3.00919">
        <ele>678</ele>
        <time>2013-04-21T11:31:00Z</time>
      </trkpt>
      <trkpt lat="44.3218" lon="3.00925">
        <ele>678</ele>
        <time>2013-04-21T11:31:03Z</time>
      </trkpt>
      <trkpt lat="44.32182" lon="3.00931">
        <ele>679</ele>
        <time>2013-04-21T11:31:06Z</time>
      </trkpt>
      <trkpt lat="44.32185" lon="3.00937">
        <ele>680</ele>
        <time>2013-04-21T11:31:10Z</time>
      </trkpt>
      <trkpt lat="44.32188" lon="3.00945">
        <ele>681</ele>
        <time>2013-04-21T11:31:14Z</time>
      </trkpt>
      <trkpt lat="44.3219" lon="3.00952">
        <ele>683</ele>
        <time>2013-04-21T11:31:18Z</time>
      </trkpt>
      <trkpt lat="44.32194" lon="3.00956">
        <ele>685</ele>
        <time>2013-04-21T11:31:24Z</time>
      </trkpt>
      <trkpt lat="44.32198" lon="3.00962">
        <ele>685</ele>
        <time>2013-04-21T11:31:29Z</time>
      </trkpt>
      <trkpt lat="44.32203" lon="3.00967">
        <ele>687</ele>
        <time>2013-04-21T11:31:34Z</time>
      </trkpt>
      <trkpt lat="44.32209" lon="3.00975">
        <ele>688</ele>
        <time>2013-04-21T11:31:39Z</time>
      </trkpt>
      <trkpt lat="44.32214" lon="3.00982">
        <ele>689</ele>
        <time>2013-04-21T11:31:44Z</time>
      </trkpt>
      <trkpt lat="44.32216" lon="3.00988">
        <ele>690</ele>
        <time>2013-04-21T11:31:47Z</time>
      </trkpt>
      <trkpt lat="44.3222" lon="3.00994">
        <ele>690</ele>
        <time>2013-04-21T11:31:51Z</time>
      </trkpt>
      <trkpt lat="44.32222" lon="3.01">
        <ele>691</ele>
        <time>2013-04-21T11:31:55Z</time>
      </trkpt>
      <trkpt lat="44.32225" lon="3.01006">
        <ele>692</ele>
        <time>2013-04-21T11:31:59Z</time>
      </trkpt>
      <trkpt lat="44.32227" lon="3.01012">
        <ele>692</ele>
        <time>2013-04-21T11:32:02Z</time>
      </trkpt>
      <trkpt lat="44.3223" lon="3.01018">
        <ele>693</ele>
        <time>2013-04-21T11:32:06Z</time>
      </trkpt>
      <trkpt lat="44.32234" lon="3.01023">
        <ele>694</ele>
        <time>2013-04-21T11:32:11Z</time>
      </trkpt>
      <trkpt lat="44.32237" lon="3.01028">
        <ele>695</ele>
        <time>2013-04-21T11:32:15Z</time>
      </trkpt>
      <trkpt lat="44.32241" lon="3.01033">
        <ele>696</ele>
        <time>2013-04-21T11:32:19Z</time>
      </trkpt>
      <trkpt lat="44.32245" lon="3.01038">
        <ele>697</ele>
        <time>2013-04-21T11:32:24Z</time>
      </trkpt>
      <trkpt lat="44.32249" lon="3.01043">
        <ele>698</ele>
        <time>2013-04-21T11:32:28Z</time>
      </trkpt>
      <trkpt lat="44.32252" lon="3.01048">
        <ele>699</ele>
        <time>2013-04-21T11:32:34Z</time>
      </trkpt>
      <trkpt lat="44.3226" lon="3.01052">
        <ele>702</ele>
        <time>2013-04-21T11:32:41Z</time>
      </trkpt>
      <trkpt lat="44.32265" lon="3.01054">
        <ele>703</ele>
        <time>2013-04-21T11:32:43Z</time>
      </trkpt>
      <trkpt lat="44.3227" lon="3.01056">
        <ele>705</ele>
        <time>2013-04-21T11:32:47Z</time>
      </trkpt>
      <trkpt lat="44.32275" lon="3.01059">
        <ele>706</ele>
        <time>2013-04-21T11:32:51Z</time>
      </trkpt>
      <trkpt lat="44.32279" lon="3.01063">
        <ele>707</ele>
        <time>2013-04-21T11:32:55Z</time>
      </trkpt>
      <trkpt lat="44.32282" lon="3.01068">
        <ele>708</ele>
        <time>2013-04-21T11:32:58Z</time>
      </trkpt>
      <trkpt lat="44.32287" lon="3.01072">
        <ele>708</ele>
        <time>2013-04-21T11:33:02Z</time>
      </trkpt>
      <trkpt lat="44.32291" lon="3.01076">
        <ele>709</ele>
        <time>2013-04-21T11:33:05Z</time>
      </trkpt>
      <trkpt lat="44.32296" lon="3.01079">
        <ele>710</ele>
        <time>2013-04-21T11:33:09Z</time>
      </trkpt>
      <trkpt lat="44.32302" lon="3.01086">
        <ele>711</ele>
        <time>2013-04-21T11:33:17Z</time>
      </trkpt>
      <trkpt lat="44.32306" lon="3.0109">
        <ele>712</ele>
        <time>2013-04-21T11:33:21Z</time>
      </trkpt>
      <trkpt lat="44.32312" lon="3.01099">
        <ele>713</ele>
        <time>2013-04-21T11:33:31Z</time>
      </trkpt>
      <trkpt lat="44.32315" lon="3.01113">
        <ele>713</ele>
        <time>2013-04-21T11:33:38Z</time>
      </trkpt>
      <trkpt lat="44.32318" lon="3.01126">
        <ele>715</ele>
        <time>2013-04-21T11:33:44Z</time>
      </trkpt>
      <trkpt lat="44.32319" lon="3.0114">
        <ele>718</ele>
        <time>2013-04-21T11:33:51Z</time>
      </trkpt>
      <trkpt lat="44.32319" lon="3.01151">
        <ele>719</ele>
        <time>2013-04-21T11:33:56Z</time>
      </trkpt>
      <trkpt lat="44.32318" lon="3.01164">
        <ele>719</ele>
        <time>2013-04-21T11:34:03Z</time>
      </trkpt>
      <trkpt lat="44.32325" lon="3.01163">
        <ele>722</ele>
        <time>2013-04-21T11:34:30Z</time>
      </trkpt>
      <trkpt lat="44.3233" lon="3.01152">
        <ele>722</ele>
        <time>2013-04-21T11:34:36Z</time>
      </trkpt>
      <trkpt lat="44.32333" lon="3.01146">
        <ele>723</ele>
        <time>2013-04-21T11:34:39Z</time>
      </trkpt>
      <trkpt lat="44.32339" lon="3.01137">
        <ele>725</ele>
        <time>2013-04-21T11:34:48Z</time>
      </trkpt>
      <trkpt lat="44.32345" lon="3.01124">
        <ele>726</ele>
        <time>2013-04-21T11:34:58Z</time>
      </trkpt>
      <trkpt lat="44.32348" lon="3.01112">
        <ele>727</ele>
        <time>2013-04-21T11:35:03Z</time>
      </trkpt>
      <trkpt lat="44.32354" lon="3.01102">
        <ele>727</ele>
        <time>2013-04-21T11:35:12Z</time>
      </trkpt>
      <trkpt lat="44.32356" lon="3.01088">
        <ele>727</ele>
        <time>2013-04-21T11:35:18Z</time>
      </trkpt>
      <trkpt lat="44.32362" lon="3.01082">
        <ele>730</ele>
        <time>2013-04-21T11:35:33Z</time>
      </trkpt>
      <trkpt lat="44.32364" lon="3.01076">
        <ele>732</ele>
        <time>2013-04-21T11:35:38Z</time>
      </trkpt>
      <trkpt lat="44.32367" lon="3.0107">
        <ele>733</ele>
        <time>2013-04-21T11:35:42Z</time>
      </trkpt>
      <trkpt lat="44.32369" lon="3.01064">
        <ele>735</ele>
        <time>2013-04-21T11:35:46Z</time>
      </trkpt>
      <trkpt lat="44.32372" lon="3.01058">
        <ele>738</ele>
        <time>2013-04-21T11:35:51Z</time>
      </trkpt>
      <trkpt lat="44.32376" lon="3.01054">
        <ele>737</ele>
        <time>2013-04-21T11:35:56Z</time>
      </trkpt>
      <trkpt lat="44.32381" lon="3.01052">
        <ele>738</ele>
        <time>2013-04-21T11:36:02Z</time>
      </trkpt>
      <trkpt lat="44.32385" lon="3.01049">
        <ele>738</ele>
        <time>2013-04-21T11:36:07Z</time>
      </trkpt>
      <trkpt lat="44.32394" lon="3.01042">
        <ele>739</ele>
        <time>2013-04-21T11:36:16Z</time>
      </trkpt>
      <trkpt lat="44.32403" lon="3.01035">
        <ele>741</ele>
        <time>2013-04-21T11:36:27Z</time>
      </trkpt>
      <trkpt lat="44.32406" lon="3.01024">
        <ele>743</ele>
        <time>2013-04-21T11:36:33Z</time>
      </trkpt>
      <trkpt lat="44.32411" lon="3.01012">
        <ele>744</ele>
        <time>2013-04-21T11:36:40Z</time>
      </trkpt>
      <trkpt lat="44.32415" lon="3.00999">
        <ele>747</ele>
        <time>2013-04-21T11:36:48Z</time>
      </trkpt>
      <trkpt lat="44.32417" lon="3.00992">
        <ele>747</ele>
        <time>2013-04-21T11:36:51Z</time>
      </trkpt>
      <trkpt lat="44.3242" lon="3.00985">
        <ele>748</ele>
        <time>2013-04-21T11:36:54Z</time>
      </trkpt>
      <trkpt lat="44.32421" lon="3.00978">
        <ele>751</ele>
        <time>2013-04-21T11:36:59Z</time>
      </trkpt>
      <trkpt lat="44.32423" lon="3.00971">
        <ele>752</ele>
        <time>2013-04-21T11:37:05Z</time>
      </trkpt>
      <trkpt lat="44.32424" lon="3.00964">
        <ele>752</ele>
        <time>2013-04-21T11:37:09Z</time>
      </trkpt>
      <trkpt lat="44.32427" lon="3.00957">
        <ele>753</ele>
        <time>2013-04-21T11:37:13Z</time>
      </trkpt>
      <trkpt lat="44.32429" lon="3.00951">
        <ele>755</ele>
        <time>2013-04-21T11:37:17Z</time>
      </trkpt>
      <trkpt lat="44.32435" lon="3.00941">
        <ele>757</ele>
        <time>2013-04-21T11:37:25Z</time>
      </trkpt>
      <trkpt lat="44.32437" lon="3.00935">
        <ele>758</ele>
        <time>2013-04-21T11:37:28Z</time>
      </trkpt>
      <trkpt lat="44.32438" lon="3.00928">
        <ele>759</ele>
        <time>2013-04-21T11:37:32Z</time>
      </trkpt>
      <trkpt lat="44.3244" lon="3.0092">
        <ele>760</ele>
        <time>2013-04-21T11:37:38Z</time>
      </trkpt>
      <trkpt lat="44.3244" lon="3.00913">
        <ele>760</ele>
        <time>2013-04-21T11:37:43Z</time>
      </trkpt>
      <trkpt lat="44.32441" lon="3.00905">
        <ele>760</ele>
        <time>2013-04-21T11:37:47Z</time>
      </trkpt>
      <trkpt lat="44.32442" lon="3.00897">
        <ele>761</ele>
        <time>2013-04-21T11:37:53Z</time>
      </trkpt>
      <trkpt lat="44.32443" lon="3.00889">
        <ele>762</ele>
        <time>2013-04-21T11:37:58Z</time>
      </trkpt>
      <trkpt lat="44.32444" lon="3.00881">
        <ele>764</ele>
        <time>2013-04-21T11:38:02Z</time>
      </trkpt>
      <trkpt lat="44.32444" lon="3.00873">
        <ele>764</ele>
        <time>2013-04-21T11:38:06Z</time>
      </trkpt>
      <trkpt lat="44.32444" lon="3.00866">
        <ele>765</ele>
        <time>2013-04-21T11:38:10Z</time>
      </trkpt>
      <trkpt lat="44.32443" lon="3.00859">
        <ele>765</ele>
        <time>2013-04-21T11:38:14Z</time>
      </trkpt>
      <trkpt lat="44.32444" lon="3.0085">
        <ele>765</ele>
        <time>2013-04-21T11:38:19Z</time>
      </trkpt>
      <trkpt lat="44.32446" lon="3.00843">
        <ele>764</ele>
        <time>2013-04-21T11:38:23Z</time>
      </trkpt>
      <trkpt lat="44.32447" lon="3.00836">
        <ele>764</ele>
        <time>2013-04-21T11:38:27Z</time>
      </trkpt>
      <trkpt lat="44.32448" lon="3.00829">
        <ele>763</ele>
        <time>2013-04-21T11:38:30Z</time>
      </trkpt>
      <trkpt lat="44.32449" lon="3.00822">
        <ele>763</ele>
        <time>2013-04-21T11:38:34Z</time>
      </trkpt>
      <trkpt lat="44.32453" lon="3.00814">
        <ele>763</ele>
        <time>2013-04-21T11:38:39Z</time>
      </trkpt>
      <trkpt lat="44.32455" lon="3.00808">
        <ele>762</ele>
        <time>2013-04-21T11:38:42Z</time>
      </trkpt>
      <trkpt lat="44.32457" lon="3.00802">
        <ele>764</ele>
        <time>2013-04-21T11:38:47Z</time>
      </trkpt>
      <trkpt lat="44.32458" lon="3.00813">
        <ele>765</ele>
        <time>2013-04-21T11:38:57Z</time>
      </trkpt>
      <trkpt lat="44.32456" lon="3.00821">
        <ele>766</ele>
        <time>2013-04-21T11:39:01Z</time>
      </trkpt>
      <trkpt lat="44.32456" lon="3.00829">
        <ele>768</ele>
        <time>2013-04-21T11:39:05Z</time>
      </trkpt>
      <trkpt lat="44.32457" lon="3.00836">
        <ele>769</ele>
        <time>2013-04-21T11:39:08Z</time>
      </trkpt>
      <trkpt lat="44.32458" lon="3.00844">
        <ele>771</ele>
        <time>2013-04-21T11:39:12Z</time>
      </trkpt>
      <trkpt lat="44.3246" lon="3.0085">
        <ele>771</ele>
        <time>2013-04-21T11:39:15Z</time>
      </trkpt>
      <trkpt lat="44.32463" lon="3.00858">
        <ele>772</ele>
        <time>2013-04-21T11:39:20Z</time>
      </trkpt>
      <trkpt lat="44.32464" lon="3.00864">
        <ele>773</ele>
        <time>2013-04-21T11:39:23Z</time>
      </trkpt>
      <trkpt lat="44.32465" lon="3.00872">
        <ele>773</ele>
        <time>2013-04-21T11:39:27Z</time>
      </trkpt>
      <trkpt lat="44.32466" lon="3.00879">
        <ele>774</ele>
        <time>2013-04-21T11:39:32Z</time>
      </trkpt>
      <trkpt lat="44.32466" lon="3.00887">
        <ele>775</ele>
        <time>2013-04-21T11:39:36Z</time>
      </trkpt>
      <trkpt lat="44.32468" lon="3.00895">
        <ele>776</ele>
        <time>2013-04-21T11:39:40Z</time>
      </trkpt>
      <trkpt lat="44.3247" lon="3.00901">
        <ele>776</ele>
        <time>2013-04-21T11:39:43Z</time>
      </trkpt>
      <trkpt lat="44.32473" lon="3.00906">
        <ele>777</ele>
        <time>2013-04-21T11:39:46Z</time>
      </trkpt>
      <trkpt lat="44.32476" lon="3.00912">
        <ele>778</ele>
        <time>2013-04-21T11:39:52Z</time>
      </trkpt>
      <trkpt lat="44.3248" lon="3.00917">
        <ele>780</ele>
        <time>2013-04-21T11:39:57Z</time>
      </trkpt>
      <trkpt lat="44.32484" lon="3.00918">
        <ele>782</ele>
        <time>2013-04-21T11:40:02Z</time>
      </trkpt>
      <trkpt lat="44.32489" lon="3.00917">
        <ele>782</ele>
        <time>2013-04-21T11:40:05Z</time>
      </trkpt>
      <trkpt lat="44.3249" lon="3.0091">
        <ele>784</ele>
        <time>2013-04-21T11:40:11Z</time>
      </trkpt>
      <trkpt lat="44.32488" lon="3.00902">
        <ele>785</ele>
        <time>2013-04-21T11:40:15Z</time>
      </trkpt>
      <trkpt lat="44.32489" lon="3.00895">
        <ele>786</ele>
        <time>2013-04-21T11:40:18Z</time>
      </trkpt>
      <trkpt lat="44.32489" lon="3.00889">
        <ele>786</ele>
        <time>2013-04-21T11:40:21Z</time>
      </trkpt>
      <trkpt lat="44.3249" lon="3.0088">
        <ele>786</ele>
        <time>2013-04-21T11:40:25Z</time>
      </trkpt>
      <trkpt lat="44.32491" lon="3.00872">
        <ele>786</ele>
        <time>2013-04-21T11:40:29Z</time>
      </trkpt>
      <trkpt lat="44.32493" lon="3.00861">
        <ele>786</ele>
        <time>2013-04-21T11:40:35Z</time>
      </trkpt>
      <trkpt lat="44.32494" lon="3.00854">
        <ele>786</ele>
        <time>2013-04-21T11:40:38Z</time>
      </trkpt>
      <trkpt lat="44.32495" lon="3.00846">
        <ele>787</ele>
        <time>2013-04-21T11:40:41Z</time>
      </trkpt>
      <trkpt lat="44.32496" lon="3.0084">
        <ele>788</ele>
        <time>2013-04-21T11:40:43Z</time>
      </trkpt>
      <trkpt lat="44.32497" lon="3.00833">
        <ele>789</ele>
        <time>2013-04-21T11:40:46Z</time>
      </trkpt>
      <trkpt lat="44.32498" lon="3.00826">
        <ele>790</ele>
        <time>2013-04-21T11:40:50Z</time>
      </trkpt>
      <trkpt lat="44.32499" lon="3.00819">
        <ele>791</ele>
        <time>2013-04-21T11:40:54Z</time>
      </trkpt>
      <trkpt lat="44.32501" lon="3.00813">
        <ele>791</ele>
        <time>2013-04-21T11:40:57Z</time>
      </trkpt>
      <trkpt lat="44.32502" lon="3.00805">
        <ele>791</ele>
        <time>2013-04-21T11:41:01Z</time>
      </trkpt>
      <trkpt lat="44.32503" lon="3.00797">
        <ele>790</ele>
        <time>2013-04-21T11:41:05Z</time>
      </trkpt>
      <trkpt lat="44.32504" lon="3.00789">
        <ele>790</ele>
        <time>2013-04-21T11:41:09Z</time>
      </trkpt>
      <trkpt lat="44.32506" lon="3.00781">
        <ele>790</ele>
        <time>2013-04-21T11:41:13Z</time>
      </trkpt>
      <trkpt lat="44.32508" lon="3.00775">
        <ele>790</ele>
        <time>2013-04-21T11:41:16Z</time>
      </trkpt>
      <trkpt lat="44.32511" lon="3.00767">
        <ele>789</ele>
        <time>2013-04-21T11:41:20Z</time>
      </trkpt>
      <trkpt lat="44.32514" lon="3.00756">
        <ele>789</ele>
        <time>2013-04-21T11:41:25Z</time>
      </trkpt>
      <trkpt lat="44.32517" lon="3.0075">
        <ele>790</ele>
        <time>2013-04-21T11:41:28Z</time>
      </trkpt>
      <trkpt lat="44.32519" lon="3.00742">
        <ele>790</ele>
        <time>2013-04-21T11:41:31Z</time>
      </trkpt>
      <trkpt lat="44.32521" lon="3.00735">
        <ele>790</ele>
        <time>2013-04-21T11:41:35Z</time>
      </trkpt>
      <trkpt lat="44.32523" lon="3.00729">
        <ele>791</ele>
        <time>2013-04-21T11:41:38Z</time>
      </trkpt>
      <trkpt lat="44.32526" lon="3.00721">
        <ele>792</ele>
        <time>2013-04-21T11:41:42Z</time>
      </trkpt>
      <trkpt lat="44.32528" lon="3.00715">
        <ele>793</ele>
        <time>2013-04-21T11:41:45Z</time>
      </trkpt>
      <trkpt lat="44.3253" lon="3.00708">
        <ele>794</ele>
        <time>2013-04-21T11:41:49Z</time>
      </trkpt>
      <trkpt lat="44.32532" lon="3.00702">
        <ele>795</ele>
        <time>2013-04-21T11:41:53Z</time>
      </trkpt>
      <trkpt lat="44.32534" lon="3.00695">
        <ele>795</ele>
        <time>2013-04-21T11:41:57Z</time>
      </trkpt>
      <trkpt lat="44.32536" lon="3.00689">
        <ele>796</ele>
        <time>2013-04-21T11:42:00Z</time>
      </trkpt>
      <trkpt lat="44.32537" lon="3.00681">
        <ele>796</ele>
        <time>2013-04-21T11:42:04Z</time>
      </trkpt>
      <trkpt lat="44.32538" lon="3.00674">
        <ele>797</ele>
        <time>2013-04-21T11:42:06Z</time>
      </trkpt>
      <trkpt lat="44.32542" lon="3.00656">
        <ele>797</ele>
        <time>2013-04-21T11:42:09Z</time>
      </trkpt>
      <trkpt lat="44.32546" lon="3.00641">
        <ele>798</ele>
        <time>2013-04-21T11:42:11Z</time>
      </trkpt>
      <trkpt lat="44.3255" lon="3.00626">
        <ele>798</ele>
        <time>2013-04-21T11:42:13Z</time>
      </trkpt>
      <trkpt lat="44.32553" lon="3.00614">
        <ele>798</ele>
        <time>2013-04-21T11:42:15Z</time>
      </trkpt>
      <trkpt lat="44.32557" lon="3.006">
        <ele>799</ele>
        <time>2013-04-21T11:42:17Z</time>
      </trkpt>
      <trkpt lat="44.32561" lon="3.00585">
        <ele>799</ele>
        <time>2013-04-21T11:42:19Z</time>
      </trkpt>
      <trkpt lat="44.32564" lon="3.0057">
        <ele>799</ele>
        <time>2013-04-21T11:42:21Z</time>
      </trkpt>
      <trkpt lat="44.32568" lon="3.00554">
        <ele>799</ele>
        <time>2013-04-21T11:42:23Z</time>
      </trkpt>
      <trkpt lat="44.32571" lon="3.00539">
        <ele>799</ele>
        <time>2013-04-21T11:42:25Z</time>
      </trkpt>
      <trkpt lat="44.32576" lon="3.00526">
        <ele>799</ele>
        <time>2013-04-21T11:42:27Z</time>
      </trkpt>
      <trkpt lat="44.3258" lon="3.00512">
        <ele>799</ele>
        <time>2013-04-21T11:42:29Z</time>
      </trkpt>
      <trkpt lat="44.32583" lon="3.00497">
        <ele>798</ele>
        <time>2013-04-21T11:42:31Z</time>
      </trkpt>
      <trkpt lat="44.32589" lon="3.00482">
        <ele>798</ele>
        <time>2013-04-21T11:42:33Z</time>
      </trkpt>
      <trkpt lat="44.32595" lon="3.00467">
        <ele>799</ele>
        <time>2013-04-21T11:42:35Z</time>
      </trkpt>
      <trkpt lat="44.326" lon="3.00451">
        <ele>798</ele>
        <time>2013-04-21T11:42:37Z</time>
      </trkpt>
      <trkpt lat="44.32604" lon="3.00435">
        <ele>798</ele>
        <time>2013-04-21T11:42:39Z</time>
      </trkpt>
      <trkpt lat="44.32609" lon="3.00419">
        <ele>797</ele>
        <time>2013-04-21T11:42:41Z</time>
      </trkpt>
      <trkpt lat="44.32613" lon="3.00401">
        <ele>797</ele>
        <time>2013-04-21T11:42:43Z</time>
      </trkpt>
      <trkpt lat="44.32617" lon="3.00381">
        <ele>796</ele>
        <time>2013-04-21T11:42:45Z</time>
      </trkpt>
      <trkpt lat="44.3262" lon="3.00363">
        <ele>796</ele>
        <time>2013-04-21T11:42:47Z</time>
      </trkpt>
      <trkpt lat="44.32623" lon="3.00347">
        <ele>796</ele>
        <time>2013-04-21T11:42:49Z</time>
      </trkpt>
      <trkpt lat="44.32625" lon="3.00331">
        <ele>797</ele>
        <time>2013-04-21T11:42:51Z</time>
      </trkpt>
      <trkpt lat="44.32628" lon="3.00313">
        <ele>797</ele>
        <time>2013-04-21T11:42:53Z</time>
      </trkpt>
      <trkpt lat="44.32633" lon="3.00298">
        <ele>797</ele>
        <time>2013-04-21T11:42:55Z</time>
      </trkpt>
      <trkpt lat="44.32641" lon="3.00286">
        <ele>797</ele>
        <time>2013-04-21T11:42:57Z</time>
      </trkpt>
      <trkpt lat="44.32648" lon="3.00273">
        <ele>796</ele>
        <time>2013-04-21T11:42:59Z</time>
      </trkpt>
      <trkpt lat="44.32655" lon="3.00261">
        <ele>795</ele>
        <time>2013-04-21T11:43:01Z</time>
      </trkpt>
      <trkpt lat="44.32662" lon="3.00248">
        <ele>795</ele>
        <time>2013-04-21T11:43:03Z</time>
      </trkpt>
      <trkpt lat="44.32669" lon="3.00234">
        <ele>794</ele>
        <time>2013-04-21T11:43:05Z</time>
      </trkpt>
      <trkpt lat="44.32675" lon="3.0022">
        <ele>794</ele>
        <time>2013-04-21T11:43:07Z</time>
      </trkpt>
      <trkpt lat="44.32682" lon="3.00206">
        <ele>794</ele>
        <time>2013-04-21T11:43:09Z</time>
      </trkpt>
      <trkpt lat="44.32689" lon="3.00192">
        <ele>793</ele>
        <time>2013-04-21T11:43:11Z</time>
      </trkpt>
      <trkpt lat="44.32696" lon="3.00177">
        <ele>792</ele>
        <time>2013-04-21T11:43:13Z</time>
      </trkpt>
      <trkpt lat="44.32704" lon="3.00162">
        <ele>791</ele>
        <time>2013-04-21T11:43:15Z</time>
      </trkpt>
      <trkpt lat="44.32713" lon="3.00148">
        <ele>790</ele>
        <time>2013-04-21T11:43:17Z</time>
      </trkpt>
      <trkpt lat="44.32721" lon="3.00136">
        <ele>789</ele>
        <time>2013-04-21T11:43:19Z</time>
      </trkpt>
      <trkpt lat="44.3273" lon="3.00124">
        <ele>789</ele>
        <time>2013-04-21T11:43:21Z</time>
      </trkpt>
      <trkpt lat="44.32742" lon="3.00112">
        <ele>789</ele>
        <time>2013-04-21T11:43:23Z</time>
      </trkpt>
      <trkpt lat="44.32752" lon="3.00103">
        <ele>789</ele>
        <time>2013-04-21T11:43:25Z</time>
      </trkpt>
      <trkpt lat="44.32762" lon="3.00094">
        <ele>789</ele>
        <time>2013-04-21T11:43:27Z</time>
      </trkpt>
      <trkpt lat="44.32771" lon="3.00086">
        <ele>789</ele>
        <time>2013-04-21T11:43:29Z</time>
      </trkpt>
      <trkpt lat="44.3278" lon="3.00081">
        <ele>790</ele>
        <time>2013-04-21T11:43:31Z</time>
      </trkpt>
      <trkpt lat="44.32792" lon="3.00072">
        <ele>789</ele>
        <time>2013-04-21T11:43:34Z</time>
      </trkpt>
      <trkpt lat="44.32803" lon="3.00062">
        <ele>789</ele>
        <time>2013-04-21T11:43:37Z</time>
      </trkpt>
      <trkpt lat="44.32811" lon="3.00056">
        <ele>789</ele>
        <time>2013-04-21T11:43:39Z</time>
      </trkpt>
      <trkpt lat="44.32819" lon="3.0005">
        <ele>788</ele>
        <time>2013-04-21T11:43:41Z</time>
      </trkpt>
      <trkpt lat="44.32827" lon="3.00044">
        <ele>788</ele>
        <time>2013-04-21T11:43:43Z</time>
      </trkpt>
      <trkpt lat="44.32836" lon="3.00038">
        <ele>786</ele>
        <time>2013-04-21T11:43:45Z</time>
      </trkpt>
      <trkpt lat="44.32846" lon="3.00031">
        <ele>786</ele>
        <time>2013-04-21T11:43:48Z</time>
      </trkpt>
      <trkpt lat="44.32855" lon="3.00025">
        <ele>786</ele>
        <time>2013-04-21T11:43:52Z</time>
      </trkpt>
      <trkpt lat="44.32864" lon="3.00021">
        <ele>787</ele>
        <time>2013-04-21T11:43:56Z</time>
      </trkpt>
      <trkpt lat="44.32871" lon="3.00018">
        <ele>788</ele>
        <time>2013-04-21T11:43:59Z</time>
      </trkpt>
      <trkpt lat="44.32879" lon="3.00013">
        <ele>788</ele>
        <time>2013-04-21T11:44:03Z</time>
      </trkpt>
      <trkpt lat="44.32884" lon="3.00011">
        <ele>789</ele>
        <time>2013-04-21T11:44:06Z</time>
      </trkpt>
      <trkpt lat="44.3289" lon="3.00005">
        <ele>790</ele>
        <time>2013-04-21T11:44:10Z</time>
      </trkpt>
      <trkpt lat="44.32894" lon="3.00001">
        <ele>790</ele>
        <time>2013-04-21T11:44:13Z</time>
      </trkpt>
      <trkpt lat="44.32899" lon="2.99997">
        <ele>790</ele>
        <time>2013-04-21T11:44:16Z</time>
      </trkpt>
      <trkpt lat="44.32904" lon="2.99994">
        <ele>789</ele>
        <time>2013-04-21T11:44:20Z</time>
      </trkpt>
      <trkpt lat="44.32913" lon="2.9999">
        <ele>789</ele>
        <time>2013-04-21T11:44:26Z</time>
      </trkpt>
      <trkpt lat="44.32918" lon="2.99979">
        <ele>788</ele>
        <time>2013-04-21T11:44:32Z</time>
      </trkpt>
      <trkpt lat="44.32923" lon="2.99969">
        <ele>787</ele>
        <time>2013-04-21T11:44:38Z</time>
      </trkpt>
      <trkpt lat="44.32929" lon="2.99958">
        <ele>785</ele>
        <time>2013-04-21T11:44:44Z</time>
      </trkpt>
      <trkpt lat="44.32933" lon="2.9995">
        <ele>785</ele>
        <time>2013-04-21T11:44:48Z</time>
      </trkpt>
      <trkpt lat="44.32935" lon="2.99944">
        <ele>784</ele>
        <time>2013-04-21T11:44:51Z</time>
      </trkpt>
      <trkpt lat="44.32937" lon="2.99937">
        <ele>784</ele>
        <time>2013-04-21T11:44:54Z</time>
      </trkpt>
      <trkpt lat="44.32943" lon="2.99926">
        <ele>784</ele>
        <time>2013-04-21T11:45:00Z</time>
      </trkpt>
      <trkpt lat="44.32947" lon="2.99918">
        <ele>784</ele>
        <time>2013-04-21T11:45:03Z</time>
      </trkpt>
      <trkpt lat="44.32952" lon="2.99907">
        <ele>784</ele>
        <time>2013-04-21T11:45:08Z</time>
      </trkpt>
      <trkpt lat="44.32956" lon="2.99901">
        <ele>784</ele>
        <time>2013-04-21T11:45:11Z</time>
      </trkpt>
      <trkpt lat="44.32963" lon="2.99887">
        <ele>787</ele>
        <time>2013-04-21T11:45:22Z</time>
      </trkpt>
      <trkpt lat="44.32967" lon="2.99881">
        <ele>787</ele>
        <time>2013-04-21T11:45:35Z</time>
      </trkpt>
      <trkpt lat="44.32971" lon="2.99872">
        <ele>785</ele>
        <time>2013-04-21T11:45:57Z</time>
      </trkpt>
      <trkpt lat="44.3297" lon="2.99864">
        <ele>785</ele>
        <time>2013-04-21T11:46:03Z</time>
      </trkpt>
      <trkpt lat="44.32975" lon="2.99852">
        <ele>788</ele>
        <time>2013-04-21T11:46:19Z</time>
      </trkpt>
      <trkpt lat="44.32977" lon="2.99842">
        <ele>787</ele>
        <time>2013-04-21T11:46:24Z</time>
      </trkpt>
      <trkpt lat="44.3298" lon="2.99836">
        <ele>786</ele>
        <time>2013-04-21T11:46:27Z</time>
      </trkpt>
      <trkpt lat="44.32984" lon="2.99827">
        <ele>786</ele>
        <time>2013-04-21T11:46:32Z</time>
      </trkpt>
      <trkpt lat="44.32987" lon="2.99821">
        <ele>786</ele>
        <time>2013-04-21T11:46:35Z</time>
      </trkpt>
      <trkpt lat="44.32989" lon="2.99815">
        <ele>786</ele>
        <time>2013-04-21T11:46:38Z</time>
      </trkpt>
      <trkpt lat="44.32991" lon="2.99808">
        <ele>786</ele>
        <time>2013-04-21T11:46:41Z</time>
      </trkpt>
      <trkpt lat="44.32994" lon="2.998">
        <ele>787</ele>
        <time>2013-04-21T11:46:45Z</time>
      </trkpt>
      <trkpt lat="44.32999" lon="2.99788">
        <ele>786</ele>
        <time>2013-04-21T11:46:50Z</time>
      </trkpt>
      <trkpt lat="44.33002" lon="2.99782">
        <ele>786</ele>
        <time>2013-04-21T11:46:53Z</time>
      </trkpt>
      <trkpt lat="44.33005" lon="2.99776">
        <ele>787</ele>
        <time>2013-04-21T11:46:57Z</time>
      </trkpt>
      <trkpt lat="44.33008" lon="2.99768">
        <ele>788</ele>
        <time>2013-04-21T11:47:01Z</time>
      </trkpt>
      <trkpt lat="44.33013" lon="2.99757">
        <ele>788</ele>
        <time>2013-04-21T11:47:10Z</time>
      </trkpt>
      <trkpt lat="44.3302" lon="2.99749">
        <ele>787</ele>
        <time>2013-04-21T11:47:16Z</time>
      </trkpt>
      <trkpt lat="44.33027" lon="2.99741">
        <ele>787</ele>
        <time>2013-04-21T11:47:22Z</time>
      </trkpt>
      <trkpt lat="44.33035" lon="2.9973">
        <ele>787</ele>
        <time>2013-04-21T11:47:28Z</time>
      </trkpt>
      <trkpt lat="44.33042" lon="2.99722">
        <ele>787</ele>
        <time>2013-04-21T11:47:32Z</time>
      </trkpt>
      <trkpt lat="44.33046" lon="2.99716">
        <ele>787</ele>
        <time>2013-04-21T11:47:36Z</time>
      </trkpt>
      <trkpt lat="44.33049" lon="2.9971">
        <ele>788</ele>
        <time>2013-04-21T11:47:40Z</time>
      </trkpt>
      <trkpt lat="44.33051" lon="2.99703">
        <ele>788</ele>
        <time>2013-04-21T11:47:44Z</time>
      </trkpt>
      <trkpt lat="44.33051" lon="2.99696">
        <ele>788</ele>
        <time>2013-04-21T11:47:50Z</time>
      </trkpt>
      <trkpt lat="44.33049" lon="2.99684">
        <ele>788</ele>
        <time>2013-04-21T11:47:58Z</time>
      </trkpt>
      <trkpt lat="44.33045" lon="2.99671">
        <ele>786</ele>
        <time>2013-04-21T11:48:04Z</time>
      </trkpt>
      <trkpt lat="44.33043" lon="2.99656">
        <ele>785</ele>
        <time>2013-04-21T11:48:11Z</time>
      </trkpt>
      <trkpt lat="44.33044" lon="2.99641">
        <ele>785</ele>
        <time>2013-04-21T11:48:16Z</time>
      </trkpt>
      <trkpt lat="44.33047" lon="2.99623">
        <ele>784</ele>
        <time>2013-04-21T11:48:19Z</time>
      </trkpt>
      <trkpt lat="44.33049" lon="2.9961">
        <ele>783</ele>
        <time>2013-04-21T11:48:21Z</time>
      </trkpt>
      <trkpt lat="44.33052" lon="2.99597">
        <ele>783</ele>
        <time>2013-04-21T11:48:23Z</time>
      </trkpt>
      <trkpt lat="44.33054" lon="2.99583">
        <ele>782</ele>
        <time>2013-04-21T11:48:25Z</time>
      </trkpt>
      <trkpt lat="44.33061" lon="2.99566">
        <ele>782</ele>
        <time>2013-04-21T11:48:28Z</time>
      </trkpt>
      <trkpt lat="44.33067" lon="2.9955">
        <ele>781</ele>
        <time>2013-04-21T11:48:30Z</time>
      </trkpt>
      <trkpt lat="44.33075" lon="2.99538">
        <ele>782</ele>
        <time>2013-04-21T11:48:32Z</time>
      </trkpt>
      <trkpt lat="44.33085" lon="2.99528">
        <ele>782</ele>
        <time>2013-04-21T11:48:34Z</time>
      </trkpt>
      <trkpt lat="44.33093" lon="2.99519">
        <ele>782</ele>
        <time>2013-04-21T11:48:36Z</time>
      </trkpt>
      <trkpt lat="44.33101" lon="2.9951">
        <ele>782</ele>
        <time>2013-04-21T11:48:38Z</time>
      </trkpt>
      <trkpt lat="44.3311" lon="2.99502">
        <ele>781</ele>
        <time>2013-04-21T11:48:40Z</time>
      </trkpt>
      <trkpt lat="44.33119" lon="2.99494">
        <ele>781</ele>
        <time>2013-04-21T11:48:42Z</time>
      </trkpt>
      <trkpt lat="44.33129" lon="2.99482">
        <ele>780</ele>
        <time>2013-04-21T11:48:45Z</time>
      </trkpt>
      <trkpt lat="44.33138" lon="2.9947">
        <ele>779</ele>
        <time>2013-04-21T11:48:47Z</time>
      </trkpt>
      <trkpt lat="44.33146" lon="2.99458">
        <ele>777</ele>
        <time>2013-04-21T11:48:49Z</time>
      </trkpt>
      <trkpt lat="44.33152" lon="2.99443">
        <ele>776</ele>
        <time>2013-04-21T11:48:51Z</time>
      </trkpt>
      <trkpt lat="44.33159" lon="2.9943">
        <ele>774</ele>
        <time>2013-04-21T11:48:53Z</time>
      </trkpt>
      <trkpt lat="44.33165" lon="2.99418">
        <ele>773</ele>
        <time>2013-04-21T11:48:55Z</time>
      </trkpt>
      <trkpt lat="44.3317" lon="2.99406">
        <ele>772</ele>
        <time>2013-04-21T11:48:57Z</time>
      </trkpt>
      <trkpt lat="44.33174" lon="2.99395">
        <ele>772</ele>
        <time>2013-04-21T11:48:59Z</time>
      </trkpt>
      <trkpt lat="44.33179" lon="2.9938">
        <ele>771</ele>
        <time>2013-04-21T11:49:01Z</time>
      </trkpt>
      <trkpt lat="44.33183" lon="2.99367">
        <ele>771</ele>
        <time>2013-04-21T11:49:03Z</time>
      </trkpt>
      <trkpt lat="44.33188" lon="2.99349">
        <ele>770</ele>
        <time>2013-04-21T11:49:05Z</time>
      </trkpt>
      <trkpt lat="44.33191" lon="2.99327">
        <ele>770</ele>
        <time>2013-04-21T11:49:07Z</time>
      </trkpt>
      <trkpt lat="44.33196" lon="2.99308">
        <ele>770</ele>
        <time>2013-04-21T11:49:09Z</time>
      </trkpt>
      <trkpt lat="44.33201" lon="2.9929">
        <ele>770</ele>
        <time>2013-04-21T11:49:11Z</time>
      </trkpt>
      <trkpt lat="44.33205" lon="2.99272">
        <ele>770</ele>
        <time>2013-04-21T11:49:13Z</time>
      </trkpt>
      <trkpt lat="44.3321" lon="2.99254">
        <ele>770</ele>
        <time>2013-04-21T11:49:15Z</time>
      </trkpt>
      <trkpt lat="44.33215" lon="2.99237">
        <ele>771</ele>
        <time>2013-04-21T11:49:17Z</time>
      </trkpt>
      <trkpt lat="44.33221" lon="2.99218">
        <ele>773</ele>
        <time>2013-04-21T11:49:19Z</time>
      </trkpt>
      <trkpt lat="44.33227" lon="2.99198">
        <ele>774</ele>
        <time>2013-04-21T11:49:21Z</time>
      </trkpt>
      <trkpt lat="44.33234" lon="2.99178">
        <ele>776</ele>
        <time>2013-04-21T11:49:23Z</time>
      </trkpt>
      <trkpt lat="44.3324" lon="2.9916">
        <ele>778</ele>
        <time>2013-04-21T11:49:25Z</time>
      </trkpt>
      <trkpt lat="44.33247" lon="2.99143">
        <ele>781</ele>
        <time>2013-04-21T11:49:27Z</time>
      </trkpt>
      <trkpt lat="44.33254" lon="2.99128">
        <ele>782</ele>
        <time>2013-04-21T11:49:29Z</time>
      </trkpt>
      <trkpt lat="44.33259" lon="2.99115">
        <ele>784</ele>
        <time>2013-04-21T11:49:31Z</time>
      </trkpt>
      <trkpt lat="44.33266" lon="2.99101">
        <ele>785</ele>
        <time>2013-04-21T11:49:34Z</time>
      </trkpt>
      <trkpt lat="44.33272" lon="2.99087">
        <ele>786</ele>
        <time>2013-04-21T11:49:37Z</time>
      </trkpt>
      <trkpt lat="44.33278" lon="2.99076">
        <ele>786</ele>
        <time>2013-04-21T11:49:41Z</time>
      </trkpt>
      <trkpt lat="44.33284" lon="2.99066">
        <ele>787</ele>
        <time>2013-04-21T11:49:46Z</time>
      </trkpt>
      <trkpt lat="44.33291" lon="2.99057">
        <ele>788</ele>
        <time>2013-04-21T11:49:51Z</time>
      </trkpt>
      <trkpt lat="44.33294" lon="2.99052">
        <ele>788</ele>
        <time>2013-04-21T11:49:54Z</time>
      </trkpt>
      <trkpt lat="44.33297" lon="2.99047">
        <ele>789</ele>
        <time>2013-04-21T11:49:57Z</time>
      </trkpt>
      <trkpt lat="44.33301" lon="2.99043">
        <ele>789</ele>
        <time>2013-04-21T11:50:00Z</time>
      </trkpt>
      <trkpt lat="44.33308" lon="2.99033">
        <ele>789</ele>
        <time>2013-04-21T11:50:06Z</time>
      </trkpt>
      <trkpt lat="44.33311" lon="2.99026">
        <ele>789</ele>
        <time>2013-04-21T11:50:09Z</time>
      </trkpt>
      <trkpt lat="44.33316" lon="2.99015">
        <ele>787</ele>
        <time>2013-04-21T11:50:14Z</time>
      </trkpt>
      <trkpt lat="44.33319" lon="2.99009">
        <ele>787</ele>
        <time>2013-04-21T11:50:17Z</time>
      </trkpt>
      <trkpt lat="44.33322" lon="2.99001">
        <ele>785</ele>
        <time>2013-04-21T11:50:20Z</time>
      </trkpt>
      <trkpt lat="44.33329" lon="2.9899">
        <ele>784</ele>
        <time>2013-04-21T11:50:26Z</time>
      </trkpt>
      <trkpt lat="44.33332" lon="2.98985">
        <ele>785</ele>
        <time>2013-04-21T11:50:28Z</time>
      </trkpt>
      <trkpt lat="44.33335" lon="2.98978">
        <ele>784</ele>
        <time>2013-04-21T11:50:31Z</time>
      </trkpt>
      <trkpt lat="44.33341" lon="2.98968">
        <ele>784</ele>
        <time>2013-04-21T11:50:36Z</time>
      </trkpt>
      <trkpt lat="44.33345" lon="2.98963">
        <ele>785</ele>
        <time>2013-04-21T11:50:39Z</time>
      </trkpt>
      <trkpt lat="44.33348" lon="2.98957">
        <ele>786</ele>
        <time>2013-04-21T11:50:43Z</time>
      </trkpt>
      <trkpt lat="44.3335" lon="2.9895">
        <ele>786</ele>
        <time>2013-04-21T11:50:46Z</time>
      </trkpt>
      <trkpt lat="44.33356" lon="2.9894">
        <ele>785</ele>
        <time>2013-04-21T11:50:51Z</time>
      </trkpt>
      <trkpt lat="44.3336" lon="2.98932">
        <ele>783</ele>
        <time>2013-04-21T11:50:55Z</time>
      </trkpt>
      <trkpt lat="44.33362" lon="2.98919">
        <ele>779</ele>
        <time>2013-04-21T11:51:03Z</time>
      </trkpt>
      <trkpt lat="44.33364" lon="2.98904">
        <ele>776</ele>
        <time>2013-04-21T11:51:10Z</time>
      </trkpt>
      <trkpt lat="44.33366" lon="2.98889">
        <ele>775</ele>
        <time>2013-04-21T11:51:15Z</time>
      </trkpt>
      <trkpt lat="44.33369" lon="2.98876">
        <ele>774</ele>
        <time>2013-04-21T11:51:19Z</time>
      </trkpt>
      <trkpt lat="44.33373" lon="2.98863">
        <ele>773</ele>
        <time>2013-04-21T11:51:24Z</time>
      </trkpt>
      <trkpt lat="44.33377" lon="2.98852">
        <ele>774</ele>
        <time>2013-04-21T11:51:29Z</time>
      </trkpt>
      <trkpt lat="44.33379" lon="2.98846">
        <ele>774</ele>
        <time>2013-04-21T11:51:32Z</time>
      </trkpt>
      <trkpt lat="44.33383" lon="2.9884">
        <ele>774</ele>
        <time>2013-04-21T11:51:35Z</time>
      </trkpt>
      <trkpt lat="44.33389" lon="2.98828">
        <ele>774</ele>
        <time>2013-04-21T11:51:40Z</time>
      </trkpt>
      <trkpt lat="44.33393" lon="2.98817">
        <ele>772</ele>
        <time>2013-04-21T11:51:46Z</time>
      </trkpt>
      <trkpt lat="44.33397" lon="2.98805">
        <ele>770</ele>
        <time>2013-04-21T11:51:53Z</time>
      </trkpt>
      <trkpt lat="44.33402" lon="2.98792">
        <ele>768</ele>
        <time>2013-04-21T11:51:59Z</time>
      </trkpt>
      <trkpt lat="44.33405" lon="2.98777">
        <ele>764</ele>
        <time>2013-04-21T11:52:04Z</time>
      </trkpt>
      <trkpt lat="44.33407" lon="2.98764">
        <ele>763</ele>
        <time>2013-04-21T11:52:09Z</time>
      </trkpt>
      <trkpt lat="44.3341" lon="2.98752">
        <ele>762</ele>
        <time>2013-04-21T11:52:13Z</time>
      </trkpt>
      <trkpt lat="44.33414" lon="2.98739">
        <ele>763</ele>
        <time>2013-04-21T11:52:18Z</time>
      </trkpt>
      <trkpt lat="44.33418" lon="2.98725">
        <ele>763</ele>
        <time>2013-04-21T11:52:24Z</time>
      </trkpt>
      <trkpt lat="44.33422" lon="2.98712">
        <ele>763</ele>
        <time>2013-04-21T11:52:30Z</time>
      </trkpt>
      <trkpt lat="44.33427" lon="2.98701">
        <ele>763</ele>
        <time>2013-04-21T11:52:35Z</time>
      </trkpt>
      <trkpt lat="44.33431" lon="2.9869">
        <ele>763</ele>
        <time>2013-04-21T11:52:40Z</time>
      </trkpt>
      <trkpt lat="44.33436" lon="2.98678">
        <ele>763</ele>
        <time>2013-04-21T11:52:45Z</time>
      </trkpt>
      <trkpt lat="44.33442" lon="2.98668">
        <ele>763</ele>
        <time>2013-04-21T11:52:51Z</time>
      </trkpt>
      <trkpt lat="44.33451" lon="2.98659">
        <ele>762</ele>
        <time>2013-04-21T11:52:56Z</time>
      </trkpt>
      <trkpt lat="44.3346" lon="2.98653">
        <ele>761</ele>
        <time>2013-04-21T11:53:01Z</time>
      </trkpt>
      <trkpt lat="44.33468" lon="2.98645">
        <ele>760</ele>
        <time>2013-04-21T11:53:06Z</time>
      </trkpt>
      <trkpt lat="44.33477" lon="2.98639">
        <ele>759</ele>
        <time>2013-04-21T11:53:11Z</time>
      </trkpt>
      <trkpt lat="44.33485" lon="2.9863">
        <ele>757</ele>
        <time>2013-04-21T11:53:17Z</time>
      </trkpt>
      <trkpt lat="44.33493" lon="2.98622">
        <ele>756</ele>
        <time>2013-04-21T11:53:23Z</time>
      </trkpt>
      <trkpt lat="44.33501" lon="2.98615">
        <ele>754</ele>
        <time>2013-04-21T11:53:28Z</time>
      </trkpt>
      <trkpt lat="44.33508" lon="2.98605">
        <ele>753</ele>
        <time>2013-04-21T11:53:33Z</time>
      </trkpt>
      <trkpt lat="44.33514" lon="2.98596">
        <ele>751</ele>
        <time>2013-04-21T11:53:38Z</time>
      </trkpt>
      <trkpt lat="44.33523" lon="2.98587">
        <ele>749</ele>
        <time>2013-04-21T11:53:44Z</time>
      </trkpt>
      <trkpt lat="44.33531" lon="2.9858">
        <ele>747</ele>
        <time>2013-04-21T11:53:49Z</time>
      </trkpt>
      <trkpt lat="44.33539" lon="2.98573">
        <ele>745</ele>
        <time>2013-04-21T11:53:54Z</time>
      </trkpt>
      <trkpt lat="44.33546" lon="2.98564">
        <ele>742</ele>
        <time>2013-04-21T11:54:00Z</time>
      </trkpt>
      <trkpt lat="44.33554" lon="2.98557">
        <ele>740</ele>
        <time>2013-04-21T11:54:06Z</time>
      </trkpt>
      <trkpt lat="44.33564" lon="2.98552">
        <ele>737</ele>
        <time>2013-04-21T11:54:16Z</time>
      </trkpt>
      <trkpt lat="44.33572" lon="2.98545">
        <ele>736</ele>
        <time>2013-04-21T11:54:22Z</time>
      </trkpt>
      <trkpt lat="44.33582" lon="2.98539">
        <ele>733</ele>
        <time>2013-04-21T11:54:28Z</time>
      </trkpt>
      <trkpt lat="44.33591" lon="2.98532">
        <ele>731</ele>
        <time>2013-04-21T11:54:35Z</time>
      </trkpt>
      <trkpt lat="44.33597" lon="2.98527">
        <ele>729</ele>
        <time>2013-04-21T11:54:40Z</time>
      </trkpt>
      <trkpt lat="44.33602" lon="2.98524">
        <ele>728</ele>
        <time>2013-04-21T11:54:43Z</time>
      </trkpt>
      <trkpt lat="44.33606" lon="2.98522">
        <ele>727</ele>
        <time>2013-04-21T11:54:46Z</time>
      </trkpt>
      <trkpt lat="44.33615" lon="2.98518">
        <ele>725</ele>
        <time>2013-04-21T11:54:52Z</time>
      </trkpt>
      <trkpt lat="44.3362" lon="2.98516">
        <ele>723</ele>
        <time>2013-04-21T11:54:55Z</time>
      </trkpt>
      <trkpt lat="44.33625" lon="2.98512">
        <ele>723</ele>
        <time>2013-04-21T11:54:58Z</time>
      </trkpt>
      <trkpt lat="44.33634" lon="2.98505">
        <ele>721</ele>
        <time>2013-04-21T11:55:05Z</time>
      </trkpt>
      <trkpt lat="44.33644" lon="2.98499">
        <ele>720</ele>
        <time>2013-04-21T11:55:10Z</time>
      </trkpt>
      <trkpt lat="44.33653" lon="2.98493">
        <ele>720</ele>
        <time>2013-04-21T11:55:16Z</time>
      </trkpt>
      <trkpt lat="44.33661" lon="2.98485">
        <ele>720</ele>
        <time>2013-04-21T11:55:21Z</time>
      </trkpt>
      <trkpt lat="44.33668" lon="2.98481">
        <ele>719</ele>
        <time>2013-04-21T11:55:26Z</time>
      </trkpt>
      <trkpt lat="44.33672" lon="2.98478">
        <ele>718</ele>
        <time>2013-04-21T11:55:29Z</time>
      </trkpt>
      <trkpt lat="44.33677" lon="2.98476">
        <ele>717</ele>
        <time>2013-04-21T11:55:32Z</time>
      </trkpt>
      <trkpt lat="44.33687" lon="2.98471">
        <ele>716</ele>
        <time>2013-04-21T11:55:39Z</time>
      </trkpt>
      <trkpt lat="44.33697" lon="2.98465">
        <ele>716</ele>
        <time>2013-04-21T11:55:44Z</time>
      </trkpt>
      <trkpt lat="44.33706" lon="2.98457">
        <ele>717</ele>
        <time>2013-04-21T11:55:49Z</time>
      </trkpt>
      <trkpt lat="44.33709" lon="2.98452">
        <ele>717</ele>
        <time>2013-04-21T11:55:52Z</time>
      </trkpt>
      <trkpt lat="44.33713" lon="2.98446">
        <ele>717</ele>
        <time>2013-04-21T11:55:55Z</time>
      </trkpt>
      <trkpt lat="44.33717" lon="2.9844">
        <ele>717</ele>
        <time>2013-04-21T11:55:58Z</time>
      </trkpt>
      <trkpt lat="44.3372" lon="2.98434">
        <ele>717</ele>
        <time>2013-04-21T11:56:01Z</time>
      </trkpt>
      <trkpt lat="44.33723" lon="2.98428">
        <ele>717</ele>
        <time>2013-04-21T11:56:04Z</time>
      </trkpt>
      <trkpt lat="44.33727" lon="2.98421">
        <ele>717</ele>
        <time>2013-04-21T11:56:07Z</time>
      </trkpt>
      <trkpt lat="44.3373" lon="2.98415">
        <ele>717</ele>
        <time>2013-04-21T11:56:10Z</time>
      </trkpt>
      <trkpt lat="44.33734" lon="2.98408">
        <ele>716</ele>
        <time>2013-04-21T11:56:13Z</time>
      </trkpt>
      <trkpt lat="44.33739" lon="2.98402">
        <ele>716</ele>
        <time>2013-04-21T11:56:17Z</time>
      </trkpt>
      <trkpt lat="44.33743" lon="2.98397">
        <ele>716</ele>
        <time>2013-04-21T11:56:20Z</time>
      </trkpt>
      <trkpt lat="44.33747" lon="2.98391">
        <ele>716</ele>
        <time>2013-04-21T11:56:23Z</time>
      </trkpt>
      <trkpt lat="44.3375" lon="2.98385">
        <ele>716</ele>
        <time>2013-04-21T11:56:26Z</time>
      </trkpt>
      <trkpt lat="44.33753" lon="2.9838">
        <ele>715</ele>
        <time>2013-04-21T11:56:29Z</time>
      </trkpt>
      <trkpt lat="44.33759" lon="2.98369">
        <ele>715</ele>
        <time>2013-04-21T11:56:39Z</time>
      </trkpt>
      <trkpt lat="44.33762" lon="2.98364">
        <ele>715</ele>
        <time>2013-04-21T11:56:42Z</time>
      </trkpt>
      <trkpt lat="44.33766" lon="2.9836">
        <ele>715</ele>
        <time>2013-04-21T11:56:45Z</time>
      </trkpt>
      <trkpt lat="44.3377" lon="2.98356">
        <ele>715</ele>
        <time>2013-04-21T11:56:48Z</time>
      </trkpt>
      <trkpt lat="44.33774" lon="2.98351">
        <ele>714</ele>
        <time>2013-04-21T11:56:52Z</time>
      </trkpt>
      <trkpt lat="44.33778" lon="2.98347">
        <ele>714</ele>
        <time>2013-04-21T11:56:56Z</time>
      </trkpt>
      <trkpt lat="44.33784" lon="2.98341">
        <ele>714</ele>
        <time>2013-04-21T11:57:01Z</time>
      </trkpt>
      <trkpt lat="44.33789" lon="2.98337">
        <ele>714</ele>
        <time>2013-04-21T11:57:04Z</time>
      </trkpt>
      <trkpt lat="44.33794" lon="2.98332">
        <ele>713</ele>
        <time>2013-04-21T11:57:07Z</time>
      </trkpt>
      <trkpt lat="44.33799" lon="2.98328">
        <ele>713</ele>
        <time>2013-04-21T11:57:10Z</time>
      </trkpt>
      <trkpt lat="44.33803" lon="2.98323">
        <ele>713</ele>
        <time>2013-04-21T11:57:13Z</time>
      </trkpt>
      <trkpt lat="44.33807" lon="2.98318">
        <ele>712</ele>
        <time>2013-04-21T11:57:16Z</time>
      </trkpt>
      <trkpt lat="44.3381" lon="2.98313">
        <ele>711</ele>
        <time>2013-04-21T11:57:20Z</time>
      </trkpt>
      <trkpt lat="44.33814" lon="2.98307">
        <ele>710</ele>
        <time>2013-04-21T11:57:24Z</time>
      </trkpt>
      <trkpt lat="44.33818" lon="2.98302">
        <ele>709</ele>
        <time>2013-04-21T11:57:27Z</time>
      </trkpt>
      <trkpt lat="44.33826" lon="2.98293">
        <ele>708</ele>
        <time>2013-04-21T11:57:33Z</time>
      </trkpt>
      <trkpt lat="44.33829" lon="2.98289">
        <ele>707</ele>
        <time>2013-04-21T11:57:37Z</time>
      </trkpt>
      <trkpt lat="44.33834" lon="2.98281">
        <ele>706</ele>
        <time>2013-04-21T11:57:41Z</time>
      </trkpt>
      <trkpt lat="44.33837" lon="2.98276">
        <ele>704</ele>
        <time>2013-04-21T11:57:45Z</time>
      </trkpt>
      <trkpt lat="44.33841" lon="2.9827">
        <ele>701</ele>
        <time>2013-04-21T11:57:49Z</time>
      </trkpt>
      <trkpt lat="44.33845" lon="2.98264">
        <ele>699</ele>
        <time>2013-04-21T11:57:53Z</time>
      </trkpt>
      <trkpt lat="44.33851" lon="2.98252">
        <ele>698</ele>
        <time>2013-04-21T11:58:00Z</time>
      </trkpt>
      <trkpt lat="44.33854" lon="2.98248">
        <ele>697</ele>
        <time>2013-04-21T11:58:03Z</time>
      </trkpt>
      <trkpt lat="44.33859" lon="2.98243">
        <ele>696</ele>
        <time>2013-04-21T11:58:06Z</time>
      </trkpt>
      <trkpt lat="44.33863" lon="2.98239">
        <ele>696</ele>
        <time>2013-04-21T11:58:08Z</time>
      </trkpt>
      <trkpt lat="44.3387" lon="2.98229">
        <ele>695</ele>
        <time>2013-04-21T11:58:13Z</time>
      </trkpt>
      <trkpt lat="44.33877" lon="2.98219">
        <ele>694</ele>
        <time>2013-04-21T11:58:18Z</time>
      </trkpt>
      <trkpt lat="44.33884" lon="2.98209">
        <ele>693</ele>
        <time>2013-04-21T11:58:24Z</time>
      </trkpt>
      <trkpt lat="44.33888" lon="2.982">
        <ele>693</ele>
        <time>2013-04-21T11:58:28Z</time>
      </trkpt>
      <trkpt lat="44.33892" lon="2.98195">
        <ele>693</ele>
        <time>2013-04-21T11:58:31Z</time>
      </trkpt>
      <trkpt lat="44.33894" lon="2.98189">
        <ele>693</ele>
        <time>2013-04-21T11:58:34Z</time>
      </trkpt>
      <trkpt lat="44.339" lon="2.98178">
        <ele>693</ele>
        <time>2013-04-21T11:58:42Z</time>
      </trkpt>
      <trkpt lat="44.33904" lon="2.98174">
        <ele>692</ele>
        <time>2013-04-21T11:58:46Z</time>
      </trkpt>
      <trkpt lat="44.3391" lon="2.98165">
        <ele>689</ele>
        <time>2013-04-21T11:58:54Z</time>
      </trkpt>
      <trkpt lat="44.33919" lon="2.98157">
        <ele>688</ele>
        <time>2013-04-21T11:58:59Z</time>
      </trkpt>
      <trkpt lat="44.33923" lon="2.98152">
        <ele>689</ele>
        <time>2013-04-21T11:59:02Z</time>
      </trkpt>
      <trkpt lat="44.33927" lon="2.98146">
        <ele>688</ele>
        <time>2013-04-21T11:59:05Z</time>
      </trkpt>
      <trkpt lat="44.33931" lon="2.9814">
        <ele>687</ele>
        <time>2013-04-21T11:59:08Z</time>
      </trkpt>
      <trkpt lat="44.33939" lon="2.9813">
        <ele>687</ele>
        <time>2013-04-21T11:59:14Z</time>
      </trkpt>
      <trkpt lat="44.33943" lon="2.98125">
        <ele>687</ele>
        <time>2013-04-21T11:59:17Z</time>
      </trkpt>
      <trkpt lat="44.33947" lon="2.9812">
        <ele>687</ele>
        <time>2013-04-21T11:59:20Z</time>
      </trkpt>
      <trkpt lat="44.33951" lon="2.98114">
        <ele>685</ele>
        <time>2013-04-21T11:59:23Z</time>
      </trkpt>
      <trkpt lat="44.33955" lon="2.98109">
        <ele>684</ele>
        <time>2013-04-21T11:59:26Z</time>
      </trkpt>
      <trkpt lat="44.33958" lon="2.98103">
        <ele>683</ele>
        <time>2013-04-21T11:59:29Z</time>
      </trkpt>
      <trkpt lat="44.33967" lon="2.98095">
        <ele>684</ele>
        <time>2013-04-21T11:59:35Z</time>
      </trkpt>
      <trkpt lat="44.33973" lon="2.98088">
        <ele>683</ele>
        <time>2013-04-21T11:59:40Z</time>
      </trkpt>
      <trkpt lat="44.33977" lon="2.9808">
        <ele>682</ele>
        <time>2013-04-21T11:59:44Z</time>
      </trkpt>
      <trkpt lat="44.33984" lon="2.98071">
        <ele>680</ele>
        <time>2013-04-21T11:59:51Z</time>
      </trkpt>
      <trkpt lat="44.3399" lon="2.98059">
        <ele>681</ele>
        <time>2013-04-21T11:59:59Z</time>
      </trkpt>
      <trkpt lat="44.33998" lon="2.98051">
        <ele>681</ele>
        <time>2013-04-21T12:00:04Z</time>
      </trkpt>
      <trkpt lat="44.34007" lon="2.98043">
        <ele>681</ele>
        <time>2013-04-21T12:00:09Z</time>
      </trkpt>
      <trkpt lat="44.34017" lon="2.98038">
        <ele>679</ele>
        <time>2013-04-21T12:00:17Z</time>
      </trkpt>
      <trkpt lat="44.34027" lon="2.98032">
        <ele>680</ele>
        <time>2013-04-21T12:00:22Z</time>
      </trkpt>
      <trkpt lat="44.34035" lon="2.98026">
        <ele>681</ele>
        <time>2013-04-21T12:00:28Z</time>
      </trkpt>
      <trkpt lat="44.34043" lon="2.9802">
        <ele>681</ele>
        <time>2013-04-21T12:00:33Z</time>
      </trkpt>
      <trkpt lat="44.34051" lon="2.98014">
        <ele>682</ele>
        <time>2013-04-21T12:00:38Z</time>
      </trkpt>
      <trkpt lat="44.34056" lon="2.98008">
        <ele>682</ele>
        <time>2013-04-21T12:00:41Z</time>
      </trkpt>
      <trkpt lat="44.3406" lon="2.98005">
        <ele>682</ele>
        <time>2013-04-21T12:00:43Z</time>
      </trkpt>
      <trkpt lat="44.34068" lon="2.97999">
        <ele>681</ele>
        <time>2013-04-21T12:00:48Z</time>
      </trkpt>
      <trkpt lat="44.34073" lon="2.97994">
        <ele>680</ele>
        <time>2013-04-21T12:00:52Z</time>
      </trkpt>
      <trkpt lat="44.34081" lon="2.97986">
        <ele>679</ele>
        <time>2013-04-21T12:00:59Z</time>
      </trkpt>
      <trkpt lat="44.34088" lon="2.97981">
        <ele>680</ele>
        <time>2013-04-21T12:01:03Z</time>
      </trkpt>
      <trkpt lat="44.34092" lon="2.97978">
        <ele>679</ele>
        <time>2013-04-21T12:01:05Z</time>
      </trkpt>
      <trkpt lat="44.34101" lon="2.97971">
        <ele>677</ele>
        <time>2013-04-21T12:01:11Z</time>
      </trkpt>
      <trkpt lat="44.34109" lon="2.97964">
        <ele>675</ele>
        <time>2013-04-21T12:01:17Z</time>
      </trkpt>
      <trkpt lat="44.34117" lon="2.97957">
        <ele>674</ele>
        <time>2013-04-21T12:01:23Z</time>
      </trkpt>
      <trkpt lat="44.34127" lon="2.9795">
        <ele>672</ele>
        <time>2013-04-21T12:01:29Z</time>
      </trkpt>
      <trkpt lat="44.34136" lon="2.97947">
        <ele>670</ele>
        <time>2013-04-21T12:01:34Z</time>
      </trkpt>
      <trkpt lat="44.34144" lon="2.97944">
        <ele>668</ele>
        <time>2013-04-21T12:01:39Z</time>
      </trkpt>
      <trkpt lat="44.34155" lon="2.97941">
        <ele>667</ele>
        <time>2013-04-21T12:01:45Z</time>
      </trkpt>
      <trkpt lat="44.34166" lon="2.97938">
        <ele>666</ele>
        <time>2013-04-21T12:01:51Z</time>
      </trkpt>
      <trkpt lat="44.34175" lon="2.97935">
        <ele>665</ele>
        <time>2013-04-21T12:01:56Z</time>
      </trkpt>
      <trkpt lat="44.34185" lon="2.97931">
        <ele>664</ele>
        <time>2013-04-21T12:02:02Z</time>
      </trkpt>
      <trkpt lat="44.34193" lon="2.97923">
        <ele>662</ele>
        <time>2013-04-21T12:02:09Z</time>
      </trkpt>
      <trkpt lat="44.342" lon="2.97914">
        <ele>661</ele>
        <time>2013-04-21T12:02:15Z</time>
      </trkpt>
      <trkpt lat="44.34209" lon="2.97904">
        <ele>660</ele>
        <time>2013-04-21T12:02:20Z</time>
      </trkpt>
      <trkpt lat="44.34218" lon="2.97896">
        <ele>658</ele>
        <time>2013-04-21T12:02:26Z</time>
      </trkpt>
      <trkpt lat="44.34225" lon="2.9789">
        <ele>657</ele>
        <time>2013-04-21T12:02:30Z</time>
      </trkpt>
      <trkpt lat="44.34233" lon="2.97884">
        <ele>656</ele>
        <time>2013-04-21T12:02:35Z</time>
      </trkpt>
      <trkpt lat="44.34242" lon="2.97876">
        <ele>656</ele>
        <time>2013-04-21T12:02:41Z</time>
      </trkpt>
      <trkpt lat="44.3425" lon="2.97868">
        <ele>656</ele>
        <time>2013-04-21T12:02:46Z</time>
      </trkpt>
      <trkpt lat="44.34255" lon="2.97864">
        <ele>656</ele>
        <time>2013-04-21T12:02:49Z</time>
      </trkpt>
      <trkpt lat="44.34262" lon="2.97854">
        <ele>656</ele>
        <time>2013-04-21T12:02:55Z</time>
      </trkpt>
      <trkpt lat="44.34267" lon="2.97847">
        <ele>656</ele>
        <time>2013-04-21T12:02:58Z</time>
      </trkpt>
      <trkpt lat="44.3427" lon="2.97841">
        <ele>656</ele>
        <time>2013-04-21T12:03:01Z</time>
      </trkpt>
      <trkpt lat="44.34278" lon="2.97832">
        <ele>656</ele>
        <time>2013-04-21T12:03:07Z</time>
      </trkpt>
      <trkpt lat="44.34285" lon="2.97828">
        <ele>655</ele>
        <time>2013-04-21T12:03:12Z</time>
      </trkpt>
      <trkpt lat="44.34289" lon="2.97826">
        <ele>655</ele>
        <time>2013-04-21T12:03:15Z</time>
      </trkpt>
      <trkpt lat="44.34297" lon="2.9782">
        <ele>654</ele>
        <time>2013-04-21T12:03:20Z</time>
      </trkpt>
      <trkpt lat="44.34306" lon="2.97813">
        <ele>654</ele>
        <time>2013-04-21T12:03:26Z</time>
      </trkpt>
      <trkpt lat="44.34305" lon="2.97801">
        <ele>650</ele>
        <time>2013-04-21T12:03:39Z</time>
      </trkpt>
      <trkpt lat="44.34303" lon="2.97793">
        <ele>650</ele>
        <time>2013-04-21T12:03:42Z</time>
      </trkpt>
      <trkpt lat="44.34301" lon="2.97787">
        <ele>651</ele>
        <time>2013-04-21T12:03:45Z</time>
      </trkpt>
      <trkpt lat="44.343" lon="2.9778">
        <ele>653</ele>
        <time>2013-04-21T12:03:49Z</time>
      </trkpt>
      <trkpt lat="44.34297" lon="2.97774">
        <ele>653</ele>
        <time>2013-04-21T12:03:53Z</time>
      </trkpt>
      <trkpt lat="44.34295" lon="2.97768">
        <ele>653</ele>
        <time>2013-04-21T12:03:57Z</time>
      </trkpt>
      <trkpt lat="44.34292" lon="2.97761">
        <ele>653</ele>
        <time>2013-04-21T12:04:01Z</time>
      </trkpt>
      <trkpt lat="44.34289" lon="2.97755">
        <ele>653</ele>
        <time>2013-04-21T12:04:04Z</time>
      </trkpt>
      <trkpt lat="44.34286" lon="2.97748">
        <ele>653</ele>
        <time>2013-04-21T12:04:08Z</time>
      </trkpt>
      <trkpt lat="44.34283" lon="2.97742">
        <ele>653</ele>
        <time>2013-04-21T12:04:11Z</time>
      </trkpt>
      <trkpt lat="44.34281" lon="2.97736">
        <ele>652</ele>
        <time>2013-04-21T12:04:14Z</time>
      </trkpt>
      <trkpt lat="44.34275" lon="2.97724">
        <ele>653</ele>
        <time>2013-04-21T12:04:20Z</time>
      </trkpt>
      <trkpt lat="44.34274" lon="2.97717">
        <ele>652</ele>
        <time>2013-04-21T12:04:23Z</time>
      </trkpt>
      <trkpt lat="44.34273" lon="2.97709">
        <ele>652</ele>
        <time>2013-04-21T12:04:26Z</time>
      </trkpt>
      <trkpt lat="44.34271" lon="2.97702">
        <ele>651</ele>
        <time>2013-04-21T12:04:29Z</time>
      </trkpt>
      <trkpt lat="44.3427" lon="2.97695">
        <ele>651</ele>
        <time>2013-04-21T12:04:32Z</time>
      </trkpt>
      <trkpt lat="44.34269" lon="2.97688">
        <ele>651</ele>
        <time>2013-04-21T12:04:35Z</time>
      </trkpt>
      <trkpt lat="44.34268" lon="2.97681">
        <ele>651</ele>
        <time>2013-04-21T12:04:38Z</time>
      </trkpt>
      <trkpt lat="44.34267" lon="2.97675">
        <ele>651</ele>
        <time>2013-04-21T12:04:41Z</time>
      </trkpt>
      <trkpt lat="44.34267" lon="2.97668">
        <ele>651</ele>
        <time>2013-04-21T12:04:44Z</time>
      </trkpt>
      <trkpt lat="44.34266" lon="2.9766">
        <ele>651</ele>
        <time>2013-04-21T12:04:47Z</time>
      </trkpt>
      <trkpt lat="44.34264" lon="2.97652">
        <ele>651</ele>
        <time>2013-04-21T12:04:50Z</time>
      </trkpt>
      <trkpt lat="44.34263" lon="2.97645">
        <ele>651</ele>
        <time>2013-04-21T12:04:53Z</time>
      </trkpt>
      <trkpt lat="44.34262" lon="2.97638">
        <ele>652</ele>
        <time>2013-04-21T12:04:57Z</time>
      </trkpt>
      <trkpt lat="44.34261" lon="2.9763">
        <ele>653</ele>
        <time>2013-04-21T12:05:00Z</time>
      </trkpt>
      <trkpt lat="44.3426" lon="2.97623">
        <ele>653</ele>
        <time>2013-04-21T12:05:03Z</time>
      </trkpt>
      <trkpt lat="44.34259" lon="2.97616">
        <ele>654</ele>
        <time>2013-04-21T12:05:07Z</time>
      </trkpt>
      <trkpt lat="44.34258" lon="2.97603">
        <ele>654</ele>
        <time>2013-04-21T12:05:12Z</time>
      </trkpt>
      <trkpt lat="44.34257" lon="2.97595">
        <ele>653</ele>
        <time>2013-04-21T12:05:15Z</time>
      </trkpt>
      <trkpt lat="44.34254" lon="2.97588">
        <ele>654</ele>
        <time>2013-04-21T12:05:19Z</time>
      </trkpt>
      <trkpt lat="44.34252" lon="2.97578">
        <ele>654</ele>
        <time>2013-04-21T12:05:24Z</time>
      </trkpt>
      <trkpt lat="44.34251" lon="2.97572">
        <ele>655</ele>
        <time>2013-04-21T12:05:27Z</time>
      </trkpt>
      <trkpt lat="44.34249" lon="2.97556">
        <ele>657</ele>
        <time>2013-04-21T12:05:34Z</time>
      </trkpt>
      <trkpt lat="44.34248" lon="2.97548">
        <ele>657</ele>
        <time>2013-04-21T12:05:37Z</time>
      </trkpt>
      <trkpt lat="44.34247" lon="2.9754">
        <ele>655</ele>
        <time>2013-04-21T12:05:40Z</time>
      </trkpt>
      <trkpt lat="44.34247" lon="2.97533">
        <ele>654</ele>
        <time>2013-04-21T12:05:44Z</time>
      </trkpt>
      <trkpt lat="44.34247" lon="2.97524">
        <ele>654</ele>
        <time>2013-04-21T12:05:48Z</time>
      </trkpt>
      <trkpt lat="44.34247" lon="2.97517">
        <ele>654</ele>
        <time>2013-04-21T12:05:51Z</time>
      </trkpt>
      <trkpt lat="44.34246" lon="2.97511">
        <ele>654</ele>
        <time>2013-04-21T12:05:54Z</time>
      </trkpt>
      <trkpt lat="44.34243" lon="2.97505">
        <ele>652</ele>
        <time>2013-04-21T12:05:59Z</time>
      </trkpt>
      <trkpt lat="44.34238" lon="2.97507">
        <ele>653</ele>
        <time>2013-04-21T12:06:03Z</time>
      </trkpt>
      <trkpt lat="44.34233" lon="2.9751">
        <ele>653</ele>
        <time>2013-04-21T12:06:06Z</time>
      </trkpt>
      <trkpt lat="44.34225" lon="2.9751">
        <ele>652</ele>
        <time>2013-04-21T12:06:23Z</time>
      </trkpt>
      <trkpt lat="44.34218" lon="2.9751">
        <ele>652</ele>
        <time>2013-04-21T12:06:52Z</time>
      </trkpt>
      <trkpt lat="44.34214" lon="2.97514">
        <ele>654</ele>
        <time>2013-04-21T12:06:56Z</time>
      </trkpt>
      <trkpt lat="44.34209" lon="2.97517">
        <ele>655</ele>
        <time>2013-04-21T12:07:01Z</time>
      </trkpt>
      <trkpt lat="44.34205" lon="2.97518">
        <ele>654</ele>
        <time>2013-04-21T12:07:07Z</time>
      </trkpt>
      <trkpt lat="44.342" lon="2.97518">
        <ele>653</ele>
        <time>2013-04-21T12:07:12Z</time>
      </trkpt>
      <trkpt lat="44.34195" lon="2.97518">
        <ele>653</ele>
        <time>2013-04-21T12:07:18Z</time>
      </trkpt>
      <trkpt lat="44.3419" lon="2.97517">
        <ele>653</ele>
        <time>2013-04-21T12:07:22Z</time>
      </trkpt>
      <trkpt lat="44.34186" lon="2.97518">
        <ele>653</ele>
        <time>2013-04-21T12:07:26Z</time>
      </trkpt>
      <trkpt lat="44.3418" lon="2.97516">
        <ele>653</ele>
        <time>2013-04-21T12:07:31Z</time>
      </trkpt>
      <trkpt lat="44.34173" lon="2.97515">
        <ele>653</ele>
        <time>2013-04-21T12:07:38Z</time>
      </trkpt>
      <trkpt lat="44.34168" lon="2.97514">
        <ele>652</ele>
        <time>2013-04-21T12:07:43Z</time>
      </trkpt>
      <trkpt lat="44.34158" lon="2.97511">
        <ele>652</ele>
        <time>2013-04-21T12:07:53Z</time>
      </trkpt>
      <trkpt lat="44.34153" lon="2.97507">
        <ele>652</ele>
        <time>2013-04-21T12:07:57Z</time>
      </trkpt>
      <trkpt lat="44.34148" lon="2.97505">
        <ele>653</ele>
        <time>2013-04-21T12:08:01Z</time>
      </trkpt>
      <trkpt lat="44.34144" lon="2.97503">
        <ele>654</ele>
        <time>2013-04-21T12:08:06Z</time>
      </trkpt>
      <trkpt lat="44.34139" lon="2.97501">
        <ele>655</ele>
        <time>2013-04-21T12:08:10Z</time>
      </trkpt>
      <trkpt lat="44.34135" lon="2.97501">
        <ele>654</ele>
        <time>2013-04-21T12:08:13Z</time>
      </trkpt>
      <trkpt lat="44.34129" lon="2.975">
        <ele>654</ele>
        <time>2013-04-21T12:08:17Z</time>
      </trkpt>
      <trkpt lat="44.34125" lon="2.975">
        <ele>652</ele>
        <time>2013-04-21T12:08:22Z</time>
      </trkpt>
      <trkpt lat="44.34115" lon="2.97497">
        <ele>651</ele>
        <time>2013-04-21T12:08:31Z</time>
      </trkpt>
      <trkpt lat="44.34106" lon="2.97495">
        <ele>651</ele>
        <time>2013-04-21T12:08:39Z</time>
      </trkpt>
      <trkpt lat="44.34099" lon="2.97493">
        <ele>651</ele>
        <time>2013-04-21T12:08:43Z</time>
      </trkpt>
      <trkpt lat="44.34094" lon="2.9749">
        <ele>650</ele>
        <time>2013-04-21T12:08:46Z</time>
      </trkpt>
      <trkpt lat="44.3409" lon="2.97487">
        <ele>650</ele>
        <time>2013-04-21T12:08:49Z</time>
      </trkpt>
      <trkpt lat="44.34081" lon="2.97482">
        <ele>649</ele>
        <time>2013-04-21T12:08:56Z</time>
      </trkpt>
      <trkpt lat="44.34076" lon="2.9748">
        <ele>648</ele>
        <time>2013-04-21T12:08:59Z</time>
      </trkpt>
      <trkpt lat="44.34071" lon="2.97478">
        <ele>647</ele>
        <time>2013-04-21T12:09:03Z</time>
      </trkpt>
      <trkpt lat="44.34062" lon="2.97476">
        <ele>647</ele>
        <time>2013-04-21T12:09:09Z</time>
      </trkpt>
      <trkpt lat="44.34056" lon="2.97475">
        <ele>646</ele>
        <time>2013-04-21T12:09:13Z</time>
      </trkpt>
      <trkpt lat="44.34051" lon="2.97473">
        <ele>647</ele>
        <time>2013-04-21T12:09:17Z</time>
      </trkpt>
      <trkpt lat="44.34042" lon="2.97473">
        <ele>649</ele>
        <time>2013-04-21T12:09:23Z</time>
      </trkpt>
      <trkpt lat="44.34036" lon="2.97471">
        <ele>649</ele>
        <time>2013-04-21T12:09:27Z</time>
      </trkpt>
      <trkpt lat="44.34028" lon="2.97465">
        <ele>649</ele>
        <time>2013-04-21T12:09:33Z</time>
      </trkpt>
      <trkpt lat="44.34024" lon="2.97461">
        <ele>648</ele>
        <time>2013-04-21T12:09:36Z</time>
      </trkpt>
      <trkpt lat="44.34019" lon="2.97457">
        <ele>649</ele>
        <time>2013-04-21T12:09:40Z</time>
      </trkpt>
      <trkpt lat="44.34012" lon="2.97453">
        <ele>648</ele>
        <time>2013-04-21T12:09:45Z</time>
      </trkpt>
      <trkpt lat="44.34008" lon="2.97451">
        <ele>647</ele>
        <time>2013-04-21T12:09:49Z</time>
      </trkpt>
      <trkpt lat="44.33999" lon="2.97444">
        <ele>646</ele>
        <time>2013-04-21T12:09:57Z</time>
      </trkpt>
      <trkpt lat="44.33995" lon="2.97439">
        <ele>646</ele>
        <time>2013-04-21T12:10:00Z</time>
      </trkpt>
      <trkpt lat="44.33991" lon="2.97434">
        <ele>646</ele>
        <time>2013-04-21T12:10:04Z</time>
      </trkpt>
      <trkpt lat="44.33986" lon="2.97431">
        <ele>647</ele>
        <time>2013-04-21T12:10:08Z</time>
      </trkpt>
      <trkpt lat="44.33981" lon="2.97427">
        <ele>649</ele>
        <time>2013-04-21T12:10:12Z</time>
      </trkpt>
      <trkpt lat="44.33975" lon="2.97423">
        <ele>649</ele>
        <time>2013-04-21T12:10:17Z</time>
      </trkpt>
      <trkpt lat="44.3397" lon="2.97418">
        <ele>650</ele>
        <time>2013-04-21T12:10:21Z</time>
      </trkpt>
      <trkpt lat="44.33967" lon="2.97414">
        <ele>650</ele>
        <time>2013-04-21T12:10:24Z</time>
      </trkpt>
      <trkpt lat="44.33963" lon="2.9741">
        <ele>650</ele>
        <time>2013-04-21T12:10:27Z</time>
      </trkpt>
      <trkpt lat="44.33959" lon="2.97407">
        <ele>650</ele>
        <time>2013-04-21T12:10:30Z</time>
      </trkpt>
      <trkpt lat="44.33955" lon="2.97403">
        <ele>651</ele>
        <time>2013-04-21T12:10:34Z</time>
      </trkpt>
      <trkpt lat="44.3395" lon="2.97399">
        <ele>650</ele>
        <time>2013-04-21T12:10:39Z</time>
      </trkpt>
      <trkpt lat="44.33944" lon="2.97395">
        <ele>649</ele>
        <time>2013-04-21T12:10:45Z</time>
      </trkpt>
      <trkpt lat="44.3394" lon="2.97391">
        <ele>648</ele>
        <time>2013-04-21T12:10:49Z</time>
      </trkpt>
      <trkpt lat="44.33935" lon="2.97386">
        <ele>648</ele>
        <time>2013-04-21T12:10:53Z</time>
      </trkpt>
      <trkpt lat="44.33926" lon="2.97382">
        <ele>648</ele>
        <time>2013-04-21T12:11:02Z</time>
      </trkpt>
      <trkpt lat="44.33924" lon="2.97388">
        <ele>647</ele>
        <time>2013-04-21T12:11:06Z</time>
      </trkpt>
      <trkpt lat="44.33922" lon="2.97394">
        <ele>647</ele>
        <time>2013-04-21T12:11:09Z</time>
      </trkpt>
      <trkpt lat="44.33919" lon="2.974">
        <ele>646</ele>
        <time>2013-04-21T12:11:13Z</time>
      </trkpt>
      <trkpt lat="44.33914" lon="2.97413">
        <ele>645</ele>
        <time>2013-04-21T12:11:20Z</time>
      </trkpt>
      <trkpt lat="44.3391" lon="2.97424">
        <ele>644</ele>
        <time>2013-04-21T12:11:28Z</time>
      </trkpt>
      <trkpt lat="44.33908" lon="2.97431">
        <ele>644</ele>
        <time>2013-04-21T12:11:31Z</time>
      </trkpt>
      <trkpt lat="44.33907" lon="2.97438">
        <ele>644</ele>
        <time>2013-04-21T12:11:34Z</time>
      </trkpt>
      <trkpt lat="44.33906" lon="2.97444">
        <ele>645</ele>
        <time>2013-04-21T12:11:39Z</time>
      </trkpt>
      <trkpt lat="44.33898" lon="2.97451">
        <ele>646</ele>
        <time>2013-04-21T12:11:51Z</time>
      </trkpt>
      <trkpt lat="44.33894" lon="2.97455">
        <ele>644</ele>
        <time>2013-04-21T12:11:56Z</time>
      </trkpt>
      <trkpt lat="44.33888" lon="2.97458">
        <ele>646</ele>
        <time>2013-04-21T12:12:04Z</time>
      </trkpt>
      <trkpt lat="44.33882" lon="2.9746">
        <ele>646</ele>
        <time>2013-04-21T12:12:07Z</time>
      </trkpt>
      <trkpt lat="44.33877" lon="2.97459">
        <ele>647</ele>
        <time>2013-04-21T12:12:11Z</time>
      </trkpt>
      <trkpt lat="44.33873" lon="2.9746">
        <ele>646</ele>
        <time>2013-04-21T12:13:13Z</time>
      </trkpt>
      <trkpt lat="44.33871" lon="2.97461">
        <ele>647</ele>
        <time>2013-04-21T12:14:26Z</time>
      </trkpt>
      <trkpt lat="44.33874" lon="2.97451">
        <ele>646</ele>
        <time>2013-04-21T12:14:42Z</time>
      </trkpt>
      <trkpt lat="44.33877" lon="2.97446">
        <ele>645</ele>
        <time>2013-04-21T12:14:46Z</time>
      </trkpt>
      <trkpt lat="44.33879" lon="2.9744">
        <ele>644</ele>
        <time>2013-04-21T12:14:49Z</time>
      </trkpt>
    </trkseg>
  </trk>
</gpx>